Погода в Асино

 Дата/время   Температура   Влажность   Давление 
 2020-11-27 08:53:37  -15.6   79   773 
 2020-11-27 08:48:33  -15.6   79   773 
 2020-11-27 08:43:28  -15.6   81   773 
 2020-11-27 08:38:24  -15.5   81   773 
 2020-11-27 08:33:20  -15.5   81   773 
 2020-11-27 08:28:16  -15.8   82   773 
 2020-11-27 08:23:12  -15.9   83   773 
 2020-11-27 08:18:08  -16.0   84   773 
 2020-11-27 08:13:04  -16.1   84   773 
 2020-11-27 08:08:00  -16.1   83   773 
 2020-11-27 08:02:56  -16.2   83   773 
 2020-11-27 07:57:52  -16.2   83   773 
 2020-11-27 07:52:48  -16.1   83   773 
 2020-11-27 07:47:44  -16.0   83   773 
 2020-11-27 07:42:40  -16.1   83   773 
 2020-11-27 07:37:36  -16.1   83   773 
 2020-11-27 07:32:32  -16.1   83   773 
 2020-11-27 07:27:28  -16.2   82   773 
 2020-11-27 07:22:24  -15.9   82   773 
 2020-11-27 07:17:20  -15.9   82   773 
 2020-11-27 07:12:15  -15.7   81   773 
 2020-11-27 07:07:11  -15.4   79   773 
 2020-11-27 07:02:07  -15.4   79   773 
 2020-11-27 06:57:03  -15.4   80   773 
 2020-11-27 06:51:59  -15.7   81   773 
 2020-11-27 06:46:55  -15.7   81   773 
 2020-11-27 06:41:51  -15.4   80   773 
 2020-11-27 06:36:47  -15.2   80   773 
 2020-11-27 06:31:43  -15.4   81   773 
 2020-11-27 06:26:39  -15.2   81   773 
 2020-11-27 06:21:35  -15.3   82   773 
 2020-11-27 06:16:31  -15.6   82   773 
 2020-11-27 06:11:27  -15.3   82   773 
 2020-11-27 06:06:23  -15.4   82   773 
 2020-11-27 06:01:19  -15.2   82   773 
 2020-11-27 05:56:15  -15.3   83   773 
 2020-11-27 05:51:10  -15.6   83   773 
 2020-11-27 05:46:06  -15.2   82   773 
 2020-11-27 05:41:02  -15.2   83   773 
 2020-11-27 05:35:58  -15.4   81   773 
 2020-11-27 05:30:54  -15.2   81   773 
 2020-11-27 05:25:50  -15.1   81   773 
 2020-11-27 05:20:46  -15.1   80   773 
 2020-11-27 05:15:42  -15.1   81   773 
 2020-11-27 05:10:38  -15.0   80   773 
 2020-11-27 05:05:34  -14.9   80   773 
 2020-11-27 05:00:30  -15.0   82   773 
 2020-11-27 04:55:26  -15.2   83   773 
 2020-11-27 04:50:22  -15.5   82   773 
 2020-11-27 04:45:17  -15.4   81   773 
 2020-11-27 04:40:13  -15.0   79   773 
 2020-11-27 04:35:09  -15.0   81   773 
 2020-11-27 04:30:05  -15.1   81   773 
 2020-11-27 04:25:01  -15.2   82   773 
 2020-11-27 04:19:57  -15.1   81   773 
 2020-11-27 04:14:53  -15.2   80   773 
 2020-11-27 04:09:49  -15.0   79   773 
 2020-11-27 04:04:45  -14.8   78   773 
 2020-11-27 03:59:41  -14.6   77   773 
 2020-11-27 03:54:37  -14.6   77   773 
 2020-11-27 03:49:33  -14.2   79   773 
 2020-11-27 03:44:29  -14.4   79   773 
 2020-11-27 03:39:25  -14.1   78   773 
 2020-11-27 03:34:21  -13.6   81   773 
 2020-11-27 03:29:17  -13.8   83   773 
 2020-11-27 03:24:12  -14.3   82   773 
 2020-11-27 03:19:08  -14.8   78   773 
 2020-11-27 03:14:04  -14.3   75   773 
 2020-11-27 03:09:00  -13.9   77   773 
 2020-11-27 03:03:56  -13.4   79   773 
 2020-11-27 02:58:52  -12.9   78   773 
 2020-11-27 02:53:48  -12.9   81   773 
 2020-11-27 02:48:44  -12.7   81   773 
 2020-11-27 02:43:40  -12.6   80   773 
 2020-11-27 02:38:36  -12.5   82   773 
 2020-11-27 02:33:32  -12.6   82   773 
 2020-11-27 02:28:28  -12.9   83   773 
 2020-11-27 02:23:24  -13.2   82   773 
 2020-11-27 02:18:20  -13.5   81   773 
 2020-11-27 02:13:16  -13.6   81   773 
 2020-11-27 02:08:11  -14.0   81   773 
 2020-11-27 02:03:07  -13.7   79   773 
 2020-11-27 01:58:03  -13.8   81   773 
 2020-11-27 01:52:59  -14.1   82   773 
 2020-11-27 01:47:55  -14.1   81   773 
 2020-11-27 01:42:51  -13.9   80   773 
 2020-11-27 01:37:47  -13.8   80   773 
 2020-11-27 01:32:43  -13.9   80   773 
 2020-11-27 01:27:39  -13.7   79   773 
 2020-11-27 01:22:35  -13.5   80   773 
 2020-11-27 01:17:31  -13.6   80   773 
 2020-11-27 01:12:27  -13.4   80   773 
 2020-11-27 01:07:23  -13.5   80   773 
 2020-11-27 01:02:19  -13.6   80   773 
 2020-11-27 00:57:15  -13.8   80   773 
 2020-11-27 00:52:11  -13.7   80   773 
 2020-11-27 00:47:06  -14.0   80   774 
 2020-11-27 00:42:02  -13.7   78   774 
 2020-11-27 00:36:58  -13.9   79   774 
 2020-11-27 00:31:54  -13.9   78   774 
 2020-11-27 00:26:50  -13.6   78   774 
 2020-11-27 00:21:46  -13.2   76   774 
 2020-11-27 00:16:42  -12.6   76   774 
 2020-11-27 00:11:38  -12.2   78   774 
 2020-11-27 00:06:34  -11.4   81   774 
 2020-11-27 00:01:29  -11.4   82   774 
 2020-11-26 23:56:25  -11.4   82   774 
 2020-11-26 23:51:21  -11.4   82   774 
 2020-11-26 23:46:17  -11.5   83   774 
 2020-11-26 23:41:13  -11.2   82   774 
 2020-11-26 23:36:08  -11.4   82   774 
 2020-11-26 23:31:04  -11.4   82   774 
 2020-11-26 23:26:00  -11.4   83   774 
 2020-11-26 23:20:56  -11.8   82   774 
 2020-11-26 23:15:52  -11.8   83   774 
 2020-11-26 23:10:48  -12.0   82   774 
 2020-11-26 23:05:44  -12.1   82   774 
 2020-11-26 23:00:40  -12.2   79   774 
 2020-11-26 22:55:36  -11.9   80   774 
 2020-11-26 22:50:32  -11.4   80   774 
 2020-11-26 22:45:28  -11.3   81   774 
 2020-11-26 22:40:24  -11.2   82   774 
 2020-11-26 22:35:20  -11.2   82   774 
 2020-11-26 22:30:16  -11.2   82   774 
 2020-11-26 22:25:11  -11.2   82   774 
 2020-11-26 22:20:07  -11.5   82   774 
 2020-11-26 22:15:03  -11.8   83   774 
 2020-11-26 22:09:59  -12.2   81   774 
 2020-11-26 22:04:55  -12.2   82   774 
 2020-11-26 21:59:50  -12.2   2147483647   774 
 2020-11-26 21:54:46  -12.1   81   774 
 2020-11-26 21:49:41  -12.3   81   774 
 2020-11-26 21:44:37  -12.3   81   774 
 2020-11-26 21:39:33  -12.6   79   774 
 2020-11-26 21:34:29  -12.6   80   774 
 2020-11-26 21:29:25  -12.4   77   774 
 2020-11-26 21:24:21  -12.1   78   774 
 2020-11-26 21:19:17  -11.8   79   774 
 2020-11-26 21:14:13  -11.6   79   774 
 2020-11-26 21:09:09  -11.6   79   774 
 2020-11-26 21:04:05  -11.4   80   774 
 2020-11-26 20:59:01  -11.3   80   774 
 2020-11-26 20:53:57  -11.2   81   774 
 2020-11-26 20:48:53  -11.1   81   774 
 2020-11-26 20:43:49  -11.0   82   774 
 2020-11-26 20:38:45  -11.2   82   774 
 2020-11-26 20:33:41  -11.6   82   774 
 2020-11-26 20:28:37  -11.7   82   774 
 2020-11-26 20:23:32  -11.8   81   774 
 2020-11-26 20:18:28  -11.8   82   774 
 2020-11-26 20:13:24  -11.9   81   774 
 2020-11-26 20:08:20  -11.8   80   774 
 2020-11-26 20:03:16  -11.8   80   774 
 2020-11-26 19:58:12  -11.6   80   774 
 2020-11-26 19:53:08  -11.6   80   774 
 2020-11-26 19:48:04  -11.4   80   774 
 2020-11-26 19:43:00  -11.4   81   774 
 2020-11-26 19:37:56  -11.3   80   774 
 2020-11-26 19:32:52  -11.6   80   774 
 2020-11-26 19:27:48  -11.5   80   774 
 2020-11-26 19:22:44  -11.4   79   774 
 2020-11-26 19:17:39  -11.2   79   774 
 2020-11-26 19:12:35  -11.2   80   774 
 2020-11-26 19:07:31  -11.2   80   774 
 2020-11-26 19:02:27  -11.0   80   774 
 2020-11-26 18:57:23  -11.0   79   774 
 2020-11-26 18:52:19  -10.9   79   774 
 2020-11-26 18:47:15  -10.8   80   774 
 2020-11-26 18:42:11  -10.6   80   774 
 2020-11-26 18:37:07  -10.4   80   774 
 2020-11-26 18:32:03  -10.3   82   774 
 2020-11-26 18:26:59  -10.6   83   774 
 2020-11-26 18:21:55  -10.6   81   774 
 2020-11-26 18:16:51  -10.7   83   774 
 2020-11-26 18:11:47  -10.6   82   774 
 2020-11-26 18:06:43  -10.6   82   774 
 2020-11-26 18:01:39  -10.6   81   774 
 2020-11-26 17:56:35  -10.5   80   774 
 2020-11-26 17:51:30  -10.1   78   774 
 2020-11-26 17:46:26  -9.9   78   774 
 2020-11-26 17:41:22  -9.8   79   774 
 2020-11-26 17:36:18  -9.8   78   774 
 2020-11-26 17:31:14  -9.8   79   774 
 2020-11-26 17:26:10  -9.7   79   774 
 2020-11-26 17:21:06  -9.5   79   774 
 2020-11-26 17:16:02  -9.4   78   774 
 2020-11-26 17:10:58  -9.3   78   774 
 2020-11-26 17:05:54  -9.4   78   774 
 2020-11-26 17:00:50  -9.5   77   774 
 2020-11-26 16:55:46  -9.4   78   774 
 2020-11-26 16:50:42  -9.3   77   774 
 2020-11-26 16:45:38  -9.3   77   774 
 2020-11-26 16:40:33  -9.2   76   774 
 2020-11-26 16:35:29  -9.0   76   774 
 2020-11-26 16:30:25  -9.1   75   774 
 2020-11-26 16:25:21  -8.9   75   774 
 2020-11-26 16:20:17  -8.8   75   773 
 2020-11-26 16:15:13  -8.8   76   773 
 2020-11-26 16:10:09  -8.8   75   773 
 2020-11-26 16:05:05  -8.6   74   773 
 2020-11-26 16:00:01  -8.6   75   773 
 2020-11-26 15:54:57  -8.6   75   774 
 2020-11-26 15:49:53  -8.6   74   774 
 2020-11-26 15:44:49  -8.5   74   773 
 2020-11-26 15:39:45  -8.4   74   773 
 2020-11-26 15:34:41  -8.4   74   773 
 2020-11-26 15:29:37  -8.4   73   773 
 2020-11-26 15:24:33  -8.4   73   773 
 2020-11-26 15:19:29  -8.6   74   773 
 2020-11-26 15:14:25  -8.4   74   773 
 2020-11-26 15:09:21  -8.7   74   773 
 2020-11-26 15:04:16  -8.5   74   773 
 2020-11-26 14:59:13  -8.5   74   774 
 2020-11-26 14:54:08  -8.6   74   773 
 2020-11-26 14:49:04  -8.6   74   773 
 2020-11-26 14:44:00  -8.8   74   773 
 2020-11-26 14:38:56  -8.8   74   774 
 2020-11-26 14:33:52  -8.8   74   774 
 2020-11-26 14:28:48  -8.8   74   774 
 2020-11-26 14:23:44  -8.9   75   774 
 2020-11-26 14:18:40  -9.2   75   774 
 2020-11-26 14:13:36  -9.4   76   774 
 2020-11-26 14:08:32  -9.7   77   774 
 2020-11-26 14:03:28  -9.8   77   774 
 2020-11-26 13:58:24  -10.1   77   774 
 2020-11-26 13:53:20  -10.2   78   774 
 2020-11-26 13:48:16  -10.4   78   774 
 2020-11-26 13:43:12  -10.6   78   774 
 2020-11-26 13:38:08  -10.5   77   774 
 2020-11-26 13:33:04  -10.8   78   774 
 2020-11-26 13:28:00  -10.8   77   774 
 2020-11-26 13:22:56  -11.1   77   774 
 2020-11-26 13:17:51  -11.2   77   774 
 2020-11-26 13:12:47  -11.3   77   774 
 2020-11-26 13:07:43  -11.2   77   774 
 2020-11-26 13:02:39  -11.2   77   774 
 2020-11-26 12:57:35  -10.9   76   774 
 2020-11-26 12:52:31  -10.6   76   774 
 2020-11-26 12:47:27  -10.9   77   774 
 2020-11-26 12:42:23  -11.4   77   774 
 2020-11-26 12:37:19  -11.7   77   774 
 2020-11-26 12:27:11  -11.9   77   774 
 2020-11-26 12:22:07  -12.1   77   774 
 2020-11-26 12:17:03  -11.7   76   774 
 2020-11-26 12:11:59  -12.0   77   774 
 2020-11-26 12:06:55  -12.2   77   774 
 2020-11-26 12:01:51  -12.4   77   774 
 2020-11-26 11:56:47  -12.6   78   774 
 2020-11-26 11:51:43  -12.9   77   774 
 2020-11-26 11:46:39  -13.0   76   774 
 2020-11-26 11:41:35  -12.8   76   774 
 2020-11-26 11:36:31  -13.2   78   774 
 2020-11-26 11:31:26  -13.8   78   774 
 2020-11-26 11:26:22  -14.2   79   774 
 2020-11-26 11:21:18  -14.4   79   774 
 2020-11-26 11:16:14  -14.8   79   774 
 2020-11-26 11:11:10  -14.8   79   774 
 2020-11-26 11:06:06  -14.8   78   774 
 2020-11-26 11:01:02  -14.9   79   774 
 2020-11-26 10:55:58  -14.8   78   774 
 2020-11-26 10:50:54  -14.8   78   774 
 2020-11-26 10:45:50  -15.1   79   774 
 2020-11-26 10:40:46  -15.1   79   774 
 2020-11-26 10:35:42  -15.5   80   774 
 2020-11-26 10:30:38  -15.8   79   774 
 2020-11-26 10:25:34  -15.9   81   774 
 2020-11-26 10:20:30  -16.2   80   774 
 2020-11-26 10:15:26  -16.2   81   774 
 2020-11-26 10:10:22  -16.7   81   774 
 2020-11-26 10:05:18  -17.1   81   774 
 2020-11-26 10:00:14  -17.5   80   774 
 2020-11-26 09:55:10  -17.7   81   774 
 2020-11-26 09:50:06  -17.7   81   774 
 2020-11-26 09:45:02  -17.6   81   774 
 2020-11-26 09:39:57  -17.7   80   774 
 2020-11-26 09:34:53  -17.4   80   774 
 2020-11-26 09:29:49  -17.1   79   774 
 2020-11-26 09:24:45  -16.6   81   774 
 2020-11-26 09:19:41  -16.1   81   774 
 2020-11-26 09:14:37  -15.8   81   774 
 2020-11-26 09:09:33  -15.8   81   774 
 2020-11-26 09:04:29  -15.6   81   774 
 2020-11-26 08:59:25  -15.7   80   774 
 2020-11-26 08:54:21  -15.9   81   774 
 2020-11-26 08:49:17  -16.1   82   774 
 2020-11-26 08:44:13  -16.1   81   774 
 2020-11-26 08:39:09  -16.1   82   774 
 2020-11-26 08:34:05  -16.1   81   774 
 2020-11-26 08:29:00  -16.1   81   774 
 2020-11-26 08:23:56  -15.9   81   774 
 2020-11-26 08:18:52  -15.7   82   774 
 2020-11-26 08:13:48  -15.8   81   774 
 2020-11-26 08:08:43  -15.9   81   774 
 2020-11-26 08:03:39  -16.0   81   774 
 2020-11-26 07:58:35  -15.9   81   774 
 2020-11-26 07:53:31  -16.2   80   774 
 2020-11-26 07:48:27  -16.2   80   774 
 2020-11-26 07:43:23  -16.3   81   774 
 2020-11-26 07:38:19  -16.7   81   774 
 2020-11-26 07:33:15  -17.1   80   774 
 2020-11-26 07:28:11  -17.2   79   774 
 2020-11-26 07:23:07  -17.2   80   774 
 2020-11-26 07:18:03  -17.5   79   774 
 2020-11-26 07:12:59  -17.9   80   774 
 2020-11-26 07:07:55  -18.2   79   774 
 2020-11-26 07:02:51  -17.4   78   774 
 2020-11-26 06:57:47  -15.7   80   774 
 2020-11-26 06:52:42  -15.6   79   774 
 2020-11-26 06:47:38  -15.3   78   774 
 2020-11-26 06:42:34  -15.2   77   774 
 2020-11-26 06:37:30  -15.2   78   774 
 2020-11-26 06:32:26  -15.2   79   774 
 2020-11-26 06:27:22  -15.4   80   774 
 2020-11-26 06:22:18  -15.4   82   774 
 2020-11-26 06:17:14  -15.6   82   774 
 2020-11-26 06:12:10  -15.4   82   774 
 2020-11-26 06:07:04  -15.5   81   774 
 2020-11-26 06:01:59  -15.2   82   774 
 2020-11-26 05:56:54  -15.4   81   774 
 2020-11-26 05:51:50  -15.5   81   774 
 2020-11-26 05:46:46  -15.2   82   774 
 2020-11-26 05:41:42  -15.6   82   774 
 2020-11-26 05:36:38  -15.3   82   774 
 2020-11-26 05:31:34  -15.4   83   774 
 2020-11-26 05:26:30  -15.4   83   774 
 2020-11-26 05:21:25  -15.6   82   774 
 2020-11-26 05:16:21  -15.3   82   774 
 2020-11-26 05:11:17  -15.4   82   774 
 2020-11-26 05:06:13  -14.9   81   774 
 2020-11-26 05:01:09  -14.6   81   774 
 2020-11-26 04:56:05  -14.6   82   774 
 2020-11-26 04:51:01  -14.5   82   774 
 2020-11-26 04:45:56  -14.2   82   774 
 2020-11-26 04:40:51  -14.2   81   774 
 2020-11-26 04:35:47  -14.3   83   774 
 2020-11-26 04:30:43  -14.4   83   774 
 2020-11-26 04:25:39  -14.6   83   774 
 2020-11-26 04:20:35  -14.6   83   774 
 2020-11-26 04:15:31  -14.9   83   774 
 2020-11-26 04:10:27  -15.0   83   774 
 2020-11-26 04:05:22  -14.8   82   774 
 2020-11-26 04:00:18  -14.9   83   774 
 2020-11-26 03:55:14  -15.0   82   774 
 2020-11-26 03:50:10  -14.9   82   774 
 2020-11-26 03:45:06  -14.9   82   774 
 2020-11-26 03:40:02  -14.8   82   774 
 2020-11-26 03:34:58  -14.7   82   774 
 2020-11-26 03:29:54  -14.6   81   774 
 2020-11-26 03:24:49  -14.6   82   774 
 2020-11-26 03:19:45  -14.6   83   774 
 2020-11-26 03:14:41  -14.8   83   774 
 2020-11-26 03:09:37  -14.5   82   774 
 2020-11-26 03:04:33  -14.3   81   774 
 2020-11-26 02:59:29  -14.3   82   774 
 2020-11-26 02:54:25  -14.4   83   774 
 2020-11-26 02:49:21  -14.8   83   774 
 2020-11-26 02:44:17  -14.6   83   774 
 2020-11-26 02:39:13  -14.5   82   774 
 2020-11-26 02:34:09  -14.3   81   774 
 2020-11-26 02:29:05  -14.5   82   774 
 2020-11-26 02:24:01  -14.4   81   774 
 2020-11-26 02:18:57  -14.3   80   774 
 2020-11-26 02:13:53  -14.4   80   774 
 2020-11-26 02:08:49  -14.4   82   774 
 2020-11-26 02:03:44  -14.6   82   774 
 2020-11-26 01:58:40  -14.7   79   774 
 2020-11-26 01:53:36  -14.4   78   774 
 2020-11-26 01:48:32  -13.8   78   774 
 2020-11-26 01:43:28  -13.3   82   774 
 2020-11-26 01:38:24  -13.2   83   774 
 2020-11-26 01:33:20  -12.9   83   774 
 2020-11-26 01:28:16  -13.1   82   774 
 2020-11-26 01:23:12  -13.0   81   774 
 2020-11-26 01:18:08  -12.9   79   774 
 2020-11-26 01:13:04  -12.8   79   774 
 2020-11-26 01:08:00  -12.8   79   774 
 2020-11-26 01:02:56  -12.8   80   774 
 2020-11-26 00:57:52  -12.8   81   774 
 2020-11-26 00:52:48  -12.8   81   774 
 2020-11-26 00:47:44  -12.8   83   774 
 2020-11-26 00:42:40  -12.9   83   774 
 2020-11-26 00:37:36  -12.9   83   774 
 2020-11-26 00:32:31  -12.9   83   774 
 2020-11-26 00:27:28  -13.2   83   774 
 2020-11-26 00:22:23  -13.4   84   774 
 2020-11-26 00:17:19  -13.6   85   774 
 2020-11-26 00:12:15  -13.6   85   774 
 2020-11-26 00:07:11  -13.6   85   774 
 2020-11-26 00:02:07  -13.4   85   774 
 2020-11-25 23:57:03  -13.2   85   774 
 2020-11-25 23:51:59  -13.2   86   774 
 2020-11-25 23:46:55  -13.2   85   774 
 2020-11-25 23:41:51  -13.2   85   774 
 2020-11-25 23:36:47  -12.9   85   774 
 2020-11-25 23:31:43  -13.0   84   774 
 2020-11-25 23:26:39  -12.9   84   774 
 2020-11-25 23:21:35  -12.9   85   774 
 2020-11-25 23:16:31  -13.1   84   774 
 2020-11-25 23:11:27  -12.8   83   774 
 2020-11-25 23:06:23  -12.7   84   774 
 2020-11-25 23:01:18  -12.7   84   774 
 2020-11-25 22:56:14  -12.9   83   774 
 2020-11-25 22:51:10  -13.0   83   774 
 2020-11-25 22:46:06  -12.9   82   774 
 2020-11-25 22:41:02  -12.6   81   774 
 2020-11-25 22:35:58  -12.6   83   774 
 2020-11-25 22:30:54  -12.4   82   774 
 2020-11-25 22:25:50  -12.0   81   774 
 2020-11-25 22:20:46  -11.9   81   774 
 2020-11-25 22:15:41  -11.6   80   774 
 2020-11-25 22:10:37  -11.2   79   773 
 2020-11-25 22:05:33  -11.1   79   773 
 2020-11-25 22:00:29  -11.1   80   773 
 2020-11-25 21:55:25  -11.1   80   773 
 2020-11-25 21:50:21  -11.1   81   773 
 2020-11-25 21:45:17  -11.2   82   773 
 2020-11-25 21:40:13  -11.2   81   773 
 2020-11-25 21:35:09  -10.9   80   773 
 2020-11-25 21:30:05  -10.9   81   773 
 2020-11-25 21:25:01  -10.6   85   773 
 2020-11-25 21:19:57  -10.8   79   773 
 2020-11-25 21:14:53  -10.8   80   773 
 2020-11-25 21:09:49  -10.7   79   773 
 2020-11-25 21:04:45  -10.6   79   773 
 2020-11-25 20:59:41  -10.6   79   773 
 2020-11-25 20:54:36  -10.4   79   773 
 2020-11-25 20:49:32  -10.2   80   774 
 2020-11-25 20:44:28  -10.2   81   773 
 2020-11-25 20:39:24  -10.1   80   773 
 2020-11-25 20:34:20  -10.1   80   774 
 2020-11-25 20:29:16  -10.1   80   773 
 2020-11-25 20:24:12  -10.1   80   773 
 2020-11-25 20:19:07  -9.7   80   773 
 2020-11-25 20:14:03  -9.5   79   773 
 2020-11-25 20:08:59  -9.5   80   773 
 2020-11-25 20:03:55  -9.4   79   773 
 2020-11-25 19:58:51  -9.3   79   773 
 2020-11-25 19:53:47  -9.2   79   773 
 2020-11-25 19:48:43  -9.2   79   773 
 2020-11-25 19:43:39  -9.1   79   773 
 2020-11-25 19:38:35  -9.1   79   773 
 2020-11-25 19:33:30  -9.1   78   773 
 2020-11-25 19:28:26  -8.8   78   773 
 2020-11-25 19:23:22  -8.8   77   773 
 2020-11-25 19:18:18  -8.7   78   773 
 2020-11-25 19:13:14  -8.9   79   773 
 2020-11-25 19:08:10  -8.9   79   773 
 2020-11-25 19:03:06  -8.7   78   773 
 2020-11-25 18:58:02  -8.4   77   773 
 2020-11-25 18:52:58  -8.2   76   773 
 2020-11-25 18:47:54  -7.8   76   773 
 2020-11-25 18:42:49  -7.9   76   773 
 2020-11-25 18:37:45  -7.9   76   773 
 2020-11-25 18:32:41  -7.9   76   773 
 2020-11-25 18:27:34  -7.6   76   773 
 2020-11-25 18:22:29  -7.5   75   773 
 2020-11-25 18:17:25  -7.3   74   773 
 2020-11-25 18:12:21  -7.2   74   773 
 2020-11-25 18:07:17  -7.1   73   773 
 2020-11-25 18:02:13  -7.1   72   773 
 2020-11-25 17:57:09  -7.1   72   773 
 2020-11-25 17:52:04  -6.9   72   773 
 2020-11-25 17:47:00  -6.8   72   773 
 2020-11-25 17:41:56  -6.8   72   773 
 2020-11-25 17:36:52  -6.8   72   773 
 2020-11-25 17:31:48  -6.6   72   773 
 2020-11-25 17:26:44  -6.5   71   773 
 2020-11-25 17:21:40  -6.4   71   773 
 2020-11-25 17:16:36  -6.3   71   773 
 2020-11-25 17:11:32  -6.1   69   773 
 2020-11-25 17:06:28  -5.9   69   773 
 2020-11-25 17:01:24  -5.9   69   773 
 2020-11-25 16:56:20  -5.8   68   773 
 2020-11-25 16:51:16  -5.6   67   773 
 2020-11-25 16:46:12  -5.5   66   773 
 2020-11-25 16:41:08  -5.4   65   773 
 2020-11-25 16:36:04  -5.4   64   773 
 2020-11-25 16:31:00  -5.2   64   773 
 2020-11-25 16:25:56  -5.1   64   773 
 2020-11-25 16:20:52  -5.1   63   773 
 2020-11-25 16:15:48  -5.0   63   773 
 2020-11-25 16:10:43  -5.1   63   773 
 2020-11-25 16:05:39  -4.9   63   773 
 2020-11-25 16:00:35  -4.8   63   773 
 2020-11-25 15:55:31  -4.8   63   773 
 2020-11-25 15:50:27  -4.9   63   773 
 2020-11-25 15:45:23  -4.8   63   773 
 2020-11-25 15:40:19  -4.9   63   773 
 2020-11-25 15:35:15  -4.9   63   773 
 2020-11-25 15:30:11  -4.9   62   773 
 2020-11-25 15:25:07  -4.8   62   773 
 2020-11-25 15:20:03  -4.7   62   773 
 2020-11-25 15:14:59  -4.7   63   772 
 2020-11-25 15:09:55  -4.8   63   772 
 2020-11-25 15:04:50  -4.9   63   772 
 2020-11-25 14:59:46  -4.9   62   772 
 2020-11-25 14:54:42  -4.4   62   772 
 2020-11-25 14:49:38  -4.3   62   772 
 2020-11-25 14:44:34  -4.4   62   772 
 2020-11-25 14:39:30  -4.4   62   772 
 2020-11-25 14:34:26  -4.3   62   772 
 2020-11-25 14:29:22  -4.4   63   772 
 2020-11-25 14:24:18  -4.4   63   772 
 2020-11-25 14:19:14  -4.4   62   772 
 2020-11-25 14:14:10  -4.6   62   772 
 2020-11-25 14:09:06  -4.3   63   772 
 2020-11-25 14:04:02  -4.3   62   772 
 2020-11-25 13:58:58  -4.5   62   772 
 2020-11-25 13:53:54  -4.3   62   772 
 2020-11-25 13:48:50  -4.4   62   772 
 2020-11-25 13:43:46  -4.6   63   772 
 2020-11-25 13:38:42  -4.2   63   772 
 2020-11-25 13:33:38  -4.4   62   772 
 2020-11-25 13:28:34  -4.2   65   772 
 2020-11-25 13:23:29  -4.5   64   772 
 2020-11-25 13:18:25  -4.4   64   772 
 2020-11-25 13:13:21  -4.7   64   772 
 2020-11-25 13:08:17  -5.1   65   772 
 2020-11-25 13:03:13  -4.9   65   772 
 2020-11-25 12:58:09  -5.0   67   772 
 2020-11-25 12:53:05  -5.1   67   773 
 2020-11-25 12:48:01  -5.3   68   773 
 2020-11-25 12:42:57  -5.4   69   773 
 2020-11-25 12:37:53  -5.5   69   773 
 2020-11-25 12:32:49  -5.6   70   773 
 2020-11-25 12:27:45  -5.6   70   773 
 2020-11-25 12:22:40  -5.8   71   773 
 2020-11-25 12:17:36  -5.8   72   773 
 2020-11-25 12:12:32  -6.0   73   772 
 2020-11-25 12:07:28  -6.2   72   772 
 2020-11-25 12:02:24  -6.1   73   773 
 2020-11-25 11:57:20  -6.4   73   773 
 2020-11-25 11:52:16  -6.6   74   773 
 2020-11-25 11:47:12  -6.5   74   772 
 2020-11-25 11:42:08  -6.8   75   773 
 2020-11-25 11:37:04  -6.6   74   772 
 2020-11-25 11:32:00  -6.6   74   772 
 2020-11-25 11:26:56  -6.8   74   772 
 2020-11-25 11:21:52  -6.9   75   772 
 2020-11-25 11:16:48  -7.2   76   772 
 2020-11-25 11:11:44  -7.5   77   772 
 2020-11-25 11:06:40  -7.2   76   772 
 2020-11-25 11:01:36  -7.1   76   773 
 2020-11-25 10:56:32  -7.2   76   773 
 2020-11-25 10:51:28  -7.2   77   772 
 2020-11-25 10:46:24  -7.2   76   772 
 2020-11-25 10:41:20  -7.4   77   772 
 2020-11-25 10:36:16  -7.3   77   772 
 2020-11-25 10:31:12  -7.2   76   772 
 2020-11-25 10:26:08  -7.4   77   772 
 2020-11-25 10:21:03  -7.3   77   772 
 2020-11-25 10:15:59  -7.4   77   772 
 2020-11-25 10:10:55  -7.4   78   772 
 2020-11-25 10:05:51  -7.6   78   772 
 2020-11-25 10:00:47  -7.7   78   772 
 2020-11-25 09:55:43  -7.6   78   772 
 2020-11-25 09:50:39  -7.5   77   772 
 2020-11-25 09:45:35  -7.5   76   772 
 2020-11-25 09:40:31  -7.4   77   772 
 2020-11-25 09:35:27  -7.6   77   772 
 2020-11-25 09:30:23  -7.7   78   772 
 2020-11-25 09:25:19  -7.6   77   772 
 2020-11-25 09:20:15  -7.4   76   772 
 2020-11-25 09:15:11  -7.3   76   772 
 2020-11-25 09:10:06  -7.4   76   772 
 2020-11-25 09:05:02  -7.2   75   772 
 2020-11-25 08:59:58  -7.1   75   772 
 2020-11-25 08:54:54  -7.1   75   772 
 2020-11-25 08:49:50  -6.9   74   772 
 2020-11-25 08:44:46  -6.8   74   772 
 2020-11-25 08:39:42  -6.6   74   772 
 2020-11-25 08:34:38  -6.6   73   772 
 2020-11-25 08:29:34  -6.5   73   772 
 2020-11-25 08:24:30  -6.5   72   772 
 2020-11-25 08:19:25  -6.5   72   772 
 2020-11-25 08:14:21  -6.3   72   772 
 2020-11-25 08:09:17  -6.1   71   772 
 2020-11-25 08:04:13  -6.1   71   772 
 2020-11-25 07:59:09  -5.9   70   772 
 2020-11-25 07:54:05  -5.9   71   772 
 2020-11-25 07:49:01  -6.0   71   772 
 2020-11-25 07:43:57  -5.8   71   772 
 2020-11-25 07:38:53  -5.7   71   772 
 2020-11-25 07:33:49  -5.6   70   772 
 2020-11-25 07:28:45  -5.8   71   772 
 2020-11-25 07:23:41  -5.9   71   772 
 2020-11-25 07:18:37  -5.8   70   772 
 2020-11-25 07:13:33  -5.8   71   772 
 2020-11-25 07:08:29  -5.9   70   772 
 2020-11-25 07:03:24  -5.7   70   772 
 2020-11-25 06:58:20  -5.6   70   772 
 2020-11-25 06:53:16  -5.7   70   772 
 2020-11-25 06:48:12  -5.4   69   772 
 2020-11-25 06:43:08  -5.6   70   772 
 2020-11-25 06:38:04  -5.5   69   772 
 2020-11-25 06:33:00  -5.5   69   772 
 2020-11-25 06:27:56  -5.4   68   772 
 2020-11-25 06:22:52  -5.2   67   772 
 2020-11-25 06:17:47  -5.1   67   772 
 2020-11-25 06:12:43  -5.2   69   772 
 2020-11-25 06:07:38  -5.1   68   772 
 2020-11-25 06:02:34  -5.1   67   772 
 2020-11-25 05:57:30  -5.2   67   772 
 2020-11-25 05:52:26  -5.1   67   771 
 2020-11-25 05:47:22  -5.1   67   771 
 2020-11-25 05:42:18  -5.2   68   771 
 2020-11-25 05:37:14  -5.1   69   771 
 2020-11-25 05:32:10  -5.2   68   771 
 2020-11-25 05:27:06  -5.0   67   771 
 2020-11-25 05:22:02  -5.2   69   771 
 2020-11-25 05:16:58  -5.1   67   771 
 2020-11-25 05:11:54  -5.2   68   771 
 2020-11-25 05:06:50  -5.1   67   771 
 2020-11-25 05:01:46  -4.9   68   771 
 2020-11-25 04:56:42  -5.1   68   771 
 2020-11-25 04:51:37  -5.0   68   771 
 2020-11-25 04:46:33  -4.9   67   771 
 2020-11-25 04:41:29  -4.9   68   771 
 2020-11-25 04:36:25  -5.2   69   771 
 2020-11-25 04:31:21  -5.2   70   771 
 2020-11-25 04:26:17  -5.2   69   771 
 2020-11-25 04:21:13  -5.2   68   771 
 2020-11-25 04:16:09  -5.2   68   771 
 2020-11-25 04:11:05  -5.2   68   771 
 2020-11-25 04:06:01  -5.2   69   771 
 2020-11-25 04:00:57  -5.3   69   771 
 2020-11-25 03:55:53  -5.2   70   771 
 2020-11-25 03:50:49  -5.2   68   771 
 2020-11-25 03:45:44  -5.4   70   771 
 2020-11-25 03:40:40  -5.3   69   771 
 2020-11-25 03:35:36  -5.1   69   771 
 2020-11-25 03:30:32  -4.9   68   771 
 2020-11-25 03:25:28  -5.0   67   771 
 2020-11-25 03:20:24  -4.9   69   771 
 2020-11-25 03:15:20  -4.9   67   771 
 2020-11-25 03:10:16  -5.0   68   771 
 2020-11-25 03:05:12  -4.9   67   771 
 2020-11-25 03:00:08  -5.0   68   771 
 2020-11-25 02:55:04  -4.8   68   771 
 2020-11-25 02:50:00  -4.8   67   771 
 2020-11-25 02:44:56  -4.6   65   771 
 2020-11-25 02:39:52  -4.7   65   771 
 2020-11-25 02:34:48  -4.7   65   771 
 2020-11-25 02:29:44  -4.7   64   771 
 2020-11-25 02:24:40  -4.8   67   771 
 2020-11-25 02:19:36  -4.6   65   771 
 2020-11-25 02:14:32  -4.8   67   771 
 2020-11-25 02:09:27  -4.8   65   771 
 2020-11-25 02:04:23  -4.6   66   771 
 2020-11-25 01:59:19  -4.8   66   771 
 2020-11-25 01:54:15  -4.8   67   771 
 2020-11-25 01:49:11  -4.8   66   771 
 2020-11-25 01:44:07  -4.8   67   771 
 2020-11-25 01:39:03  -4.8   68   771 
 2020-11-25 01:33:59  -4.8   68   771 
 2020-11-25 01:28:55  -5.0   69   771 
 2020-11-25 01:23:51  -4.9   68   771 
 2020-11-25 01:18:47  -4.7   67   771 
 2020-11-25 01:13:43  -4.8   68   771 
 2020-11-25 01:08:39  -4.9   68   771 
 2020-11-25 01:03:34  -4.7   68   771 
 2020-11-25 00:58:30  -4.8   68   771 
 2020-11-25 00:53:26  -4.8   68   771 
 2020-11-25 00:48:22  -4.8   68   771 
 2020-11-25 00:43:18  -4.9   69   771 
 2020-11-25 00:38:14  -4.8   69   771 
 2020-11-25 00:33:10  -4.9   68   771 
 2020-11-25 00:28:06  -4.9   69   771 
 2020-11-25 00:23:02  -4.8   69   771 
 2020-11-25 00:17:58  -4.7   69   771 
 2020-11-25 00:12:54  -4.9   69   771 
 2020-11-25 00:07:49  -4.7   68   771 
 2020-11-25 00:02:45  -4.6   68   771 
 2020-11-24 23:57:41  -4.7   68   771 
 2020-11-24 23:52:37  -4.8   68   771 
 2020-11-24 23:47:33  -4.8   68   771 
 2020-11-24 23:42:29  -4.7   68   771 
 2020-11-24 23:37:25  -4.6   68   771 
 2020-11-24 23:32:21  -4.6   68   771 
 2020-11-24 23:27:16  -4.7   67   771 
 2020-11-24 23:22:12  -4.5   67   771 
 2020-11-24 23:17:07  -4.4   67   771 
 2020-11-24 23:12:03  -4.4   66   771 
 2020-11-24 23:06:59  -4.6   68   771 
 2020-11-24 23:01:55  -4.6   69   771 
 2020-11-24 22:56:51  -4.5   69   771 
 2020-11-24 22:51:47  -4.6   69   771 
 2020-11-24 22:46:41  -4.6   69   771 
 2020-11-24 22:41:37  -4.4   67   771 
 2020-11-24 22:36:33  -4.5   68   771 
 2020-11-24 22:31:29  -4.6   69   771 
 2020-11-24 22:26:25  -4.5   67   771 
 2020-11-24 22:21:21  -4.2   67   771 
 2020-11-24 22:16:16  -4.4   68   771 
 2020-11-24 22:11:12  -4.4   68   771 
 2020-11-24 22:06:08  -4.4   67   771 
 2020-11-24 22:01:04  -4.3   68   771 
 2020-11-24 21:56:00  -4.3   67   771 
 2020-11-24 21:50:56  -4.2   66   771 
 2020-11-24 21:45:52  -4.4   66   771 
 2020-11-24 21:40:46  -4.3   68   771 
 2020-11-24 21:35:42  -4.4   67   771 
 2020-11-24 21:30:38  -4.4   68   771 
 2020-11-24 21:25:34  -4.5   69   771 
 2020-11-24 21:20:30  -4.5   68   771 
 2020-11-24 21:15:25  -4.3   69   771 
 2020-11-24 21:10:21  -4.6   69   771 
 2020-11-24 21:05:17  -4.4   68   771 
 2020-11-24 21:00:12  -4.4   67   771 
 2020-11-24 20:55:08  -4.4   68   771 
 2020-11-24 20:50:04  -4.2   68   771 
 2020-11-24 20:44:59  -4.4   67   771 
 2020-11-24 20:39:55  -4.1   69   771 
 2020-11-24 20:34:51  -4.2   68   771 
 2020-11-24 20:29:47  -4.5   68   771 
 2020-11-24 20:24:43  -4.4   69   771 
 2020-11-24 20:19:38  -4.4   68   771 
 2020-11-24 20:14:34  -4.3   68   771 
 2020-11-24 20:09:30  -4.3   68   771 
 2020-11-24 20:04:26  -4.3   69   771 
 2020-11-24 19:59:22  -4.5   69   771 
 2020-11-24 19:54:18  -4.4   68   771 
 2020-11-24 19:49:14  -4.4   69   771 
 2020-11-24 19:44:10  -4.4   67   771 
 2020-11-24 19:39:06  -4.4   69   771 
 2020-11-24 19:34:01  -4.2   68   771 
 2020-11-24 19:28:57  -4.4   69   771 
 2020-11-24 19:23:53  -4.3   68   771 
 2020-11-24 19:18:49  -4.2   68   771 
 2020-11-24 19:13:45  -4.1   68   771 
 2020-11-24 19:08:41  -4.1   69   771 
 2020-11-24 19:03:37  -4.2   68   771 
 2020-11-24 18:58:33  -4.4   68   771 
 2020-11-24 18:53:29  -4.3   68   771 
 2020-11-24 18:48:24  -4.2   67   771 
 2020-11-24 18:43:20  -4.2   68   771 
 2020-11-24 18:38:15  -4.3   67   771 
 2020-11-24 18:33:11  -4.2   67   771 
 2020-11-24 18:23:03  -4.2   67   771 
 2020-11-24 18:17:59  -4.0   67   771 
 2020-11-24 18:12:55  -4.1   68   771 
 2020-11-24 18:07:51  -4.2   67   771 
 2020-11-24 18:02:47  -4.2   67   771 
 2020-11-24 17:57:43  -4.2   67   771 
 2020-11-24 17:52:39  -4.3   67   771 
 2020-11-24 17:47:34  -4.2   68   771 
 2020-11-24 17:42:30  -4.2   67   771 
 2020-11-24 17:37:26  -4.2   68   771 
 2020-11-24 17:32:22  -4.2   67   770 
 2020-11-24 17:27:18  -4.1   66   770 
 2020-11-24 17:22:14  -4.0   67   770 
 2020-11-24 17:17:10  -4.1   67   770 
 2020-11-24 17:12:06  -4.0   65   770 
 2020-11-24 17:07:02  -4.1   66   770 
 2020-11-24 17:01:58  -4.1   67   770 
 2020-11-24 16:56:54  -4.0   67   770 
 2020-11-24 16:51:50  -4.0   66   770 
 2020-11-24 16:46:46  -4.2   65   770 
 2020-11-24 16:41:42  -4.1   65   770 
 2020-11-24 16:36:37  -4.1   65   770 
 2020-11-24 16:31:33  -4.0   65   770 
 2020-11-24 16:26:29  -4.1   66   770 
 2020-11-24 16:21:25  -4.1   67   770 
 2020-11-24 16:16:21  -3.9   66   770 
 2020-11-24 16:11:17  -3.8   66   770 
 2020-11-24 16:06:13  -3.8   66   770 
 2020-11-24 16:01:09  -3.5   64   770 
 2020-11-24 15:56:05  -3.2   65   770 
 2020-11-24 15:51:01  -3.2   65   770 
 2020-11-24 15:45:57  -3.3   65   770 
 2020-11-24 15:40:52  -3.6   64   770 
 2020-11-24 15:35:48  -3.8   63   770 
 2020-11-24 15:30:44  -3.4   65   770 
 2020-11-24 15:25:40  -3.4   64   770 
 2020-11-24 15:20:36  -3.4   64   770 
 2020-11-24 15:15:32  -3.4   65   770 
 2020-11-24 15:10:28  -3.4   64   770 
 2020-11-24 15:05:24  -3.2   65   770 
 2020-11-24 15:00:20  -3.2   67   770 
 2020-11-24 14:55:16  -3.6   67   770 
 2020-11-24 14:50:12  -3.2   66   770 
 2020-11-24 14:45:08  -3.3   67   770 
 2020-11-24 14:40:04  -3.2   66   770 
 2020-11-24 14:35:00  -3.3   65   770 
 2020-11-24 14:29:56  -3.1   66   770 
 2020-11-24 14:24:52  -2.9   65   770 
 2020-11-24 14:19:47  -3.1   65   770 
 2020-11-24 14:14:43  -2.9   65   770 
 2020-11-24 14:09:39  -2.8   64   770 
 2020-11-24 14:04:35  -2.7   62   770 
 2020-11-24 13:59:31  -2.5   64   770 
 2020-11-24 13:54:27  -2.7   66   770 
 2020-11-24 13:49:23  -2.9   66   770 
 2020-11-24 13:44:19  -3.2   67   770 
 2020-11-24 13:39:15  -3.2   66   770 
 2020-11-24 13:34:11  -2.9   68   770 
 2020-11-24 13:29:07  -3.2   69   770 
 2020-11-24 13:24:03  -3.4   69   770 
 2020-11-24 13:18:59  -3.6   69   770 
 2020-11-24 13:13:55  -3.4   70   770 
 2020-11-24 13:08:51  -3.2   70   770 
 2020-11-24 13:03:47  -3.1   69   770 
 2020-11-24 12:58:43  -3.2   69   770 
 2020-11-24 12:53:38  -3.3   68   770 
 2020-11-24 12:48:34  -3.7   69   770 
 2020-11-24 12:43:30  -3.6   67   770 
 2020-11-24 12:38:26  -3.8   68   770 
 2020-11-24 12:33:22  -3.8   68   770 
 2020-11-24 12:28:18  -3.7   70   770 
 2020-11-24 12:23:14  -3.9   69   770 
 2020-11-24 12:18:10  -3.7   70   770 
 2020-11-24 12:13:06  -3.2   68   770 
 2020-11-24 12:08:02  -3.4   70   770 
 2020-11-24 12:02:58  -3.0   69   770 
 2020-11-24 11:57:54  -3.2   71   770 
 2020-11-24 11:52:50  -3.4   70   770 
 2020-11-24 11:47:46  -3.4   70   770 
 2020-11-24 11:42:42  -3.4   69   770 
 2020-11-24 11:37:38  -3.5   70   770 
 2020-11-24 11:32:34  -3.6   70   770 
 2020-11-24 11:27:30  -3.7   71   770 
 2020-11-24 11:22:26  -3.6   71   770 
 2020-11-24 11:17:22  -3.8   71   770 
 2020-11-24 11:12:18  -4.1   72   770 
 2020-11-24 11:07:14  -4.2   71   770 
 2020-11-24 11:02:09  -4.0   71   770 
 2020-11-24 10:57:05  -3.8   70   770 
 2020-11-24 10:52:01  -4.0   71   770 
 2020-11-24 10:46:57  -4.0   71   770 
 2020-11-24 10:41:53  -3.9   71   770 
 2020-11-24 10:36:49  -4.1   72   770 
 2020-11-24 10:31:45  -4.1   71   770 
 2020-11-24 10:26:41  -3.8   71   770 
 2020-11-24 10:21:37  -3.9   72   770 
 2020-11-24 10:16:33  -4.2   72   770 
 2020-11-24 10:11:29  -4.2   73   770 
 2020-11-24 10:06:25  -4.1   72   770 
 2020-11-24 10:01:21  -4.1   72   770 
 2020-11-24 09:56:17  -4.2   72   770 
 2020-11-24 09:51:13  -4.2   72   770 
 2020-11-24 09:46:08  -4.3   72   770 
 2020-11-24 09:41:04  -4.2   73   770 
 2020-11-24 09:36:00  -4.2   72   770 
 2020-11-24 09:30:56  -4.2   71   770 
 2020-11-24 09:25:52  -4.2   71   770 
 2020-11-24 09:20:48  -4.2   72   770 
 2020-11-24 09:15:44  -4.2   72   770 
 2020-11-24 09:10:40  -4.1   71   770 
 2020-11-24 09:05:36  -3.9   73   770 
 2020-11-24 09:00:32  -3.8   73   770 
 2020-11-24 08:55:28  -3.7   74   770 
 2020-11-24 08:50:24  -3.8   73   770 
 2020-11-24 08:45:20  -3.7   74   770 
 2020-11-24 08:40:16  -3.8   74   770 
 2020-11-24 08:35:12  -3.9   75   770 
 2020-11-24 08:30:08  -3.9   74   770 
 2020-11-24 08:25:03  -3.8   73   770 
 2020-11-24 08:19:59  -3.8   74   770 
 2020-11-24 08:14:55  -3.9   73   770 
 2020-11-24 08:09:51  -3.7   74   770 
 2020-11-24 08:04:47  -3.9   73   770 
 2020-11-24 07:59:43  -4.0   73   770 
 2020-11-24 07:54:39  -3.9   73   770 
 2020-11-24 07:49:35  -3.7   73   770 
 2020-11-24 07:44:31  -3.8   73   770 
 2020-11-24 07:39:27  -3.9   72   770 
 2020-11-24 07:34:22  -3.8   72   770 
 2020-11-24 07:29:18  -3.8   71   770 
 2020-11-24 07:24:14  -3.6   72   770 
 2020-11-24 07:19:10  -3.7   72   770 
 2020-11-24 07:14:06  -3.7   72   770 
 2020-11-24 07:09:02  -3.8   71   770 
 2020-11-24 07:03:58  -3.9   73   770 
 2020-11-24 06:58:54  -3.8   71   770 
 2020-11-24 06:53:49  -3.6   71   770 
 2020-11-24 06:48:45  -3.8   72   770 
 2020-11-24 06:43:41  -3.7   70   770 
 2020-11-24 06:38:37  -3.7   71   770 
 2020-11-24 06:33:33  -3.9   72   770 
 2020-11-24 06:28:29  -3.7   72   770 
 2020-11-24 06:23:25  -3.6   71   770 
 2020-11-24 06:18:17  -3.8   72   770 
 2020-11-24 06:13:13  -3.6   72   770 
 2020-11-24 06:08:09  -3.4   74   770 
 2020-11-24 06:03:05  -3.5   75   770 
 2020-11-24 05:58:01  -3.7   73   770 
 2020-11-24 05:52:57  -3.6   74   770 
 2020-11-24 05:47:52  -3.8   75   770 
 2020-11-24 05:42:48  -3.8   74   770 
 2020-11-24 05:37:44  -3.7   73   770 
 2020-11-24 05:32:40  -3.6   73   770 
 2020-11-24 05:27:36  -3.8   72   770 
 2020-11-24 05:22:32  -3.8   73   770 
 2020-11-24 05:17:28  -3.6   72   770 
 2020-11-24 05:12:23  -3.7   73   770 
 2020-11-24 05:07:19  -3.9   74   770 
 2020-11-24 05:02:15  -3.8   73   769 
 2020-11-24 04:57:11  -3.3   72   770 
 2020-11-24 04:52:07  -3.2   73   770 
 2020-11-24 04:47:03  -3.3   74   770 
 2020-11-24 04:41:59  -3.3   74   770 
 2020-11-24 04:36:54  -3.3   74   770 
 2020-11-24 04:31:50  -3.4   73   770 
 2020-11-24 04:26:46  -3.5   73   770 
 2020-11-24 04:21:42  -3.6   73   770 
 2020-11-24 04:16:38  -3.6   74   770 
 2020-11-24 04:11:34  -3.4   75   770 
 2020-11-24 04:06:30  -3.3   78   770 
 2020-11-24 04:01:26  -3.3   77   770 
 2020-11-24 03:56:22  -3.4   77   770 
 2020-11-24 03:51:17  -3.4   76   770 
 2020-11-24 03:46:13  -3.2   76   770 
 2020-11-24 03:41:09  -3.2   76   770 
 2020-11-24 03:36:05  -3.2   76   770 
 2020-11-24 03:31:01  -3.2   76   770 
 2020-11-24 03:25:57  -3.1   76   770 
 2020-11-24 03:20:53  -3.1   76   770 
 2020-11-24 03:15:48  -3.3   76   770 
 2020-11-24 03:10:44  -3.2   75   770 
 2020-11-24 03:05:40  -3.1   74   770 
 2020-11-24 03:00:36  -3.1   74   770 
 2020-11-24 02:55:32  -3.1   74   770 
 2020-11-24 02:50:28  -3.1   74   770 
 2020-11-24 02:45:24  -3.3   74   770 
 2020-11-24 02:40:20  -3.3   73   770 
 2020-11-24 02:35:16  -3.3   73   770 
 2020-11-24 02:30:11  -3.1   74   770 
 2020-11-24 02:25:07  -3.3   75   770 
 2020-11-24 02:20:03  -3.6   74   770 
 2020-11-24 02:14:59  -3.1   73   770 
 2020-11-24 02:09:55  -3.1   74   770 
 2020-11-24 02:04:51  -3.3   73   770 
 2020-11-24 01:59:47  -3.3   74   770 
 2020-11-24 01:54:43  -3.2   73   770 
 2020-11-24 01:49:38  -3.2   74   770 
 2020-11-24 01:44:34  -3.3   71   770 
 2020-11-24 01:39:30  -3.3   72   770 
 2020-11-24 01:34:26  -3.2   73   770 
 2020-11-24 01:29:21  -3.0   74   770 
 2020-11-24 01:24:17  -3.2   75   770 
 2020-11-24 01:19:12  -3.3   74   770 
 2020-11-24 01:14:07  -3.5   78   770 
 2020-11-24 01:09:03  -3.4   77   770 
 2020-11-24 01:03:59  -3.1   76   770 
 2020-11-24 00:53:50  -3.4   76   769 
 2020-11-24 00:48:46  -3.6   77   770 
 2020-11-24 00:43:42  -3.4   75   769 
 2020-11-24 00:38:38  -3.1   71   769 
 2020-11-24 00:33:34  -3.0   75   769 
 2020-11-24 00:28:30  -3.1   75   769 
 2020-11-24 00:23:26  -3.1   74   769 
 2020-11-24 00:18:21  -3.1   75   769 
 2020-11-24 00:13:17  -3.2   76   769 
 2020-11-24 00:08:13  -3.3   76   769 
 2020-11-24 00:03:09  -3.2   75   770 
 2020-11-23 23:58:05  -3.1   74   770 
 2020-11-23 23:53:01  -3.2   74   770 
 2020-11-23 23:47:57  -3.3   73   770 
 2020-11-23 23:42:53  -3.1   73   770 
 2020-11-23 23:37:49  -3.3   74   770 
 2020-11-23 23:32:45  -3.3   73   770 
 2020-11-23 23:27:41  -3.2   73   769 
 2020-11-23 23:22:37  -2.9   72   769 
 2020-11-23 23:17:33  -2.6   72   769 
 2020-11-23 23:12:29  -2.7   71   769 
 2020-11-23 23:07:24  -2.8   70   769 
 2020-11-23 23:02:20  -2.8   71   769 
 2020-11-23 22:57:16  -2.9   70   770 
 2020-11-23 22:52:12  -2.8   69   769 
 2020-11-23 22:47:08  -2.8   69   769 
 2020-11-23 22:42:03  -2.8   71   769 
 2020-11-23 22:36:59  -2.9   71   769 
 2020-11-23 22:31:55  -3.1   70   769 
 2020-11-23 22:26:51  -3.1   70   769 
 2020-11-23 22:21:47  -2.9   69   769 
 2020-11-23 22:16:43  -2.5   70   769 
 2020-11-23 22:11:38  -2.5   70   769 
 2020-11-23 22:06:33  -2.6   70   769 
 2020-11-23 22:01:28  -2.6   71   769 
 2020-11-23 21:56:24  -2.5   71   769 
 2020-11-23 21:51:20  -2.6   71   769 
 2020-11-23 21:46:16  -2.8   70   769 
 2020-11-23 21:41:12  -2.8   69   769 
 2020-11-23 21:36:07  -2.8   69   769 
 2020-11-23 21:31:03  -2.8   68   769 
 2020-11-23 21:25:59  -2.9   68   769 
 2020-11-23 21:20:55  -2.8   68   769 
 2020-11-23 21:15:51  -2.9   68   769 
 2020-11-23 21:10:47  -2.7   67   769 
 2020-11-23 21:05:43  -2.8   71   769 
 2020-11-23 21:00:39  -2.9   71   769 
 2020-11-23 20:55:35  -3.2   75   769 
 2020-11-23 20:50:31  -3.1   76   769 
 2020-11-23 20:45:27  -2.8   74   769 
 2020-11-23 20:40:22  -2.6   72   769 
 2020-11-23 20:35:18  -2.5   73   769 
 2020-11-23 20:30:14  -2.8   73   769 
 2020-11-23 20:25:09  -2.9   72   769 
 2020-11-23 20:20:05  -3.1   74   769 
 2020-11-23 20:15:01  -3.0   74   769 
 2020-11-23 20:09:57  -2.6   75   769 
 2020-11-23 20:04:53  -2.8   75   769 
 2020-11-23 19:59:49  -2.9   75   769 
 2020-11-23 19:54:45  -2.9   76   769 
 2020-11-23 19:49:40  -2.8   76   769 
 2020-11-23 19:44:35  -2.9   77   769 
 2020-11-23 19:39:31  -3.1   77   769 
 2020-11-23 19:34:27  -3.1   76   769 
 2020-11-23 19:29:22  -3.2   76   769 
 2020-11-23 19:24:18  -3.2   76   769 
 2020-11-23 19:19:14  -2.9   70   769 
 2020-11-23 19:14:10  -2.7   69   769 
 2020-11-23 19:09:06  -2.8   69   769 
 2020-11-23 19:04:02  -2.9   73   769 
 2020-11-23 18:58:58  -2.6   76   769 
 2020-11-23 18:53:54  -2.5   78   769 
 2020-11-23 18:48:50  -2.4   77   769 
 2020-11-23 18:43:44  -2.3   77   769 
 2020-11-23 18:38:40  -2.3   77   769 
 2020-11-23 18:33:36  -2.3   76   769 
 2020-11-23 18:28:32  -2.3   77   769 
 2020-11-23 18:23:28  -2.6   77   769 
 2020-11-23 18:18:24  -2.7   77   769 
 2020-11-23 18:13:20  -2.8   78   769 
 2020-11-23 18:08:16  -2.6   77   769 
 2020-11-23 18:03:12  -2.5   77   769 
 2020-11-23 17:58:08  -2.4   77   769 
 2020-11-23 17:53:04  -2.5   75   769 
 2020-11-23 17:48:00  -2.5   77   769 
 2020-11-23 17:42:56  -2.6   77   769 
 2020-11-23 17:37:51  -2.7   78   769 
 2020-11-23 17:32:47  -2.6   78   769 
 2020-11-23 17:27:43  -2.6   77   769 
 2020-11-23 17:22:38  -2.7   77   769 
 2020-11-23 17:17:34  -2.8   78   769 
 2020-11-23 17:12:30  -2.9   77   769 
 2020-11-23 17:07:26  -3.1   79   769 
 2020-11-23 17:02:22  -2.9   78   769 
 2020-11-23 16:57:18  -2.6   77   769 
 2020-11-23 16:52:14  -2.6   77   769 
 2020-11-23 16:47:10  -2.8   77   769 
 2020-11-23 16:42:06  -2.8   79   768 
 2020-11-23 16:37:01  -2.6   79   768 
 2020-11-23 16:31:57  -2.7   78   768 
 2020-11-23 16:26:53  -2.8   78   768 
 2020-11-23 16:21:49  -2.8   80   768 
 2020-11-23 16:16:45  -2.8   80   768 
 2020-11-23 16:11:40  -2.4   75   768 
 2020-11-23 16:06:36  -2.4   76   768 
 2020-11-23 16:01:31  -2.3   75   768 
 2020-11-23 15:56:27  -2.2   76   768 
 2020-11-23 15:46:19  -2.5   76   768 
 2020-11-23 15:41:15  -2.4   74   768 
 2020-11-23 15:36:11  -2.2   74   768 
 2020-11-23 15:31:07  -2.4   72   768 
 2020-11-23 15:26:03  -2.2   74   768 
 2020-11-23 15:20:58  -2.2   74   768 
 2020-11-23 15:15:54  -2.2   74   768 
 2020-11-23 15:10:50  -2.2   75   768 
 2020-11-23 15:05:46  -2.4   75   768 
 2020-11-23 15:00:42  -2.5   77   768 
 2020-11-23 14:55:38  -2.4   77   768 
 2020-11-23 14:50:34  -2.4   76   768 
 2020-11-23 14:45:30  -2.1   74   768 
 2020-11-23 14:40:26  -2.3   75   768 
 2020-11-23 14:35:22  -2.6   74   768 
 2020-11-23 14:30:18  -2.2   72   768 
 2020-11-23 14:25:14  -2.4   72   768 
 2020-11-23 14:20:10  -2.1   72   768 
 2020-11-23 14:15:06  -2.2   73   768 
 2020-11-23 14:10:01  -2.2   76   768 
 2020-11-23 14:04:57  -2.3   77   768 
 2020-11-23 13:59:53  -2.4   79   768 
 2020-11-23 13:54:49  -2.5   79   768 
 2020-11-23 13:49:45  -2.6   79   768 
 2020-11-23 13:44:41  -2.3   79   768 
 2020-11-23 13:39:37  -2.3   80   768 
 2020-11-23 13:34:33  -2.4   80   768 
 2020-11-23 13:29:29  -2.6   81   768 
 2020-11-23 13:24:25  -2.9   82   768 
 2020-11-23 13:19:21  -2.3   80   768 
 2020-11-23 13:14:17  -2.3   79   768 
 2020-11-23 13:09:13  -2.2   80   768 
 2020-11-23 13:04:09  -2.3   80   768 
 2020-11-23 12:59:05  -2.1   81   768 
 2020-11-23 12:54:01  -2.2   80   768 
 2020-11-23 12:48:57  -2.2   80   768 
 2020-11-23 12:43:53  -2.3   80   768 
 2020-11-23 12:38:49  -2.8   81   768 
 2020-11-23 12:33:45  -2.3   81   768 
 2020-11-23 12:28:41  -2.5   82   768 
 2020-11-23 12:23:37  -2.3   81   768 
 2020-11-23 12:18:33  -2.1   80   768 
 2020-11-23 12:13:29  -2.3   83   768 
 2020-11-23 12:08:25  -2.4   84   768 
 2020-11-23 12:03:20  -2.3   83   768 
 2020-11-23 11:58:17  -2.5   83   768 
 2020-11-23 11:53:12  -2.4   82   768 
 2020-11-23 11:48:08  -2.4   82   768 
 2020-11-23 11:43:04  -2.5   83   768 
 2020-11-23 11:38:00  -2.6   83   768 
 2020-11-23 11:32:56  -2.6   83   768 
 2020-11-23 11:27:52  -2.6   83   768 
 2020-11-23 11:22:48  -2.8   84   768 
 2020-11-23 11:17:44  -2.8   83   768 
 2020-11-23 11:12:40  -2.8   84   768 
 2020-11-23 11:07:36  -2.9   85   768 
 2020-11-23 11:02:32  -2.9   85   767 
 2020-11-23 10:57:28  -2.9   84   768 
 2020-11-23 10:52:24  -2.8   83   767 
 2020-11-23 10:47:20  -2.8   84   767 
 2020-11-23 10:42:16  -3.0   84   767 
 2020-11-23 10:37:12  -3.0   86   767 
 2020-11-23 10:32:07  -3.1   85   767 
 2020-11-23 10:27:03  -3.2   86   767 
 2020-11-23 10:21:59  -3.1   86   767 
 2020-11-23 10:16:55  -3.2   85   767 
 2020-11-23 10:11:51  -3.1   85   767 
 2020-11-23 10:06:47  -2.9   83   767 
 2020-11-23 10:01:43  -2.9   84   767 
 2020-11-23 09:56:39  -2.9   85   767 
 2020-11-23 09:51:35  -3.1   85   767 
 2020-11-23 09:46:31  -3.0   85   767 
 2020-11-23 09:41:27  -3.0   84   767 
 2020-11-23 09:36:23  -2.9   84   767 
 2020-11-23 09:31:19  -3.1   85   767 
 2020-11-23 09:26:15  -3.2   85   767 
 2020-11-23 09:21:11  -3.2   85   767 
 2020-11-23 09:16:07  -3.3   86   767 
 2020-11-23 09:11:03  -3.3   86   767 
 2020-11-23 09:05:59  -3.2   86   767 
 2020-11-23 09:00:55  -3.2   86   767 
 2020-11-23 08:55:51  -3.4   86   767 
 2020-11-23 08:50:47  -3.6   87   767 
 2020-11-23 08:45:43  -3.5   87   767 
 2020-11-23 08:40:39  -3.5   87   767 
 2020-11-23 08:35:35  -3.5   87   767 
 2020-11-23 08:30:31  -3.6   88   767 
 2020-11-23 08:25:27  -3.5   85   767 
 2020-11-23 08:20:23  -3.4   86   767 
 2020-11-23 08:15:18  -3.6   87   767 
 2020-11-23 08:10:14  -3.4   87   767 
 2020-11-23 08:05:10  -3.5   87   767 
 2020-11-23 08:00:06  -3.4   86   766 
 2020-11-23 07:55:02  -3.4   87   766 
 2020-11-23 07:49:58  -3.6   87   766 
 2020-11-23 07:44:54  -3.6   86   766 
 2020-11-23 07:39:50  -3.6   87   766 
 2020-11-23 07:34:46  -3.7   88   766 
 2020-11-23 07:29:42  -3.9   89   766 
 2020-11-23 07:24:38  -3.6   88   766 
 2020-11-23 07:19:34  -3.8   88   766 
 2020-11-23 07:14:30  -3.7   88   766 
 2020-11-23 07:09:26  -3.7   88   766 
 2020-11-23 07:04:22  -3.8   89   766 
 2020-11-23 06:59:18  -3.8   89   766 
 2020-11-23 06:54:14  -3.8   89   766 
 2020-11-23 06:49:10  -3.9   89   766 
 2020-11-23 06:44:06  -3.9   89   766 
 2020-11-23 06:39:02  -3.9   89   766 
 2020-11-23 06:33:58  -3.8   88   766 
 2020-11-23 06:28:54  -3.9   89   766 
 2020-11-23 06:23:50  -4.0   89   766 
 2020-11-23 06:18:45  -3.9   89   766 
 2020-11-23 06:13:41  -4.0   89   766 
 2020-11-23 06:08:37  -4.0   89   766 
 2020-11-23 06:03:33  -4.0   89   766 
 2020-11-23 05:58:29  -4.1   89   766 
 2020-11-23 05:53:25  -4.1   89   766 
 2020-11-23 05:48:21  -4.2   89   766 
 2020-11-23 05:43:17  -4.1   89   766 
 2020-11-23 05:38:13  -4.1   89   766 
 2020-11-23 05:33:09  -4.2   89   766 
 2020-11-23 05:28:05  -4.1   88   766 
 2020-11-23 05:23:01  -4.1   88   766 
 2020-11-23 05:17:57  -4.1   88   766 
 2020-11-23 05:12:53  -4.2   88   766 
 2020-11-23 05:07:49  -4.3   88   766 
 2020-11-23 05:02:45  -4.2   88   766 
 2020-11-23 04:57:41  -4.3   88   766 
 2020-11-23 04:52:37  -4.3   88   765 
 2020-11-23 04:47:33  -4.3   88   766 
 2020-11-23 04:42:28  -4.3   88   766 
 2020-11-23 04:37:24  -4.4   89   765 
 2020-11-23 04:32:20  -4.4   88   765 
 2020-11-23 04:27:16  -4.4   88   766 
 2020-11-23 04:22:12  -4.4   88   766 
 2020-11-23 04:17:08  -4.5   88   765 
 2020-11-23 04:12:04  -4.4   87   765 
 2020-11-23 04:07:00  -4.4   87   765 
 2020-11-23 04:01:56  -4.4   87   766 
 2020-11-23 03:56:52  -4.4   87   765 
 2020-11-23 03:51:48  -4.4   87   765 
 2020-11-23 03:46:44  -4.5   87   765 
 2020-11-23 03:41:40  -4.4   86   765 
 2020-11-23 03:36:36  -4.4   86   765 
 2020-11-23 03:31:32  -4.5   85   765 
 2020-11-23 03:26:28  -4.4   85   765 
 2020-11-23 03:21:24  -4.5   84   765 
 2020-11-23 03:16:20  -4.5   83   765 
 2020-11-23 03:11:15  -4.3   82   765 
 2020-11-23 03:06:11  -4.5   82   765 
 2020-11-23 03:01:07  -4.4   82   765 
 2020-11-23 02:56:03  -4.4   81   765 
 2020-11-23 02:50:59  -4.2   80   765 
 2020-11-23 02:45:55  -4.2   80   765 
 2020-11-23 02:40:51  -4.3   80   765 
 2020-11-23 02:35:47  -4.2   80   765 
 2020-11-23 02:30:43  -4.2   79   765 
 2020-11-23 02:25:39  -4.2   78   765 
 2020-11-23 02:20:35  -4.2   78   765 
 2020-11-23 02:15:31  -4.2   78   765 
 2020-11-23 02:10:27  -4.2   78   765 
 2020-11-23 02:05:23  -4.2   78   765 
 2020-11-23 02:00:19  -4.2   77   765 
 2020-11-23 01:55:15  -4.1   77   765 
 2020-11-23 01:50:11  -4.1   77   765 
 2020-11-23 01:45:07  -4.0   77   765 
 2020-11-23 01:40:03  -3.9   78   765 
 2020-11-23 01:34:58  -3.9   77   765 
 2020-11-23 01:29:54  -4.0   77   765 
 2020-11-23 01:24:50  -4.1   76   765 
 2020-11-23 01:19:46  -4.1   77   764 
 2020-11-23 01:14:42  -4.0   77   764 
 2020-11-23 01:09:38  -3.9   77   764 
 2020-11-23 01:04:34  -4.1   77   764 
 2020-11-23 00:59:30  -4.0   76   764 
 2020-11-23 00:54:26  -3.9   77   764 
 2020-11-23 00:49:22  -4.1   77   764 
 2020-11-23 00:44:18  -4.0   76   764 
 2020-11-23 00:39:14  -4.1   76   764 
 2020-11-23 00:34:10  -4.0   76   764 
 2020-11-23 00:29:06  -4.0   77   764 
 2020-11-23 00:24:02  -4.1   76   764 
 2020-11-23 00:18:58  -4.1   76   764 
 2020-11-23 00:13:53  -4.0   76   764 
 2020-11-23 00:08:49  -3.9   76   764 
 2020-11-23 00:03:45  -3.9   76   764 
 2020-11-22 23:58:41  -3.9   76   764 
 2020-11-22 23:53:37  -4.0   75   764 
 2020-11-22 23:48:33  -3.9   76   764 
 2020-11-22 23:43:29  -3.9   76   764 
 2020-11-22 23:38:24  -3.9   76   764 
 2020-11-22 23:33:20  -3.9   75   764 
 2020-11-22 23:28:16  -3.8   76   764 
 2020-11-22 23:23:12  -3.8   75   764 
 2020-11-22 23:18:06  -3.9   76   764 
 2020-11-22 23:13:02  -4.0   76   764 
 2020-11-22 23:07:58  -3.9   75   764 
 2020-11-22 23:02:52  -3.9   76   764 
 2020-11-22 22:57:48  -3.9   76   764 
 2020-11-22 22:52:44  -3.9   76   764 
 2020-11-22 22:47:40  -3.9   75   764 
 2020-11-22 22:42:36  -3.9   75   764 
 2020-11-22 22:37:32  -3.9   76   764 
 2020-11-22 22:32:28  -3.8   76   764 
 2020-11-22 22:27:24  -3.7   76   764 
 2020-11-22 22:22:20  -3.7   76   764 
 2020-11-22 22:17:16  -3.7   76   764 
 2020-11-22 22:12:12  -3.8   76   764 
 2020-11-22 22:07:08  -3.6   76   764 
 2020-11-22 22:02:04  -3.7   77   764 
 2020-11-22 21:57:00  -3.5   75   764 
 2020-11-22 21:51:56  -3.6   76   764 
 2020-11-22 21:46:51  -3.7   76   764 
 2020-11-22 21:41:47  -3.6   76   764 
 2020-11-22 21:36:43  -3.5   76   764 
 2020-11-22 21:31:39  -3.5   76   764 
 2020-11-22 21:26:34  -3.7   76   764 
 2020-11-22 21:21:29  -3.7   76   764 
 2020-11-22 21:16:25  -3.9   76   764 
 2020-11-22 21:11:21  -3.8   76   764 
 2020-11-22 21:06:17  -3.7   77   764 
 2020-11-22 21:01:13  -3.7   76   764 
 2020-11-22 20:56:09  -3.8   76   764 
 2020-11-22 20:51:04  -3.8   76   764 
 2020-11-22 20:46:00  -3.8   76   764 
 2020-11-22 20:40:56  -3.8   76   764 
 2020-11-22 20:35:52  -3.6   77   764 
 2020-11-22 20:30:48  -3.8   76   764 
 2020-11-22 20:25:44  -3.8   76   764 
 2020-11-22 20:20:40  -3.8   76   764 
 2020-11-22 20:15:36  -3.8   76   764 
 2020-11-22 20:10:31  -3.8   77   764 
 2020-11-22 20:05:27  -3.7   76   764 
 2020-11-22 20:00:23  -3.7   76   764 
 2020-11-22 19:55:17  -3.8   76   764 
 2020-11-22 19:50:13  -3.6   75   764 
 2020-11-22 19:45:09  -3.7   76   764 
 2020-11-22 19:40:05  -3.8   75   764 
 2020-11-22 19:35:00  -3.8   75   764 
 2020-11-22 19:29:56  -3.7   75   764 
 2020-11-22 19:24:52  -3.6   75   764 
 2020-11-22 19:19:48  -3.6   75   764 
 2020-11-22 19:14:44  -3.6   74   764 
 2020-11-22 19:09:40  -3.6   75   764 
 2020-11-22 19:04:36  -3.6   75   764 
 2020-11-22 18:59:32  -3.6   74   764 
 2020-11-22 18:54:28  -3.6   74   764 
 2020-11-22 18:49:24  -3.7   74   764 
 2020-11-22 18:44:19  -3.4   74   764 
 2020-11-22 18:39:15  -3.5   74   764 
 2020-11-22 18:34:11  -3.6   74   764 
 2020-11-22 18:29:07  -3.7   74   764 
 2020-11-22 18:24:03  -3.6   74   764 
 2020-11-22 18:18:59  -3.5   73   764 
 2020-11-22 18:13:55  -3.5   73   764 
 2020-11-22 18:08:51  -3.5   73   764 
 2020-11-22 18:03:46  -3.4   73   764 
 2020-11-22 17:58:42  -3.4   73   764 
 2020-11-22 17:53:38  -3.4   73   764 
 2020-11-22 17:48:34  -3.4   73   764 
 2020-11-22 17:43:29  -3.4   73   764 
 2020-11-22 17:38:25  -3.5   73   764 
 2020-11-22 17:33:20  -3.4   71   764 
 2020-11-22 17:28:14  -3.2   71   764 
 2020-11-22 17:23:10  -3.4   72   764 
 2020-11-22 17:18:06  -3.4   72   764 
 2020-11-22 17:13:02  -3.4   71   764 
 2020-11-22 17:07:58  -3.4   71   764 
 2020-11-22 17:02:52  -3.4   72   764 
 2020-11-22 16:57:48  -3.3   71   764 
 2020-11-22 16:52:44  -3.2   73   764 
 2020-11-22 16:47:40  -3.4   71   763 
 2020-11-22 16:42:36  -3.4   72   763 
 2020-11-22 16:37:32  -3.4   72   763 
 2020-11-22 16:32:28  -3.3   72   763 
 2020-11-22 16:27:24  -3.2   72   764 
 2020-11-22 16:22:20  -3.4   72   763 
 2020-11-22 16:17:16  -3.2   72   763 
 2020-11-22 16:12:12  -3.4   71   763 
 2020-11-22 16:07:07  -3.2   71   763 
 2020-11-22 16:02:03  -3.4   72   763 
 2020-11-22 15:56:59  -3.4   71   763 
 2020-11-22 15:51:55  -3.2   71   763 
 2020-11-22 15:46:51  -3.2   71   763 
 2020-11-22 15:41:47  -3.2   71   763 
 2020-11-22 15:36:43  -3.2   71   763 
 2020-11-22 15:31:39  -3.4   70   763 
 2020-11-22 15:26:35  -3.4   70   763 
 2020-11-22 15:21:31  -3.3   71   763 
 2020-11-22 15:16:27  -3.3   70   763 
 2020-11-22 15:11:23  -3.2   71   763 
 2020-11-22 15:06:19  -3.4   71   763 
 2020-11-22 15:01:15  -3.3   69   763 
 2020-11-22 14:56:11  -3.2   71   764 
 2020-11-22 14:51:07  -3.3   70   764 
 2020-11-22 14:46:03  -3.0   69   763 
 2020-11-22 14:40:59  -3.3   70   764 
 2020-11-22 14:35:55  -3.4   71   764 
 2020-11-22 14:30:51  -3.6   71   764 
 2020-11-22 14:25:46  -3.5   70   764 
 2020-11-22 14:20:42  -3.5   71   764 
 2020-11-22 14:15:38  -3.6   71   764 
 2020-11-22 14:10:34  -3.7   71   764 
 2020-11-22 14:05:30  -3.6   71   764 
 2020-11-22 14:00:26  -3.9   71   764 
 2020-11-22 13:55:22  -3.9   70   764 
 2020-11-22 13:50:18  -3.8   71   764 
 2020-11-22 13:45:14  -3.8   71   764 
 2020-11-22 13:40:10  -3.6   70   764 
 2020-11-22 13:35:06  -3.7   70   764 
 2020-11-22 13:30:02  -4.0   71   764 
 2020-11-22 13:24:58  -4.1   72   764 
 2020-11-22 13:19:54  -4.1   71   764 
 2020-11-22 13:14:50  -4.2   71   764 
 2020-11-22 13:09:46  -4.2   71   764 
 2020-11-22 13:04:42  -4.2   70   764 
 2020-11-22 12:54:34  -4.3   71   764 
 2020-11-22 12:49:30  -4.2   70   764 
 2020-11-22 12:44:26  -4.1   71   764 
 2020-11-22 12:39:22  -4.1   71   764 
 2020-11-22 12:34:18  -4.3   70   764 
 2020-11-22 12:29:14  -4.2   71   764 
 2020-11-22 12:24:10  -4.3   71   764 
 2020-11-22 12:19:05  -4.2   71   764 
 2020-11-22 12:14:01  -4.3   71   764 
 2020-11-22 12:08:57  -4.3   71   764 
 2020-11-22 12:03:53  -4.4   71   764 
 2020-11-22 11:58:49  -4.5   71   764 
 2020-11-22 11:53:45  -4.4   71   764 
 2020-11-22 11:48:41  -4.5   71   764 
 2020-11-22 11:43:37  -4.6   72   764 
 2020-11-22 11:38:33  -4.6   71   764 
 2020-11-22 11:33:29  -4.6   72   764 
 2020-11-22 11:28:25  -4.8   72   764 
 2020-11-22 11:23:21  -4.8   72   764 
 2020-11-22 11:18:17  -4.9   72   764 
 2020-11-22 11:13:13  -4.8   72   764 
 2020-11-22 11:08:09  -4.8   72   764 
 2020-11-22 11:03:05  -4.8   72   764 
 2020-11-22 10:58:01  -4.9   72   764 
 2020-11-22 10:52:57  -5.0   73   764 
 2020-11-22 10:47:53  -5.1   73   764 
 2020-11-22 10:42:49  -4.9   72   764 
 2020-11-22 10:37:45  -5.0   73   764 
 2020-11-22 10:32:40  -5.1   73   764 
 2020-11-22 10:27:36  -4.9   73   764 
 2020-11-22 10:22:32  -5.0   72   764 
 2020-11-22 10:17:28  -5.1   74   764 
 2020-11-22 10:12:24  -5.2   73   764 
 2020-11-22 10:07:20  -5.1   74   764 
 2020-11-22 10:02:16  -5.2   73   764 
 2020-11-22 09:57:12  -5.2   73   764 
 2020-11-22 09:52:08  -5.2   73   764 
 2020-11-22 09:47:04  -5.3   74   764 
 2020-11-22 09:42:00  -5.3   74   764 
 2020-11-22 09:36:56  -5.2   74   764 
 2020-11-22 09:31:52  -5.2   74   764 
 2020-11-22 09:26:48  -5.3   74   764 
 2020-11-22 09:21:44  -5.3   73   764 
 2020-11-22 09:16:39  -5.4   74   764 
 2020-11-22 09:11:35  -5.4   74   764 
 2020-11-22 09:06:31  -5.3   74   764 
 2020-11-22 09:01:27  -5.4   73   764 
 2020-11-22 08:56:23  -5.4   73   764 
 2020-11-22 08:51:19  -5.3   73   764 
 2020-11-22 08:46:15  -5.3   73   764 
 2020-11-22 08:41:11  -5.2   73   764 
 2020-11-22 08:36:07  -5.2   73   764 
 2020-11-22 08:31:02  -5.1   73   764 
 2020-11-22 08:25:58  -5.1   73   764 
 2020-11-22 08:20:54  -5.2   73   764 
 2020-11-22 08:15:50  -5.2   73   764 
 2020-11-22 08:10:46  -5.1   73   764 
 2020-11-22 08:05:42  -5.0   73   764 
 2020-11-22 08:00:38  -5.0   73   764 
 2020-11-22 07:55:34  -5.0   72   764 
 2020-11-22 07:50:30  -5.1   73   764 
 2020-11-22 07:45:26  -5.0   73   764 
 2020-11-22 07:40:21  -4.9   73   764 
 2020-11-22 07:35:17  -5.0   72   764 
 2020-11-22 07:30:13  -5.1   73   764 
 2020-11-22 07:25:09  -5.0   73   764 
 2020-11-22 07:20:05  -5.0   73   764 
 2020-11-22 07:15:01  -5.0   72   764 
 2020-11-22 07:09:57  -5.1   72   764 
 2020-11-22 07:04:52  -5.0   72   764 
 2020-11-22 06:59:48  -4.9   72   764 
 2020-11-22 06:54:44  -4.9   72   764 
 2020-11-22 06:49:40  -4.8   72   764 
 2020-11-22 06:44:36  -4.7   72   764 
 2020-11-22 06:39:32  -4.7   72   764 
 2020-11-22 06:34:28  -4.7   72   764 
 2020-11-22 06:29:24  -4.7   72   764 
 2020-11-22 06:24:19  -4.6   72   764 
 2020-11-22 06:19:15  -4.7   72   764 
 2020-11-22 06:14:11  -4.7   73   764 
 2020-11-22 06:09:07  -4.6   72   764 
 2020-11-22 06:04:03  -4.7   72   764 
 2020-11-22 05:58:59  -4.7   71   764 
 2020-11-22 05:53:55  -4.9   72   764 
 2020-11-22 05:48:51  -4.6   72   764 
 2020-11-22 05:43:46  -4.7   72   764 
 2020-11-22 05:38:41  -4.8   72   764 
 2020-11-22 05:33:37  -4.8   72   764 
 2020-11-22 05:28:33  -4.7   71   763 
 2020-11-22 05:23:29  -4.8   72   763 
 2020-11-22 05:18:25  -4.7   72   763 
 2020-11-22 05:13:21  -4.8   71   763 
 2020-11-22 05:08:17  -4.8   72   763 
 2020-11-22 05:03:12  -4.8   71   763 
 2020-11-22 04:58:08  -4.8   72   764 
 2020-11-22 04:53:04  -4.8   71   764 
 2020-11-22 04:48:00  -4.7   71   764 
 2020-11-22 04:42:56  -4.8   71   763 
 2020-11-22 04:37:52  -4.8   72   764 
 2020-11-22 04:32:48  -4.8   71   763 
 2020-11-22 04:27:44  -4.7   71   763 
 2020-11-22 04:22:40  -4.7   71   763 
 2020-11-22 04:17:35  -4.7   71   763 
 2020-11-22 04:12:31  -4.8   70   763 
 2020-11-22 04:07:26  -4.8   71   763 
 2020-11-22 04:02:22  -4.7   70   763 
 2020-11-22 03:57:18  -4.6   70   763 
 2020-11-22 03:52:14  -4.6   71   763 
 2020-11-22 03:47:10  -4.6   70   763 
 2020-11-22 03:42:06  -4.6   70   763 
 2020-11-22 03:37:02  -4.6   71   763 
 2020-11-22 03:31:57  -4.6   71   763 
 2020-11-22 03:26:52  -4.6   71   763 
 2020-11-22 03:21:48  -4.6   70   763 
 2020-11-22 03:16:44  -4.6   71   763 
 2020-11-22 03:11:40  -4.6   70   763 
 2020-11-22 03:06:36  -4.4   70   763 
 2020-11-22 03:01:32  -4.5   70   763 
 2020-11-22 02:56:28  -4.6   70   763 
 2020-11-22 02:51:24  -4.4   70   763 
 2020-11-22 02:46:19  -4.4   71   763 
 2020-11-22 02:41:15  -4.4   70   763 
 2020-11-22 02:36:11  -4.5   71   763 
 2020-11-22 02:31:07  -4.5   71   763 
 2020-11-22 02:26:03  -4.4   70   763 
 2020-11-22 02:20:59  -4.5   70   763 
 2020-11-22 02:15:55  -4.4   70   763 
 2020-11-22 02:10:51  -4.5   71   763 
 2020-11-22 02:05:47  -4.4   70   763 
 2020-11-22 02:00:43  -4.4   71   763 
 2020-11-22 01:55:38  -4.2   71   763 
 2020-11-22 01:50:34  -4.2   71   763 
 2020-11-22 01:45:30  -4.2   70   763 
 2020-11-22 01:40:25  -4.1   71   763 
 2020-11-22 01:35:21  -4.0   72   764 
 2020-11-22 01:30:17  -4.0   71   763 
 2020-11-22 01:25:13  -3.9   71   763 
 2020-11-22 01:20:08  -3.9   71   763 
 2020-11-22 01:15:04  -4.0   71   763 
 2020-11-22 01:10:00  -4.0   70   763 
 2020-11-22 01:04:56  -4.1   70   763 
 2020-11-22 00:59:52  -4.0   70   763 
 2020-11-22 00:54:48  -4.0   69   763 
 2020-11-22 00:49:44  -3.9   69   763 
 2020-11-22 00:44:40  -3.9   70   763 
 2020-11-22 00:39:36  -4.0   68   763 
 2020-11-22 00:34:32  -3.9   69   763 
 2020-11-22 00:29:27  -3.9   68   763 
 2020-11-22 00:24:22  -3.9   69   763 
 2020-11-22 00:19:18  -4.0   68   763 
 2020-11-22 00:14:14  -3.9   68   763 
 2020-11-22 00:09:10  -4.0   68   763 
 2020-11-22 00:04:06  -3.9   69   763 
 2020-11-21 23:59:01  -4.0   68   763 
 2020-11-21 23:53:57  -3.9   69   763 
 2020-11-21 23:48:53  -3.8   68   763 
 2020-11-21 23:43:49  -3.8   69   763 
 2020-11-21 23:38:45  -3.8   69   763 
 2020-11-21 23:33:41  -3.7   69   763 
 2020-11-21 23:28:37  -3.8   69   763 
 2020-11-21 23:23:33  -3.8   70   763 
 2020-11-21 23:18:29  -3.9   69   763 
 2020-11-21 23:13:25  -3.8   69   763 
 2020-11-21 23:08:21  -3.9   71   763 
 2020-11-21 23:03:17  -4.0   70   763 
 2020-11-21 22:58:13  -3.9   70   763 
 2020-11-21 22:53:09  -3.9   71   763 
 2020-11-21 22:48:05  -3.8   70   763 
 2020-11-21 22:43:00  -3.9   71   763 
 2020-11-21 22:37:56  -3.8   70   763 
 2020-11-21 22:32:52  -3.8   70   763 
 2020-11-21 22:27:48  -3.6   70   763 
 2020-11-21 22:22:44  -3.6   70   763 
 2020-11-21 22:17:40  -3.5   70   763 
 2020-11-21 22:12:36  -3.5   69   763 
 2020-11-21 22:07:32  -3.5   70   763 
 2020-11-21 22:02:27  -3.4   69   763 
 2020-11-21 21:57:23  -3.4   70   763 
 2020-11-21 21:52:19  -3.3   69   763 
 2020-11-21 21:47:15  -3.2   69   763 
 2020-11-21 21:42:11  -3.3   69   763 
 2020-11-21 21:37:06  -3.2   69   763 
 2020-11-21 21:32:02  -3.2   70   763 
 2020-11-21 21:26:58  -3.2   70   763 
 2020-11-21 21:21:54  -3.2   69   763 
 2020-11-21 21:16:50  -3.1   70   763 
 2020-11-21 21:11:44  -3.1   69   763 
 2020-11-21 21:06:40  -3.1   68   763 
 2020-11-21 21:01:36  -3.1   69   763 
 2020-11-21 20:56:32  -3.2   69   763 
 2020-11-21 20:51:28  -3.2   70   763 
 2020-11-21 20:46:23  -3.2   70   763 
 2020-11-21 20:41:19  -3.1   68   763 
 2020-11-21 20:36:15  -3.1   69   763 
 2020-11-21 20:31:11  -3.1   70   763 
 2020-11-21 20:26:07  -3.0   69   763 
 2020-11-21 20:21:03  -3.0   68   763 
 2020-11-21 20:15:59  -2.9   68   763 
 2020-11-21 20:10:55  -2.9   69   763 
 2020-11-21 20:05:51  -3.0   69   763 
 2020-11-21 20:00:47  -3.0   68   763 
 2020-11-21 19:55:43  -2.9   68   763 
 2020-11-21 19:50:37  -2.8   68   763 
 2020-11-21 19:45:32  -2.9   68   763 
 2020-11-21 19:40:28  -2.9   68   763 
 2020-11-21 19:35:24  -2.9   68   763 
 2020-11-21 19:30:20  -2.9   68   763 
 2020-11-21 19:25:16  -2.9   68   762 
 2020-11-21 19:20:12  -2.9   68   763 
 2020-11-21 19:15:08  -2.9   68   762 
 2020-11-21 19:10:04  -2.9   68   762 
 2020-11-21 19:04:59  -2.9   68   762 
 2020-11-21 18:59:54  -2.9   68   762 
 2020-11-21 18:54:50  -2.9   68   762 
 2020-11-21 18:49:46  -2.8   68   762 
 2020-11-21 18:39:33  -2.8   69   762 
 2020-11-21 18:34:29  -2.8   68   762 
 2020-11-21 18:29:25  -2.9   68   762 
 2020-11-21 18:24:21  -2.8   68   762 
 2020-11-21 18:19:17  -2.8   68   762 
 2020-11-21 18:14:13  -2.8   68   762 
 2020-11-21 18:09:08  -2.7   68   762 
 2020-11-21 18:04:04  -2.8   69   762 
 2020-11-21 17:59:00  -2.8   69   762 
 2020-11-21 17:53:56  -2.8   68   762 
 2020-11-21 17:48:52  -2.8   68   762 
 2020-11-21 17:43:48  -2.7   69   762 
 2020-11-21 17:38:44  -2.8   69   762 
 2020-11-21 17:33:40  -2.8   69   762 
 2020-11-21 17:28:36  -2.8   69   762 
 2020-11-21 17:23:31  -2.7   69   762 
 2020-11-21 17:18:27  -2.8   69   762 
 2020-11-21 17:13:23  -2.7   69   762 
 2020-11-21 17:08:19  -2.8   69   762 
 2020-11-21 17:03:15  -2.7   69   762 
 2020-11-21 16:58:11  -2.7   69   762 
 2020-11-21 16:53:07  -2.8   69   762 
 2020-11-21 16:48:03  -2.8   69   762 
 2020-11-21 16:42:59  -2.7   69   762 
 2020-11-21 16:37:55  -2.6   69   762 
 2020-11-21 16:32:51  -2.6   69   762 
 2020-11-21 16:27:47  -2.6   69   762 
 2020-11-21 16:22:43  -2.6   69   762 
 2020-11-21 16:17:39  -2.4   70   762 
 2020-11-21 16:12:34  -2.4   69   762 
 2020-11-21 16:07:30  -2.5   70   762 
 2020-11-21 16:02:26  -2.5   69   762 
 2020-11-21 15:57:22  -2.5   69   762 
 2020-11-21 15:52:18  -2.5   69   762 
 2020-11-21 15:47:14  -2.4   70   762 
 2020-11-21 15:42:09  -2.5   69   762 
 2020-11-21 15:37:05  -2.4   69   762 
 2020-11-21 15:26:57  -2.4   69   762 
 2020-11-21 15:21:53  -2.4   70   761 
 2020-11-21 15:16:49  -2.4   70   762 
 2020-11-21 15:11:45  -2.4   69   761 
 2020-11-21 15:06:41  -2.2   69   761 
 2020-11-21 15:01:37  -2.2   70   761 
 2020-11-21 14:56:33  -2.3   69   761 
 2020-11-21 14:51:28  -2.3   70   761 
 2020-11-21 14:46:24  -2.4   70   761 
 2020-11-21 14:41:20  -2.4   70   761 
 2020-11-21 14:36:16  -2.5   70   761 
 2020-11-21 14:31:12  -2.4   71   761 
 2020-11-21 14:26:08  -2.4   71   761 
 2020-11-21 14:21:04  -2.5   71   761 
 2020-11-21 14:16:00  -2.6   71   761 
 2020-11-21 14:10:56  -2.6   71   761 
 2020-11-21 14:05:52  -2.6   72   761 
 2020-11-21 14:00:48  -2.5   73   761 
 2020-11-21 13:55:44  -2.6   73   761 
 2020-11-21 13:50:36  -2.5   73   761 
 2020-11-21 13:45:32  -2.6   73   761 
 2020-11-21 13:40:28  -2.8   73   761 
 2020-11-21 13:35:24  -2.8   73   761 
 2020-11-21 13:30:20  -2.7   74   761 
 2020-11-21 13:25:16  -2.8   75   761 
 2020-11-21 13:20:12  -2.8   75   761 
 2020-11-21 13:15:07  -2.8   75   761 
 2020-11-21 13:10:03  -2.9   76   761 
 2020-11-21 13:04:59  -2.9   76   761 
 2020-11-21 12:59:55  -2.9   77   761 
 2020-11-21 12:54:51  -2.9   77   761 
 2020-11-21 12:49:47  -2.9   77   761 
 2020-11-21 12:44:43  -3.1   78   761 
 2020-11-21 12:39:39  -3.1   78   761 
 2020-11-21 12:34:35  -3.1   78   761 
 2020-11-21 12:29:31  -3.1   79   761 
 2020-11-21 12:24:27  -3.2   79   761 
 2020-11-21 12:19:23  -3.2   79   761 
 2020-11-21 12:14:18  -3.3   80   761 
 2020-11-21 12:09:14  -3.4   79   761 
 2020-11-21 12:04:10  -3.3   80   761 
 2020-11-21 11:59:06  -3.6   81   761 
 2020-11-21 11:54:02  -3.4   81   761 
 2020-11-21 11:48:58  -3.5   81   761 
 2020-11-21 11:43:54  -3.6   81   761 
 2020-11-21 11:38:50  -3.5   81   761 
 2020-11-21 11:33:46  -3.6   81   761 
 2020-11-21 11:28:42  -3.6   81   761 
 2020-11-21 11:23:38  -3.6   81   761 
 2020-11-21 11:18:34  -3.6   81   761 
 2020-11-21 11:13:30  -3.7   81   761 
 2020-11-21 11:08:26  -3.8   82   761 
 2020-11-21 11:03:21  -3.7   81   761 
 2020-11-21 10:58:17  -3.7   81   761 
 2020-11-21 10:53:13  -3.7   81   761 
 2020-11-21 10:48:09  -3.7   81   761 
 2020-11-21 10:43:05  -3.8   81   761 
 2020-11-21 10:38:01  -3.8   81   761 
 2020-11-21 10:32:57  -3.8   81   761 
 2020-11-21 10:27:53  -3.8   81   761 
 2020-11-21 10:22:48  -3.8   82   761 
 2020-11-21 10:17:44  -3.9   82   761 
 2020-11-21 10:12:40  -3.9   83   761 
 2020-11-21 10:07:36  -4.0   84   761 
 2020-11-21 10:02:32  -4.1   85   761 
 2020-11-21 09:57:28  -4.0   86   761 
 2020-11-21 09:52:24  -4.1   85   761 
 2020-11-21 09:47:20  -4.1   85   761 
 2020-11-21 09:42:16  -3.9   85   761 
 2020-11-21 09:37:12  -4.0   85   761 
 2020-11-21 09:32:08  -4.0   85   761 
 2020-11-21 09:27:04  -4.1   85   761 
 2020-11-21 09:22:00  -4.2   87   761 
 2020-11-21 09:16:56  -4.2   88   761 
 2020-11-21 09:11:52  -4.2   88   761 
 2020-11-21 09:06:47  -4.2   88   761 
 2020-11-21 09:01:43  -4.2   88   761 
 2020-11-21 08:56:39  -4.2   88   761 
 2020-11-21 08:51:35  -4.1   88   761 
 2020-11-21 08:46:31  -4.2   88   761 
 2020-11-21 08:41:27  -4.2   89   761 
 2020-11-21 08:36:23  -4.2   89   761 
 2020-11-21 08:31:19  -4.1   89   761 
 2020-11-21 08:26:15  -4.1   89   761 
 2020-11-21 08:21:11  -4.1   88   761 
 2020-11-21 08:16:07  -4.0   88   761 
 2020-11-21 08:11:03  -4.0   87   761 
 2020-11-21 08:05:59  -3.9   88   761 
 2020-11-21 08:00:55  -4.1   88   761 
 2020-11-21 07:55:51  -4.1   89   761 
 2020-11-21 07:50:47  -4.1   88   761 
 2020-11-21 07:45:42  -4.1   89   761 
 2020-11-21 07:40:38  -4.2   89   761 
 2020-11-21 07:35:34  -4.2   89   761 
 2020-11-21 07:30:30  -4.2   88   761 
 2020-11-21 07:25:26  -4.2   88   761 
 2020-11-21 07:20:22  -4.2   88   761 
 2020-11-21 07:15:18  -4.2   88   761 
 2020-11-21 07:10:13  -4.2   88   761 
 2020-11-21 07:05:08  -4.2   88   761 
 2020-11-21 07:00:04  -4.4   88   761 
 2020-11-21 06:55:00  -4.3   89   761 
 2020-11-21 06:49:56  -4.4   89   761 
 2020-11-21 06:44:52  -4.4   89   761 
 2020-11-21 06:39:48  -4.3   90   761 
 2020-11-21 06:34:44  -4.4   89   761 
 2020-11-21 06:29:40  -4.4   88   761 
 2020-11-21 06:24:35  -4.4   88   761 
 2020-11-21 06:19:31  -4.2   88   761 
 2020-11-21 06:14:27  -4.4   88   761 
 2020-11-21 06:09:23  -4.3   88   761 
 2020-11-21 06:04:19  -4.4   87   761 
 2020-11-21 05:59:14  -4.2   87   761 
 2020-11-21 05:54:10  -4.3   86   761 
 2020-11-21 05:49:06  -4.3   86   761 
 2020-11-21 05:44:02  -4.2   86   761 
 2020-11-21 05:38:57  -4.2   86   761 
 2020-11-21 05:33:53  -4.2   85   761 
 2020-11-21 05:28:49  -4.2   86   761 
 2020-11-21 05:23:45  -4.2   86   761 
 2020-11-21 05:18:41  -4.3   87   761 
 2020-11-21 05:13:37  -4.4   88   761 
 2020-11-21 05:08:33  -4.4   88   761 
 2020-11-21 05:03:28  -4.3   88   761 
 2020-11-21 04:58:24  -4.3   88   761 
 2020-11-21 04:53:20  -4.3   87   761 
 2020-11-21 04:48:16  -4.2   87   761 
 2020-11-21 04:43:12  -4.3   87   761 
 2020-11-21 04:38:08  -4.2   87   761 
 2020-11-21 04:33:04  -4.2   86   761 
 2020-11-21 04:28:00  -4.2   86   761 
 2020-11-21 04:22:56  -4.2   87   761 
 2020-11-21 04:17:51  -4.2   87   761 
 2020-11-21 04:12:47  -4.2   86   761 
 2020-11-21 04:07:43  -4.1   86   761 
 2020-11-21 04:02:39  -4.2   86   761 
 2020-11-21 03:57:35  -4.2   85   762 
 2020-11-21 03:52:31  -4.1   85   762 
 2020-11-21 03:47:27  -4.1   85   762 
 2020-11-21 03:42:23  -4.0   85   762 
 2020-11-21 03:37:19  -4.0   85   762 
 2020-11-21 03:32:15  -4.1   85   762 
 2020-11-21 03:27:10  -4.1   86   762 
 2020-11-21 03:22:06  -4.1   86   762 
 2020-11-21 03:17:02  -4.1   85   762 
 2020-11-21 03:11:58  -4.0   86   762 
 2020-11-21 03:06:54  -4.1   86   762 
 2020-11-21 03:01:50  -4.0   85   762 
 2020-11-21 02:56:46  -3.9   83   762 
 2020-11-21 02:51:41  -3.8   81   762 
 2020-11-21 02:46:37  -3.8   81   762 
 2020-11-21 02:41:33  -3.8   82   762 
 2020-11-21 02:36:29  -3.7   81   762 
 2020-11-21 02:31:25  -3.8   81   762 
 2020-11-21 02:26:21  -3.7   80   762 
 2020-11-21 02:21:17  -3.6   79   762 
 2020-11-21 02:16:13  -3.6   78   762 
 2020-11-21 02:11:09  -3.5   77   762 
 2020-11-21 02:06:05  -3.5   77   762 
 2020-11-21 02:01:00  -3.4   75   762 
 2020-11-21 01:55:56  -3.4   76   762 
 2020-11-21 01:50:52  -3.5   76   763 
 2020-11-21 01:45:48  -3.5   76   762 
 2020-11-21 01:40:44  -3.4   76   763 
 2020-11-21 01:35:40  -3.4   75   763 
 2020-11-21 01:30:36  -3.4   75   763 
 2020-11-21 01:25:32  -3.4   75   763 
 2020-11-21 01:20:28  -3.4   76   763 
 2020-11-21 01:15:23  -3.4   75   763 
 2020-11-21 01:10:19  -3.4   75   763 
 2020-11-21 01:05:15  -3.5   76   763 
 2020-11-21 01:00:11  -3.6   75   763 
 2020-11-21 00:55:07  -3.5   76   763 
 2020-11-21 00:50:03  -3.6   76   763 
 2020-11-21 00:44:59  -3.6   76   763 
 2020-11-21 00:39:54  -3.7   76   763 
 2020-11-21 00:34:50  -3.7   76   763 
 2020-11-21 00:29:46  -3.7   76   763 
 2020-11-21 00:24:42  -3.7   76   763 
 2020-11-21 00:19:38  -3.6   77   763 
 2020-11-21 00:14:34  -3.7   77   763 
 2020-11-21 00:09:30  -3.7   77   763 
 2020-11-21 00:04:25  -3.6   77   763 
 2020-11-20 23:59:20  -3.7   77   763 
 2020-11-20 23:54:16  -3.7   78   764 
 2020-11-20 23:49:12  -3.7   77   764 
 2020-11-20 23:44:08  -3.8   78   764 
 2020-11-20 23:39:04  -3.8   78   764 
 2020-11-20 23:34:00  -3.8   78   764 
 2020-11-20 23:28:56  -3.8   78   764 
 2020-11-20 23:23:52  -3.8   78   764 
 2020-11-20 23:18:48  -3.9   78   764 
 2020-11-20 23:13:43  -3.9   78   764 
 2020-11-20 23:08:39  -3.9   78   764 
 2020-11-20 23:03:34  -3.9   78   764 
 2020-11-20 22:58:30  -3.9   78   764 
 2020-11-20 22:53:24  -4.0   78   764 
 2020-11-20 22:48:20  -4.1   78   764 
 2020-11-20 22:43:16  -4.1   79   764 
 2020-11-20 22:38:11  -4.1   78   764 
 2020-11-20 22:33:06  -4.1   79   764 
 2020-11-20 22:28:02  -4.1   79   764 
 2020-11-20 22:22:58  -4.2   79   764 
 2020-11-20 22:17:54  -4.2   79   764 
 2020-11-20 22:12:50  -4.2   79   764 
 2020-11-20 22:07:46  -4.2   79   764 
 2020-11-20 22:02:42  -4.2   79   764 
 2020-11-20 21:57:38  -4.3   79   764 
 2020-11-20 21:52:34  -4.2   79   764 
 2020-11-20 21:47:27  -4.3   79   764 
 2020-11-20 21:42:22  -4.3   79   764 
 2020-11-20 21:37:17  -4.3   79   764 
 2020-11-20 21:32:13  -4.2   80   764 
 2020-11-20 21:27:09  -4.4   79   764 
 2020-11-20 21:22:05  -4.4   80   764 
 2020-11-20 21:17:01  -4.4   80   764 
 2020-11-20 21:11:57  -4.3   80   764 
 2020-11-20 21:06:52  -4.5   80   765 
 2020-11-20 21:01:48  -4.4   80   765 
 2020-11-20 20:56:44  -4.5   80   765 
 2020-11-20 20:51:40  -4.6   80   765 
 2020-11-20 20:46:36  -4.6   80   765 
 2020-11-20 20:41:32  -4.6   81   765 
 2020-11-20 20:36:28  -4.7   80   765 
 2020-11-20 20:31:22  -4.8   80   765 
 2020-11-20 20:26:18  -4.7   80   765 
 2020-11-20 20:21:14  -4.9   81   765 
 2020-11-20 20:16:10  -4.8   80   765 
 2020-11-20 20:11:05  -4.8   81   765 
 2020-11-20 20:06:01  -4.9   81   765 
 2020-11-20 20:00:57  -4.8   80   765 
 2020-11-20 19:55:53  -4.8   81   765 
 2020-11-20 19:50:49  -4.9   81   765 
 2020-11-20 19:45:45  -4.8   80   765 
 2020-11-20 19:40:41  -5.1   81   765 
 2020-11-20 19:35:36  -4.9   80   765 
 2020-11-20 19:30:32  -5.0   80   765 
 2020-11-20 19:25:28  -5.0   80   765 
 2020-11-20 19:20:24  -4.9   81   765 
 2020-11-20 19:15:19  -5.0   81   765 
 2020-11-20 19:10:15  -5.1   81   765 
 2020-11-20 19:05:11  -5.1   81   765 
 2020-11-20 19:00:07  -5.1   81   765 
 2020-11-20 18:55:03  -5.1   81   765 
 2020-11-20 18:49:59  -5.1   81   765 
 2020-11-20 18:44:55  -5.1   80   765 
 2020-11-20 18:39:51  -5.1   80   765 
 2020-11-20 18:34:47  -5.1   80   765 
 2020-11-20 18:29:42  -5.1   80   765 
 2020-11-20 18:24:38  -5.1   80   765 
 2020-11-20 18:19:34  -5.1   80   765 
 2020-11-20 18:14:30  -5.2   80   765 
 2020-11-20 18:09:26  -5.2   80   765 
 2020-11-20 18:04:22  -5.2   80   765 
 2020-11-20 17:59:18  -5.1   80   766 
 2020-11-20 17:54:14  -5.2   80   765 
 2020-11-20 17:49:10  -5.2   80   766 
 2020-11-20 17:44:06  -5.2   80   766 
 2020-11-20 17:39:02  -5.2   80   766 
 2020-11-20 17:33:58  -5.3   80   766 
 2020-11-20 17:28:53  -5.2   79   766 
 2020-11-20 17:23:49  -5.4   79   766 
 2020-11-20 17:18:45  -5.3   79   766 
 2020-11-20 17:13:40  -5.2   79   766 
 2020-11-20 17:08:36  -5.3   79   766 
 2020-11-20 17:03:32  -5.2   79   766 
 2020-11-20 16:58:28  -5.3   79   766 
 2020-11-20 16:53:24  -5.2   79   766 
 2020-11-20 16:48:20  -5.3   79   766 
 2020-11-20 16:43:16  -5.3   79   766 
 2020-11-20 16:38:12  -5.4   79   766 
 2020-11-20 16:33:08  -5.4   79   766 
 2020-11-20 16:28:04  -5.4   79   766 
 2020-11-20 16:23:00  -5.3   79   766 
 2020-11-20 16:17:56  -5.4   79   766 
 2020-11-20 16:12:52  -5.2   79   766 
 2020-11-20 16:07:47  -5.2   79   766 
 2020-11-20 16:02:43  -5.3   80   766 
 2020-11-20 15:57:39  -5.3   80   766 
 2020-11-20 15:52:35  -5.4   80   766 
 2020-11-20 15:47:31  -5.4   79   766 
 2020-11-20 15:42:27  -5.4   80   766 
 2020-11-20 15:37:23  -5.4   80   766 
 2020-11-20 15:32:19  -5.4   80   766 
 2020-11-20 15:27:15  -5.4   80   766 
 2020-11-20 15:22:11  -5.4   79   766 
 2020-11-20 15:17:07  -5.4   80   766 
 2020-11-20 15:12:03  -5.2   80   766 
 2020-11-20 15:06:59  -5.4   80   766 
 2020-11-20 15:01:55  -5.4   80   766 
 2020-11-20 14:56:51  -5.5   80   766 
 2020-11-20 14:51:47  -5.4   80   766 
 2020-11-20 14:46:43  -5.4   80   766 
 2020-11-20 14:41:38  -5.4   80   766 
 2020-11-20 14:36:34  -5.5   80   766 
 2020-11-20 14:31:30  -5.4   80   766 
 2020-11-20 14:26:26  -5.5   80   766 
 2020-11-20 14:21:22  -5.3   80   766 
 2020-11-20 14:16:18  -5.4   80   766 
 2020-11-20 14:11:14  -5.4   81   766 
 2020-11-20 14:06:10  -5.5   81   766 
 2020-11-20 14:01:06  -5.6   81   766 
 2020-11-20 13:56:02  -5.6   81   766 
 2020-11-20 13:50:58  -5.6   81   766 
 2020-11-20 13:45:54  -5.5   81   766 
 2020-11-20 13:40:50  -5.6   82   766 
 2020-11-20 13:35:46  -5.6   82   766 
 2020-11-20 13:30:42  -5.8   82   766 
 2020-11-20 13:25:38  -5.6   82   766 
 2020-11-20 13:20:34  -5.6   82   766 
 2020-11-20 13:15:30  -5.6   82   766 
 2020-11-20 13:10:26  -5.6   82   766 
 2020-11-20 13:05:22  -5.6   2147483647   766 
 2020-11-20 13:00:18  -5.6   81   766 
 2020-11-20 12:55:14  -5.8   82   766 
 2020-11-20 12:50:10  -5.8   82   766 
 2020-11-20 12:45:06  -5.9   82   767 
 2020-11-20 12:40:02  -5.9   82   767 
 2020-11-20 12:34:57  -5.9   81   766 
 2020-11-20 12:29:54  -5.8   82   766 
 2020-11-20 12:24:49  -5.8   81   766 
 2020-11-20 12:19:45  -5.9   82   766 
 2020-11-20 12:14:41  -5.9   83   766 
 2020-11-20 12:09:37  -5.9   83   766 
 2020-11-20 12:04:33  -6.1   83   766 
 2020-11-20 11:59:29  -6.1   83   766 
 2020-11-20 11:54:25  -6.1   83   766 
 2020-11-20 11:49:21  -6.2   83   766 
 2020-11-20 11:44:17  -6.1   83   766 
 2020-11-20 11:39:13  -6.1   83   766 
 2020-11-20 11:34:09  -6.1   83   766 
 2020-11-20 11:29:05  -6.1   83   766 
 2020-11-20 11:24:01  -6.2   83   766 
 2020-11-20 11:18:57  -6.1   83   766 
 2020-11-20 11:13:53  -6.1   83   766 
 2020-11-20 11:08:49  -6.1   84   766 
 2020-11-20 11:03:45  -6.2   83   766 
 2020-11-20 10:58:41  -6.1   84   766 
 2020-11-20 10:53:37  -6.2   83   766 
 2020-11-20 10:48:33  -6.2   83   766 
 2020-11-20 10:43:29  -6.2   83   766 
 2020-11-20 10:38:25  -6.2   84   766 
 2020-11-20 10:33:21  -6.3   84   767 
 2020-11-20 10:28:17  -6.4   84   767 
 2020-11-20 10:23:13  -6.4   85   766 
 2020-11-20 10:18:09  -6.6   84   766 
 2020-11-20 10:13:05  -6.6   85   766 
 2020-11-20 10:08:00  -6.6   85   767 
 2020-11-20 10:02:56  -6.6   85   767 
 2020-11-20 09:57:52  -6.7   85   767 
 2020-11-20 09:52:48  -6.6   85   767 
 2020-11-20 09:47:44  -6.8   85   767 
 2020-11-20 09:42:40  -6.7   85   767 
 2020-11-20 09:37:36  -6.8   85   767 
 2020-11-20 09:32:32  -6.8   85   767 
 2020-11-20 09:27:28  -6.7   85   767 
 2020-11-20 09:22:24  -6.7   85   767 
 2020-11-20 09:17:20  -6.8   85   767 
 2020-11-20 09:12:16  -6.6   86   767 
 2020-11-20 09:07:12  -6.8   86   767 
 2020-11-20 09:02:08  -6.8   86   767 
 2020-11-20 08:57:04  -6.8   86   767 
 2020-11-20 08:51:59  -6.6   86   767 
 2020-11-20 08:46:55  -6.8   86   767 
 2020-11-20 08:41:51  -6.8   86   767 
 2020-11-20 08:36:47  -6.7   86   767 
 2020-11-20 08:31:42  -6.8   86   767 
 2020-11-20 08:26:38  -6.8   86   767 
 2020-11-20 08:21:34  -6.9   86   767 
 2020-11-20 08:16:30  -6.9   86   767 
 2020-11-20 08:11:26  -6.8   85   767 
 2020-11-20 08:06:22  -6.7   85   767 
 2020-11-20 08:01:18  -6.8   85   767 
 2020-11-20 07:56:14  -6.8   85   767 
 2020-11-20 07:51:10  -6.9   85   767 
 2020-11-20 07:46:06  -6.9   85   767 
 2020-11-20 07:41:02  -6.9   85   767 
 2020-11-20 07:35:58  -6.9   85   767 
 2020-11-20 07:30:54  -6.9   85   767 
 2020-11-20 07:25:50  -6.9   85   767 
 2020-11-20 07:20:46  -6.9   85   767 
 2020-11-20 07:15:42  -6.9   85   767 
 2020-11-20 07:10:38  -6.9   86   767 
 2020-11-20 07:05:33  -7.0   86   767 
 2020-11-20 07:00:29  -6.9   86   767 
 2020-11-20 06:55:25  -6.9   87   767 
 2020-11-20 06:50:21  -6.9   87   767 
 2020-11-20 06:45:17  -7.1   87   767 
 2020-11-20 06:40:13  -6.9   87   767 
 2020-11-20 06:35:09  -6.9   87   767 
 2020-11-20 06:30:05  -7.1   87   767 
 2020-11-20 06:25:00  -7.1   87   767 
 2020-11-20 06:19:56  -7.0   87   767 
 2020-11-20 06:14:52  -7.1   87   767 
 2020-11-20 06:09:48  -7.1   87   767 
 2020-11-20 06:04:44  -7.1   87   767 
 2020-11-20 05:59:40  -6.9   87   767 
 2020-11-20 05:54:36  -7.0   87   767 
 2020-11-20 05:49:32  -7.1   87   767 
 2020-11-20 05:44:27  -7.1   87   767 
 2020-11-20 05:39:23  -7.1   87   767 
 2020-11-20 05:34:19  -7.1   87   767 
 2020-11-20 05:29:15  -7.2   87   767 
 2020-11-20 05:24:11  -7.1   87   767 
 2020-11-20 05:19:07  -7.1   87   767 
 2020-11-20 05:14:03  -7.2   87   767 
 2020-11-20 05:08:58  -7.1   87   766 
 2020-11-20 05:03:54  -7.2   87   766 
 2020-11-20 04:58:50  -7.3   87   766 
 2020-11-20 04:53:46  -7.2   87   766 
 2020-11-20 04:48:42  -7.2   87   767 
 2020-11-20 04:43:38  -7.2   87   767 
 2020-11-20 04:38:34  -7.3   87   767 
 2020-11-20 04:33:30  -7.4   87   767 
 2020-11-20 04:28:25  -7.4   87   766 
 2020-11-20 04:23:21  -7.3   87   766 
 2020-11-20 04:18:17  -7.3   87   766 
 2020-11-20 04:13:13  -7.3   87   766 
 2020-11-20 04:08:09  -7.4   87   766 
 2020-11-20 04:03:05  -7.4   87   766 
 2020-11-20 03:58:01  -7.4   87   766 
 2020-11-20 03:52:57  -7.4   87   766 
 2020-11-20 03:47:53  -7.5   87   766 
 2020-11-20 03:42:49  -7.5   87   766 
 2020-11-20 03:37:45  -7.4   87   767 
 2020-11-20 03:32:41  -7.4   87   767 
 2020-11-20 03:27:36  -7.4   87   767 
 2020-11-20 03:22:32  -7.6   87   766 
 2020-11-20 03:17:28  -7.6   87   766 
 2020-11-20 03:12:24  -7.7   87   766 
 2020-11-20 03:07:20  -7.5   87   766 
 2020-11-20 03:02:16  -7.6   87   766 
 2020-11-20 02:57:12  -7.6   87   766 
 2020-11-20 02:52:08  -7.7   87   766 
 2020-11-20 02:47:03  -7.8   87   766 
 2020-11-20 02:41:59  -7.7   87   766 
 2020-11-20 02:36:55  -7.8   87   766 
 2020-11-20 02:31:51  -7.7   87   766 
 2020-11-20 02:26:47  -7.8   87   766 
 2020-11-20 02:21:42  -7.8   87   766 
 2020-11-20 02:16:38  -7.8   87   766 
 2020-11-20 02:11:34  -7.8   87   766 
 2020-11-20 02:06:30  -7.9   87   766 
 2020-11-20 02:01:26  -7.8   87   766 
 2020-11-20 01:56:22  -7.8   87   766 
 2020-11-20 01:51:18  -7.8   87   766 
 2020-11-20 01:46:13  -7.9   87   766 
 2020-11-20 01:41:09  -7.9   87   766 
 2020-11-20 01:36:05  -7.9   87   766 
 2020-11-20 01:31:01  -7.9   87   766 
 2020-11-20 01:25:57  -7.9   87   766 
 2020-11-20 01:20:53  -7.9   87   766 
 2020-11-20 01:15:48  -8.1   87   766 
 2020-11-20 01:10:44  -7.9   87   766 
 2020-11-20 01:05:40  -8.0   87   766 
 2020-11-20 01:00:36  -7.9   87   766 
 2020-11-20 00:55:32  -7.9   87   766 
 2020-11-20 00:50:28  -8.0   87   766 
 2020-11-20 00:45:24  -8.0   87   766 
 2020-11-20 00:40:20  -7.9   87   766 
 2020-11-20 00:35:15  -7.8   87   766 
 2020-11-20 00:30:11  -7.9   87   766 
 2020-11-20 00:25:07  -8.0   87   766 
 2020-11-20 00:20:03  -7.9   87   766 
 2020-11-20 00:14:59  -8.1   88   766 
 2020-11-20 00:09:55  -8.2   88   766 
 2020-11-20 00:04:51  -8.1   87   766 
 2020-11-19 23:59:47  -8.0   87   766 
 2020-11-19 23:54:42  -8.1   87   766 
 2020-11-19 23:49:38  -8.1   87   766 
 2020-11-19 23:44:34  -8.1   87   766 
 2020-11-19 23:39:30  -8.3   87   766 
 2020-11-19 23:34:26  -8.1   87   766 
 2020-11-19 23:29:22  -8.2   87   766 
 2020-11-19 23:24:18  -8.3   86   766 
 2020-11-19 23:19:14  -8.2   86   766 
 2020-11-19 23:14:09  -8.2   86   766 
 2020-11-19 23:09:05  -8.2   86   766 
 2020-11-19 23:04:01  -8.3   87   766 
 2020-11-19 22:58:57  -8.2   86   766 
 2020-11-19 22:53:52  -8.2   87   766 
 2020-11-19 22:48:48  -8.2   87   766 
 2020-11-19 22:43:44  -8.3   86   766 
 2020-11-19 22:38:40  -8.2   86   766 
 2020-11-19 22:33:36  -8.3   87   766 
 2020-11-19 22:28:32  -8.4   87   766 
 2020-11-19 22:23:27  -8.3   87   766 
 2020-11-19 22:18:23  -8.4   87   766 
 2020-11-19 22:13:18  -8.4   87   766 
 2020-11-19 22:08:14  -8.4   87   766 
 2020-11-19 22:03:10  -8.6   88   766 
 2020-11-19 21:58:06  -8.6   88   766 
 2020-11-19 21:53:02  -8.5   88   766 
 2020-11-19 21:47:57  -8.4   88   766 
 2020-11-19 21:42:53  -8.5   88   766 
 2020-11-19 21:37:49  -8.6   87   766 
 2020-11-19 21:32:45  -8.5   86   766 
 2020-11-19 21:27:40  -8.6   86   766 
 2020-11-19 21:22:36  -8.6   86   766 
 2020-11-19 21:17:31  -8.6   86   766 
 2020-11-19 21:12:27  -8.6   86   766 
 2020-11-19 21:07:23  -8.6   86   766 
 2020-11-19 21:02:19  -8.6   86   766 
 2020-11-19 20:57:15  -8.8   86   766 
 2020-11-19 20:52:10  -8.7   86   766 
 2020-11-19 20:47:06  -8.7   86   766 
 2020-11-19 20:42:02  -8.8   86   766 
 2020-11-19 20:36:58  -8.8   87   766 
 2020-11-19 20:31:54  -8.9   86   766 
 2020-11-19 20:26:50  -8.8   87   766 
 2020-11-19 20:21:46  -8.8   87   766 
 2020-11-19 20:16:42  -8.9   87   766 
 2020-11-19 20:11:37  -8.9   86   766 
 2020-11-19 20:06:33  -9.0   86   766 
 2020-11-19 20:01:29  -9.0   86   766 
 2020-11-19 19:56:25  -9.0   85   766 
 2020-11-19 19:51:21  -9.1   85   766 
 2020-11-19 19:46:17  -9.1   85   766 
 2020-11-19 19:41:13  -9.1   84   766 
 2020-11-19 19:36:09  -9.2   84   766 
 2020-11-19 19:31:03  -9.1   83   766 
 2020-11-19 19:25:59  -9.2   83   766 
 2020-11-19 19:20:55  -9.2   83   766 
 2020-11-19 19:15:51  -9.1   82   766 
 2020-11-19 19:10:47  -9.1   82   766 
 2020-11-19 19:05:43  -9.1   81   766 
 2020-11-19 19:00:39  -9.1   81   766 
 2020-11-19 18:55:34  -9.2   81   766 
 2020-11-19 18:50:30  -9.2   81   766 
 2020-11-19 18:45:26  -9.2   81   766 
 2020-11-19 18:40:22  -9.2   81   766 
 2020-11-19 18:35:18  -9.3   81   766 
 2020-11-19 18:30:14  -9.2   82   766 
 2020-11-19 18:25:10  -9.3   82   766 
 2020-11-19 18:20:06  -9.4   82   766 
 2020-11-19 18:15:02  -9.4   82   766 
 2020-11-19 18:09:58  -9.4   82   766 
 2020-11-19 18:04:54  -9.4   83   766 
 2020-11-19 17:59:50  -9.3   84   766 
 2020-11-19 17:54:46  -9.4   84   766 
 2020-11-19 17:49:41  -9.4   84   766 
 2020-11-19 17:44:37  -9.5   84   766 
 2020-11-19 17:39:33  -9.4   83   766 
 2020-11-19 17:34:29  -9.4   83   766 
 2020-11-19 17:29:25  -9.3   82   766 
 2020-11-19 17:24:21  -9.5   82   766 
 2020-11-19 17:19:17  -9.4   82   765 
 2020-11-19 17:14:13  -9.3   81   765 
 2020-11-19 17:09:09  -9.2   81   765 
 2020-11-19 17:04:05  -9.3   80   765 
 2020-11-19 16:59:01  -9.4   79   765 
 2020-11-19 16:53:57  -9.3   79   765 
 2020-11-19 16:48:52  -9.4   78   765 
 2020-11-19 16:43:48  -9.2   78   765 
 2020-11-19 16:38:44  -9.2   78   765 
 2020-11-19 16:33:40  -9.2   78   765 
 2020-11-19 16:28:36  -9.2   78   765 
 2020-11-19 16:23:32  -9.2   77   765 
 2020-11-19 16:18:28  -9.1   77   765 
 2020-11-19 16:13:24  -9.2   77   765 
 2020-11-19 16:08:20  -9.2   77   765 
 2020-11-19 16:03:15  -9.2   77   765 
 2020-11-19 15:58:11  -9.2   77   765 
 2020-11-19 15:53:07  -9.1   77   765 
 2020-11-19 15:48:03  -9.2   77   765 
 2020-11-19 15:42:59  -9.2   76   765 
 2020-11-19 15:37:55  -9.3   76   765 
 2020-11-19 15:32:51  -9.2   76   765 
 2020-11-19 15:27:47  -9.2   77   765 
 2020-11-19 15:22:43  -9.2   76   765 
 2020-11-19 15:17:39  -9.1   76   765 
 2020-11-19 15:12:35  -9.3   76   765 
 2020-11-19 15:07:31  -9.2   77   765 
 2020-11-19 15:02:27  -9.2   76   765 
 2020-11-19 14:57:23  -9.1   76   765 
 2020-11-19 14:52:18  -9.1   77   765 
 2020-11-19 14:47:14  -9.2   77   765 
 2020-11-19 14:42:10  -9.2   77   765 
 2020-11-19 14:37:06  -9.2   77   765 
 2020-11-19 14:32:02  -9.3   77   765 
 2020-11-19 14:26:58  -9.1   76   765 
 2020-11-19 14:21:54  -9.2   76   765 
 2020-11-19 14:16:50  -9.2   77   765 
 2020-11-19 14:11:46  -9.2   76   765 
 2020-11-19 14:06:42  -9.2   76   765 
 2020-11-19 14:01:38  -9.2   76   765 
 2020-11-19 13:56:34  -9.4   76   765 
 2020-11-19 13:51:30  -9.2   76   765 
 2020-11-19 13:46:26  -9.0   77   765 
 2020-11-19 13:41:22  -9.2   77   765 
 2020-11-19 13:36:18  -9.4   77   765 
 2020-11-19 13:31:14  -9.2   77   765 
 2020-11-19 13:26:10  -9.2   76   765 
 2020-11-19 13:21:06  -9.3   77   765 
 2020-11-19 13:16:02  -9.2   77   765 
 2020-11-19 13:10:58  -9.3   77   765 
 2020-11-19 13:05:54  -9.3   77   765 
 2020-11-19 13:00:50  -9.3   77   765 
 2020-11-19 12:55:46  -9.3   77   765 
 2020-11-19 12:50:42  -9.4   78   765 
 2020-11-19 12:45:38  -9.2   77   765 
 2020-11-19 12:40:33  -9.6   78   765 
 2020-11-19 12:35:29  -9.4   78   765 
 2020-11-19 12:30:25  -9.6   78   765 
 2020-11-19 12:25:21  -9.5   78   765 
 2020-11-19 12:20:17  -9.4   79   765 
 2020-11-19 12:15:13  -9.6   79   765 
 2020-11-19 12:10:09  -9.7   79   765 
 2020-11-19 12:05:05  -9.8   79   765 
 2020-11-19 12:00:01  -9.9   79   765 
 2020-11-19 11:54:57  -9.9   80   765 
 2020-11-19 11:49:53  -9.9   80   765 
 2020-11-19 11:44:49  -10.0   80   765 
 2020-11-19 11:39:45  -9.9   80   765 
 2020-11-19 11:34:41  -10.0   81   765 
 2020-11-19 11:29:37  -9.9   80   765 
 2020-11-19 11:24:33  -10.0   80   765 
 2020-11-19 11:19:29  -10.0   80   765 
 2020-11-19 11:14:25  -9.9   79   765 
 2020-11-19 11:09:21  -9.9   80   765 
 2020-11-19 11:04:17  -9.9   80   765 
 2020-11-19 10:59:13  -9.9   79   765 
 2020-11-19 10:54:09  -9.9   79   765 
 2020-11-19 10:49:05  -9.8   79   765 
 2020-11-19 10:44:01  -9.7   80   765 
 2020-11-19 10:38:57  -9.9   79   765 
 2020-11-19 10:33:52  -9.9   79   765 
 2020-11-19 10:28:48  -10.1   79   765 
 2020-11-19 10:23:44  -10.1   80   765 
 2020-11-19 10:18:40  -10.2   80   765 
 2020-11-19 10:13:36  -10.2   80   765 
 2020-11-19 10:08:32  -10.2   81   765 
 2020-11-19 10:03:28  -10.1   81   765 
 2020-11-19 09:58:24  -10.1   81   765 
 2020-11-19 09:53:20  -10.2   81   765 
 2020-11-19 09:48:16  -10.2   81   765 
 2020-11-19 09:43:12  -10.1   81   765 
 2020-11-19 09:38:08  -10.1   80   765 
 2020-11-19 09:33:04  -10.1   80   765 
 2020-11-19 09:28:00  -10.1   80   765 
 2020-11-19 09:22:56  -10.2   80   765 
 2020-11-19 09:17:52  -10.1   80   765 
 2020-11-19 09:12:48  -10.0   79   765 
 2020-11-19 09:07:44  -10.1   80   765 
 2020-11-19 09:02:40  -10.0   79   765 
 2020-11-19 08:57:36  -9.9   79   765 
 2020-11-19 08:52:32  -9.9   79   765 
 2020-11-19 08:47:28  -10.1   80   765 
 2020-11-19 08:42:23  -9.9   79   764 
 2020-11-19 08:37:19  -9.9   78   764 
 2020-11-19 08:32:15  -10.0   78   764 
 2020-11-19 08:27:11  -10.1   79   764 
 2020-11-19 08:22:07  -10.1   79   764 
 2020-11-19 08:17:03  -10.1   79   764 
 2020-11-19 08:11:59  -10.1   78   764 
 2020-11-19 08:06:55  -10.2   78   764 
 2020-11-19 08:01:50  -10.0   78   764 
 2020-11-19 07:56:46  -9.9   78   764 
 2020-11-19 07:51:42  -10.0   78   764 
 2020-11-19 07:46:38  -10.0   78   764 
 2020-11-19 07:41:34  -10.0   78   764 
 2020-11-19 07:36:30  -10.0   78   764 
 2020-11-19 07:31:26  -9.9   78   764 
 2020-11-19 07:26:22  -10.0   78   764 
 2020-11-19 07:21:17  -9.9   79   764 
 2020-11-19 07:16:13  -9.9   79   764 
 2020-11-19 07:11:09  -10.0   78   764 
 2020-11-19 07:06:05  -9.9   78   764 
 2020-11-19 07:01:01  -10.1   79   764 
 2020-11-19 06:55:57  -9.9   79   764 
 2020-11-19 06:50:53  -10.0   80   764 
 2020-11-19 06:45:49  -10.0   80   764 
 2020-11-19 06:40:44  -9.9   80   764 
 2020-11-19 06:35:40  -10.1   80   764 
 2020-11-19 06:30:36  -10.1   81   764 
 2020-11-19 06:25:32  -10.2   80   764 
 2020-11-19 06:20:28  -9.9   81   764 
 2020-11-19 06:15:24  -10.1   81   764 
 2020-11-19 06:10:20  -10.1   81   764 
 2020-11-19 06:05:15  -10.1   81   764 
 2020-11-19 06:00:11  -10.1   81   764 
 2020-11-19 05:55:07  -10.2   81   764 
 2020-11-19 05:50:03  -10.1   81   764 
 2020-11-19 05:44:59  -10.2   81   764 
 2020-11-19 05:39:55  -10.2   80   764 
 2020-11-19 05:34:50  -10.1   80   764 
 2020-11-19 05:29:46  -10.1   80   764 
 2020-11-19 05:24:42  -10.1   80   764 
 2020-11-19 05:19:38  -10.1   79   764 
 2020-11-19 05:14:34  -10.1   80   764 
 2020-11-19 05:09:29  -10.0   79   764 
 2020-11-19 05:04:25  -10.2   80   764 
 2020-11-19 04:59:21  -10.1   80   764 
 2020-11-19 04:54:16  -10.2   80   764 
 2020-11-19 04:49:12  -10.1   80   764 
 2020-11-19 04:44:08  -10.2   80   764 
 2020-11-19 04:39:04  -10.2   80   764 
 2020-11-19 04:34:00  -10.1   79   764 
 2020-11-19 04:28:56  -10.1   79   764 
 2020-11-19 04:23:52  -10.1   79   764 
 2020-11-19 04:18:47  -10.1   80   764 
 2020-11-19 04:13:43  -10.0   79   764 
 2020-11-19 04:08:39  -10.2   80   764 
 2020-11-19 04:03:35  -10.2   80   764 
 2020-11-19 03:58:31  -10.3   79   764 
 2020-11-19 03:53:27  -10.1   80   764 
 2020-11-19 03:48:23  -10.2   79   764 
 2020-11-19 03:43:19  -10.2   79   764 
 2020-11-19 03:38:14  -10.2   80   764 
 2020-11-19 03:33:10  -10.1   79   764 
 2020-11-19 03:28:06  -10.2   79   764 
 2020-11-19 03:23:02  -10.2   79   764 
 2020-11-19 03:17:58  -10.2   79   764 
 2020-11-19 03:12:54  -10.2   78   764 
 2020-11-19 03:07:50  -10.2   79   764 
 2020-11-19 03:02:45  -10.1   79   764 
 2020-11-19 02:57:41  -10.1   79   764 
 2020-11-19 02:52:37  -10.1   80   764 
 2020-11-19 02:47:33  -10.1   79   764 
 2020-11-19 02:42:29  -10.1   80   764 
 2020-11-19 02:37:25  -10.1   80   764 
 2020-11-19 02:32:21  -10.2   80   764 
 2020-11-19 02:27:17  -10.1   80   764 
 2020-11-19 02:22:13  -10.1   80   764 
 2020-11-19 02:17:08  -10.1   80   764 
 2020-11-19 02:12:04  -10.1   80   765 
 2020-11-19 02:07:00  -10.1   80   765 
 2020-11-19 02:01:56  -10.2   81   764 
 2020-11-19 01:56:52  -10.0   81   765 
 2020-11-19 01:51:48  -10.1   81   764 
 2020-11-19 01:46:44  -10.0   80   764 
 2020-11-19 01:41:40  -10.1   80   764 
 2020-11-19 01:36:36  -10.1   79   764 
 2020-11-19 01:31:32  -10.1   79   764 
 2020-11-19 01:26:27  -10.1   79   764 
 2020-11-19 01:21:23  -10.0   78   764 
 2020-11-19 01:16:19  -10.1   78   764 
 2020-11-19 01:11:15  -10.1   78   764 
 2020-11-19 01:06:11  -10.1   79   764 
 2020-11-19 01:01:07  -10.1   78   764 
 2020-11-19 00:56:03  -10.1   78   764 
 2020-11-19 00:50:59  -10.1   78   764 
 2020-11-19 00:45:55  -10.1   79   764 
 2020-11-19 00:40:51  -10.1   80   764 
 2020-11-19 00:35:47  -10.2   79   764 
 2020-11-19 00:30:43  -10.1   79   764 
 2020-11-19 00:25:39  -10.1   79   764 
 2020-11-19 00:20:35  -10.2   80   764 
 2020-11-19 00:15:31  -10.1   80   764 
 2020-11-19 00:10:27  -10.1   80   764 
 2020-11-19 00:05:23  -10.0   80   764 
 2020-11-19 00:00:19  -10.2   80   765 
 2020-11-18 23:55:15  -10.1   80   764 
 2020-11-18 23:50:10  -10.1   80   765 
 2020-11-18 23:45:06  -10.1   81   765 
 2020-11-18 23:40:02  -10.1   81   765 
 2020-11-18 23:34:58  -10.1   81   765 
 2020-11-18 23:29:54  -10.2   80   765 
 2020-11-18 23:24:50  -10.0   79   765 
 2020-11-18 23:19:46  -10.1   78   765 
 2020-11-18 23:14:42  -10.1   78   765 
 2020-11-18 23:09:38  -9.9   78   765 
 2020-11-18 23:04:34  -10.1   78   765 
 2020-11-18 22:59:30  -10.1   78   765 
 2020-11-18 22:54:26  -10.0   78   765 
 2020-11-18 22:49:22  -10.1   78   765 
 2020-11-18 22:44:18  -10.1   78   765 
 2020-11-18 22:39:14  -10.0   78   765 
 2020-11-18 22:34:10  -10.0   77   765 
 2020-11-18 22:29:06  -10.1   77   765 
 2020-11-18 22:24:02  -9.9   76   765 
 2020-11-18 22:18:58  -10.0   77   765 
 2020-11-18 22:13:52  -10.1   77   765 
 2020-11-18 22:08:48  -10.1   78   765 
 2020-11-18 22:03:44  -10.2   78   765 
 2020-11-18 21:58:40  -10.2   78   765 
 2020-11-18 21:53:36  -10.1   78   765 
 2020-11-18 21:48:32  -10.3   78   764 
 2020-11-18 21:43:28  -10.3   79   764 
 2020-11-18 21:38:24  -10.2   79   764 
 2020-11-18 21:33:19  -10.2   78   765 
 2020-11-18 21:28:15  -10.2   78   765 
 2020-11-18 21:23:11  -10.2   78   765 
 2020-11-18 21:18:06  -10.2   78   765 
 2020-11-18 21:13:02  -10.2   78   765 
 2020-11-18 21:07:57  -10.3   78   765 
 2020-11-18 21:02:53  -10.3   78   765 
 2020-11-18 20:57:49  -10.3   78   765 
 2020-11-18 20:52:45  -10.4   77   765 
 2020-11-18 20:47:39  -10.4   77   765 
 2020-11-18 20:42:35  -10.5   77   765 
 2020-11-18 20:37:31  -10.4   77   765 
 2020-11-18 20:32:26  -10.3   77   765 
 2020-11-18 20:27:19  -10.4   77   765 
 2020-11-18 20:22:15  -10.4   78   765 
 2020-11-18 20:17:10  -10.4   77   765 
 2020-11-18 20:12:06  -10.4   78   765 
 2020-11-18 20:07:02  -10.5   78   765 
 2020-11-18 20:01:58  -10.4   77   765 
 2020-11-18 19:56:54  -10.3   77   765 
 2020-11-18 19:51:50  -10.3   77   765 
 2020-11-18 19:46:46  -10.4   77   765 
 2020-11-18 19:41:42  -10.4   77   765 
 2020-11-18 19:36:38  -10.2   78   765 
 2020-11-18 19:31:34  -10.3   77   765 
 2020-11-18 19:26:30  -10.3   77   765 
 2020-11-18 19:21:24  -10.2   77   765 
 2020-11-18 19:16:20  -10.2   77   765 
 2020-11-18 19:11:16  -10.5   77   765 
 2020-11-18 19:06:12  -10.4   77   765 
 2020-11-18 19:01:08  -10.2   76   765 
 2020-11-18 18:56:04  -10.3   77   765 
 2020-11-18 18:51:00  -10.3   77   765 
 2020-11-18 18:45:55  -10.3   77   765 
 2020-11-18 18:40:51  -10.1   77   765 
 2020-11-18 18:35:46  -10.3   76   765 
 2020-11-18 18:30:42  -10.3   76   765 
 2020-11-18 18:25:38  -10.1   76   765 
 2020-11-18 18:20:34  -10.1   77   765 
 2020-11-18 18:15:30  -10.1   77   765 
 2020-11-18 18:10:26  -10.1   76   765 
 2020-11-18 18:05:22  -10.1   76   765 
 2020-11-18 18:00:18  -10.1   75   765 
 2020-11-18 17:55:13  -10.1   75   765 
 2020-11-18 17:50:09  -10.0   75   765 
 2020-11-18 17:45:05  -10.1   76   765 
 2020-11-18 17:40:01  -10.0   76   765 
 2020-11-18 17:34:57  -10.0   75   765 
 2020-11-18 17:29:53  -9.8   75   765 
 2020-11-18 17:24:49  -9.9   76   765 
 2020-11-18 17:19:45  -9.9   75   764 
 2020-11-18 17:14:41  -9.9   76   765 
 2020-11-18 17:09:37  -10.0   75   765 
 2020-11-18 17:04:33  -9.9   76   765 
 2020-11-18 16:59:29  -9.9   76   764 
 2020-11-18 16:54:25  -10.1   75   764 
 2020-11-18 16:49:21  -9.9   75   764 
 2020-11-18 16:44:17  -9.8   75   764 
 2020-11-18 16:39:13  -9.8   75   764 
 2020-11-18 16:34:08  -9.6   75   764 
 2020-11-18 16:29:04  -9.5   75   764 
 2020-11-18 16:24:00  -9.4   76   764 
 2020-11-18 16:18:56  -9.2   76   764 
 2020-11-18 16:13:52  -9.4   75   764 
 2020-11-18 16:08:48  -9.2   76   764 
 2020-11-18 16:03:44  -9.2   76   764 
 2020-11-18 15:58:40  -9.4   76   764 
 2020-11-18 15:53:36  -9.5   75   764 
 2020-11-18 15:48:32  -9.2   75   764 
 2020-11-18 15:43:28  -9.3   75   764 
 2020-11-18 15:38:24  -9.4   75   764 
 2020-11-18 15:33:20  -9.2   76   764 
 2020-11-18 15:28:16  -9.3   75   764 
 2020-11-18 15:23:12  -9.2   75   764 
 2020-11-18 15:18:08  -9.2   74   764 
 2020-11-18 15:13:04  -9.4   75   764 
 2020-11-18 15:08:00  -9.4   75   764 
 2020-11-18 15:02:56  -9.3   75   764 
 2020-11-18 14:57:52  -9.2   74   764 
 2020-11-18 14:52:48  -9.2   75   764 
 2020-11-18 14:47:44  -9.3   74   764 
 2020-11-18 14:42:40  -9.3   75   764 
 2020-11-18 14:37:36  -9.1   74   764 
 2020-11-18 14:32:31  -9.3   74   764 
 2020-11-18 14:27:28  -9.1   74   764 
 2020-11-18 14:22:23  -9.4   74   764 
 2020-11-18 14:17:19  -9.2   74   764 
 2020-11-18 14:12:15  -9.4   74   764 
 2020-11-18 14:07:11  -9.5   74   764 
 2020-11-18 14:02:07  -9.4   74   764 
 2020-11-18 13:57:03  -9.3   74   764 
 2020-11-18 13:51:59  -9.1   74   764 
 2020-11-18 13:46:55  -9.4   73   764 
 2020-11-18 13:41:51  -9.4   74   764 
 2020-11-18 13:36:47  -9.6   74   764 
 2020-11-18 13:31:43  -9.5   73   764 
 2020-11-18 13:26:39  -9.4   74   764 
 2020-11-18 13:21:35  -9.6   75   764 
 2020-11-18 13:16:31  -9.8   74   764 
 2020-11-18 13:11:27  -9.8   74   765 
 2020-11-18 13:06:23  -9.8   74   764 
 2020-11-18 13:01:19  -9.6   74   764 
 2020-11-18 12:56:15  -10.0   74   764 
 2020-11-18 12:51:11  -9.7   73   764 
 2020-11-18 12:46:07  -10.2   74   765 
 2020-11-18 12:41:03  -9.8   74   765 
 2020-11-18 12:35:59  -9.8   73   764 
 2020-11-18 12:30:55  -9.9   74   764 
 2020-11-18 12:25:51  -9.9   74   764 
 2020-11-18 12:20:47  -10.1   73   764 
 2020-11-18 12:15:43  -9.9   74   764 
 2020-11-18 12:10:38  -10.1   74   765 
 2020-11-18 12:05:34  -10.2   74   764 
 2020-11-18 12:00:30  -10.4   75   764 
 2020-11-18 11:55:26  -10.3   74   764 
 2020-11-18 11:50:22  -10.4   75   764 
 2020-11-18 11:45:18  -10.5   75   764 
 2020-11-18 11:40:14  -10.6   74   764 
 2020-11-18 11:35:10  -10.6   74   764 
 2020-11-18 11:30:06  -10.5   75   764 
 2020-11-18 11:25:02  -10.6   75   765 
 2020-11-18 11:19:58  -10.7   75   765 
 2020-11-18 11:14:54  -10.9   76   765 
 2020-11-18 11:09:50  -10.9   76   765 
 2020-11-18 11:04:46  -11.2   76   765 
 2020-11-18 10:59:42  -11.2   77   765 
 2020-11-18 10:54:38  -11.3   77   765 
 2020-11-18 10:49:34  -11.4   77   764 
 2020-11-18 10:44:30  -11.3   77   764 
 2020-11-18 10:39:26  -11.4   78   765 
 2020-11-18 10:34:22  -11.4   78   764 
 2020-11-18 10:29:18  -11.4   78   764 
 2020-11-18 10:24:14  -11.4   78   764 
 2020-11-18 10:19:09  -11.3   78   764 
 2020-11-18 10:14:05  -11.3   78   764 
 2020-11-18 10:09:01  -11.5   78   764 
 2020-11-18 10:03:57  -11.2   78   764 
 2020-11-18 09:58:53  -11.2   78   765 
 2020-11-18 09:53:49  -11.2   79   764 
 2020-11-18 09:48:45  -11.2   78   764 
 2020-11-18 09:43:41  -11.3   79   764 
 2020-11-18 09:38:37  -11.4   79   765 
 2020-11-18 09:33:33  -11.4   78   765 
 2020-11-18 09:28:29  -11.4   78   765 
 2020-11-18 09:23:25  -11.4   78   765 
 2020-11-18 09:18:21  -11.4   79   765 
 2020-11-18 09:13:17  -11.5   79   765 
 2020-11-18 09:08:13  -11.6   79   765 
 2020-11-18 09:03:09  -11.4   79   765 
 2020-11-18 08:58:05  -11.5   79   765 
 2020-11-18 08:53:00  -11.6   79   765 
 2020-11-18 08:47:56  -11.7   79   765 
 2020-11-18 08:42:52  -11.7   79   764 
 2020-11-18 08:37:48  -11.7   79   764 
 2020-11-18 08:32:44  -11.6   79   764 
 2020-11-18 08:27:40  -11.8   80   764 
 2020-11-18 08:22:36  -11.8   79   764 
 2020-11-18 08:17:32  -11.8   79   764 
 2020-11-18 08:12:28  -11.7   80   764 
 2020-11-18 08:07:24  -11.6   80   764 
 2020-11-18 08:02:20  -11.7   80   764 
 2020-11-18 07:57:16  -11.6   80   764 
 2020-11-18 07:52:12  -11.4   80   764 
 2020-11-18 07:47:07  -11.4   80   764 
 2020-11-18 07:42:03  -11.6   79   764 
 2020-11-18 07:36:59  -11.4   80   764 
 2020-11-18 07:31:55  -11.3   80   764 
 2020-11-18 07:26:51  -11.4   80   764 
 2020-11-18 07:21:47  -11.4   80   764 
 2020-11-18 07:16:43  -11.4   80   765 
 2020-11-18 07:11:38  -11.4   80   764 
 2020-11-18 07:06:34  -11.4   80   765 
 2020-11-18 07:01:30  -11.4   80   765 
 2020-11-18 06:56:26  -11.5   80   765 
 2020-11-18 06:51:22  -11.5   80   764 
 2020-11-18 06:46:18  -11.4   80   765 
 2020-11-18 06:41:14  -11.2   79   764 
 2020-11-18 06:36:10  -11.4   80   765 
 2020-11-18 06:31:06  -11.4   80   765 
 2020-11-18 06:26:01  -11.5   79   765 
 2020-11-18 06:20:57  -11.2   79   765 
 2020-11-18 06:15:53  -11.4   80   765 
 2020-11-18 06:10:49  -11.4   79   765 
 2020-11-18 06:05:42  -11.2   79   765 
 2020-11-18 06:00:37  -11.3   79   764 
 2020-11-18 05:55:33  -11.3   79   764 
 2020-11-18 05:50:28  -11.3   79   764 
 2020-11-18 05:45:24  -11.2   79   764 
 2020-11-18 05:40:20  -11.2   80   764 
 2020-11-18 05:35:16  -11.1   79   764 
 2020-11-18 05:30:12  -11.2   79   764 
 2020-11-18 05:25:08  -11.2   80   764 
 2020-11-18 05:20:04  -11.1   79   764 
 2020-11-18 05:15:00  -11.1   79   764 
 2020-11-18 05:09:55  -11.1   79   764 
 2020-11-18 05:04:51  -11.1   80   764 
 2020-11-18 04:59:47  -11.1   80   764 
 2020-11-18 04:54:43  -10.9   79   764 
 2020-11-18 04:49:39  -11.1   79   764 
 2020-11-18 04:44:35  -11.1   79   764 
 2020-11-18 04:39:31  -11.0   79   764 
 2020-11-18 04:34:27  -10.9   79   764 
 2020-11-18 04:29:23  -10.8   79   764 
 2020-11-18 04:24:19  -10.9   79   764 
 2020-11-18 04:19:14  -11.1   80   764 
 2020-11-18 04:14:10  -11.0   80   765 
 2020-11-18 04:09:06  -11.1   80   764 
 2020-11-18 04:04:02  -11.0   79   764 
 2020-11-18 03:58:58  -11.2   80   764 
 2020-11-18 03:53:54  -11.1   79   764 
 2020-11-18 03:48:50  -11.3   80   765 
 2020-11-18 03:43:46  -11.4   80   765 
 2020-11-18 03:38:42  -11.2   80   765 
 2020-11-18 03:33:37  -11.2   80   765 
 2020-11-18 03:28:33  -11.2   80   765 
 2020-11-18 03:23:29  -11.3   79   765 
 2020-11-18 03:18:25  -11.4   80   765 
 2020-11-18 03:13:21  -11.4   80   765 
 2020-11-18 03:08:17  -11.3   80   765 
 2020-11-18 03:03:13  -11.5   80   765 
 2020-11-18 02:58:09  -11.6   81   765 
 2020-11-18 02:53:05  -11.7   79   765 
 2020-11-18 02:48:01  -11.6   80   765 
 2020-11-18 02:42:57  -11.7   80   765 
 2020-11-18 02:37:52  -11.8   80   765 
 2020-11-18 02:32:48  -11.8   80   765 
 2020-11-18 02:27:44  -12.0   79   765 
 2020-11-18 02:22:40  -11.8   80   765 
 2020-11-18 02:17:36  -11.8   80   765 
 2020-11-18 02:12:32  -11.9   80   765 
 2020-11-18 02:07:28  -11.9   79   765 
 2020-11-18 02:02:24  -12.1   80   765 
 2020-11-18 01:57:20  -11.8   80   765 
 2020-11-18 01:52:16  -11.9   80   765 
 2020-11-18 01:47:12  -12.0   80   765 
 2020-11-18 01:42:08  -11.9   80   765 
 2020-11-18 01:37:04  -12.1   80   765 
 2020-11-18 01:32:00  -12.1   80   765 
 2020-11-18 01:26:56  -12.1   81   765 
 2020-11-18 01:21:52  -12.2   80   765 
 2020-11-18 01:16:48  -12.1   80   765 
 2020-11-18 01:11:44  -11.9   80   765 
 2020-11-18 01:06:40  -12.1   81   765 
 2020-11-18 01:01:36  -11.8   80   765 
 2020-11-18 00:56:32  -11.8   81   765 
 2020-11-18 00:51:28  -12.1   80   765 
 2020-11-18 00:46:24  -11.9   81   765 
 2020-11-18 00:41:20  -12.0   80   765 
 2020-11-18 00:36:16  -11.9   81   765 
 2020-11-18 00:31:12  -12.0   81   765 
 2020-11-18 00:26:08  -12.0   81   765 
 2020-11-18 00:21:04  -12.1   81   765 
 2020-11-18 00:16:00  -11.9   79   765 
 2020-11-18 00:10:56  -11.7   79   765 
 2020-11-18 00:05:52  -11.8   79   765 
 2020-11-18 00:00:48  -11.8   80   765 
 2020-11-17 23:55:42  -11.9   80   765 
 2020-11-17 23:50:38  -12.2   80   765 
 2020-11-17 23:45:34  -12.2   80   765 
 2020-11-17 23:40:30  -12.1   79   765 
 2020-11-17 23:35:26  -12.1   80   765 
 2020-11-17 23:30:22  -12.1   80   765 
 2020-11-17 23:25:18  -12.0   79   765 
 2020-11-17 23:20:14  -11.8   80   765 
 2020-11-17 23:15:10  -11.9   80   765 
 2020-11-17 23:10:06  -11.8   80   765 
 2020-11-17 23:05:02  -11.9   80   765 
 2020-11-17 22:59:58  -11.9   80   765 
 2020-11-17 22:54:54  -12.0   81   765 
 2020-11-17 22:49:50  -12.0   80   765 
 2020-11-17 22:44:46  -11.9   80   765 
 2020-11-17 22:39:42  -11.6   79   765 
 2020-11-17 22:34:38  -11.5   79   765 
 2020-11-17 22:29:34  -11.4   80   765 
 2020-11-17 22:24:30  -11.4   79   765 
 2020-11-17 22:19:25  -11.1   79   765 
 2020-11-17 22:14:20  -11.0   79   765 
 2020-11-17 22:09:16  -11.0   79   765 
 2020-11-17 22:04:12  -10.9   80   765 
 2020-11-17 21:59:08  -10.9   80   765 
 2020-11-17 21:54:04  -10.7   80   765 
 2020-11-17 21:49:00  -10.6   80   765 
 2020-11-17 21:43:56  -10.7   80   765 
 2020-11-17 21:38:52  -10.6   79   765 
 2020-11-17 21:33:48  -10.4   79   765 
 2020-11-17 21:28:44  -10.4   79   765 
 2020-11-17 21:23:40  -10.3   78   765 
 2020-11-17 21:18:36  -10.2   79   765 
 2020-11-17 21:13:32  -10.3   78   765 
 2020-11-17 21:08:27  -10.4   79   765 
 2020-11-17 21:03:23  -10.5   79   765 
 2020-11-17 20:58:19  -10.3   79   765 
 2020-11-17 20:53:15  -10.4   79   765 
 2020-11-17 20:48:11  -10.3   79   765 
 2020-11-17 20:43:07  -10.4   79   765 
 2020-11-17 20:38:03  -10.5   80   765 
 2020-11-17 20:32:59  -10.5   79   765 
 2020-11-17 20:27:55  -10.2   79   765 
 2020-11-17 20:22:51  -10.4   80   765 
 2020-11-17 20:17:47  -10.4   79   765 
 2020-11-17 20:12:43  -10.1   79   765 
 2020-11-17 20:07:38  -10.1   79   765 
 2020-11-17 20:02:34  -10.1   79   765 
 2020-11-17 19:57:30  -10.0   79   765 
 2020-11-17 19:52:26  -10.1   80   765 
 2020-11-17 19:47:22  -10.2   80   765 
 2020-11-17 19:42:18  -10.0   80   765 
 2020-11-17 19:37:14  -9.9   81   765 
 2020-11-17 19:32:10  -10.0   80   765 
 2020-11-17 19:27:06  -10.0   80   765 
 2020-11-17 19:22:02  -9.9   80   765 
 2020-11-17 19:16:58  -9.9   80   765 
 2020-11-17 19:11:54  -9.9   80   765 
 2020-11-17 19:06:50  -10.0   80   765 
 2020-11-17 19:01:46  -9.8   80   765 
 2020-11-17 18:56:41  -9.8   81   765 
 2020-11-17 18:51:37  -9.8   81   765 
 2020-11-17 18:46:33  -9.7   81   765 
 2020-11-17 18:41:29  -9.9   81   765 
 2020-11-17 18:36:25  -9.8   80   765 
 2020-11-17 18:31:21  -9.6   80   765 
 2020-11-17 18:26:17  -9.8   80   765 
 2020-11-17 18:21:12  -9.8   80   765 
 2020-11-17 18:16:08  -9.8   79   765 
 2020-11-17 18:11:04  -9.8   80   765 
 2020-11-17 18:06:00  -9.6   79   765 
 2020-11-17 18:00:56  -9.4   79   765 
 2020-11-17 17:55:52  -9.4   79   765 
 2020-11-17 17:50:47  -9.6   78   765 
 2020-11-17 17:45:43  -9.4   78   765 
 2020-11-17 17:40:39  -9.4   79   765 
 2020-11-17 17:30:26  -9.4   79   765 
 2020-11-17 17:25:22  -9.7   79   765 
 2020-11-17 17:20:18  -9.6   78   765 
 2020-11-17 17:15:14  -9.6   78   765 
 2020-11-17 17:10:10  -9.5   77   764 
 2020-11-17 17:05:06  -9.2   77   764 
 2020-11-17 17:00:00  -9.4   78   764 
 2020-11-17 16:54:56  -9.5   77   764 
 2020-11-17 16:49:52  -9.6   77   764 
 2020-11-17 16:44:48  -9.4   76   764 
 2020-11-17 16:39:44  -9.1   77   764 
 2020-11-17 16:34:40  -9.4   78   764 
 2020-11-17 16:24:27  -9.3   75   764 
 2020-11-17 16:19:23  -9.3   76   764 
 2020-11-17 16:14:19  -9.3   76   764 
 2020-11-17 16:09:15  -9.4   76   764 
 2020-11-17 16:04:11  -9.4   78   764 
 2020-11-17 15:59:07  -9.5   78   764 
 2020-11-17 15:54:03  -9.5   79   764 
 2020-11-17 15:48:59  -9.4   78   764 
 2020-11-17 15:43:55  -9.5   77   764 
 2020-11-17 15:38:51  -9.5   77   764 
 2020-11-17 15:33:47  -9.5   77   764 
 2020-11-17 15:28:43  -9.4   77   764 
 2020-11-17 15:23:39  -9.5   78   764 
 2020-11-17 15:18:34  -9.6   78   764 
 2020-11-17 15:13:30  -9.7   77   764 
 2020-11-17 15:08:26  -9.8   78   764 
 2020-11-17 15:03:22  -9.8   77   764 
 2020-11-17 14:58:18  -9.8   78   764 
 2020-11-17 14:53:14  -9.7   77   764 
 2020-11-17 14:48:10  -9.8   77   764 
 2020-11-17 14:43:06  -9.9   77   764 
 2020-11-17 14:38:02  -9.4   76   763 
 2020-11-17 14:32:58  -9.6   77   763 
 2020-11-17 14:27:54  -9.6   77   763 
 2020-11-17 14:22:50  -9.6   78   763 
 2020-11-17 14:17:46  -9.4   77   763 
 2020-11-17 14:12:42  -9.0   76   763 
 2020-11-17 14:07:38  -8.7   76   763 
 2020-11-17 14:02:34  -8.2   74   763 
 2020-11-17 13:57:30  -9.0   76   763 
 2020-11-17 13:52:26  -9.1   78   763 
 2020-11-17 13:47:22  -9.2   77   763 
 2020-11-17 13:42:18  -9.3   79   763 
 2020-11-17 13:37:14  -10.1   79   763 
 2020-11-17 13:32:10  -10.1   79   763 
 2020-11-17 13:27:06  -9.9   79   763 
 2020-11-17 13:22:02  -9.7   78   763 
 2020-11-17 13:16:58  -9.4   79   763 
 2020-11-17 13:11:54  -9.6   78   763 
 2020-11-17 13:06:50  -9.7   78   763 
 2020-11-17 13:01:46  -9.7   77   763 
 2020-11-17 12:56:42  -9.1   79   763 
 2020-11-17 12:51:37  -9.6   80   763 
 2020-11-17 12:46:33  -9.6   80   763 
 2020-11-17 12:41:29  -9.8   80   763 
 2020-11-17 12:36:25  -9.6   81   763 
 2020-11-17 12:31:21  -9.7   81   763 
 2020-11-17 12:26:17  -9.8   80   763 
 2020-11-17 12:21:13  -10.0   80   763 
 2020-11-17 12:16:09  -9.9   81   763 
 2020-11-17 12:11:05  -10.1   81   763 
 2020-11-17 12:06:01  -9.9   81   763 
 2020-11-17 12:00:57  -10.1   82   763 
 2020-11-17 11:55:53  -10.1   82   763 
 2020-11-17 11:50:49  -9.9   81   763 
 2020-11-17 11:45:45  -10.0   81   763 
 2020-11-17 11:40:41  -10.2   82   763 
 2020-11-17 11:35:37  -10.2   82   763 
 2020-11-17 11:30:33  -10.2   82   763 
 2020-11-17 11:25:29  -10.1   82   763 
 2020-11-17 11:20:25  -10.2   82   763 
 2020-11-17 11:15:21  -10.3   82   763 
 2020-11-17 11:10:17  -10.2   82   763 
 2020-11-17 11:05:13  -10.2   82   763 
 2020-11-17 11:00:09  -10.1   83   763 
 2020-11-17 10:55:05  -10.0   83   763 
 2020-11-17 10:50:01  -10.0   83   763 
 2020-11-17 10:44:57  -9.9   83   763 
 2020-11-17 10:39:52  -9.9   83   763 
 2020-11-17 10:34:48  -9.9   83   763 
 2020-11-17 10:29:44  -10.0   83   762 
 2020-11-17 10:24:40  -9.8   83   762 
 2020-11-17 10:19:36  -9.7   84   762 
 2020-11-17 10:14:32  -9.6   84   762 
 2020-11-17 10:09:28  -9.6   84   762 
 2020-11-17 10:04:24  -9.6   84   762 
 2020-11-17 09:59:20  -9.5   83   762 
 2020-11-17 09:54:16  -9.6   83   762 
 2020-11-17 09:49:12  -9.6   84   762 
 2020-11-17 09:44:08  -9.5   85   762 
 2020-11-17 09:39:04  -9.3   84   762 
 2020-11-17 09:34:00  -9.4   84   762 
 2020-11-17 09:28:56  -9.4   84   762 
 2020-11-17 09:23:52  -9.4   84   762 
 2020-11-17 09:18:48  -9.5   84   762 
 2020-11-17 09:13:44  -9.6   85   762 
 2020-11-17 09:08:40  -9.6   85   762 
 2020-11-17 09:03:36  -9.5   84   762 
 2020-11-17 08:58:32  -9.6   85   762 
 2020-11-17 08:53:28  -9.6   84   762 
 2020-11-17 08:48:24  -9.6   85   762 
 2020-11-17 08:43:20  -9.8   84   762 
 2020-11-17 08:38:16  -9.8   85   762 
 2020-11-17 08:33:11  -9.7   84   762 
 2020-11-17 08:28:07  -9.7   84   762 
 2020-11-17 08:23:03  -9.8   84   762 
 2020-11-17 08:17:59  -9.8   83   762 
 2020-11-17 08:12:55  -9.6   84   762 
 2020-11-17 08:07:51  -9.9   83   762 
 2020-11-17 08:02:47  -9.9   84   761 
 2020-11-17 07:57:43  -10.0   84   761 
 2020-11-17 07:52:39  -10.1   83   761 
 2020-11-17 07:47:35  -10.1   84   761 
 2020-11-17 07:42:30  -10.1   83   761 
 2020-11-17 07:37:26  -10.1   84   761 
 2020-11-17 07:32:22  -10.3   84   761 
 2020-11-17 07:27:18  -10.4   84   761 
 2020-11-17 07:22:14  -10.4   84   761 
 2020-11-17 07:17:10  -10.7   84   761 
 2020-11-17 07:12:06  -10.7   84   761 
 2020-11-17 07:07:01  -10.6   84   761 
 2020-11-17 07:01:57  -10.9   84   761 
 2020-11-17 06:56:53  -10.9   84   761 
 2020-11-17 06:51:49  -10.9   84   761 
 2020-11-17 06:46:45  -11.0   84   761 
 2020-11-17 06:41:41  -11.2   84   761 
 2020-11-17 06:36:37  -11.1   84   761 
 2020-11-17 06:31:33  -11.2   84   761 
 2020-11-17 06:26:29  -11.3   84   761 
 2020-11-17 06:21:25  -11.4   85   761 
 2020-11-17 06:16:17  -11.5   85   761 
 2020-11-17 06:11:13  -11.7   85   761 
 2020-11-17 06:06:09  -11.6   84   761 
 2020-11-17 06:01:05  -11.8   84   761 
 2020-11-17 05:56:01  -11.7   85   761 
 2020-11-17 05:50:57  -11.6   84   761 
 2020-11-17 05:45:52  -11.4   84   761 
 2020-11-17 05:40:48  -11.3   84   761 
 2020-11-17 05:35:44  -11.1   85   761 
 2020-11-17 05:30:40  -11.2   84   761 
 2020-11-17 05:25:36  -11.2   84   761 
 2020-11-17 05:20:32  -11.1   84   761 
 2020-11-17 05:15:28  -11.1   83   761 
 2020-11-17 05:10:24  -11.0   85   761 
 2020-11-17 05:05:19  -11.0   85   761 
 2020-11-17 05:00:15  -11.1   85   761 
 2020-11-17 04:55:11  -11.1   84   761 
 2020-11-17 04:50:07  -11.0   84   761 
 2020-11-17 04:45:03  -10.9   84   761 
 2020-11-17 04:39:59  -11.1   85   761 
 2020-11-17 04:34:55  -10.8   84   761 
 2020-11-17 04:29:51  -10.8   86   761 
 2020-11-17 04:24:47  -10.9   85   761 
 2020-11-17 04:19:42  -11.0   85   761 
 2020-11-17 04:14:38  -10.9   85   761 
 2020-11-17 04:09:34  -10.8   84   761 
 2020-11-17 04:04:30  -10.9   83   761 
 2020-11-17 03:59:26  -11.0   85   761 
 2020-11-17 03:54:22  -11.0   83   761 
 2020-11-17 03:49:18  -11.2   83   761 
 2020-11-17 03:44:13  -11.2   82   761 
 2020-11-17 03:39:09  -11.1   80   761 
 2020-11-17 03:34:05  -10.8   82   761 
 2020-11-17 03:29:01  -10.9   83   761 
 2020-11-17 03:23:56  -10.8   82   761 
 2020-11-17 03:18:52  -10.7   82   761 
 2020-11-17 03:13:48  -10.9   83   761 
 2020-11-17 03:08:43  -11.1   83   761 
 2020-11-17 03:03:39  -11.1   81   761 
 2020-11-17 02:58:35  -11.2   82   761 
 2020-11-17 02:53:31  -11.2   82   761 
 2020-11-17 02:48:27  -11.4   82   761 
 2020-11-17 02:43:23  -11.1   83   761 
 2020-11-17 02:38:19  -10.9   84   761 
 2020-11-17 02:33:15  -10.9   84   761 
 2020-11-17 02:28:11  -10.9   85   761 
 2020-11-17 02:23:07  -10.9   85   761 
 2020-11-17 02:18:02  -11.1   84   761 
 2020-11-17 02:12:58  -11.1   84   761 
 2020-11-17 02:07:54  -11.1   84   761 
 2020-11-17 02:02:50  -11.1   83   761 
 2020-11-17 01:57:46  -10.3   80   761 
 2020-11-17 01:52:42  -10.2   80   761 
 2020-11-17 01:47:38  -10.2   80   761 
 2020-11-17 01:42:33  -10.3   81   761 
 2020-11-17 01:37:29  -10.3   81   761 
 2020-11-17 01:32:25  -10.2   80   761 
 2020-11-17 01:27:21  -9.9   80   761 
 2020-11-17 01:17:13  -9.8   81   761 
 2020-11-17 01:12:09  -9.8   81   761 
 2020-11-17 01:07:04  -9.6   80   761 
 2020-11-17 01:02:00  -9.1   80   761 
 2020-11-17 00:56:56  -9.1   82   761 
 2020-11-17 00:51:52  -9.1   82   761 
 2020-11-17 00:46:48  -9.3   83   761 
 2020-11-17 00:41:44  -9.6   84   761 
 2020-11-17 00:36:40  -9.5   82   761 
 2020-11-17 00:31:36  -9.8   82   761 
 2020-11-17 00:26:31  -10.0   81   761 
 2020-11-17 00:21:27  -10.0   81   761 
 2020-11-17 00:16:23  -10.2   81   761 
 2020-11-17 00:11:19  -10.2   80   761 
 2020-11-17 00:06:15  -9.9   78   761 
 2020-11-17 00:01:11  -9.7   80   761 
 2020-11-16 23:56:07  -9.5   81   761 
 2020-11-16 23:51:03  -9.7   82   761 
 2020-11-16 23:45:58  -10.1   82   761 
 2020-11-16 23:40:54  -9.9   82   761 
 2020-11-16 23:35:50  -10.2   83   761 
 2020-11-16 23:30:46  -10.5   82   761 
 2020-11-16 23:25:42  -10.2   82   761 
 2020-11-16 23:20:37  -10.3   81   761 
 2020-11-16 23:15:33  -9.7   80   761 
 2020-11-16 23:10:29  -9.6   81   761 
 2020-11-16 23:05:25  -9.9   81   761 
 2020-11-16 23:00:21  -9.9   81   761 
 2020-11-16 22:55:17  -10.1   82   761 
 2020-11-16 22:50:13  -10.2   82   761 
 2020-11-16 22:45:09  -10.2   82   761 
 2020-11-16 22:40:05  -10.1   82   761 
 2020-11-16 22:35:01  -9.9   82   761 
 2020-11-16 22:29:57  -9.9   81   761 
 2020-11-16 22:24:53  -9.8   81   761 
 2020-11-16 22:19:49  -9.9   83   761 
 2020-11-16 22:14:45  -10.1   83   761 
 2020-11-16 22:09:41  -10.2   83   761 
 2020-11-16 22:04:36  -9.9   82   761 
 2020-11-16 21:59:31  -9.8   82   761 
 2020-11-16 21:54:27  -9.9   82   761 
 2020-11-16 21:49:23  -9.9   82   761 
 2020-11-16 21:44:18  -9.6   81   761 
 2020-11-16 21:39:14  -9.4   81   761 
 2020-11-16 21:34:10  -9.4   81   761 
 2020-11-16 21:29:06  -9.2   81   761 
 2020-11-16 21:24:02  -9.2   81   761 
 2020-11-16 21:18:58  -9.2   81   761 
 2020-11-16 21:13:54  -9.1   81   761 
 2020-11-16 21:08:50  -8.9   80   761 
 2020-11-16 21:03:46  -8.8   80   761 
 2020-11-16 20:58:42  -8.6   80   761 
 2020-11-16 20:53:37  -8.2   79   761 
 2020-11-16 20:48:33  -8.1   80   761 
 2020-11-16 20:43:29  -7.9   80   761 
 2020-11-16 20:38:25  -8.1   81   761 
 2020-11-16 20:33:21  -7.9   81   761 
 2020-11-16 20:28:17  -8.1   82   761 
 2020-11-16 20:23:13  -8.1   82   761 
 2020-11-16 20:18:09  -8.1   83   761 
 2020-11-16 20:13:05  -8.1   83   761 
 2020-11-16 20:08:01  -8.2   83   761 
 2020-11-16 20:02:57  -8.4   84   761 
 2020-11-16 19:57:53  -8.4   83   761 
 2020-11-16 19:52:49  -8.4   82   761 
 2020-11-16 19:47:45  -8.2   82   761 
 2020-11-16 19:42:41  -8.4   83   761 
 2020-11-16 19:37:37  -8.5   83   761 
 2020-11-16 19:32:30  -8.5   83   761 
 2020-11-16 19:27:26  -8.4   83   761 
 2020-11-16 19:22:22  -8.4   83   761 
 2020-11-16 19:17:18  -8.2   83   761 
 2020-11-16 19:12:14  -8.3   83   761 
 2020-11-16 19:07:10  -8.3   83   761 
 2020-11-16 19:02:06  -8.2   83   761 
 2020-11-16 18:57:02  -8.2   83   761 
 2020-11-16 18:51:58  -8.2   84   761 
 2020-11-16 18:46:54  -8.2   84   761 
 2020-11-16 18:41:50  -8.1   84   761 
 2020-11-16 18:36:46  -7.9   84   761 
 2020-11-16 18:31:42  -8.0   84   761 
 2020-11-16 18:26:38  -8.1   86   761 
 2020-11-16 18:21:34  -8.2   87   761 
 2020-11-16 18:16:30  -8.2   88   761 
 2020-11-16 18:11:26  -8.4   87   761 
 2020-11-16 18:06:21  -8.2   86   761 
 2020-11-16 18:01:17  -8.1   85   761 
 2020-11-16 17:56:13  -7.9   85   761 
 2020-11-16 17:51:09  -7.8   84   761 
 2020-11-16 17:46:05  -7.8   84   761 
 2020-11-16 17:41:01  -7.6   84   761 
 2020-11-16 17:35:57  -7.6   85   761 
 2020-11-16 17:30:53  -7.7   85   761 
 2020-11-16 17:25:49  -7.6   85   761 
 2020-11-16 17:20:45  -7.5   85   761 
 2020-11-16 17:15:40  -7.4   84   761 
 2020-11-16 17:10:36  -7.3   84   761 
 2020-11-16 17:05:32  -7.2   84   761 
 2020-11-16 17:00:28  -7.3   84   761 
 2020-11-16 16:55:23  -7.1   83   761 
 2020-11-16 16:50:18  -6.9   83   761 
 2020-11-16 16:45:14  -6.8   82   761 
 2020-11-16 16:40:10  -6.5   81   761 
 2020-11-16 16:35:06  -6.5   81   761 
 2020-11-16 16:30:02  -6.4   80   761 
 2020-11-16 16:24:58  -6.2   80   761 
 2020-11-16 16:19:54  -6.2   80   761 
 2020-11-16 16:14:50  -6.3   80   761 
 2020-11-16 16:09:46  -6.2   79   761 
 2020-11-16 16:04:42  -6.2   79   761 
 2020-11-16 15:59:38  -6.0   79   761 
 2020-11-16 15:54:34  -5.8   79   761 
 2020-11-16 15:49:30  -5.8   80   760 
 2020-11-16 15:44:26  -6.0   78   760 
 2020-11-16 15:39:22  -5.8   77   760 
 2020-11-16 15:34:18  -5.5   77   760 
 2020-11-16 15:29:12  -5.4   77   760 
 2020-11-16 15:24:08  -5.6   77   760 
 2020-11-16 15:19:04  -5.6   78   760 
 2020-11-16 15:14:00  -5.4   77   760 
 2020-11-16 15:08:56  -5.4   77   760 
 2020-11-16 15:03:52  -5.5   78   760 
 2020-11-16 14:58:48  -5.6   78   760 
 2020-11-16 14:53:44  -5.4   78   760 
 2020-11-16 14:48:40  -5.4   77   760 
 2020-11-16 14:43:36  -5.4   77   760 
 2020-11-16 14:38:32  -5.6   78   760 
 2020-11-16 14:33:28  -5.8   77   760 
 2020-11-16 14:28:24  -5.5   75   760 
 2020-11-16 14:23:20  -5.1   75   760 
 2020-11-16 14:18:16  -5.2   75   760 
 2020-11-16 14:13:12  -5.5   77   760 
 2020-11-16 14:08:08  -5.8   78   760 
 2020-11-16 14:03:04  -5.7   77   760 
 2020-11-16 13:58:00  -6.1   79   760 
 2020-11-16 13:52:55  -5.4   76   760 
 2020-11-16 13:47:51  -5.2   77   760 
 2020-11-16 13:42:47  -5.7   77   760 
 2020-11-16 13:37:43  -5.6   77   760 
 2020-11-16 13:32:39  -5.8   78   760 
 2020-11-16 13:27:35  -5.6   76   760 
 2020-11-16 13:22:31  -5.9   76   760 
 2020-11-16 13:17:27  -5.6   76   760 
 2020-11-16 13:12:23  -6.0   77   760 
 2020-11-16 13:07:19  -6.2   80   760 
 2020-11-16 13:02:15  -6.2   78   760 
 2020-11-16 12:57:11  -6.4   78   760 
 2020-11-16 12:52:07  -6.3   78   760 
 2020-11-16 12:47:03  -6.6   80   760 
 2020-11-16 12:41:59  -6.8   80   760 
 2020-11-16 12:36:55  -7.1   79   760 
 2020-11-16 12:31:51  -6.9   79   760 
 2020-11-16 12:26:47  -7.1   79   760 
 2020-11-16 12:21:43  -6.8   79   760 
 2020-11-16 12:16:39  -7.1   80   760 
 2020-11-16 12:11:34  -7.2   80   760 
 2020-11-16 12:06:30  -7.2   81   760 
 2020-11-16 12:01:26  -7.3   81   760 
 2020-11-16 11:56:22  -7.2   82   760 
 2020-11-16 11:51:18  -7.6   81   760 
 2020-11-16 11:46:14  -7.4   80   760 
 2020-11-16 11:41:10  -7.6   82   760 
 2020-11-16 11:36:06  -7.6   83   760 
 2020-11-16 11:31:02  -8.5   83   760 
 2020-11-16 11:25:58  -8.6   84   760 
 2020-11-16 11:20:54  -8.6   83   760 
 2020-11-16 11:15:50  -8.6   82   760 
 2020-11-16 11:10:46  -8.8   83   760 
 2020-11-16 11:05:42  -8.9   83   760 
 2020-11-16 11:00:38  -8.6   83   760 
 2020-11-16 10:55:34  -8.8   83   760 
 2020-11-16 10:50:30  -8.9   83   760 
 2020-11-16 10:45:26  -9.1   83   760 
 2020-11-16 10:40:22  -9.2   83   760 
 2020-11-16 10:35:18  -9.2   83   760 
 2020-11-16 10:30:14  -9.3   83   760 
 2020-11-16 10:25:10  -9.5   84   760 
 2020-11-16 10:20:05  -9.4   83   760 
 2020-11-16 10:15:01  -9.5   84   760 
 2020-11-16 10:09:57  -9.8   83   760 
 2020-11-16 10:04:53  -9.7   84   760 
 2020-11-16 09:59:49  -10.1   84   760 
 2020-11-16 09:54:45  -10.2   83   760 
 2020-11-16 09:49:41  -10.1   83   760 
 2020-11-16 09:44:37  -10.2   84   760 
 2020-11-16 09:39:33  -10.4   84   760 
 2020-11-16 09:34:29  -10.4   83   760 
 2020-11-16 09:29:25  -10.2   83   760 
 2020-11-16 09:24:21  -10.5   84   760 
 2020-11-16 09:19:16  -10.2   84   760 
 2020-11-16 09:14:12  -9.9   84   760 
 2020-11-16 09:09:08  -10.1   84   760 
 2020-11-16 09:04:04  -10.0   83   760 
 2020-11-16 08:59:00  -9.8   83   760 
 2020-11-16 08:53:56  -9.8   83   760 
 2020-11-16 08:48:52  -10.0   83   760 
 2020-11-16 08:43:48  -9.9   83   760 
 2020-11-16 08:38:44  -10.1   83   760 
 2020-11-16 08:33:40  -10.0   84   760 
 2020-11-16 08:28:36  -10.2   84   760 
 2020-11-16 08:23:32  -10.4   84   760 
 2020-11-16 08:18:28  -10.6   84   760 
 2020-11-16 08:13:24  -10.8   84   760 
 2020-11-16 08:08:20  -11.1   86   760 
 2020-11-16 08:03:16  -11.2   85   760 
 2020-11-16 07:58:12  -11.4   85   760 
 2020-11-16 07:53:08  -11.2   84   760 
 2020-11-16 07:48:04  -11.1   84   760 
 2020-11-16 07:42:59  -11.2   84   760 
 2020-11-16 07:37:55  -11.2   85   760 
 2020-11-16 07:32:51  -11.2   85   760 
 2020-11-16 07:27:47  -11.2   84   760 
 2020-11-16 07:22:43  -11.3   84   760 
 2020-11-16 07:17:39  -11.4   85   760 
 2020-11-16 07:12:35  -11.4   85   760 
 2020-11-16 07:07:31  -11.5   85   760 
 2020-11-16 07:02:27  -11.5   84   760 
 2020-11-16 06:57:23  -11.4   84   760 
 2020-11-16 06:52:19  -11.2   83   760 
 2020-11-16 06:47:15  -11.2   84   760 
 2020-11-16 06:42:10  -11.1   84   760 
 2020-11-16 06:37:06  -10.8   84   760 
 2020-11-16 06:32:02  -10.9   84   760 
 2020-11-16 06:26:58  -10.9   85   760 
 2020-11-16 06:21:54  -10.9   85   760 
 2020-11-16 06:16:50  -10.9   84   760 
 2020-11-16 06:11:46  -11.0   85   760 
 2020-11-16 06:06:41  -10.9   84   760 
 2020-11-16 06:01:37  -10.9   84   760 
 2020-11-16 05:56:33  -10.9   84   760 
 2020-11-16 05:51:29  -10.9   85   760 
 2020-11-16 05:46:25  -10.9   85   760 
 2020-11-16 05:41:21  -11.1   85   761 
 2020-11-16 05:36:17  -11.2   84   761 
 2020-11-16 05:31:13  -11.2   85   761 
 2020-11-16 05:26:09  -11.0   84   761 
 2020-11-16 05:21:05  -11.0   85   761 
 2020-11-16 05:16:00  -11.0   84   761 
 2020-11-16 05:10:56  -10.9   84   761 
 2020-11-16 05:05:52  -10.8   84   761 
 2020-11-16 05:00:48  -10.8   85   761 
 2020-11-16 04:55:44  -10.8   84   761 
 2020-11-16 04:50:40  -10.7   84   761 
 2020-11-16 04:45:36  -10.7   85   761 
 2020-11-16 04:40:32  -10.6   85   761 
 2020-11-16 04:35:28  -10.3   84   761 
 2020-11-16 04:30:24  -10.3   85   761 
 2020-11-16 04:25:19  -10.3   85   761 
 2020-11-16 04:20:15  -10.4   86   761 
 2020-11-16 04:15:10  -10.4   85   761 
 2020-11-16 04:10:06  -10.4   86   761 
 2020-11-16 04:05:02  -10.6   86   761 
 2020-11-16 03:59:58  -10.6   86   761 
 2020-11-16 03:54:54  -10.7   85   761 
 2020-11-16 03:49:50  -10.8   86   761 
 2020-11-16 03:44:45  -10.8   86   761 
 2020-11-16 03:39:41  -10.8   86   761 
 2020-11-16 03:34:37  -10.9   86   761 
 2020-11-16 03:29:33  -10.8   86   761 
 2020-11-16 03:24:29  -10.8   86   761 
 2020-11-16 03:19:25  -10.7   86   761 
 2020-11-16 03:14:21  -10.8   86   761 
 2020-11-16 03:09:17  -10.7   86   761 
 2020-11-16 03:04:13  -10.8   87   761 
 2020-11-16 02:59:09  -10.8   86   761 
 2020-11-16 02:54:04  -10.8   86   761 
 2020-11-16 02:49:00  -10.7   86   761 
 2020-11-16 02:43:56  -10.7   86   761 
 2020-11-16 02:38:52  -10.7   86   761 
 2020-11-16 02:33:48  -10.6   86   761 
 2020-11-16 02:28:44  -10.6   86   761 
 2020-11-16 02:23:40  -10.5   86   761 
 2020-11-16 02:18:36  -10.4   87   761 
 2020-11-16 02:13:32  -10.4   87   761 
 2020-11-16 02:08:28  -10.4   87   761 
 2020-11-16 02:03:24  -10.3   87   761 
 2020-11-16 01:58:19  -10.3   87   761 
 2020-11-16 01:53:15  -10.4   87   761 
 2020-11-16 01:48:11  -10.4   87   761 
 2020-11-16 01:43:07  -10.6   87   761 
 2020-11-16 01:38:03  -10.5   87   761 
 2020-11-16 01:32:59  -10.6   87   761 
 2020-11-16 01:27:55  -10.6   87   761 
 2020-11-16 01:22:51  -10.6   87   761 
 2020-11-16 01:17:47  -10.4   87   761 
 2020-11-16 01:12:42  -10.4   87   762 
 2020-11-16 01:07:38  -10.4   87   762 
 2020-11-16 01:02:34  -10.3   87   762 
 2020-11-16 00:57:30  -10.3   87   762 
 2020-11-16 00:52:26  -10.3   88   762 
 2020-11-16 00:47:22  -10.2   87   762 
 2020-11-16 00:42:18  -10.2   88   762 
 2020-11-16 00:37:13  -10.1   88   762 
 2020-11-16 00:32:09  -10.2   88   762 
 2020-11-16 00:27:05  -10.2   89   762 
 2020-11-16 00:22:01  -10.2   88   762 
 2020-11-16 00:16:57  -10.2   88   762 
 2020-11-16 00:11:53  -10.2   88   762 
 2020-11-16 00:06:49  -10.2   88   762 
 2020-11-16 00:01:45  -10.2   88   762 
 2020-11-15 23:56:41  -9.9   89   762 
 2020-11-15 23:51:37  -9.8   89   762 
 2020-11-15 23:46:32  -9.9   89   762 
 2020-11-15 23:41:28  -9.6   89   762 
 2020-11-15 23:36:24  -9.6   89   762 
 2020-11-15 23:31:20  -9.7   89   762 
 2020-11-15 23:26:16  -9.8   89   762 
 2020-11-15 23:21:12  -9.8   89   762 
 2020-11-15 23:16:08  -9.8   89   762 
 2020-11-15 23:11:04  -9.8   90   762 
 2020-11-15 23:06:00  -9.9   89   762 
 2020-11-15 23:00:55  -10.0   89   762 
 2020-11-15 22:55:51  -9.8   89   762 
 2020-11-15 22:50:46  -9.8   89   762 
 2020-11-15 22:45:42  -9.7   89   762 
 2020-11-15 22:40:37  -9.6   89   762 
 2020-11-15 22:35:33  -9.4   89   762 
 2020-11-15 22:30:29  -9.2   90   762 
 2020-11-15 22:25:25  -9.1   90   762 
 2020-11-15 22:20:21  -9.0   90   762 
 2020-11-15 22:15:17  -8.9   90   762 
 2020-11-15 22:10:13  -8.8   90   762 
 2020-11-15 22:05:09  -8.8   91   762 
 2020-11-15 22:00:03  -8.8   90   762 
 2020-11-15 21:54:59  -8.8   89   762 
 2020-11-15 21:49:55  -8.8   89   762 
 2020-11-15 21:44:50  -8.8   88   762 
 2020-11-15 21:39:46  -8.6   88   762 
 2020-11-15 21:34:42  -8.7   88   762 
 2020-11-15 21:29:38  -8.8   89   762 
 2020-11-15 21:24:34  -8.7   90   762 
 2020-11-15 21:19:30  -8.8   90   762 
 2020-11-15 21:14:26  -8.8   90   762 
 2020-11-15 21:09:22  -8.8   90   763 
 2020-11-15 21:04:18  -8.7   91   763 
 2020-11-15 20:59:14  -8.8   91   763 
 2020-11-15 20:54:09  -8.9   90   763 
 2020-11-15 20:49:05  -8.8   90   763 
 2020-11-15 20:44:00  -8.7   90   763 
 2020-11-15 20:38:55  -8.6   90   763 
 2020-11-15 20:33:51  -8.4   90   763 
 2020-11-15 20:28:47  -8.5   91   763 
 2020-11-15 20:23:43  -8.6   91   763 
 2020-11-15 20:18:39  -8.5   91   763 
 2020-11-15 20:13:35  -8.6   91   763 
 2020-11-15 20:08:31  -8.4   91   763 
 2020-11-15 20:03:27  -8.4   92   763 
 2020-11-15 19:58:22  -8.2   92   763 
 2020-11-15 19:53:18  -8.1   91   763 
 2020-11-15 19:48:14  -7.9   91   763 
 2020-11-15 19:43:10  -7.9   90   763 
 2020-11-15 19:38:06  -7.9   89   763 
 2020-11-15 19:33:02  -7.9   90   763 
 2020-11-15 19:27:58  -7.9   91   763 
 2020-11-15 19:22:53  -8.0   91   763 
 2020-11-15 19:17:46  -7.9   91   763 
 2020-11-15 19:12:42  -7.8   90   763 
 2020-11-15 19:07:38  -7.4   87   763 
 2020-11-15 19:02:34  -6.8   88   763 
 2020-11-15 18:57:29  -6.1   88   763 
 2020-11-15 18:52:25  -5.8   87   763 
 2020-11-15 18:47:21  -5.8   87   763 
 2020-11-15 18:42:17  -5.7   87   763 
 2020-11-15 18:37:12  -5.7   87   763 
 2020-11-15 18:32:07  -5.8   87   763 
 2020-11-15 18:27:02  -6.0   88   763 
 2020-11-15 18:21:58  -5.8   88   763 
 2020-11-15 18:16:54  -5.7   88   763 
 2020-11-15 18:11:49  -5.8   87   763 
 2020-11-15 18:06:45  -5.7   87   763 
 2020-11-15 18:01:41  -5.8   87   763 
 2020-11-15 17:56:37  -5.8   88   763 
 2020-11-15 17:51:33  -5.7   87   763 
 2020-11-15 17:46:29  -5.7   87   763 
 2020-11-15 17:41:25  -5.6   87   763 
 2020-11-15 17:36:21  -5.6   87   763 
 2020-11-15 17:31:16  -5.5   87   763 
 2020-11-15 17:26:12  -5.5   86   763 
 2020-11-15 17:21:08  -5.5   86   763 
 2020-11-15 17:16:04  -5.6   86   763 
 2020-11-15 17:11:00  -5.5   86   763 
 2020-11-15 17:05:56  -5.4   86   763 
 2020-11-15 17:00:52  -5.4   86   763 
 2020-11-15 16:55:47  -5.3   85   763 
 2020-11-15 16:50:43  -5.1   84   763 
 2020-11-15 16:45:39  -5.1   83   763 
 2020-11-15 16:40:35  -4.9   83   763 
 2020-11-15 16:35:31  -4.9   83   763 
 2020-11-15 16:30:27  -4.8   83   763 
 2020-11-15 16:25:23  -4.9   83   763 
 2020-11-15 16:20:19  -4.8   83   763 
 2020-11-15 16:15:14  -4.8   84   763 
 2020-11-15 16:10:10  -4.8   83   763 
 2020-11-15 16:05:06  -4.6   83   763 
 2020-11-15 16:00:02  -4.6   83   763 
 2020-11-15 15:54:58  -4.5   83   763 
 2020-11-15 15:49:54  -4.5   84   763 
 2020-11-15 15:44:50  -4.6   84   763 
 2020-11-15 15:39:45  -4.6   84   763 
 2020-11-15 15:34:41  -4.7   85   763 
 2020-11-15 15:29:37  -4.7   85   763 
 2020-11-15 15:24:33  -4.6   84   763 
 2020-11-15 15:19:29  -4.2   83   763 
 2020-11-15 15:14:25  -4.2   83   763 
 2020-11-15 15:09:20  -4.4   84   763 
 2020-11-15 15:04:16  -4.6   84   763 
 2020-11-15 14:59:12  -4.6   85   763 
 2020-11-15 14:54:08  -5.1   87   763 
 2020-11-15 14:49:04  -5.1   87   763 
 2020-11-15 14:44:00  -5.3   88   763 
 2020-11-15 14:38:56  -5.5   88   763 
 2020-11-15 14:33:52  -5.4   88   763 
 2020-11-15 14:28:48  -5.4   88   763 
 2020-11-15 14:23:43  -5.6   89   763 
 2020-11-15 14:18:39  -5.7   90   763 
 2020-11-15 14:13:35  -5.8   90   763 
 2020-11-15 14:08:31  -5.7   88   763 
 2020-11-15 14:03:27  -5.9   89   763 
 2020-11-15 13:58:23  -5.2   84   763 
 2020-11-15 13:53:19  -5.2   83   763 
 2020-11-15 13:48:14  -5.2   83   763 
 2020-11-15 13:43:10  -4.6   80   763 
 2020-11-15 13:38:06  -4.8   81   763 
 2020-11-15 13:33:02  -4.7   81   763 
 2020-11-15 13:27:57  -4.3   79   763 
 2020-11-15 13:22:51  -4.4   80   763 
 2020-11-15 13:17:47  -4.4   80   763 
 2020-11-15 13:12:43  -4.6   81   763 
 2020-11-15 13:07:39  -4.4   79   763 
 2020-11-15 13:02:35  -4.4   79   763 
 2020-11-15 12:57:31  -4.5   79   763 
 2020-11-15 12:52:27  -4.7   80   763 
 2020-11-15 12:47:23  -4.8   80   763 
 2020-11-15 12:42:19  -4.9   80   763 
 2020-11-15 12:37:15  -4.9   81   763 
 2020-11-15 12:32:11  -5.4   83   763 
 2020-11-15 12:27:07  -5.9   84   763 
 2020-11-15 12:22:03  -6.1   84   763 
 2020-11-15 12:16:59  -6.1   84   763 
 2020-11-15 12:11:55  -6.3   83   763 
 2020-11-15 12:06:51  -6.0   83   763 
 2020-11-15 12:01:47  -5.9   83   763 
 2020-11-15 11:56:43  -6.2   83   763 
 2020-11-15 11:51:38  -6.3   82   763 
 2020-11-15 11:46:34  -5.9   79   763 
 2020-11-15 11:41:29  -5.5   79   763 
 2020-11-15 11:36:25  -5.6   79   764 
 2020-11-15 11:31:21  -5.8   79   764 
 2020-11-15 11:26:17  -5.8   79   764 
 2020-11-15 11:21:12  -5.8   79   764 
 2020-11-15 11:16:08  -6.0   79   764 
 2020-11-15 11:11:04  -5.7   79   764 
 2020-11-15 11:06:00  -5.9   80   764 
 2020-11-15 11:00:56  -6.3   81   764 
 2020-11-15 10:55:52  -6.9   82   764 
 2020-11-15 10:50:48  -6.8   81   764 
 2020-11-15 10:45:44  -6.8   81   763 
 2020-11-15 10:40:40  -6.8   81   763 
 2020-11-15 10:35:36  -6.9   81   763 
 2020-11-15 10:30:32  -7.1   82   763 
 2020-11-15 10:25:28  -7.3   82   763 
 2020-11-15 10:20:24  -7.0   82   763 
 2020-11-15 10:15:20  -7.1   82   763 
 2020-11-15 10:10:16  -7.2   82   763 
 2020-11-15 10:05:11  -7.5   83   763 
 2020-11-15 10:00:07  -7.6   83   763 
 2020-11-15 09:55:03  -7.7   84   763 
 2020-11-15 09:49:59  -7.9   84   763 
 2020-11-15 09:44:55  -8.0   84   763 
 2020-11-15 09:39:51  -7.8   84   763 
 2020-11-15 09:34:47  -7.7   83   763 
 2020-11-15 09:29:42  -7.7   83   763 
 2020-11-15 09:24:38  -7.7   84   763 
 2020-11-15 09:19:34  -7.8   84   763 
 2020-11-15 09:14:30  -7.8   84   763 
 2020-11-15 09:09:26  -7.8   84   763 
 2020-11-15 09:04:22  -7.9   85   763 
 2020-11-15 08:59:18  -7.9   84   763 
 2020-11-15 08:54:14  -7.9   84   763 
 2020-11-15 08:49:09  -7.8   83   763 
 2020-11-15 08:44:05  -7.6   83   763 
 2020-11-15 08:39:01  -7.5   83   763 
 2020-11-15 08:33:57  -7.6   84   763 
 2020-11-15 08:28:53  -7.7   84   763 
 2020-11-15 08:23:49  -7.6   85   763 
 2020-11-15 08:18:45  -7.5   84   763 
 2020-11-15 08:13:41  -7.5   84   763 
 2020-11-15 08:08:37  -7.3   84   763 
 2020-11-15 08:03:32  -7.4   84   763 
 2020-11-15 07:58:28  -7.2   83   763 
 2020-11-15 07:53:24  -6.9   82   763 
 2020-11-15 07:48:20  -6.8   82   763 
 2020-11-15 07:43:16  -6.7   82   763 
 2020-11-15 07:38:12  -6.6   83   763 
 2020-11-15 07:33:08  -6.4   83   763 
 2020-11-15 07:28:04  -6.4   82   763 
 2020-11-15 07:23:00  -6.4   82   763 
 2020-11-15 07:17:56  -6.4   83   763 
 2020-11-15 07:12:52  -6.2   83   763 
 2020-11-15 07:07:48  -6.1   82   763 
 2020-11-15 07:02:44  -6.2   83   763 
 2020-11-15 06:57:40  -6.4   83   763 
 2020-11-15 06:52:36  -6.3   83   763 
 2020-11-15 06:47:32  -6.2   82   763 
 2020-11-15 06:42:28  -6.1   83   763 
 2020-11-15 06:37:23  -6.1   83   763 
 2020-11-15 06:32:19  -6.2   83   763 
 2020-11-15 06:27:15  -6.3   84   763 
 2020-11-15 06:22:11  -6.4   84   763 
 2020-11-15 06:17:07  -6.5   85   763 
 2020-11-15 06:12:03  -6.6   85   763 
 2020-11-15 06:06:59  -6.7   85   763 
 2020-11-15 06:01:55  -6.8   84   763 
 2020-11-15 05:56:50  -6.7   84   763 
 2020-11-15 05:51:46  -6.6   84   762 
 2020-11-15 05:46:42  -6.7   85   762 
 2020-11-15 05:41:38  -6.8   85   762 
 2020-11-15 05:36:34  -6.8   85   762 
 2020-11-15 05:31:30  -7.0   85   762 
 2020-11-15 05:26:26  -7.0   85   762 
 2020-11-15 05:21:22  -7.1   85   762 
 2020-11-15 05:16:18  -6.9   85   762 
 2020-11-15 05:11:14  -6.9   85   762 
 2020-11-15 05:06:10  -6.9   85   762 
 2020-11-15 05:01:06  -6.8   85   762 
 2020-11-15 04:56:02  -6.6   84   762 
 2020-11-15 04:50:57  -6.4   84   762 
 2020-11-15 04:45:53  -6.2   85   762 
 2020-11-15 04:40:49  -6.1   84   762 
 2020-11-15 04:35:45  -6.0   84   762 
 2020-11-15 04:30:41  -5.6   84   762 
 2020-11-15 04:25:37  -5.6   84   762 
 2020-11-15 04:20:33  -5.7   85   762 
 2020-11-15 04:15:29  -5.4   84   762 
 2020-11-15 04:10:24  -5.5   85   762 
 2020-11-15 04:05:20  -5.4   85   762 
 2020-11-15 04:00:16  -5.5   85   762 
 2020-11-15 03:55:12  -5.5   86   762 
 2020-11-15 03:50:08  -5.6   86   762 
 2020-11-15 03:45:04  -5.4   85   762 
 2020-11-15 03:40:00  -5.8   85   762 
 2020-11-15 03:34:56  -5.8   85   762 
 2020-11-15 03:29:52  -5.9   85   762 
 2020-11-15 03:24:48  -5.9   85   762 
 2020-11-15 03:19:44  -6.0   86   762 
 2020-11-15 03:14:40  -6.1   86   762 
 2020-11-15 03:09:36  -6.1   84   762 
 2020-11-15 03:04:32  -5.8   84   762 
 2020-11-15 02:59:28  -5.6   84   762 
 2020-11-15 02:54:24  -5.4   83   762 
 2020-11-15 02:49:20  -5.3   84   762 
 2020-11-15 02:44:16  -5.3   84   762 
 2020-11-15 02:39:12  -5.3   84   762 
 2020-11-15 02:34:08  -5.3   84   762 
 2020-11-15 02:29:04  -5.2   84   762 
 2020-11-15 02:24:00  -5.2   84   762 
 2020-11-15 02:18:56  -5.1   84   762 
 2020-11-15 02:13:52  -5.1   84   762 
 2020-11-15 02:08:48  -5.1   84   762 
 2020-11-15 02:03:44  -5.2   83   762 
 2020-11-15 01:58:40  -5.2   83   762 
 2020-11-15 01:53:36  -5.2   83   762 
 2020-11-15 01:48:32  -5.3   84   762 
 2020-11-15 01:43:28  -5.3   83   762 
 2020-11-15 01:38:24  -5.3   84   762 
 2020-11-15 01:33:20  -5.4   83   762 
 2020-11-15 01:28:16  -5.4   83   762 
 2020-11-15 01:23:12  -5.3   83   762 
 2020-11-15 01:18:08  -5.1   83   762 
 2020-11-15 01:13:04  -5.1   83   762 
 2020-11-15 01:08:00  -5.2   84   762 
 2020-11-15 01:02:55  -5.2   84   762 
 2020-11-15 00:57:51  -5.2   84   762 
 2020-11-15 00:52:47  -5.3   84   762 
 2020-11-15 00:47:43  -5.2   84   762 
 2020-11-15 00:42:39  -5.3   84   762 
 2020-11-15 00:37:35  -5.2   84   762 
 2020-11-15 00:32:31  -5.2   84   762 
 2020-11-15 00:27:27  -5.2   85   762 
 2020-11-15 00:22:23  -5.3   84   762 
 2020-11-15 00:17:19  -5.3   85   762 
 2020-11-15 00:12:15  -5.4   86   762 
 2020-11-15 00:07:11  -5.6   86   762 
 2020-11-15 00:02:07  -5.6   86   762 
 2020-11-14 23:57:03  -5.8   86   762 
 2020-11-14 23:51:59  -5.8   86   762 
 2020-11-14 23:46:55  -5.8   86   762 
 2020-11-14 23:41:51  -5.8   86   762 
 2020-11-14 23:36:47  -5.8   86   762 
 2020-11-14 23:31:43  -5.7   86   762 
 2020-11-14 23:26:39  -5.8   85   762 
 2020-11-14 23:21:35  -5.9   85   762 
 2020-11-14 23:16:31  -6.0   85   762 
 2020-11-14 23:11:27  -5.8   84   762 
 2020-11-14 23:06:23  -5.6   84   762 
 2020-11-14 23:01:19  -5.6   85   762 
 2020-11-14 22:56:15  -5.6   86   762 
 2020-11-14 22:51:11  -5.7   86   762 
 2020-11-14 22:46:07  -5.7   86   762 
 2020-11-14 22:41:03  -5.8   87   762 
 2020-11-14 22:35:59  -5.9   86   762 
 2020-11-14 22:30:55  -5.8   86   762 
 2020-11-14 22:25:50  -6.0   87   762 
 2020-11-14 22:20:46  -6.1   87   762 
 2020-11-14 22:15:42  -6.1   87   762 
 2020-11-14 22:10:38  -6.0   87   762 
 2020-11-14 22:05:33  -5.9   87   762 
 2020-11-14 22:00:29  -5.9   87   762 
 2020-11-14 21:55:25  -5.9   88   762 
 2020-11-14 21:50:21  -6.0   88   762 
 2020-11-14 21:45:17  -6.0   88   762 
 2020-11-14 21:40:13  -5.9   88   762 
 2020-11-14 21:35:08  -5.9   88   762 
 2020-11-14 21:30:04  -5.9   87   762 
 2020-11-14 21:25:00  -6.0   88   761 
 2020-11-14 21:19:56  -5.8   87   762 
 2020-11-14 21:14:52  -5.8   87   761 
 2020-11-14 21:09:48  -5.7   86   761 
 2020-11-14 21:04:43  -5.6   86   761 
 2020-11-14 20:59:39  -5.6   86   761 
 2020-11-14 20:54:35  -5.6   86   761 
 2020-11-14 20:49:31  -5.8   86   761 
 2020-11-14 20:44:27  -5.8   86   761 
 2020-11-14 20:39:23  -5.6   86   761 
 2020-11-14 20:34:19  -5.6   85   761 
 2020-11-14 20:29:15  -5.6   85   761 
 2020-11-14 20:24:11  -5.6   85   761 
 2020-11-14 20:19:07  -5.5   85   761 
 2020-11-14 20:14:03  -5.6   85   761 
 2020-11-14 20:08:58  -5.6   84   761 
 2020-11-14 20:03:54  -5.5   84   761 
 2020-11-14 19:58:50  -5.4   83   761 
 2020-11-14 19:53:46  -5.3   83   761 
 2020-11-14 19:48:42  -5.1   82   761 
 2020-11-14 19:43:38  -5.2   82   761 
 2020-11-14 19:38:34  -5.2   82   761 
 2020-11-14 19:33:30  -5.3   82   761 
 2020-11-14 19:28:26  -5.3   82   761 
 2020-11-14 19:23:22  -5.3   82   761 
 2020-11-14 19:18:17  -5.2   81   761 
 2020-11-14 19:13:13  -5.1   81   761 
 2020-11-14 19:08:08  -4.9   80   761 
 2020-11-14 19:03:03  -4.8   80   761 
 2020-11-14 18:57:59  -4.6   79   761 
 2020-11-14 18:52:55  -4.6   79   761 
 2020-11-14 18:47:51  -4.6   80   761 
 2020-11-14 18:42:47  -4.6   80   761 
 2020-11-14 18:37:43  -4.7   80   761 
 2020-11-14 18:32:39  -4.8   81   761 
 2020-11-14 18:27:34  -4.8   80   761 
 2020-11-14 18:22:30  -4.7   79   761 
 2020-11-14 18:17:26  -4.6   79   761 
 2020-11-14 18:12:22  -4.6   79   761 
 2020-11-14 18:07:18  -4.5   79   761 
 2020-11-14 18:02:14  -4.4   78   761 
 2020-11-14 17:57:10  -4.2   78   761 
 2020-11-14 17:52:06  -4.1   78   761 
 2020-11-14 17:47:02  -4.2   78   761 
 2020-11-14 17:41:58  -4.1   78   761 
 2020-11-14 17:36:54  -4.0   77   761 
 2020-11-14 17:31:50  -3.9   77   761 
 2020-11-14 17:26:46  -3.9   77   761 
 2020-11-14 17:21:42  -3.9   77   761 
 2020-11-14 17:16:38  -3.6   77   761 
 2020-11-14 17:11:33  -3.6   77   761 
 2020-11-14 17:06:29  -3.6   76   761 
 2020-11-14 17:01:25  -3.5   76   761 
 2020-11-14 16:56:21  -3.3   74   761 
 2020-11-14 16:51:17  -2.9   74   761 
 2020-11-14 16:46:13  -2.9   73   761 
 2020-11-14 16:41:09  -2.8   73   761 
 2020-11-14 16:36:04  -2.7   72   761 
 2020-11-14 16:31:00  -2.6   72   761 
 2020-11-14 16:25:56  -2.3   72   761 
 2020-11-14 16:20:52  -2.1   70   761 
 2020-11-14 16:15:48  -1.8   69   761 
 2020-11-14 16:10:44  -1.6   68   761 
 2020-11-14 16:05:40  -1.4   69   761 
 2020-11-14 16:00:34  -1.4   69   761 
 2020-11-14 15:55:30  -1.5   69   761 
 2020-11-14 15:50:26  -1.4   69   761 
 2020-11-14 15:45:21  -1.4   69   761 
 2020-11-14 15:40:17  -1.6   69   761 
 2020-11-14 15:35:13  -1.9   70   761 
 2020-11-14 15:30:09  -1.9   70   761 
 2020-11-14 15:25:05  -2.0   70   761 
 2020-11-14 15:20:01  -2.0   71   761 
 2020-11-14 15:14:57  -2.1   71   761 
 2020-11-14 15:09:53  -2.1   71   761 
 2020-11-14 15:04:48  -2.2   71   761 
 2020-11-14 14:59:44  -2.2   72   761 
 2020-11-14 14:54:40  -2.4   72   761 
 2020-11-14 14:49:36  -2.4   71   761 
 2020-11-14 14:44:32  -2.3   71   761 
 2020-11-14 14:39:28  -2.1   72   761 
 2020-11-14 14:34:24  -2.1   71   761 
 2020-11-14 14:29:20  -2.0   72   761 
 2020-11-14 14:24:15  -2.1   72   761 
 2020-11-14 14:19:11  -2.6   73   761 
 2020-11-14 14:14:07  -2.6   74   761 
 2020-11-14 14:09:03  -2.7   74   761 
 2020-11-14 14:03:59  -2.9   74   761 
 2020-11-14 13:58:54  -2.9   74   761 
 2020-11-14 13:53:50  -2.9   74   761 
 2020-11-14 13:48:46  -2.6   74   761 
 2020-11-14 13:43:42  -2.6   73   761 
 2020-11-14 13:38:38  -2.6   73   761 
 2020-11-14 13:33:34  -2.6   74   761 
 2020-11-14 13:28:30  -2.1   71   761 
 2020-11-14 13:23:26  -2.2   73   761 
 2020-11-14 13:18:22  -2.4   74   761 
 2020-11-14 13:13:18  -2.7   74   761 
 2020-11-14 13:08:14  -2.9   73   761 
 2020-11-14 13:03:10  -2.9   75   761 
 2020-11-14 12:58:06  -3.1   75   761 
 2020-11-14 12:53:02  -3.1   75   761 
 2020-11-14 12:47:57  -3.4   75   761 
 2020-11-14 12:42:53  -3.2   76   761 
 2020-11-14 12:37:49  -3.2   75   761 
 2020-11-14 12:32:45  -3.2   75   761 
 2020-11-14 12:27:41  -3.3   75   761 
 2020-11-14 12:22:37  -3.1   76   761 
 2020-11-14 12:17:33  -3.1   75   761 
 2020-11-14 12:12:29  -2.9   74   761 
 2020-11-14 12:07:25  -2.4   73   761 
 2020-11-14 12:02:21  -2.8   75   761 
 2020-11-14 11:57:17  -3.0   76   761 
 2020-11-14 11:52:13  -3.2   75   761 
 2020-11-14 11:47:09  -3.8   77   761 
 2020-11-14 11:42:05  -4.0   78   761 
 2020-11-14 11:37:01  -3.9   78   761 
 2020-11-14 11:31:57  -4.1   78   761 
 2020-11-14 11:26:53  -4.2   78   761 
 2020-11-14 11:21:49  -4.5   79   761 
 2020-11-14 11:16:45  -4.4   79   761 
 2020-11-14 11:11:41  -4.6   79   761 
 2020-11-14 11:06:37  -4.8   79   761 
 2020-11-14 11:01:33  -4.9   79   761 
 2020-11-14 10:56:29  -5.0   80   761 
 2020-11-14 10:51:25  -4.9   79   761 
 2020-11-14 10:46:21  -4.8   78   761 
 2020-11-14 10:41:16  -4.8   79   761 
 2020-11-14 10:36:12  -4.8   78   761 
 2020-11-14 10:31:08  -5.1   80   761 
 2020-11-14 10:26:04  -5.5   81   761 
 2020-11-14 10:21:00  -5.6   81   761 
 2020-11-14 10:15:56  -5.7   81   761 
 2020-11-14 10:10:52  -5.8   82   761 
 2020-11-14 10:05:48  -6.1   83   761 
 2020-11-14 10:00:44  -6.2   82   761 
 2020-11-14 09:55:40  -6.1   83   761 
 2020-11-14 09:50:36  -6.1   83   761 
 2020-11-14 09:45:32  -6.2   83   761 
 2020-11-14 09:40:28  -6.3   84   761 
 2020-11-14 09:35:24  -6.5   84   761 
 2020-11-14 09:30:20  -6.5   84   761 
 2020-11-14 09:25:16  -6.6   84   761 
 2020-11-14 09:20:12  -6.8   85   761 
 2020-11-14 09:15:08  -6.9   85   761 
 2020-11-14 09:10:04  -6.9   85   761 
 2020-11-14 09:04:59  -6.9   85   761 
 2020-11-14 08:59:55  -6.6   84   761 
 2020-11-14 08:54:51  -6.8   84   761 
 2020-11-14 08:49:47  -6.7   85   761 
 2020-11-14 08:44:43  -6.7   85   761 
 2020-11-14 08:39:39  -6.6   84   761 
 2020-11-14 08:34:35  -6.6   84   761 
 2020-11-14 08:29:31  -6.5   84   761 
 2020-11-14 08:24:27  -6.4   84   761 
 2020-11-14 08:19:23  -6.3   83   761 
 2020-11-14 08:14:19  -6.2   83   761 
 2020-11-14 08:09:15  -6.1   83   761 
 2020-11-14 08:04:11  -6.1   83   761 
 2020-11-14 07:59:07  -6.1   83   761 
 2020-11-14 07:54:02  -5.9   83   761 
 2020-11-14 07:48:58  -5.8   82   761 
 2020-11-14 07:43:54  -5.7   82   761 
 2020-11-14 07:38:50  -5.7   82   761 
 2020-11-14 07:33:46  -5.6   83   761 
 2020-11-14 07:28:42  -5.6   83   761 
 2020-11-14 07:23:38  -5.6   84   761 
 2020-11-14 07:18:34  -5.6   84   761 
 2020-11-14 07:13:29  -5.4   84   761 
 2020-11-14 07:08:25  -5.4   84   761 
 2020-11-14 07:03:21  -5.2   84   761 
 2020-11-14 06:58:17  -5.3   84   761 
 2020-11-14 06:53:13  -5.2   85   761 
 2020-11-14 06:48:09  -5.1   84   761 
 2020-11-14 06:43:05  -5.0   85   761 
 2020-11-14 06:38:01  -4.9   84   761 
 2020-11-14 06:32:56  -5.0   85   761 
 2020-11-14 06:27:52  -4.9   85   761 
 2020-11-14 06:22:48  -4.8   85   761 
 2020-11-14 06:17:44  -4.8   85   761 
 2020-11-14 06:12:40  -4.8   85   761 
 2020-11-14 06:07:36  -4.7   85   761 
 2020-11-14 06:02:32  -4.6   86   761 
 2020-11-14 05:57:28  -4.6   85   761 
 2020-11-14 05:52:24  -4.5   86   761 
 2020-11-14 05:47:19  -4.4   85   761 
 2020-11-14 05:42:15  -4.4   86   761 
 2020-11-14 05:37:11  -4.4   85   760 
 2020-11-14 05:32:06  -4.3   85   760 
 2020-11-14 05:27:02  -4.2   84   760 
 2020-11-14 05:21:58  -4.2   84   760 
 2020-11-14 05:16:54  -4.3   84   760 
 2020-11-14 05:11:50  -4.2   84   760 
 2020-11-14 05:06:46  -4.2   84   760 
 2020-11-14 05:01:41  -4.2   85   760 
 2020-11-14 04:56:37  -4.2   85   760 
 2020-11-14 04:51:33  -4.2   85   760 
 2020-11-14 04:46:29  -4.2   85   760 
 2020-11-14 04:41:25  -4.1   84   760 
 2020-11-14 04:36:21  -4.4   85   760 
 2020-11-14 04:31:17  -4.2   85   760 
 2020-11-14 04:26:13  -4.2   85   760 
 2020-11-14 04:21:09  -4.4   85   760 
 2020-11-14 04:16:04  -4.4   85   760 
 2020-11-14 04:11:00  -4.4   85   760 
 2020-11-14 04:05:56  -4.5   85   760 
 2020-11-14 04:00:52  -4.6   85   760 
 2020-11-14 03:55:48  -4.5   85   760 
 2020-11-14 03:50:44  -4.6   85   760 
 2020-11-14 03:45:40  -4.8   85   761 
 2020-11-14 03:40:35  -4.9   85   761 
 2020-11-14 03:35:31  -4.8   85   760 
 2020-11-14 03:30:27  -4.7   84   761 
 2020-11-14 03:25:23  -4.7   85   761 
 2020-11-14 03:20:19  -4.7   84   761 
 2020-11-14 03:15:15  -4.8   85   761 
 2020-11-14 03:10:11  -4.8   86   761 
 2020-11-14 03:05:07  -5.0   86   761 
 2020-11-14 03:00:03  -5.1   85   761 
 2020-11-14 02:54:58  -5.1   85   761 
 2020-11-14 02:49:54  -5.1   85   760 
 2020-11-14 02:44:50  -5.0   85   761 
 2020-11-14 02:39:46  -5.1   85   760 
 2020-11-14 02:34:42  -5.1   85   760 
 2020-11-14 02:29:38  -5.1   85   760 
 2020-11-14 02:24:34  -4.9   84   760 
 2020-11-14 02:19:30  -5.1   84   760 
 2020-11-14 02:14:26  -5.1   85   760 
 2020-11-14 02:09:22  -5.2   85   760 
 2020-11-14 02:04:17  -5.3   85   761 
 2020-11-14 01:59:13  -5.4   85   760 
 2020-11-14 01:54:08  -5.3   85   760 
 2020-11-14 01:49:04  -5.3   85   760 
 2020-11-14 01:44:00  -5.4   85   760 
 2020-11-14 01:38:56  -5.2   84   760 
 2020-11-14 01:33:52  -5.3   84   760 
 2020-11-14 01:28:48  -5.2   84   760 
 2020-11-14 01:23:43  -5.1   84   760 
 2020-11-14 01:18:39  -5.2   84   760 
 2020-11-14 01:13:35  -5.1   84   760 
 2020-11-14 01:08:31  -5.1   84   760 
 2020-11-14 01:03:27  -5.1   84   760 
 2020-11-14 00:58:23  -5.1   84   760 
 2020-11-14 00:53:19  -5.0   84   760 
 2020-11-14 00:48:15  -5.1   84   760 
 2020-11-14 00:43:11  -5.2   84   760 
 2020-11-14 00:38:07  -5.1   84   760 
 2020-11-14 00:33:03  -5.1   84   760 
 2020-11-14 00:27:58  -5.0   83   760 
 2020-11-14 00:22:54  -5.0   83   760 
 2020-11-14 00:17:50  -4.9   83   760 
 2020-11-14 00:12:46  -5.0   83   760 
 2020-11-14 00:07:42  -5.1   83   760 
 2020-11-14 00:02:38  -5.0   83   760 
 2020-11-13 23:57:34  -4.9   83   760 
 2020-11-13 23:52:30  -4.9   83   760 
 2020-11-13 23:47:25  -5.0   82   760 
 2020-11-13 23:42:21  -5.0   83   760 
 2020-11-13 23:37:17  -4.9   83   760 
 2020-11-13 23:32:13  -4.9   83   760 
 2020-11-13 23:27:09  -4.9   83   760 
 2020-11-13 23:22:05  -5.0   83   760 
 2020-11-13 23:17:01  -4.9   82   760 
 2020-11-13 23:11:57  -4.9   82   760 
 2020-11-13 23:06:50  -4.9   82   760 
 2020-11-13 23:01:46  -4.9   82   760 
 2020-11-13 22:56:42  -4.9   83   760 
 2020-11-13 22:51:36  -4.9   82   760 
 2020-11-13 22:46:32  -4.8   82   760 
 2020-11-13 22:41:27  -4.8   82   760 
 2020-11-13 22:36:23  -4.8   82   760 
 2020-11-13 22:31:19  -4.8   82   760 
 2020-11-13 22:26:15  -4.7   81   760 
 2020-11-13 22:21:11  -4.6   81   760 
 2020-11-13 22:16:07  -4.6   81   760 
 2020-11-13 22:11:02  -4.6   81   760 
 2020-11-13 22:05:58  -4.4   81   760 
 2020-11-13 22:00:54  -4.3   81   760 
 2020-11-13 21:55:49  -4.4   81   760 
 2020-11-13 21:50:45  -4.4   81   760 
 2020-11-13 21:45:41  -4.5   81   760 
 2020-11-13 21:40:37  -4.4   81   760 
 2020-11-13 21:35:31  -4.4   81   760 
 2020-11-13 21:30:28  -4.3   81   760 
 2020-11-13 21:25:23  -4.2   81   760 
 2020-11-13 21:20:19  -4.2   81   760 
 2020-11-13 21:15:15  -4.3   81   760 
 2020-11-13 21:10:10  -4.4   81   760 
 2020-11-13 21:05:06  -4.3   80   760 
 2020-11-13 21:00:02  -4.3   80   760 
 2020-11-13 20:54:57  -4.2   79   760 
 2020-11-13 20:49:52  -4.2   79   760 
 2020-11-13 20:44:48  -4.5   80   760 
 2020-11-13 20:39:44  -4.4   79   760 
 2020-11-13 20:34:40  -4.5   79   760 
 2020-11-13 20:29:36  -4.4   79   760 
 2020-11-13 20:24:32  -4.4   79   760 
 2020-11-13 20:19:28  -4.4   79   760 
 2020-11-13 20:14:24  -4.4   78   760 
 2020-11-13 20:09:20  -4.4   79   760 
 2020-11-13 20:04:16  -4.5   79   760 
 2020-11-13 19:59:12  -4.5   79   760 
 2020-11-13 19:54:08  -4.4   79   760 
 2020-11-13 19:49:04  -4.5   79   760 
 2020-11-13 19:44:00  -4.4   78   760 
 2020-11-13 19:38:56  -4.3   79   760 
 2020-11-13 19:33:52  -4.2   79   760 
 2020-11-13 19:28:48  -4.3   79   760 
 2020-11-13 19:23:44  -4.3   79   760 
 2020-11-13 19:18:40  -4.4   79   760 
 2020-11-13 19:13:36  -4.5   79   760 
 2020-11-13 19:08:32  -4.5   78   760 
 2020-11-13 19:03:27  -4.4   78   760 
 2020-11-13 18:58:23  -4.3   78   760 
 2020-11-13 18:53:19  -4.3   79   760 
 2020-11-13 18:48:15  -4.5   79   760 
 2020-11-13 18:43:11  -4.5   79   760 
 2020-11-13 18:38:06  -4.4   80   760 
 2020-11-13 18:33:01  -4.4   80   760 
 2020-11-13 18:27:57  -4.3   80   760 
 2020-11-13 18:22:53  -4.3   80   760 
 2020-11-13 18:17:48  -4.4   80   760 
 2020-11-13 18:12:44  -4.3   79   760 
 2020-11-13 18:07:40  -4.3   80   760 
 2020-11-13 18:02:36  -4.2   80   760 
 2020-11-13 17:57:32  -4.2   80   760 
 2020-11-13 17:52:28  -4.1   79   760 
 2020-11-13 17:47:24  -4.1   79   760 
 2020-11-13 17:42:20  -4.0   79   760 
 2020-11-13 17:37:16  -3.9   78   760 
 2020-11-13 17:32:12  -3.8   78   760 
 2020-11-13 17:27:08  -3.8   77   760 
 2020-11-13 17:22:04  -3.6   77   760 
 2020-11-13 17:17:00  -3.6   77   760 
 2020-11-13 17:06:52  -3.6   75   759 
 2020-11-13 17:01:48  -3.5   74   759 
 2020-11-13 16:56:44  -3.2   72   759 
 2020-11-13 16:51:40  -3.1   72   759 
 2020-11-13 16:46:36  -3.0   71   759 
 2020-11-13 16:41:32  -2.9   69   759 
 2020-11-13 16:36:28  -2.8   70   759 
 2020-11-13 16:31:23  -2.8   69   759 
 2020-11-13 16:26:19  -2.7   69   759 
 2020-11-13 16:21:15  -2.6   70   759 
 2020-11-13 16:16:09  -2.4   70   759 
 2020-11-13 16:11:05  -2.4   71   759 
 2020-11-13 16:06:01  -2.2   71   759 
 2020-11-13 16:00:57  -2.2   71   759 
 2020-11-13 15:55:53  -2.3   72   759 
 2020-11-13 15:50:49  -2.3   74   759 
 2020-11-13 15:45:42  -2.2   74   759 
 2020-11-13 15:40:38  -2.2   73   759 
 2020-11-13 15:35:34  -2.3   73   759 
 2020-11-13 15:30:30  -2.4   74   759 
 2020-11-13 15:25:26  -2.4   73   759 
 2020-11-13 15:20:21  -2.0   72   759 
 2020-11-13 15:15:17  -2.1   72   759 
 2020-11-13 15:10:13  -1.9   71   759 
 2020-11-13 15:05:09  -2.0   70   759 
 2020-11-13 15:00:04  -2.2   69   759 
 2020-11-13 14:55:00  -1.9   69   759 
 2020-11-13 14:49:51  -2.0   68   759 
 2020-11-13 14:44:47  -2.1   66   758 
 2020-11-13 14:39:43  -1.9   68   758 
 2020-11-13 14:34:39  -1.9   70   758 
 2020-11-13 14:29:35  -1.8   69   758 
 2020-11-13 14:24:31  -1.8   70   758 
 2020-11-13 14:19:27  -1.9   66   758 
 2020-11-13 14:14:23  -1.8   67   758 
 2020-11-13 14:09:19  -1.8   65   758 
 2020-11-13 14:04:14  -2.0   66   758 
 2020-11-13 13:59:11  -2.1   65   758 
 2020-11-13 13:54:06  -2.1   66   758 
 2020-11-13 13:49:02  -2.1   66   758 
 2020-11-13 13:43:58  -1.9   68   758 
 2020-11-13 13:38:54  -2.1   67   758 
 2020-11-13 13:33:47  -2.0   69   758 
 2020-11-13 13:28:43  -1.9   70   758 
 2020-11-13 13:23:39  -1.9   71   758 
 2020-11-13 13:18:35  -1.9   72   758 
 2020-11-13 13:13:31  -1.9   72   758 
 2020-11-13 13:08:26  -1.9   73   758 
 2020-11-13 13:03:22  -2.0   74   758 
 2020-11-13 12:58:18  -2.2   75   758 
 2020-11-13 12:53:14  -2.1   76   758 
 2020-11-13 12:48:10  -2.1   76   758 
 2020-11-13 12:43:06  -2.3   76   758 
 2020-11-13 12:37:59  -2.4   76   758 
 2020-11-13 12:32:55  -2.3   76   758 
 2020-11-13 12:27:51  -2.4   76   758 
 2020-11-13 12:22:47  -2.6   76   757 
 2020-11-13 12:17:43  -2.4   76   757 
 2020-11-13 12:12:38  -2.6   76   757 
 2020-11-13 12:07:34  -2.5   75   757 
 2020-11-13 12:02:27  -2.7   76   757 
 2020-11-13 11:57:23  -2.5   76   757 
 2020-11-13 11:52:19  -2.5   75   757 
 2020-11-13 11:42:03  -2.8   75   757 
 2020-11-13 11:36:59  -2.6   76   757 
 2020-11-13 11:31:55  -2.8   75   757 
 2020-11-13 11:26:51  -2.8   75   757 
 2020-11-13 11:21:47  -2.9   75   757 
 2020-11-13 11:16:43  -2.9   75   757 
 2020-11-13 11:11:39  -2.8   74   756 
 2020-11-13 11:06:35  -2.9   73   756 
 2020-11-13 11:01:31  -2.9   73   756 
 2020-11-13 10:56:27  -2.8   75   756 
 2020-11-13 10:51:23  -2.9   75   756 
 2020-11-13 10:46:19  -2.9   75   756 
 2020-11-13 10:41:15  -2.9   75   756 
 2020-11-13 10:36:11  -2.9   75   756 
 2020-11-13 10:31:07  -3.0   76   756 
 2020-11-13 10:26:03  -3.1   76   756 
 2020-11-13 10:20:59  -2.9   76   756 
 2020-11-13 10:15:54  -3.0   76   756 
 2020-11-13 10:10:50  -2.9   76   756 
 2020-11-13 10:05:46  -3.1   76   755 
 2020-11-13 10:00:42  -3.0   76   755 
 2020-11-13 09:55:38  -2.9   76   755 
 2020-11-13 09:50:34  -3.0   77   755 
 2020-11-13 09:45:30  -2.9   77   755 
 2020-11-13 09:40:26  -3.1   78   755 
 2020-11-13 09:35:19  -3.1   78   755 
 2020-11-13 09:30:15  -3.0   77   755 
 2020-11-13 09:25:11  -2.9   78   755 
 2020-11-13 09:20:07  -3.0   78   754 
 2020-11-13 09:15:03  -2.9   78   754 
 2020-11-13 09:09:59  -2.9   79   754 
 2020-11-13 09:04:55  -3.1   78   754 
 2020-11-13 08:59:48  -2.9   78   754 
 2020-11-13 08:54:44  -3.0   79   754 
 2020-11-13 08:49:40  -3.0   79   754 
 2020-11-13 08:44:36  -3.1   79   754 
 2020-11-13 08:39:32  -3.1   79   754 
 2020-11-13 08:34:28  -3.1   80   754 
 2020-11-13 08:29:24  -3.1   80   753 
 2020-11-13 08:24:19  -3.1   79   753 
 2020-11-13 08:19:15  -3.1   80   753 
 2020-11-13 08:14:11  -3.1   81   753 
 2020-11-13 08:09:07  -3.2   81   753 
 2020-11-13 08:04:03  -3.1   81   753 
 2020-11-13 07:58:56  -3.1   81   753 
 2020-11-13 07:53:52  -3.1   81   753 
 2020-11-13 07:48:48  -3.0   83   753 
 2020-11-13 07:43:44  -3.0   82   752 
 2020-11-13 07:38:40  -2.9   83   752 
 2020-11-13 07:33:35  -2.7   85   752 
 2020-11-13 07:28:31  -2.6   87   752 
 2020-11-13 07:23:27  -2.6   91   752 
 2020-11-13 07:18:23  -2.4   87   752 
 2020-11-13 07:13:19  -2.2   88   752 
 2020-11-13 07:08:15  -2.2   88   751 
 2020-11-13 07:03:11  -2.2   89   751 
 2020-11-13 06:58:06  -2.2   89   751 
 2020-11-13 06:53:02  -2.2   88   751 
 2020-11-13 06:47:58  -2.1   88   751 
 2020-11-13 06:42:54  -2.1   88   751 
 2020-11-13 06:37:50  -2.3   87   751 
 2020-11-13 06:32:46  -2.2   89   751 
 2020-11-13 06:27:42  -2.2   88   751 
 2020-11-13 06:22:38  -2.1   88   750 
 2020-11-13 06:17:34  -2.1   88   750 
 2020-11-13 06:12:29  -2.2   88   750 
 2020-11-13 06:07:25  -2.2   89   750 
 2020-11-13 06:02:21  -2.2   88   750 
 2020-11-13 05:57:17  -2.3   88   750 
 2020-11-13 05:52:13  -2.2   88   750 
 2020-11-13 05:47:09  -2.4   88   750 
 2020-11-13 05:42:05  -2.4   88   749 
 2020-11-13 05:37:01  -2.4   89   749 
 2020-11-13 05:31:56  -2.5   89   749 
 2020-11-13 05:26:52  -2.5   89   749 
 2020-11-13 05:21:48  -2.5   89   749 
 2020-11-13 05:16:44  -2.4   88   749 
 2020-11-13 05:11:40  -2.5   88   749 
 2020-11-13 05:06:36  -2.4   89   749 
 2020-11-13 05:01:32  -2.5   89   748 
 2020-11-13 04:56:28  -2.6   89   748 
 2020-11-13 04:51:23  -2.6   89   748 
 2020-11-13 04:46:19  -2.4   89   748 
 2020-11-13 04:41:15  -2.5   89   748 
 2020-11-13 04:36:11  -2.4   88   748 
 2020-11-13 04:31:07  -2.4   89   748 
 2020-11-13 04:26:03  -2.4   89   748 
 2020-11-13 04:20:59  -2.5   90   748 
 2020-11-13 04:15:55  -2.4   90   748 
 2020-11-13 04:10:50  -2.5   90   748 
 2020-11-13 04:05:46  -2.5   90   748 
 2020-11-13 04:00:42  -2.4   90   747 
 2020-11-13 03:55:38  -2.4   90   747 
 2020-11-13 03:50:34  -2.4   90   747 
 2020-11-13 03:45:30  -2.5   91   747 
 2020-11-13 03:40:26  -2.6   91   747 
 2020-11-13 03:35:22  -2.5   91   747 
 2020-11-13 03:30:18  -2.5   91   747 
 2020-11-13 03:25:13  -2.5   91   747 
 2020-11-13 03:20:09  -2.5   91   747 
 2020-11-13 03:15:05  -2.4   91   747 
 2020-11-13 03:10:01  -2.5   90   747 
 2020-11-13 03:04:57  -2.4   90   747 
 2020-11-13 02:59:53  -2.4   90   747 
 2020-11-13 02:54:49  -2.4   91   746 
 2020-11-13 02:49:44  -2.5   91   746 
 2020-11-13 02:44:40  -2.5   91   746 
 2020-11-13 02:39:36  -2.4   91   746 
 2020-11-13 02:34:32  -2.4   90   746 
 2020-11-13 02:29:28  -2.4   91   746 
 2020-11-13 02:24:24  -2.4   91   746 
 2020-11-13 02:19:20  -2.3   91   746 
 2020-11-13 02:14:16  -2.3   91   746 
 2020-11-13 02:09:11  -2.3   91   746 
 2020-11-13 02:04:07  -2.4   90   746 
 2020-11-13 01:59:03  -2.2   91   746 
 2020-11-13 01:53:59  -2.4   91   746 
 2020-11-13 01:48:55  -2.4   91   746 
 2020-11-13 01:43:51  -2.4   91   746 
 2020-11-13 01:38:47  -2.3   91   746 
 2020-11-13 01:33:42  -2.4   91   746 
 2020-11-13 01:28:38  -2.4   91   746 
 2020-11-13 01:23:34  -2.4   92   746 
 2020-11-13 01:18:30  -2.2   92   746 
 2020-11-13 01:13:26  -2.4   92   746 
 2020-11-13 01:08:22  -2.4   92   747 
 2020-11-13 01:03:18  -2.4   92   747 
 2020-11-13 00:58:14  -2.4   92   747 
 2020-11-13 00:53:09  -2.4   92   747 
 2020-11-13 00:48:05  -2.4   92   747 
 2020-11-13 00:43:01  -2.3   91   747 
 2020-11-13 00:37:57  -2.2   91   747 
 2020-11-13 00:32:53  -2.3   91   747 
 2020-11-13 00:27:49  -2.2   90   747 
 2020-11-13 00:22:45  -2.2   90   747 
 2020-11-13 00:17:40  -2.4   90   747 
 2020-11-13 00:12:36  -2.4   90   747 
 2020-11-13 00:07:32  -2.4   89   747 
 2020-11-13 00:02:28  -2.4   88   747 
 2020-11-12 23:57:24  -2.4   88   747 
 2020-11-12 23:52:19  -2.2   86   747 
 2020-11-12 23:47:15  -2.0   85   747 
 2020-11-12 23:42:11  -1.9   83   747 
 2020-11-12 23:37:07  -1.8   81   747 
 2020-11-12 23:32:02  -1.4   78   747 
 2020-11-12 23:26:58  -1.5   75   747 
 2020-11-12 23:21:54  -1.3   74   747 
 2020-11-12 23:16:50  -1.4   74   747 
 2020-11-12 23:11:46  -1.3   74   747 
 2020-11-12 23:06:41  -1.4   73   748 
 2020-11-12 23:01:37  -1.4   73   748 
 2020-11-12 22:56:33  -1.4   73   748 
 2020-11-12 22:51:29  -1.3   72   748 
 2020-11-12 22:46:25  -1.4   72   748 
 2020-11-12 22:41:20  -1.0   72   748 
 2020-11-12 22:36:16  -1.0   73   748 
 2020-11-12 22:31:11  -1.2   73   748 
 2020-11-12 22:26:06  -1.4   73   748 
 2020-11-12 22:21:02  -1.4   73   748 
 2020-11-12 22:15:58  -1.4   73   748 
 2020-11-12 22:10:54  -1.4   73   748 
 2020-11-12 22:05:50  -1.4   73   748 
 2020-11-12 22:00:46  -1.2   72   748 
 2020-11-12 21:55:42  -1.2   73   748 
 2020-11-12 21:50:38  -1.2   73   749 
 2020-11-12 21:45:34  -0.9   73   749 
 2020-11-12 21:40:29  -1.0   73   749 
 2020-11-12 21:35:25  -1.2   73   749 
 2020-11-12 21:30:21  -1.2   72   749 
 2020-11-12 21:25:14  -0.9   73   749 
 2020-11-12 21:20:10  -0.8   70   749 
 2020-11-12 21:15:06  -0.7   70   749 
 2020-11-12 21:10:02  -0.7   70   749 
 2020-11-12 21:04:58  -0.7   70   749 
 2020-11-12 20:59:53  -0.8   70   750 
 2020-11-12 20:54:49  -0.8   69   750 
 2020-11-12 20:49:45  -0.8   69   750 
 2020-11-12 20:44:39  -0.6   69   750 
 2020-11-12 20:39:34  -0.6   69   750 
 2020-11-12 20:34:30  -0.4   69   750 
 2020-11-12 20:29:26  -0.4   70   750 
 2020-11-12 20:24:22  -0.4   69   750 
 2020-11-12 20:19:16  -0.4   70   750 
 2020-11-12 20:14:12  -0.4   71   750 
 2020-11-12 20:09:08  -0.4   70   750 
 2020-11-12 20:04:04  -0.5   69   750 
 2020-11-12 19:59:00  -0.4   69   750 
 2020-11-12 19:53:56  -0.3   69   750 
 2020-11-12 19:48:52  -0.4   70   750 
 2020-11-12 19:43:48  -0.3   69   750 
 2020-11-12 19:38:44  -0.4   70   750 
 2020-11-12 19:33:39  -0.4   71   750 
 2020-11-12 19:28:35  -0.4   71   750 
 2020-11-12 19:23:31  -0.3   70   750 
 2020-11-12 19:18:27  -0.2   72   750 
 2020-11-12 19:13:23  -0.3   72   750 
 2020-11-12 19:08:19  -0.4   73   750 
 2020-11-12 19:03:15  -0.2   73   750 
 2020-11-12 18:58:11  -0.2   72   750 
 2020-11-12 18:53:07  -0.2   72   750 
 2020-11-12 18:48:03  -0.2   72   751 
 2020-11-12 18:42:59  -0.1   72   751 
 2020-11-12 18:37:54  -0.2   73   751 
 2020-11-12 18:32:50  -0.2   73   751 
 2020-11-12 18:27:45  -0.1   72   751 
 2020-11-12 18:22:40  -0.1   72   751 
 2020-11-12 18:17:35  -0.1   73   751 
 2020-11-12 18:12:31  -0.1   73   751 
 2020-11-12 18:07:27  -0.1   73   751 
 2020-11-12 18:02:23  -0.1   73   751 
 2020-11-12 17:57:19  0.0   72   751 
 2020-11-12 17:52:15  0.0   73   751 
 2020-11-12 17:47:11  0.1   73   751 
 2020-11-12 17:42:07  0.1   72   751 
 2020-11-12 17:37:03  0.1   72   751 
 2020-11-12 17:31:59  0.1   72   751 
 2020-11-12 17:26:55  -0.1   72   751 
 2020-11-12 17:21:47  0.1   72   751 
 2020-11-12 17:16:43  0.2   71   751 
 2020-11-12 17:11:39  0.1   73   751 
 2020-11-12 17:06:35  -0.1   71   752 
 2020-11-12 17:01:31  -0.1   71   752 
 2020-11-12 16:56:27  -0.1   71   752 
 2020-11-12 16:51:23  -0.1   71   752 
 2020-11-12 16:46:19  0.0   69   752 
 2020-11-12 16:41:15  -0.1   70   752 
 2020-11-12 16:36:11  0.0   70   752 
 2020-11-12 16:31:07  0.1   67   752 
 2020-11-12 16:26:03  0.1   66   752 
 2020-11-12 16:20:59  0.1   65   752 
 2020-11-12 16:15:55  0.2   64   752 
 2020-11-12 16:10:51  0.2   64   752 
 2020-11-12 16:05:46  0.6   65   752 
 2020-11-12 16:00:42  0.6   65   752 
 2020-11-12 15:55:37  0.6   65   752 
 2020-11-12 15:50:33  0.6   65   752 
 2020-11-12 15:45:29  0.7   64   752 
 2020-11-12 15:40:25  0.8   64   752 
 2020-11-12 15:35:21  0.9   64   752 
 2020-11-12 15:30:17  1.0   63   752 
 2020-11-12 15:25:13  1.0   65   752 
 2020-11-12 15:20:09  1.0   64   752 
 2020-11-12 15:15:05  0.8   64   752 
 2020-11-12 15:10:01  1.1   64   752 
 2020-11-12 15:04:57  0.9   63   752 
 2020-11-12 14:59:53  0.9   63   752 
 2020-11-12 14:54:49  0.9   62   752 
 2020-11-12 14:49:45  0.9   63   752 
 2020-11-12 14:44:41  1.0   61   752 
 2020-11-12 14:39:37  1.1   62   752 
 2020-11-12 14:34:33  1.1   61   752 
 2020-11-12 14:29:29  1.1   62   752 
 2020-11-12 14:24:25  0.9   62   752 
 2020-11-12 14:19:21  1.2   61   752 
 2020-11-12 14:14:16  1.4   62   752 
 2020-11-12 14:09:12  1.4   64   752 
 2020-11-12 14:04:08  1.3   63   752 
 2020-11-12 13:59:04  1.2   62   752 
 2020-11-12 13:54:00  1.1   65   752 
 2020-11-12 13:48:56  0.7   65   752 
 2020-11-12 13:43:52  0.7   65   752 
 2020-11-12 13:38:47  0.8   65   752 
 2020-11-12 13:33:43  0.9   65   752 
 2020-11-12 13:28:39  0.7   66   751 
 2020-11-12 13:23:35  0.7   65   751 
 2020-11-12 13:18:31  0.9   66   752 
 2020-11-12 13:13:27  0.6   66   751 
 2020-11-12 13:08:23  0.9   66   752 
 2020-11-12 13:03:18  0.9   65   751 
 2020-11-12 12:58:13  0.9   66   752 
 2020-11-12 12:53:09  0.8   65   751 
 2020-11-12 12:48:05  0.8   65   751 
 2020-11-12 12:43:01  0.7   63   751 
 2020-11-12 12:37:56  0.9   65   751 
 2020-11-12 12:32:52  0.9   67   751 
 2020-11-12 12:27:48  0.9   67   751 
 2020-11-12 12:22:44  1.0   66   751 
 2020-11-12 12:17:40  1.2   68   751 
 2020-11-12 12:12:36  0.9   67   751 
 2020-11-12 12:07:32  1.0   70   751 
 2020-11-12 12:02:28  0.8   70   751 
 2020-11-12 11:57:24  0.8   72   751 
 2020-11-12 11:52:20  0.4   74   751 
 2020-11-12 11:47:16  0.2   75   751 
 2020-11-12 11:42:12  -0.1   76   751 
 2020-11-12 11:37:08  -0.1   76   751 
 2020-11-12 11:32:04  -0.1   77   751 
 2020-11-12 11:27:00  -0.1   78   751 
 2020-11-12 11:21:56  0.0   78   751 
 2020-11-12 11:16:52  0.0   78   751 
 2020-11-12 11:11:48  0.4   76   751 
 2020-11-12 11:06:44  0.4   74   751 
 2020-11-12 11:01:40  0.4   72   751 
 2020-11-12 10:56:36  0.5   72   751 
 2020-11-12 10:51:31  0.7   71   750 
 2020-11-12 10:46:27  0.7   71   750 
 2020-11-12 10:41:23  0.9   71   750 
 2020-11-12 10:36:19  0.8   71   750 
 2020-11-12 10:31:15  0.5   70   750 
 2020-11-12 10:26:11  0.7   71   750 
 2020-11-12 10:21:07  0.6   71   750 
 2020-11-12 10:16:03  0.5   72   750 
 2020-11-12 10:10:59  0.4   71   750 
 2020-11-12 10:05:55  0.3   73   750 
 2020-11-12 10:00:51  0.4   72   750 
 2020-11-12 09:55:47  0.3   73   750 
 2020-11-12 09:50:43  0.3   73   750 
 2020-11-12 09:45:39  0.2   73   750 
 2020-11-12 09:40:35  0.2   72   750 
 2020-11-12 09:35:31  0.2   72   750 
 2020-11-12 09:30:27  0.3   72   750 
 2020-11-12 09:25:23  0.1   72   750 
 2020-11-12 09:20:18  0.1   72   749 
 2020-11-12 09:15:14  -0.1   71   749 
 2020-11-12 09:10:10  -0.1   72   749 
 2020-11-12 09:05:06  -0.1   73   749 
 2020-11-12 09:00:02  -0.1   73   749 
 2020-11-12 08:54:58  -0.1   73   749 
 2020-11-12 08:49:54  -0.2   75   749 
 2020-11-12 08:44:49  -0.2   75   749 
 2020-11-12 08:39:45  -0.4   76   749 
 2020-11-12 08:34:41  -0.3   76   749 
 2020-11-12 08:29:37  -0.3   77   749 
 2020-11-12 08:24:33  -0.2   77   749 
 2020-11-12 08:19:29  -0.1   78   749 
 2020-11-12 08:14:25  -0.1   78   749 
 2020-11-12 08:09:21  -0.1   78   749 
 2020-11-12 08:04:16  -0.1   76   748 
 2020-11-12 07:59:12  -0.1   76   748 
 2020-11-12 07:54:08  0.0   75   748 
 2020-11-12 07:49:04  0.1   75   748 
 2020-11-12 07:44:00  -0.1   75   748 
 2020-11-12 07:38:56  -0.1   74   748 
 2020-11-12 07:33:52  -0.2   75   748 
 2020-11-12 07:28:48  -0.3   76   748 
 2020-11-12 07:23:44  -0.4   75   748 
 2020-11-12 07:18:39  -0.5   76   748 
 2020-11-12 07:13:35  -0.3   76   748 
 2020-11-12 07:08:31  -0.2   76   748 
 2020-11-12 07:03:27  -0.2   77   748 
 2020-11-12 06:58:23  -0.4   78   747 
 2020-11-12 06:53:19  -0.4   79   747 
 2020-11-12 06:48:15  -0.4   81   747 
 2020-11-12 06:43:11  -0.5   82   747 
 2020-11-12 06:38:06  -0.5   82   747 
 2020-11-12 06:33:02  -0.5   82   747 
 2020-11-12 06:27:58  -0.4   82   747 
 2020-11-12 06:22:54  -0.2   81   747 
 2020-11-12 06:17:50  -0.1   79   747 
 2020-11-12 06:12:46  -0.1   79   747 
 2020-11-12 06:07:42  -0.1   81   747 
 2020-11-12 06:02:37  -0.2   83   747 
 2020-11-12 05:57:33  -0.4   86   747 
 2020-11-12 05:52:29  -0.6   89   746 
 2020-11-12 05:47:25  -0.6   91   746 
 2020-11-12 05:42:21  -0.6   90   746 
 2020-11-12 05:37:17  -0.6   91   746 
 2020-11-12 05:32:13  -0.6   89   746 
 2020-11-12 05:27:09  -0.5   91   746 
 2020-11-12 05:22:04  -0.2   84   746 
 2020-11-12 05:17:00  -0.2   84   746 
 2020-11-12 05:11:56  -0.1   84   746 
 2020-11-12 05:06:52  0.0   85   746 
 2020-11-12 05:01:48  -0.1   84   746 
 2020-11-12 04:56:44  -0.1   83   746 
 2020-11-12 04:51:40  0.0   83   746 
 2020-11-12 04:46:36  -0.1   82   745 
 2020-11-12 04:41:31  0.1   80   745 
 2020-11-12 04:36:27  -0.1   79   745 
 2020-11-12 04:31:23  -0.2   81   745 
 2020-11-12 04:26:19  -0.5   83   745 
 2020-11-12 04:21:15  -0.7   87   745 
 2020-11-12 04:16:11  -0.8   89   745 
 2020-11-12 04:11:07  -0.8   97   745 
 2020-11-12 04:06:03  -0.7   96   745 
 2020-11-12 04:00:58  -0.6   94   745 
 2020-11-12 03:55:54  -0.1   89   745 
 2020-11-12 03:50:50  1.2   68   744 
 2020-11-12 03:45:46  1.2   68   744 
 2020-11-12 03:40:42  1.1   69   744 
 2020-11-12 03:35:38  1.4   68   744 
 2020-11-12 03:30:34  1.4   68   744 
 2020-11-12 03:25:30  1.4   67   744 
 2020-11-12 03:20:25  1.4   66   744 
 2020-11-12 03:15:21  1.6   65   744 
 2020-11-12 03:10:17  1.6   64   744 
 2020-11-12 03:05:13  1.6   64   744 
 2020-11-12 03:00:09  1.7   63   743 
 2020-11-12 02:55:05  1.8   63   743 
 2020-11-12 02:50:01  1.9   63   743 
 2020-11-12 02:44:57  1.9   64   743 
 2020-11-12 02:39:53  1.9   62   743 
 2020-11-12 02:34:48  1.9   62   743 
 2020-11-12 02:29:44  1.9   61   743 
 2020-11-12 02:24:40  1.9   63   743 
 2020-11-12 02:19:36  2.0   62   743 
 2020-11-12 02:14:32  1.9   62   743 
 2020-11-12 02:09:28  1.9   63   743 
 2020-11-12 02:04:24  1.9   62   743 
 2020-11-12 01:59:20  2.0   60   743 
 2020-11-12 01:54:16  2.0   62   743 
 2020-11-12 01:49:12  2.1   62   743 
 2020-11-12 01:44:08  2.2   62   742 
 2020-11-12 01:39:04  2.2   63   742 
 2020-11-12 01:34:00  2.2   62   742 
 2020-11-12 01:28:56  2.3   61   742 
 2020-11-12 01:23:52  2.4   59   742 
 2020-11-12 01:18:48  2.4   58   742 
 2020-11-12 01:13:43  2.4   58   742 
 2020-11-12 01:08:39  2.4   59   742 
 2020-11-12 01:03:35  2.4   57   742 
 2020-11-12 00:58:31  2.5   57   742 
 2020-11-12 00:53:27  2.6   58   742 
 2020-11-12 00:48:23  2.6   58   742 
 2020-11-12 00:43:19  2.6   62   742 
 2020-11-12 00:38:15  2.8   61   741 
 2020-11-12 00:33:11  2.9   63   741 
 2020-11-12 00:28:06  3.1   65   741 
 2020-11-12 00:23:02  3.1   69   741 
 2020-11-12 00:17:58  3.1   70   741 
 2020-11-12 00:12:54  3.1   72   741 
 2020-11-12 00:07:50  3.1   75   741 
 2020-11-12 00:02:46  3.8   69   741 
 2020-11-11 23:57:42  3.8   69   740 
 2020-11-11 23:52:37  3.8   72   740 
 2020-11-11 23:47:33  3.8   77   740 
 2020-11-11 23:42:29  3.7   78   740 
 2020-11-11 23:37:25  3.8   79   740 
 2020-11-11 23:32:21  3.8   82   740 
 2020-11-11 23:27:17  3.7   85   740 
 2020-11-11 23:22:13  3.9   84   740 
 2020-11-11 23:17:09  4.1   84   740 
 2020-11-11 23:12:04  3.9   86   740 
 2020-11-11 23:07:00  4.1   85   740 
 2020-11-11 23:01:56  4.4   83   740 
 2020-11-11 22:56:52  4.9   81   740 
 2020-11-11 22:51:48  5.2   77   740 
 2020-11-11 22:46:44  5.2   77   740 
 2020-11-11 22:41:40  5.1   77   740 
 2020-11-11 22:36:36  5.2   77   740 
 2020-11-11 22:31:32  5.2   77   740 
 2020-11-11 22:26:28  5.1   76   740 
 2020-11-11 22:21:23  5.2   76   740 
 2020-11-11 22:16:19  5.0   76   740 
 2020-11-11 22:11:15  5.1   75   740 
 2020-11-11 22:06:11  5.2   74   740 
 2020-11-11 22:01:07  5.1   75   740 
 2020-11-11 21:56:03  5.1   74   740 
 2020-11-11 21:50:59  5.1   74   740 
 2020-11-11 21:45:53  5.0   74   740 
 2020-11-11 21:40:49  4.8   75   740 
 2020-11-11 21:35:45  4.7   75   740 
 2020-11-11 21:30:40  4.6   75   740 
 2020-11-11 21:25:36  4.5   76   740 
 2020-11-11 21:20:32  4.4   76   740 
 2020-11-11 21:15:28  4.1   78   741 
 2020-11-11 21:10:23  3.9   79   741 
 2020-11-11 21:05:19  3.8   80   741 
 2020-11-11 21:00:15  3.7   82   741 
 2020-11-11 20:55:11  3.6   82   741 
 2020-11-11 20:50:07  3.6   82   741 
 2020-11-11 20:45:03  3.4   82   741 
 2020-11-11 20:39:59  3.1   83   741 
 2020-11-11 20:34:54  3.1   84   741 
 2020-11-11 20:29:50  2.9   84   741 
 2020-11-11 20:24:46  3.0   83   742 
 2020-11-11 20:19:42  3.0   83   742 
 2020-11-11 20:14:38  2.9   83   742 
 2020-11-11 20:09:34  2.9   84   742 
 2020-11-11 20:04:30  2.9   83   742 
 2020-11-11 19:59:26  2.9   83   742 
 2020-11-11 19:54:22  2.8   84   742 
 2020-11-11 19:49:18  2.7   84   743 
 2020-11-11 19:44:14  2.4   85   743 
 2020-11-11 19:39:10  2.4   85   743 
 2020-11-11 19:34:05  2.4   85   743 
 2020-11-11 19:29:01  2.3   85   743 
 2020-11-11 19:23:57  2.2   85   743 
 2020-11-11 19:18:53  2.2   84   743 
 2020-11-11 19:13:49  2.2   85   743 
 2020-11-11 19:08:45  2.2   84   744 
 2020-11-11 19:03:41  2.2   84   744 
 2020-11-11 18:58:37  2.2   83   744 
 2020-11-11 18:53:33  2.4   82   744 
 2020-11-11 18:48:29  2.4   81   744 
 2020-11-11 18:43:25  2.6   80   744 
 2020-11-11 18:38:21  2.8   77   744 
 2020-11-11 18:33:17  3.1   74   745 
 2020-11-11 18:28:13  3.2   73   745 
 2020-11-11 18:23:09  3.2   73   745 
 2020-11-11 18:18:05  3.1   72   745 
 2020-11-11 18:13:00  3.2   72   745 
 2020-11-11 18:07:56  3.1   72   745 
 2020-11-11 18:02:52  3.1   72   745 
 2020-11-11 17:57:48  3.1   71   746 
 2020-11-11 17:52:44  3.1   71   746 
 2020-11-11 17:47:40  2.9   71   746 
 2020-11-11 17:42:36  2.8   72   746 
 2020-11-11 17:37:32  2.8   72   746 
 2020-11-11 17:32:28  2.8   72   746 
 2020-11-11 17:27:24  2.6   72   747 
 2020-11-11 17:22:20  2.8   72   747 
 2020-11-11 17:17:16  2.6   73   747 
 2020-11-11 17:12:12  2.6   74   747 
 2020-11-11 17:07:08  2.6   74   747 
 2020-11-11 17:02:04  2.8   73   747 
 2020-11-11 16:57:00  2.8   73   747 
 2020-11-11 16:51:56  3.0   73   747 
 2020-11-11 16:46:52  3.1   72   747 
 2020-11-11 16:41:47  3.2   73   747 
 2020-11-11 16:36:43  3.3   73   748 
 2020-11-11 16:31:39  3.3   73   748 
 2020-11-11 16:26:35  3.2   72   748 
 2020-11-11 16:21:31  3.2   72   748 
 2020-11-11 16:16:27  3.2   73   748 
 2020-11-11 16:11:23  3.2   73   748 
 2020-11-11 16:06:19  3.2   73   748 
 2020-11-11 16:01:15  3.2   73   748 
 2020-11-11 15:56:11  3.2   73   748 
 2020-11-11 15:51:05  3.1   73   748 
 2020-11-11 15:46:01  3.1   74   748 
 2020-11-11 15:40:57  3.2   73   749 
 2020-11-11 15:35:52  3.2   72   749 
 2020-11-11 15:30:48  3.2   73   749 
 2020-11-11 15:25:44  3.4   72   749 
 2020-11-11 15:20:40  3.5   73   749 
 2020-11-11 15:15:36  3.3   72   749 
 2020-11-11 15:10:32  3.2   72   749 
 2020-11-11 15:05:28  3.1   72   749 
 2020-11-11 15:00:24  3.1   73   749 
 2020-11-11 14:55:20  3.1   72   749 
 2020-11-11 14:50:16  2.9   73   749 
 2020-11-11 14:45:12  3.1   72   749 
 2020-11-11 14:40:08  2.9   73   749 
 2020-11-11 14:35:04  2.8   73   750 
 2020-11-11 14:30:00  2.9   72   750 
 2020-11-11 14:24:56  2.8   73   750 
 2020-11-11 14:19:52  2.8   72   750 
 2020-11-11 14:14:48  2.7   72   750 
 2020-11-11 14:09:44  2.7   72   750 
 2020-11-11 14:04:40  2.6   72   750 
 2020-11-11 13:59:36  2.9   72   750 
 2020-11-11 13:54:31  2.7   72   750 
 2020-11-11 13:49:27  2.6   71   750 
 2020-11-11 13:44:23  2.6   71   750 
 2020-11-11 13:39:19  2.6   73   750 
 2020-11-11 13:34:15  2.6   72   750 
 2020-11-11 13:29:11  2.6   72   750 
 2020-11-11 13:24:07  2.6   72   751 
 2020-11-11 13:19:03  2.6   74   751 
 2020-11-11 13:13:59  2.4   73   751 
 2020-11-11 13:08:55  2.4   75   751 
 2020-11-11 13:03:51  2.3   74   751 
 2020-11-11 12:58:47  2.4   74   751 
 2020-11-11 12:53:43  2.4   75   751 
 2020-11-11 12:48:38  2.2   75   751 
 2020-11-11 12:43:34  2.1   75   751 
 2020-11-11 12:38:30  1.9   76   752 
 2020-11-11 12:33:26  1.8   77   752 
 2020-11-11 12:28:22  1.8   75   752 
 2020-11-11 12:23:18  1.6   77   752 
 2020-11-11 12:18:14  1.4   77   752 
 2020-11-11 12:13:10  1.7   76   752 
 2020-11-11 12:08:06  1.6   77   752 
 2020-11-11 12:03:02  1.5   77   752 
 2020-11-11 11:57:58  1.4   77   752 
 2020-11-11 11:52:54  1.5   77   752 
 2020-11-11 11:47:50  1.6   77   752 
 2020-11-11 11:42:46  1.4   78   752 
 2020-11-11 11:37:42  1.4   78   752 
 2020-11-11 11:32:38  1.4   78   752 
 2020-11-11 11:27:34  1.2   79   752 
 2020-11-11 11:22:30  1.2   79   752 
 2020-11-11 11:17:26  1.2   79   752 
 2020-11-11 11:12:22  1.3   79   752 
 2020-11-11 11:07:18  1.2   79   752 
 2020-11-11 11:02:13  1.1   80   752 
 2020-11-11 10:57:09  1.2   79   753 
 2020-11-11 10:52:05  1.2   81   753 
 2020-11-11 10:47:01  1.2   80   753 
 2020-11-11 10:41:57  1.1   81   753 
 2020-11-11 10:36:53  1.2   81   753 
 2020-11-11 10:31:49  1.1   82   753 
 2020-11-11 10:26:45  1.0   82   753 
 2020-11-11 10:21:41  0.9   82   753 
 2020-11-11 10:16:37  0.9   83   753 
 2020-11-11 10:11:27  0.9   83   753 
 2020-11-11 10:06:23  0.9   83   753 
 2020-11-11 10:01:19  1.0   83   753 
 2020-11-11 09:56:15  0.9   83   753 
 2020-11-11 09:51:11  0.9   83   753 
 2020-11-11 09:46:07  0.8   84   753 
 2020-11-11 09:41:03  0.8   84   753 
 2020-11-11 09:35:59  0.7   85   753 
 2020-11-11 09:30:55  0.7   85   753 
 2020-11-11 09:25:51  0.8   86   753 
 2020-11-11 09:20:47  0.7   86   753 
 2020-11-11 09:15:42  0.5   86   753 
 2020-11-11 09:10:38  0.6   86   753 
 2020-11-11 09:05:34  0.6   86   753 
 2020-11-11 09:00:30  0.7   85   753 
 2020-11-11 08:55:26  0.7   84   753 
 2020-11-11 08:50:22  0.6   85   753 
 2020-11-11 08:45:18  0.6   84   753 
 2020-11-11 08:40:14  0.7   83   753 
 2020-11-11 08:35:10  0.7   83   753 
 2020-11-11 08:30:06  0.7   83   753 
 2020-11-11 08:25:01  0.8   83   753 
 2020-11-11 08:19:57  0.7   84   753 
 2020-11-11 08:14:53  0.6   83   753 
 2020-11-11 08:09:49  0.6   83   753 
 2020-11-11 08:04:45  0.6   83   753 
 2020-11-11 07:59:41  0.7   83   753 
 2020-11-11 07:54:37  0.6   83   753 
 2020-11-11 07:49:33  0.6   83   753 
 2020-11-11 07:44:29  0.7   82   753 
 2020-11-11 07:39:24  0.6   83   753 
 2020-11-11 07:34:20  0.6   83   753 
 2020-11-11 07:29:16  0.6   82   753 
 2020-11-11 07:24:12  0.6   83   753 
 2020-11-11 07:19:08  0.6   83   753 
 2020-11-11 07:14:04  0.6   83   753 
 2020-11-11 07:09:00  0.6   83   753 
 2020-11-11 07:03:56  0.6   84   753 
 2020-11-11 06:58:51  0.6   84   753 
 2020-11-11 06:53:47  0.6   84   753 
 2020-11-11 06:48:43  0.6   85   753 
 2020-11-11 06:43:39  0.6   85   753 
 2020-11-11 06:38:35  0.6   85   753 
 2020-11-11 06:33:31  0.6   86   753 
 2020-11-11 06:28:27  0.7   85   753 
 2020-11-11 06:23:23  0.6   86   753 
 2020-11-11 06:18:18  0.7   86   753 
 2020-11-11 06:13:14  0.7   86   753 
 2020-11-11 06:08:10  0.7   86   753 
 2020-11-11 06:03:06  0.8   87   753 
 2020-11-11 05:58:02  0.8   87   753 
 2020-11-11 05:52:58  0.8   88   753 
 2020-11-11 05:47:53  0.8   89   753 
 2020-11-11 05:42:49  0.6   90   753 
 2020-11-11 05:37:44  0.6   90   753 
 2020-11-11 05:32:40  0.6   91   753 
 2020-11-11 05:27:36  0.6   92   753 
 2020-11-11 05:22:32  0.5   92   753 
 2020-11-11 05:17:28  0.4   92   753 
 2020-11-11 05:12:24  0.6   91   753 
 2020-11-11 05:07:20  0.8   89   753 
 2020-11-11 05:02:16  0.8   89   753 
 2020-11-11 04:57:11  0.8   88   753 
 2020-11-11 04:52:07  0.8   87   753 
 2020-11-11 04:47:03  0.8   88   753 
 2020-11-11 04:41:59  0.9   88   753 
 2020-11-11 04:36:55  0.8   88   753 
 2020-11-11 04:31:51  0.8   88   753 
 2020-11-11 04:26:47  0.8   88   753 
 2020-11-11 04:21:43  0.8   87   753 
 2020-11-11 04:16:38  0.8   88   753 
 2020-11-11 04:11:34  0.8   88   753 
 2020-11-11 04:06:30  0.7   88   753 
 2020-11-11 04:01:26  0.8   88   753 
 2020-11-11 03:56:22  0.8   88   753 
 2020-11-11 03:51:18  0.8   87   753 
 2020-11-11 03:46:14  0.8   87   753 
 2020-11-11 03:41:10  0.8   87   753 
 2020-11-11 03:36:05  0.8   87   753 
 2020-11-11 03:31:01  0.9   87   753 
 2020-11-11 03:25:57  0.8   86   753 
 2020-11-11 03:20:53  0.8   87   753 
 2020-11-11 03:15:49  0.8   87   753 
 2020-11-11 03:10:45  0.8   87   753 
 2020-11-11 03:05:41  0.7   87   753 
 2020-11-11 03:00:37  0.7   87   753 
 2020-11-11 02:55:33  0.7   88   752 
 2020-11-11 02:50:29  0.6   88   752 
 2020-11-11 02:45:25  0.8   88   752 
 2020-11-11 02:40:21  0.7   88   752 
 2020-11-11 02:35:16  0.6   89   752 
 2020-11-11 02:30:12  0.6   89   752 
 2020-11-11 02:25:08  0.6   90   752 
 2020-11-11 02:20:04  0.6   90   752 
 2020-11-11 02:15:00  0.6   89   752 
 2020-11-11 02:09:56  0.6   89   752 
 2020-11-11 02:04:52  0.6   88   752 
 2020-11-11 01:59:48  0.6   87   752 
 2020-11-11 01:54:44  0.6   87   752 
 2020-11-11 01:49:39  0.6   87   752 
 2020-11-11 01:44:35  0.7   87   752 
 2020-11-11 01:39:31  0.6   86   752 
 2020-11-11 01:34:27  0.6   87   752 
 2020-11-11 01:29:23  0.5   86   752 
 2020-11-11 01:24:19  0.5   86   751 
 2020-11-11 01:19:14  0.4   86   752 
 2020-11-11 01:14:10  0.4   87   751 
 2020-11-11 01:09:06  0.3   87   751 
 2020-11-11 01:04:02  0.3   87   751 
 2020-11-11 00:58:58  0.4   86   751 
 2020-11-11 00:53:54  0.4   85   751 
 2020-11-11 00:48:50  0.4   85   751 
 2020-11-11 00:43:46  0.5   85   751 
 2020-11-11 00:38:41  0.6   84   751 
 2020-11-11 00:33:37  0.7   84   751 
 2020-11-11 00:28:33  0.6   84   751 
 2020-11-11 00:23:29  0.8   83   751 
 2020-11-11 00:18:25  0.8   83   750 
 2020-11-11 00:13:21  0.8   84   750 
 2020-11-11 00:08:17  0.8   85   750 
 2020-11-11 00:03:12  0.9   84   750 
 2020-11-10 23:58:08  0.8   85   750 
 2020-11-10 23:53:04  0.9   86   750 
 2020-11-10 23:48:00  0.8   86   750 
 2020-11-10 23:42:56  0.8   88   750 
 2020-11-10 23:37:52  0.6   91   750 
 2020-11-10 23:32:48  0.7   91   750 
 2020-11-10 23:27:44  0.6   91   750 
 2020-11-10 23:22:40  0.6   92   750 
 2020-11-10 23:17:35  0.7   92   749 
 2020-11-10 23:12:31  0.8   91   749 
 2020-11-10 23:07:27  0.8   90   749 
 2020-11-10 23:02:23  0.7   90   749 
 2020-11-10 22:57:19  0.8   89   749 
 2020-11-10 22:52:15  0.9   90   749 
 2020-11-10 22:47:11  0.8   91   749 
 2020-11-10 22:42:06  0.8   92   749 
 2020-11-10 22:37:02  0.9   92   748 
 2020-11-10 22:31:58  0.9   92   748 
 2020-11-10 22:26:54  1.1   92   748 
 2020-11-10 22:21:50  1.1   92   748 
 2020-11-10 22:16:46  1.2   91   748 
 2020-11-10 22:11:42  1.2   90   748 
 2020-11-10 22:06:38  1.2   90   748 
 2020-11-10 22:01:34  1.3   90   748 
 2020-11-10 21:56:30  1.2   91   747 
 2020-11-10 21:51:26  1.2   91   747 
 2020-11-10 21:46:22  1.2   91   747 
 2020-11-10 21:41:18  1.2   92   747 
 2020-11-10 21:36:13  1.1   92   747 
 2020-11-10 21:31:09  1.1   92   747 
 2020-11-10 21:26:05  1.2   92   747 
 2020-11-10 21:21:01  1.2   92   747 
 2020-11-10 21:15:57  1.2   92   746 
 2020-11-10 21:10:53  1.3   92   746 
 2020-11-10 21:05:49  1.2   93   746 
 2020-11-10 21:00:45  1.3   93   746 
 2020-11-10 20:55:41  1.2   93   746 
 2020-11-10 20:50:37  1.2   93   746 
 2020-11-10 20:45:33  1.2   92   746 
 2020-11-10 20:40:28  1.2   93   746 
 2020-11-10 20:35:24  1.2   93   745 
 2020-11-10 20:30:20  1.2   92   745 
 2020-11-10 20:25:16  1.2   92   745 
 2020-11-10 20:20:12  1.2   94   745 
 2020-11-10 20:15:08  1.2   94   745 
 2020-11-10 20:10:04  1.1   94   745 
 2020-11-10 20:05:00  1.1   94   745 
 2020-11-10 19:59:55  1.1   94   744 
 2020-11-10 19:54:51  1.2   93   744 
 2020-11-10 19:49:47  1.2   94   744 
 2020-11-10 19:44:43  1.2   94   744 
 2020-11-10 19:39:39  1.3   93   744 
 2020-11-10 19:34:35  1.5   92   744 
 2020-11-10 19:29:31  1.8   92   743 
 2020-11-10 19:24:27  1.9   92   743 
 2020-11-10 19:19:23  1.8   92   743 
 2020-11-10 19:14:18  1.9   92   743 
 2020-11-10 19:09:14  1.8   92   743 
 2020-11-10 19:04:10  1.9   92   743 
 2020-11-10 18:59:06  2.0   92   743 
 2020-11-10 18:54:02  2.1   92   743 
 2020-11-10 18:48:58  2.1   92   743 
 2020-11-10 18:43:54  2.2   91   743 
 2020-11-10 18:38:50  2.2   92   743 
 2020-11-10 18:33:45  2.3   91   743 
 2020-11-10 18:28:41  2.3   91   742 
 2020-11-10 18:23:37  2.4   91   742 
 2020-11-10 18:18:33  2.4   91   742 
 2020-11-10 18:13:29  2.4   91   742 
 2020-11-10 18:08:25  2.5   90   742 
 2020-11-10 18:03:21  2.5   91   742 
 2020-11-10 17:58:17  2.5   91   742 
 2020-11-10 17:53:13  2.5   91   742 
 2020-11-10 17:48:09  2.6   90   742 
 2020-11-10 17:43:05  2.7   90   742 
 2020-11-10 17:38:01  2.7   90   742 
 2020-11-10 17:32:56  2.7   90   742 
 2020-11-10 17:27:52  2.6   90   742 
 2020-11-10 17:22:48  2.7   90   742 
 2020-11-10 17:17:44  2.7   90   742 
 2020-11-10 17:12:40  2.8   91   742 
 2020-11-10 17:07:36  2.8   90   742 
 2020-11-10 17:02:32  2.8   90   742 
 2020-11-10 16:57:28  2.8   90   743 
 2020-11-10 16:52:24  2.8   89   742 
 2020-11-10 16:47:20  2.9   90   742 
 2020-11-10 16:42:16  2.9   90   742 
 2020-11-10 16:37:12  2.9   90   743 
 2020-11-10 16:32:07  2.9   90   743 
 2020-11-10 16:27:03  3.0   90   743 
 2020-11-10 16:21:59  2.9   90   743 
 2020-11-10 16:16:55  3.0   90   743 
 2020-11-10 16:11:51  3.2   90   743 
 2020-11-10 16:06:47  3.2   89   743 
 2020-11-10 16:01:43  3.2   90   743 
 2020-11-10 15:56:39  3.1   89   743 
 2020-11-10 15:51:35  3.3   89   743 
 2020-11-10 15:46:31  3.4   89   743 
 2020-11-10 15:41:27  3.3   89   743 
 2020-11-10 15:36:23  3.4   89   743 
 2020-11-10 15:31:19  3.4   88   743 
 2020-11-10 15:26:15  3.4   89   743 
 2020-11-10 15:21:11  3.4   89   743 
 2020-11-10 15:16:07  3.6   88   743 
 2020-11-10 15:11:03  3.6   88   743 
 2020-11-10 15:05:59  3.6   89   743 
 2020-11-10 15:00:55  3.6   89   743 
 2020-11-10 14:55:51  3.6   89   743 
 2020-11-10 14:50:47  3.6   89   743 
 2020-11-10 14:45:43  3.6   89   743 
 2020-11-10 14:40:39  3.7   89   744 
 2020-11-10 14:35:35  3.6   88   744 
 2020-11-10 14:30:30  3.6   88   744 
 2020-11-10 14:25:26  3.7   88   744 
 2020-11-10 14:20:22  3.8   88   744 
 2020-11-10 14:15:18  3.7   87   744 
 2020-11-10 14:10:14  3.9   87   744 
 2020-11-10 14:05:10  4.0   87   744 
 2020-11-10 14:00:06  3.9   88   744 
 2020-11-10 13:55:02  3.9   88   744 
 2020-11-10 13:49:58  3.8   88   744 
 2020-11-10 13:44:54  3.8   88   744 
 2020-11-10 13:39:50  3.9   88   744 
 2020-11-10 13:34:46  3.9   88   744 
 2020-11-10 13:29:42  3.9   88   744 
 2020-11-10 13:24:37  3.9   87   744 
 2020-11-10 13:19:33  3.8   88   744 
 2020-11-10 13:14:29  3.8   88   744 
 2020-11-10 13:09:25  3.7   88   744 
 2020-11-10 13:04:21  3.6   88   744 
 2020-11-10 12:59:17  3.4   88   744 
 2020-11-10 12:54:13  3.7   87   745 
 2020-11-10 12:49:09  3.5   87   745 
 2020-11-10 12:44:05  3.5   87   745 
 2020-11-10 12:39:01  3.5   87   745 
 2020-11-10 12:33:56  3.6   88   745 
 2020-11-10 12:28:52  3.6   88   745 
 2020-11-10 12:23:48  3.6   88   745 
 2020-11-10 12:18:44  3.6   88   745 
 2020-11-10 12:13:40  3.4   88   745 
 2020-11-10 12:08:36  3.4   89   745 
 2020-11-10 12:03:32  3.4   89   745 
 2020-11-10 11:58:28  3.4   88   745 
 2020-11-10 11:53:24  3.5   88   745 
 2020-11-10 11:48:20  3.3   88   745 
 2020-11-10 11:43:16  3.4   88   745 
 2020-11-10 11:38:12  3.5   87   745 
 2020-11-10 11:33:08  3.7   87   745 
 2020-11-10 11:28:04  3.5   87   745 
 2020-11-10 11:23:00  3.6   86   745 
 2020-11-10 11:17:56  3.4   87   745 
 2020-11-10 11:12:52  3.4   87   745 
 2020-11-10 11:07:48  3.5   87   745 
 2020-11-10 11:02:44  3.6   87   745 
 2020-11-10 10:57:40  3.6   88   745 
 2020-11-10 10:52:36  3.5   88   745 
 2020-11-10 10:47:31  3.5   88   745 
 2020-11-10 10:42:27  3.6   87   745 
 2020-11-10 10:37:23  3.5   88   745 
 2020-11-10 10:32:19  3.5   88   745 
 2020-11-10 10:27:15  3.5   87   745 
 2020-11-10 10:22:11  3.4   88   745 
 2020-11-10 10:17:07  3.4   87   745 
 2020-11-10 10:12:03  3.3   88   745 
 2020-11-10 10:06:59  3.3   88   745 
 2020-11-10 10:01:55  3.3   88   745 
 2020-11-10 09:56:51  3.2   88   745 
 2020-11-10 09:51:47  3.2   88   745 
 2020-11-10 09:46:43  3.1   88   745 
 2020-11-10 09:41:38  3.1   89   745 
 2020-11-10 09:36:34  3.1   89   745 
 2020-11-10 09:31:30  3.1   88   745 
 2020-11-10 09:26:26  3.1   88   745 
 2020-11-10 09:21:22  2.9   88   745 
 2020-11-10 09:16:18  3.0   88   745 
 2020-11-10 09:11:14  3.1   87   745 
 2020-11-10 09:06:10  3.1   87   745 
 2020-11-10 09:01:06  3.1   86   745 
 2020-11-10 08:56:02  3.1   86   745 
 2020-11-10 08:50:57  3.0   86   745 
 2020-11-10 08:45:53  3.1   86   745 
 2020-11-10 08:40:49  3.0   86   745 
 2020-11-10 08:35:45  3.1   86   745 
 2020-11-10 08:30:41  2.9   87   745 
 2020-11-10 08:25:37  2.9   87   745 
 2020-11-10 08:20:33  2.8   88   745 
 2020-11-10 08:15:29  2.8   88   745 
 2020-11-10 08:10:24  2.7   88   745 
 2020-11-10 08:05:20  2.7   88   745 
 2020-11-10 08:00:16  2.7   88   745 
 2020-11-10 07:55:12  2.7   88   745 
 2020-11-10 07:50:08  2.5   89   745 
 2020-11-10 07:45:04  2.6   88   745 
 2020-11-10 07:40:00  2.6   88   745 
 2020-11-10 07:34:56  2.6   88   745 
 2020-11-10 07:29:52  2.6   88   745 
 2020-11-10 07:24:47  2.6   88   745 
 2020-11-10 07:19:43  2.6   88   745 
 2020-11-10 07:14:39  2.6   88   745 
 2020-11-10 07:09:35  2.6   88   745 
 2020-11-10 07:04:31  2.6   88   745 
 2020-11-10 06:59:27  2.6   88   745 
 2020-11-10 06:54:23  2.6   88   745 
 2020-11-10 06:49:18  2.7   88   745 
 2020-11-10 06:44:14  2.6   88   745 
 2020-11-10 06:39:10  2.6   88   745 
 2020-11-10 06:34:06  2.6   88   745 
 2020-11-10 06:29:02  2.6   88   745 
 2020-11-10 06:23:58  2.6   88   745 
 2020-11-10 06:18:54  2.5   89   745 
 2020-11-10 06:13:49  2.4   89   745 
 2020-11-10 06:08:45  2.5   88   745 
 2020-11-10 06:03:41  2.4   88   745 
 2020-11-10 05:58:37  2.4   89   745 
 2020-11-10 05:53:33  2.5   89   745 
 2020-11-10 05:48:29  2.5   88   745 
 2020-11-10 05:43:25  2.4   89   745 
 2020-11-10 05:38:20  2.5   89   745 
 2020-11-10 05:33:16  2.5   89   745 
 2020-11-10 05:28:12  2.4   89   745 
 2020-11-10 05:23:08  2.5   89   745 
 2020-11-10 05:18:04  2.5   89   745 
 2020-11-10 05:13:00  2.5   88   745 
 2020-11-10 05:07:56  2.6   88   745 
 2020-11-10 05:02:52  2.6   87   745 
 2020-11-10 04:57:47  2.8   86   745 
 2020-11-10 04:52:43  2.8   86   745 
 2020-11-10 04:47:39  2.8   86   745 
 2020-11-10 04:42:35  2.8   85   745 
 2020-11-10 04:37:31  2.8   86   745 
 2020-11-10 04:32:27  2.9   86   745 
 2020-11-10 04:27:23  2.8   86   745 
 2020-11-10 04:22:18  2.9   85   745 
 2020-11-10 04:17:14  2.9   86   745 
 2020-11-10 04:12:10  2.9   85   745 
 2020-11-10 04:07:06  3.0   85   745 
 2020-11-10 04:02:02  2.9   85   745 
 2020-11-10 03:56:58  3.0   84   745 
 2020-11-10 03:51:54  2.9   85   745 
 2020-11-10 03:46:49  2.9   85   745 
 2020-11-10 03:41:45  2.9   85   745 
 2020-11-10 03:36:41  3.0   84   745 
 2020-11-10 03:31:37  3.0   84   745 
 2020-11-10 03:26:33  2.9   84   745 
 2020-11-10 03:21:29  2.9   84   745 
 2020-11-10 03:16:25  3.1   84   745 
 2020-11-10 03:11:20  3.1   83   745 
 2020-11-10 03:06:16  3.2   83   745 
 2020-11-10 03:01:12  3.1   83   745 
 2020-11-10 02:56:08  3.0   83   745 
 2020-11-10 02:51:04  3.1   83   745 
 2020-11-10 02:46:00  3.2   82   745 
 2020-11-10 02:40:56  3.2   81   745 
 2020-11-10 02:35:52  3.2   82   745 
 2020-11-10 02:30:48  3.1   82   745 
 2020-11-10 02:25:44  3.1   81   745 
 2020-11-10 02:20:39  3.2   81   745 
 2020-11-10 02:15:35  3.2   82   745 
 2020-11-10 02:10:31  3.2   81   745 
 2020-11-10 02:05:27  3.2   81   745 
 2020-11-10 02:00:23  3.2   81   745 
 2020-11-10 01:55:19  3.3   80   745 
 2020-11-10 01:50:15  3.3   79   745 
 2020-11-10 01:45:10  3.4   79   745 
 2020-11-10 01:40:06  3.4   78   745 
 2020-11-10 01:35:02  3.5   77   745 
 2020-11-10 01:29:58  3.5   76   745 
 2020-11-10 01:24:54  3.5   76   745 
 2020-11-10 01:19:50  3.6   76   745 
 2020-11-10 01:14:46  3.6   75   745 
 2020-11-10 01:09:42  3.7   74   745 
 2020-11-10 01:04:37  3.7   73   745 
 2020-11-10 00:59:33  3.8   72   745 
 2020-11-10 00:54:29  3.7   72   745 
 2020-11-10 00:49:25  3.6   73   745 
 2020-11-10 00:44:21  3.6   72   745 
 2020-11-10 00:39:17  3.6   73   745 
 2020-11-10 00:34:13  3.5   75   745 
 2020-11-10 00:29:09  3.4   75   745 
 2020-11-10 00:24:05  3.4   76   745 
 2020-11-10 00:19:01  3.3   77   746 
 2020-11-10 00:13:56  3.3   77   746 
 2020-11-10 00:08:52  3.2   78   746 
 2020-11-10 00:03:48  3.1   78   746 
 2020-11-09 23:58:44  3.2   77   746 
 2020-11-09 23:53:40  3.2   77   746 
 2020-11-09 23:48:36  3.2   78   746 
 2020-11-09 23:43:32  3.1   78   746 
 2020-11-09 23:38:28  3.2   78   746 
 2020-11-09 23:33:24  3.1   78   746 
 2020-11-09 23:28:19  3.2   78   746 
 2020-11-09 23:23:15  3.1   78   746 
 2020-11-09 23:18:11  3.1   78   746 
 2020-11-09 23:13:07  3.2   78   746 
 2020-11-09 23:08:03  3.2   78   746 
 2020-11-09 23:02:59  3.2   78   746 
 2020-11-09 22:57:55  3.4   75   746 
 2020-11-09 22:52:51  3.7   74   746 
 2020-11-09 22:47:47  4.0   71   746 
 2020-11-09 22:42:43  4.1   69   746 
 2020-11-09 22:37:38  4.2   68   746 
 2020-11-09 22:32:34  4.2   68   746 
 2020-11-09 22:27:29  4.5   66   746 
 2020-11-09 22:22:25  4.7   63   746 
 2020-11-09 22:17:21  4.8   63   746 
 2020-11-09 22:12:17  4.8   63   746 
 2020-11-09 22:07:13  4.7   64   746 
 2020-11-09 22:02:08  4.6   65   746 
 2020-11-09 21:57:04  4.6   66   746 
 2020-11-09 21:52:00  4.6   66   746 
 2020-11-09 21:46:56  4.6   66   746 
 2020-11-09 21:41:52  4.6   68   746 
 2020-11-09 21:36:48  4.6   69   746 
 2020-11-09 21:31:44  4.4   70   745 
 2020-11-09 21:26:40  4.4   72   745 
 2020-11-09 21:21:36  4.6   70   746 
 2020-11-09 21:16:32  5.1   65   746 
 2020-11-09 21:11:28  5.5   60   745 
 2020-11-09 21:06:23  5.6   59   745 
 2020-11-09 21:01:19  5.8   57   745 
 2020-11-09 20:56:15  5.9   57   745 
 2020-11-09 20:51:11  5.9   56   745 
 2020-11-09 20:46:07  6.0   56   745 
 2020-11-09 20:41:03  5.9   56   745 
 2020-11-09 20:35:59  6.0   56   745 
 2020-11-09 20:30:55  6.0   56   745 
 2020-11-09 20:25:51  6.0   56   745 
 2020-11-09 20:20:47  6.0   56   745 
 2020-11-09 20:15:42  6.1   55   745 
 2020-11-09 20:10:38  6.1   55   745 
 2020-11-09 20:05:34  5.9   56   745 
 2020-11-09 20:00:30  6.0   56   745 
 2020-11-09 19:55:26  6.0   56   745 
 2020-11-09 19:50:22  6.1   56   745 
 2020-11-09 19:45:18  6.1   56   745 
 2020-11-09 19:40:14  6.1   56   745 
 2020-11-09 19:35:10  6.1   56   745 
 2020-11-09 19:30:06  6.1   57   745 
 2020-11-09 19:25:02  6.1   57   745 
 2020-11-09 19:19:58  6.1   58   745 
 2020-11-09 19:14:54  6.1   58   745 
 2020-11-09 19:09:50  6.2   57   745 
 2020-11-09 19:04:46  6.1   58   745 
 2020-11-09 18:59:42  6.2   57   745 
 2020-11-09 18:54:37  6.1   58   745 
 2020-11-09 18:49:33  6.1   57   745 
 2020-11-09 18:44:29  6.1   56   745 
 2020-11-09 18:39:25  6.2   55   745 
 2020-11-09 18:34:21  6.2   55   745 
 2020-11-09 18:29:17  6.3   53   745 
 2020-11-09 18:24:13  6.4   52   745 
 2020-11-09 18:19:09  6.8   53   745 
 2020-11-09 18:14:05  6.7   50   745 
 2020-11-09 18:09:01  6.6   50   745 
 2020-11-09 18:03:57  6.6   50   745 
 2020-11-09 17:58:53  6.6   50   745 
 2020-11-09 17:53:49  6.6   52   745 
 2020-11-09 17:48:45  6.6   51   745 
 2020-11-09 17:43:40  6.5   52   745 
 2020-11-09 17:38:36  6.5   51   745 
 2020-11-09 17:33:32  6.4   53   745 
 2020-11-09 17:28:28  6.3   53   745 
 2020-11-09 17:23:24  6.4   53   745 
 2020-11-09 17:18:20  6.3   54   745 
 2020-11-09 17:13:16  6.3   55   745 
 2020-11-09 17:08:12  6.4   56   745 
 2020-11-09 17:03:08  6.3   56   745 
 2020-11-09 16:58:03  6.2   56   745 
 2020-11-09 16:52:59  6.2   56   745 
 2020-11-09 16:47:55  6.2   56   745 
 2020-11-09 16:42:51  6.3   56   745 
 2020-11-09 16:37:47  6.2   55   745 
 2020-11-09 16:32:43  6.2   55   745 
 2020-11-09 16:27:39  6.2   55   745 
 2020-11-09 16:22:35  6.4   55   745 
 2020-11-09 16:17:31  6.4   54   745 
 2020-11-09 16:12:27  6.4   54   745 
 2020-11-09 16:07:23  6.4   54   745 
 2020-11-09 16:02:19  6.5   53   745 
 2020-11-09 15:57:15  6.7   53   745 
 2020-11-09 15:52:11  6.6   53   745 
 2020-11-09 15:47:07  6.6   52   745 
 2020-11-09 15:42:03  6.8   50   745 
 2020-11-09 15:36:59  6.8   49   745 
 2020-11-09 15:31:55  6.8   49   745 
 2020-11-09 15:26:50  6.8   49   745 
 2020-11-09 15:21:46  6.8   49   745 
 2020-11-09 15:16:42  6.9   48   745 
 2020-11-09 15:11:38  7.1   49   745 
 2020-11-09 15:06:34  7.1   49   745 
 2020-11-09 15:01:30  7.1   50   745 
 2020-11-09 14:56:26  6.8   50   745 
 2020-11-09 14:51:22  6.8   51   745 
 2020-11-09 14:46:18  6.6   50   745 
 2020-11-09 14:41:14  6.8   50   745 
 2020-11-09 14:36:10  6.9   51   745 
 2020-11-09 14:31:06  6.8   50   745 
 2020-11-09 14:26:02  6.6   51   745 
 2020-11-09 14:20:58  6.7   52   745 
 2020-11-09 14:15:54  6.6   52   745 
 2020-11-09 14:10:49  6.7   52   745 
 2020-11-09 14:05:45  6.4   53   745 
 2020-11-09 14:00:41  6.2   55   745 
 2020-11-09 13:55:37  6.2   55   745 
 2020-11-09 13:50:33  6.3   54   745 
 2020-11-09 13:45:29  6.5   54   745 
 2020-11-09 13:40:25  6.6   55   745 
 2020-11-09 13:35:21  6.6   56   745 
 2020-11-09 13:30:17  6.6   56   744 
 2020-11-09 13:25:13  6.4   55   744 
 2020-11-09 13:20:09  6.2   56   744 
 2020-11-09 13:15:05  6.1   56   744 
 2020-11-09 13:10:01  6.2   57   744 
 2020-11-09 13:04:57  6.2   55   744 
 2020-11-09 12:59:53  6.2   56   744 
 2020-11-09 12:54:49  6.2   56   744 
 2020-11-09 12:49:45  6.1   56   744 
 2020-11-09 12:44:41  6.0   57   744 
 2020-11-09 12:39:37  5.9   58   744 
 2020-11-09 12:34:33  5.9   60   744 
 2020-11-09 12:29:29  5.8   60   744 
 2020-11-09 12:24:25  5.8   60   744 
 2020-11-09 12:19:20  5.9   59   744 
 2020-11-09 12:14:16  5.9   59   744 
 2020-11-09 12:09:12  5.9   60   744 
 2020-11-09 12:04:08  5.9   60   744 
 2020-11-09 11:59:04  6.1   62   744 
 2020-11-09 11:54:00  6.1   66   743 
 2020-11-09 11:48:56  6.1   66   743 
 2020-11-09 11:43:52  5.9   68   743 
 2020-11-09 11:38:48  6.0   69   743 
 2020-11-09 11:33:44  6.0   68   743 
 2020-11-09 11:28:40  6.2   64   743 
 2020-11-09 11:23:36  6.6   61   743 
 2020-11-09 11:18:32  6.6   61   743 
 2020-11-09 11:13:28  6.6   61   743 
 2020-11-09 11:08:24  6.6   61   743 
 2020-11-09 11:03:20  6.7   60   743 
 2020-11-09 10:58:16  6.8   61   743 
 2020-11-09 10:53:12  6.8   61   743 
 2020-11-09 10:48:08  6.8   61   743 
 2020-11-09 10:43:04  6.8   62   743 
 2020-11-09 10:38:00  6.8   62   742 
 2020-11-09 10:32:56  6.7   62   742 
 2020-11-09 10:27:51  6.6   63   742 
 2020-11-09 10:22:47  6.6   64   742 
 2020-11-09 10:17:43  6.5   66   742 
 2020-11-09 10:12:39  6.3   66   742 
 2020-11-09 10:07:35  6.2   70   742 
 2020-11-09 10:02:31  6.2   71   742 
 2020-11-09 09:57:27  6.1   71   742 
 2020-11-09 09:52:23  6.0   72   742 
 2020-11-09 09:47:19  6.0   74   742 
 2020-11-09 09:42:15  6.0   74   742 
 2020-11-09 09:37:10  6.2   73   742 
 2020-11-09 09:32:06  6.3   74   742 
 2020-11-09 09:27:02  6.2   75   742 
 2020-11-09 09:21:58  6.0   79   742 
 2020-11-09 09:16:54  5.9   80   741 
 2020-11-09 09:11:50  5.9   81   741 
 2020-11-09 09:01:37  5.8   83   741 
 2020-11-09 08:56:33  5.7   83   741 
 2020-11-09 08:51:29  5.7   83   741 
 2020-11-09 08:41:15  5.6   83   741 
 2020-11-09 08:36:10  5.7   83   741 
 2020-11-09 08:31:05  5.6   83   741 
 2020-11-09 08:26:01  5.6   82   741 
 2020-11-09 08:20:57  5.9   79   741 
 2020-11-09 08:15:53  6.4   75   741 
 2020-11-09 08:10:49  7.0   70   741 
 2020-11-09 08:05:45  7.5   65   741 
 2020-11-09 08:00:40  8.1   57   741 
 2020-11-09 07:55:36  8.1   57   741 
 2020-11-09 07:50:32  8.1   55   741 
 2020-11-09 07:45:28  8.2   55   741 
 2020-11-09 07:40:24  8.2   55   741 
 2020-11-09 07:35:20  8.2   55   740 
 2020-11-09 07:30:16  8.3   55   740 
 2020-11-09 07:25:12  8.2   55   740 
 2020-11-09 07:20:07  8.4   55   740 
 2020-11-09 07:15:03  8.2   56   740 
 2020-11-09 07:09:59  8.3   56   740 
 2020-11-09 07:04:55  8.3   58   740 
 2020-11-09 06:59:51  8.4   56   740 
 2020-11-09 06:54:47  8.6   57   740 
 2020-11-09 06:49:43  8.7   56   740 
 2020-11-09 06:44:38  8.7   57   740 
 2020-11-09 06:39:34  8.8   58   740 
 2020-11-09 06:34:30  8.8   58   740 
 2020-11-09 06:29:26  8.9   58   740 
 2020-11-09 06:24:22  9.1   57   740 
 2020-11-09 06:19:18  9.1   58   740 
 2020-11-09 06:14:14  9.2   57   740 
 2020-11-09 06:09:09  9.3   56   740 
 2020-11-09 06:04:05  9.2   55   740 
 2020-11-09 05:59:01  9.3   54   740 
 2020-11-09 05:53:57  9.4   54   739 
 2020-11-09 05:48:53  9.4   54   739 
 2020-11-09 05:43:49  9.5   54   739 
 2020-11-09 05:38:45  9.6   54   739 
 2020-11-09 05:33:41  9.7   53   739 
 2020-11-09 05:28:36  9.9   53   739 
 2020-11-09 05:23:32  9.9   53   739 
 2020-11-09 05:18:28  10.1   54   739 
 2020-11-09 05:13:24  10.1   53   739 
 2020-11-09 05:08:20  10.2   53   739 
 2020-11-09 05:03:16  10.2   53   739 
 2020-11-09 04:58:12  10.3   52   739 
 2020-11-09 04:53:08  10.3   53   739 
 2020-11-09 04:48:04  10.4   53   739 
 2020-11-09 04:42:59  10.5   52   739 
 2020-11-09 04:37:55  10.4   52   739 
 2020-11-09 04:32:51  10.3   52   739 
 2020-11-09 04:27:47  10.2   52   739 
 2020-11-09 04:22:43  10.2   53   739 
 2020-11-09 04:17:39  10.2   53   739 
 2020-11-09 04:12:35  10.2   53   739 
 2020-11-09 04:07:30  10.1   54   739 
 2020-11-09 04:02:26  10.2   54   739 
 2020-11-09 03:57:22  10.1   54   739 
 2020-11-09 03:52:18  10.1   54   739 
 2020-11-09 03:47:14  10.1   54   739 
 2020-11-09 03:42:10  10.1   53   739 
 2020-11-09 03:37:06  10.2   52   739 
 2020-11-09 03:32:01  10.1   52   739 
 2020-11-09 03:26:57  10.1   52   739 
 2020-11-09 03:21:53  10.1   51   739 
 2020-11-09 03:16:49  10.1   51   739 
 2020-11-09 03:11:45  10.0   50   739 
 2020-11-09 03:06:41  10.1   48   739 
 2020-11-09 03:01:37  10.1   47   739 
 2020-11-09 02:56:33  10.2   46   739 
 2020-11-09 02:51:28  10.3   47   739 
 2020-11-09 02:46:24  10.4   47   739 
 2020-11-09 02:41:20  10.4   47   739 
 2020-11-09 02:36:16  10.3   47   739 
 2020-11-09 02:31:12  10.3   48   739 
 2020-11-09 02:26:08  10.3   47   739 
 2020-11-09 02:21:04  10.2   47   739 
 2020-11-09 02:16:00  10.2   48   739 
 2020-11-09 02:10:55  10.2   48   739 
 2020-11-09 02:05:51  10.2   48   739 
 2020-11-09 02:00:47  10.1   49   739 
 2020-11-09 01:55:43  10.0   48   739 
 2020-11-09 01:50:39  10.0   49   739 
 2020-11-09 01:45:35  9.9   49   739 
 2020-11-09 01:40:31  9.8   50   739 
 2020-11-09 01:35:27  9.8   50   739 
 2020-11-09 01:30:22  9.7   50   739 
 2020-11-09 01:25:18  9.6   51   739 
 2020-11-09 01:20:14  9.6   51   739 
 2020-11-09 01:15:10  9.8   50   739 
 2020-11-09 01:10:06  9.7   51   739 
 2020-11-09 01:05:02  9.8   51   739 
 2020-11-09 00:59:58  9.8   51   739 
 2020-11-09 00:54:54  9.8   51   739 
 2020-11-09 00:49:50  9.7   51   739 
 2020-11-09 00:44:46  9.6   52   739 
 2020-11-09 00:39:42  9.6   52   740 
 2020-11-09 00:34:38  9.5   53   740 
 2020-11-09 00:29:34  9.6   52   740 
 2020-11-09 00:24:30  9.6   52   740 
 2020-11-09 00:19:25  9.5   52   740 
 2020-11-09 00:14:21  9.5   52   740 
 2020-11-09 00:09:17  9.5   52   740 
 2020-11-09 00:04:13  9.4   52   740 
 2020-11-08 23:59:09  9.6   52   740 
 2020-11-08 23:54:05  9.6   52   740 
 2020-11-08 23:49:01  9.4   53   740 
 2020-11-08 23:43:57  9.4   53   740 
 2020-11-08 23:38:53  9.3   53   740 
 2020-11-08 23:33:49  9.4   53   740 
 2020-11-08 23:28:45  9.3   53   740 
 2020-11-08 23:23:41  9.3   53   740 
 2020-11-08 23:18:37  9.2   54   740 
 2020-11-08 23:13:32  9.2   54   741 
 2020-11-08 23:08:28  9.2   54   741 
 2020-11-08 23:03:24  9.1   54   741 
 2020-11-08 22:58:20  9.2   54   741 
 2020-11-08 22:53:16  9.2   54   741 
 2020-11-08 22:48:12  9.1   54   741 
 2020-11-08 22:43:08  9.0   55   741 
 2020-11-08 22:38:04  9.1   55   741 
 2020-11-08 22:32:59  9.1   55   741 
 2020-11-08 22:27:55  9.1   54   741 
 2020-11-08 22:22:51  9.1   55   741 
 2020-11-08 22:17:47  9.0   55   741 
 2020-11-08 22:12:43  9.0   55   741 
 2020-11-08 22:07:39  8.9   55   741 
 2020-11-08 22:02:35  8.9   55   742 
 2020-11-08 21:57:31  8.8   55   741 
 2020-11-08 21:52:24  8.8   55   742 
 2020-11-08 21:47:20  8.8   54   742 
 2020-11-08 21:42:15  8.7   54   742 
 2020-11-08 21:37:11  8.6   54   742 
 2020-11-08 21:32:07  8.4   54   742 
 2020-11-08 21:27:03  8.4   54   742 
 2020-11-08 21:21:53  8.2   55   742 
 2020-11-08 21:16:48  8.2   54   742 
 2020-11-08 21:11:44  8.1   54   742 
 2020-11-08 21:06:40  8.3   53   742 
 2020-11-08 21:01:36  8.4   53   743 
 2020-11-08 20:56:32  8.5   53   743 
 2020-11-08 20:51:28  8.5   52   743 
 2020-11-08 20:46:24  8.4   53   743 
 2020-11-08 20:41:20  8.4   52   743 
 2020-11-08 20:36:16  8.4   52   743 
 2020-11-08 20:31:11  8.4   52   743 
 2020-11-08 20:26:07  8.5   52   743 
 2020-11-08 20:21:03  8.6   52   743 
 2020-11-08 20:15:59  8.7   51   743 
 2020-11-08 20:10:55  8.9   51   743 
 2020-11-08 20:05:51  8.9   50   743 
 2020-11-08 20:00:47  8.9   51   743 
 2020-11-08 19:55:43  8.9   50   743 
 2020-11-08 19:50:39  9.0   50   743 
 2020-11-08 19:45:32  9.0   50   743 
 2020-11-08 19:40:28  9.1   50   744 
 2020-11-08 19:35:23  9.1   51   744 
 2020-11-08 19:30:19  9.0   51   744 
 2020-11-08 19:25:15  9.0   51   744 
 2020-11-08 19:20:11  9.1   51   744 
 2020-11-08 19:15:07  9.1   51   744 
 2020-11-08 19:10:02  9.1   51   744 
 2020-11-08 19:04:58  8.9   51   744 
 2020-11-08 18:59:54  8.8   51   744 
 2020-11-08 18:54:50  8.8   51   744 
 2020-11-08 18:49:46  8.7   51   744 
 2020-11-08 18:44:42  8.7   51   744 
 2020-11-08 18:39:38  8.7   51   744 
 2020-11-08 18:34:34  8.8   51   744 
 2020-11-08 18:29:30  8.8   50   745 
 2020-11-08 18:24:26  8.9   50   744 
 2020-11-08 18:19:21  9.0   50   745 
 2020-11-08 18:14:17  9.1   50   745 
 2020-11-08 18:09:13  9.2   50   745 
 2020-11-08 18:04:09  9.2   50   745 
 2020-11-08 17:59:05  9.1   50   745 
 2020-11-08 17:54:01  9.2   50   745 
 2020-11-08 17:48:57  9.2   49   745 
 2020-11-08 17:43:53  9.3   50   745 
 2020-11-08 17:38:49  9.4   50   745 
 2020-11-08 17:33:45  9.2   50   745 
 2020-11-08 17:28:41  9.3   50   745 
 2020-11-08 17:23:37  9.4   50   745 
 2020-11-08 17:18:33  9.4   49   745 
 2020-11-08 17:13:26  9.6   48   745 
 2020-11-08 17:08:22  9.6   47   745 
 2020-11-08 17:03:18  9.5   49   745 
 2020-11-08 16:58:14  9.4   48   745 
 2020-11-08 16:53:10  9.5   48   745 
 2020-11-08 16:48:04  9.6   47   745 
 2020-11-08 16:43:00  9.7   48   745 
 2020-11-08 16:37:56  9.8   47   746 
 2020-11-08 16:32:52  9.8   48   746 
 2020-11-08 16:27:48  9.8   47   746 
 2020-11-08 16:22:44  9.7   48   745 
 2020-11-08 16:17:40  9.8   48   745 
 2020-11-08 16:12:35  9.8   48   746 
 2020-11-08 16:07:31  9.9   48   746 
 2020-11-08 16:02:27  9.9   47   746 
 2020-11-08 15:57:23  10.0   48   746 
 2020-11-08 15:52:19  10.0   47   746 
 2020-11-08 15:47:15  9.9   47   746 
 2020-11-08 15:42:11  9.8   47   746 
 2020-11-08 15:37:07  9.9   47   746 
 2020-11-08 15:32:03  9.9   48   746 
 2020-11-08 15:26:59  10.0   48   746 
 2020-11-08 15:21:54  10.1   48   746 
 2020-11-08 15:16:50  10.0   49   746 
 2020-11-08 15:11:46  10.0   48   746 
 2020-11-08 15:06:42  9.9   49   746 
 2020-11-08 15:01:38  9.9   49   746 
 2020-11-08 14:56:34  9.9   50   746 
 2020-11-08 14:51:30  9.8   49   746 
 2020-11-08 14:46:26  9.9   50   746 
 2020-11-08 14:41:21  10.0   50   746 
 2020-11-08 14:36:17  10.1   50   746 
 2020-11-08 14:31:13  10.1   49   746 
 2020-11-08 14:26:09  10.2   49   746 
 2020-11-08 14:21:05  10.2   49   746 
 2020-11-08 14:16:01  10.2   49   746 
 2020-11-08 14:10:57  10.1   49   746 
 2020-11-08 14:05:52  10.1   50   747 
 2020-11-08 14:00:48  10.1   50   747 
 2020-11-08 13:55:44  10.1   51   747 
 2020-11-08 13:50:40  9.9   51   747 
 2020-11-08 13:45:36  9.7   51   747 
 2020-11-08 13:40:32  9.7   52   747 
 2020-11-08 13:35:27  9.6   52   747 
 2020-11-08 13:30:22  9.4   53   747 
 2020-11-08 13:25:18  9.2   53   747 
 2020-11-08 13:20:14  9.2   53   747 
 2020-11-08 13:15:10  9.1   54   747 
 2020-11-08 13:10:06  9.1   55   747 
 2020-11-08 13:05:02  9.0   55   747 
 2020-11-08 12:59:58  8.8   55   747 
 2020-11-08 12:54:54  8.6   55   747 
 2020-11-08 12:49:49  8.6   56   747 
 2020-11-08 12:44:45  8.5   56   747 
 2020-11-08 12:39:41  8.3   56   747 
 2020-11-08 12:34:37  8.2   57   747 
 2020-11-08 12:29:33  8.1   56   747 
 2020-11-08 12:24:29  7.9   57   748 
 2020-11-08 12:19:25  7.8   58   748 
 2020-11-08 12:14:20  7.6   59   748 
 2020-11-08 12:09:16  7.4   59   748 
 2020-11-08 12:04:12  7.4   60   748 
 2020-11-08 11:59:08  7.2   60   748 
 2020-11-08 11:54:04  7.1   60   748 
 2020-11-08 11:49:00  7.0   60   748 
 2020-11-08 11:43:56  6.9   60   748 
 2020-11-08 11:38:52  6.8   61   748 
 2020-11-08 11:33:47  6.6   62   748 
 2020-11-08 11:28:43  6.4   63   748 
 2020-11-08 11:23:39  6.3   63   748 
 2020-11-08 11:18:35  6.2   63   748 
 2020-11-08 11:13:31  6.1   64   748 
 2020-11-08 11:08:27  6.0   64   748 
 2020-11-08 11:03:23  5.8   65   748 
 2020-11-08 10:58:19  5.6   65   748 
 2020-11-08 10:53:14  5.6   66   748 
 2020-11-08 10:48:10  5.4   66   748 
 2020-11-08 10:43:06  5.2   66   748 
 2020-11-08 10:38:02  5.1   67   748 
 2020-11-08 10:32:58  4.9   67   748 
 2020-11-08 10:27:54  4.9   67   748 
 2020-11-08 10:22:50  4.8   68   748 
 2020-11-08 10:17:46  4.7   68   748 
 2020-11-08 10:12:41  4.6   68   748 
 2020-11-08 10:07:37  4.5   68   748 
 2020-11-08 10:02:33  4.4   69   748 
 2020-11-08 09:57:29  4.2   69   748 
 2020-11-08 09:52:25  4.2   69   748 
 2020-11-08 09:47:21  4.2   69   748 
 2020-11-08 09:42:17  4.2   69   748 
 2020-11-08 09:37:12  4.2   69   748 
 2020-11-08 09:32:08  4.2   69   748 
 2020-11-08 09:27:03  4.2   69   749 
 2020-11-08 09:21:59  4.2   68   749 
 2020-11-08 09:16:55  4.2   68   749 
 2020-11-08 09:11:51  4.4   68   749 
 2020-11-08 09:06:47  4.3   68   749 
 2020-11-08 09:01:42  4.3   68   749 
 2020-11-08 08:56:38  4.3   68   749 
 2020-11-08 08:51:34  4.2   68   749 
 2020-11-08 08:46:30  4.2   68   749 
 2020-11-08 08:41:26  4.2   68   749 
 2020-11-08 08:36:22  4.1   68   749 
 2020-11-08 08:31:18  4.1   69   749 
 2020-11-08 08:26:14  4.0   69   749 
 2020-11-08 08:21:09  3.8   69   749 
 2020-11-08 08:16:05  3.9   70   749 
 2020-11-08 08:11:01  3.8   70   749 
 2020-11-08 08:05:57  3.8   70   749 
 2020-11-08 08:00:53  3.8   70   749 
 2020-11-08 07:55:48  3.8   70   749 
 2020-11-08 07:50:44  3.8   70   749 
 2020-11-08 07:45:40  3.7   70   749 
 2020-11-08 07:40:36  3.7   70   750 
 2020-11-08 07:35:31  3.6   71   750 
 2020-11-08 07:30:27  3.6   71   750 
 2020-11-08 07:25:23  3.6   71   750 
 2020-11-08 07:20:19  3.6   71   750 
 2020-11-08 07:15:15  3.6   71   750 
 2020-11-08 07:10:11  3.6   72   750 
 2020-11-08 07:05:07  3.5   71   750 
 2020-11-08 07:00:02  3.6   71   750 
 2020-11-08 06:54:58  3.6   71   750 
 2020-11-08 06:49:54  3.6   72   750 
 2020-11-08 06:44:50  3.6   72   750 
 2020-11-08 06:39:46  3.4   73   750 
 2020-11-08 06:34:42  3.5   73   750 
 2020-11-08 06:29:38  3.4   73   750 
 2020-11-08 06:24:33  3.3   73   750 
 2020-11-08 06:19:29  3.4   74   750 
 2020-11-08 06:14:25  3.2   74   750 
 2020-11-08 06:09:21  3.3   75   750 
 2020-11-08 06:04:17  3.2   75   750 
 2020-11-08 05:59:13  3.2   75   750 
 2020-11-08 05:54:09  3.1   76   750 
 2020-11-08 05:49:04  3.1   76   750 
 2020-11-08 05:44:00  3.2   76   750 
 2020-11-08 05:38:56  3.1   76   750 
 2020-11-08 05:33:52  3.0   76   750 
 2020-11-08 05:28:48  3.1   76   750 
 2020-11-08 05:23:44  3.2   76   751 
 2020-11-08 05:18:40  3.4   76   751 
 2020-11-08 05:13:36  3.3   76   751 
 2020-11-08 05:08:31  3.2   76   751 
 2020-11-08 05:03:27  3.3   76   751 
 2020-11-08 04:58:23  3.3   76   751 
 2020-11-08 04:53:19  3.3   76   751 
 2020-11-08 04:48:15  3.3   76   751 
 2020-11-08 04:43:11  3.4   76   751 
 2020-11-08 04:38:07  3.5   76   751 
 2020-11-08 04:33:02  3.3   76   751 
 2020-11-08 04:27:58  3.4   76   751 
 2020-11-08 04:22:54  3.4   76   751 
 2020-11-08 04:17:50  3.4   77   751 
 2020-11-08 04:12:46  3.4   77   751 
 2020-11-08 04:07:42  3.4   77   751 
 2020-11-08 04:02:38  3.5   77   751 
 2020-11-08 03:57:33  3.4   77   751 
 2020-11-08 03:52:29  3.4   77   751 
 2020-11-08 03:47:25  3.6   77   751 
 2020-11-08 03:42:21  3.7   77   752 
 2020-11-08 03:37:17  3.7   77   752 
 2020-11-08 03:32:13  3.7   77   752 
 2020-11-08 03:27:09  3.7   77   752 
 2020-11-08 03:22:05  3.7   77   752 
 2020-11-08 03:17:00  3.7   77   752 
 2020-11-08 03:11:56  3.7   77   752 
 2020-11-08 03:06:52  3.7   78   752 
 2020-11-08 03:01:48  3.6   78   752 
 2020-11-08 02:56:44  3.7   78   752 
 2020-11-08 02:51:40  3.6   79   752 
 2020-11-08 02:46:36  3.7   78   752 
 2020-11-08 02:41:32  3.8   79   752 
 2020-11-08 02:36:27  3.8   79   752 
 2020-11-08 02:31:23  3.8   79   752 
 2020-11-08 02:26:19  3.8   79   752 
 2020-11-08 02:21:15  3.8   79   752 
 2020-11-08 02:16:11  3.9   79   752 
 2020-11-08 02:11:07  3.9   79   752 
 2020-11-08 02:06:03  3.9   80   752 
 2020-11-08 02:00:59  3.9   79   752 
 2020-11-08 01:55:55  3.9   79   752 
 2020-11-08 01:50:50  4.0   79   752 
 2020-11-08 01:45:46  4.0   80   752 
 2020-11-08 01:40:42  4.1   79   752 
 2020-11-08 01:35:38  4.1   80   752 
 2020-11-08 01:30:34  4.1   80   752 
 2020-11-08 01:25:30  4.1   80   752 
 2020-11-08 01:20:26  4.1   80   752 
 2020-11-08 01:15:22  3.9   80   752 
 2020-11-08 01:10:18  4.1   80   752 
 2020-11-08 01:05:14  3.9   81   752 
 2020-11-08 01:00:09  4.0   81   752 
 2020-11-08 00:55:05  3.9   81   752 
 2020-11-08 00:50:01  3.8   81   752 
 2020-11-08 00:44:57  3.9   82   753 
 2020-11-08 00:39:53  3.9   82   753 
 2020-11-08 00:34:49  3.8   82   753 
 2020-11-08 00:29:45  3.8   82   753 
 2020-11-08 00:24:40  3.8   82   753 
 2020-11-08 00:19:36  3.9   82   753 
 2020-11-08 00:14:32  3.9   82   753 
 2020-11-08 00:09:28  4.0   82   753 
 2020-11-08 00:04:24  3.9   82   753 
 2020-11-07 23:59:20  3.9   82   753 
 2020-11-07 23:54:16  4.0   82   753 
 2020-11-07 23:49:12  4.1   82   753 
 2020-11-07 23:44:07  4.1   82   753 
 2020-11-07 23:39:03  4.1   82   753 
 2020-11-07 23:33:59  4.2   82   753 
 2020-11-07 23:28:55  4.1   82   753 
 2020-11-07 23:23:51  4.2   82   753 
 2020-11-07 23:18:47  4.2   82   753 
 2020-11-07 23:13:43  4.2   82   753 
 2020-11-07 23:08:39  4.2   82   753 
 2020-11-07 23:03:34  4.2   82   753 
 2020-11-07 22:58:30  4.2   82   753 
 2020-11-07 22:53:26  4.3   82   753 
 2020-11-07 22:48:22  4.2   82   753 
 2020-11-07 22:43:18  4.2   82   753 
 2020-11-07 22:38:14  4.3   82   753 
 2020-11-07 22:33:10  4.3   82   753 
 2020-11-07 22:28:06  4.2   82   753 
 2020-11-07 22:23:01  4.2   82   753 
 2020-11-07 22:17:57  4.2   82   753 
 2020-11-07 22:12:53  4.4   82   753 
 2020-11-07 22:07:49  4.5   82   753 
 2020-11-07 22:02:44  4.6   81   754 
 2020-11-07 21:57:40  4.6   81   754 
 2020-11-07 21:52:36  4.6   82   754 
 2020-11-07 21:47:32  4.5   82   754 
 2020-11-07 21:42:28  4.6   82   754 
 2020-11-07 21:37:24  4.4   82   754 
 2020-11-07 21:32:20  4.5   82   754 
 2020-11-07 21:27:15  4.4   83   754 
 2020-11-07 21:22:11  4.4   83   754 
 2020-11-07 21:17:07  4.4   83   754 
 2020-11-07 21:12:03  4.5   83   754 
 2020-11-07 21:06:59  4.6   83   754 
 2020-11-07 21:01:55  4.6   83   754 
 2020-11-07 20:56:49  4.6   83   754 
 2020-11-07 20:51:45  4.6   83   754 
 2020-11-07 20:46:41  4.6   83   754 
 2020-11-07 20:41:37  4.6   83   754 
 2020-11-07 20:36:33  4.6   83   754 
 2020-11-07 20:31:29  4.6   84   754 
 2020-11-07 20:26:25  4.6   84   754 
 2020-11-07 20:21:20  4.6   84   754 
 2020-11-07 20:16:16  4.6   85   754 
 2020-11-07 20:11:12  4.7   85   754 
 2020-11-07 20:06:08  4.6   85   754 
 2020-11-07 20:01:04  4.6   85   754 
 2020-11-07 19:56:00  4.7   85   754 
 2020-11-07 19:50:56  4.8   86   754 
 2020-11-07 19:45:51  4.8   86   754 
 2020-11-07 19:40:47  4.8   86   754 
 2020-11-07 19:35:43  4.7   87   754 
 2020-11-07 19:30:39  4.7   87   754 
 2020-11-07 19:25:35  4.8   87   754 
 2020-11-07 19:20:31  4.8   87   755 
 2020-11-07 19:15:27  4.8   88   755 
 2020-11-07 19:10:23  4.8   88   755 
 2020-11-07 19:05:19  4.8   88   755 
 2020-11-07 19:00:14  4.8   88   755 
 2020-11-07 18:55:10  4.9   88   755 
 2020-11-07 18:50:06  5.0   87   755 
 2020-11-07 18:45:02  5.1   87   755 
 2020-11-07 18:39:58  5.2   87   755 
 2020-11-07 18:34:54  5.2   87   755 
 2020-11-07 18:29:50  5.2   87   755 
 2020-11-07 18:24:46  5.2   87   755 
 2020-11-07 18:19:42  5.3   87   755 
 2020-11-07 18:14:36  5.3   87   755 
 2020-11-07 18:09:32  5.6   86   755 
 2020-11-07 18:04:28  5.6   86   755 
 2020-11-07 17:59:24  5.8   86   755 
 2020-11-07 17:54:20  5.8   86   755 
 2020-11-07 17:49:16  5.8   86   755 
 2020-11-07 17:44:11  6.0   86   755 
 2020-11-07 17:39:07  6.0   86   755 
 2020-11-07 17:34:03  6.1   86   755 
 2020-11-07 17:28:59  6.1   86   755 
 2020-11-07 17:23:55  6.3   85   755 
 2020-11-07 17:18:51  6.4   85   755 
 2020-11-07 17:13:47  6.6   85   755 
 2020-11-07 17:08:43  6.7   83   755 
 2020-11-07 17:03:39  6.7   83   755 
 2020-11-07 16:58:35  6.7   83   755 
 2020-11-07 16:53:31  6.7   83   755 
 2020-11-07 16:48:26  6.8   83   755 
 2020-11-07 16:43:22  6.7   83   755 
 2020-11-07 16:38:18  6.7   84   755 
 2020-11-07 16:33:14  6.6   84   755 
 2020-11-07 16:28:10  6.6   84   755 
 2020-11-07 16:23:06  6.6   84   755 
 2020-11-07 16:18:02  6.6   84   755 
 2020-11-07 16:12:58  6.6   84   755 
 2020-11-07 16:07:53  6.8   83   755 
 2020-11-07 16:02:49  6.9   82   755 
 2020-11-07 15:57:45  7.1   80   755 
 2020-11-07 15:52:40  7.1   78   755 
 2020-11-07 15:47:36  7.1   76   755 
 2020-11-07 15:42:32  7.0   75   755 
 2020-11-07 15:37:28  6.9   74   755 
 2020-11-07 15:32:24  6.9   74   755 
 2020-11-07 15:27:20  6.9   74   755 
 2020-11-07 15:22:16  6.9   73   755 
 2020-11-07 15:17:11  6.7   74   755 
 2020-11-07 15:12:07  6.8   74   755 
 2020-11-07 15:07:03  6.8   74   755 
 2020-11-07 15:01:59  6.7   73   755 
 2020-11-07 14:56:55  6.6   74   755 
 2020-11-07 14:51:51  6.7   74   755 
 2020-11-07 14:46:47  6.6   74   755 
 2020-11-07 14:41:42  6.6   74   755 
 2020-11-07 14:36:38  6.6   74   755 
 2020-11-07 14:31:34  6.5   74   755 
 2020-11-07 14:26:30  6.5   74   755 
 2020-11-07 14:21:26  6.4   74   755 
 2020-11-07 14:16:22  6.4   75   755 
 2020-11-07 14:11:18  6.2   75   755 
 2020-11-07 14:06:13  6.2   75   755 
 2020-11-07 14:01:09  6.2   75   755 
 2020-11-07 13:56:05  6.4   75   755 
 2020-11-07 13:51:01  6.4   74   755 
 2020-11-07 13:45:57  6.4   75   755 
 2020-11-07 13:40:53  6.2   75   755 
 2020-11-07 13:35:49  6.1   76   755 
 2020-11-07 13:30:44  6.1   76   755 
 2020-11-07 13:25:37  5.9   76   755 
 2020-11-07 13:20:33  5.8   77   755 
 2020-11-07 13:15:29  5.8   76   755 
 2020-11-07 13:10:25  5.8   77   755 
 2020-11-07 13:05:21  5.7   77   755 
 2020-11-07 13:00:17  5.6   77   756 
 2020-11-07 12:55:13  5.5   78   755 
 2020-11-07 12:50:08  5.3   78   756 
 2020-11-07 12:45:04  5.2   78   756 
 2020-11-07 12:40:00  5.2   77   756 
 2020-11-07 12:34:56  5.3   77   756 
 2020-11-07 12:29:52  5.2   76   756 
 2020-11-07 12:24:48  5.2   76   756 
 2020-11-07 12:19:44  5.2   77   756 
 2020-11-07 12:14:40  5.1   77   756 
 2020-11-07 12:09:35  5.1   77   756 
 2020-11-07 12:04:31  4.9   78   756 
 2020-11-07 11:59:27  4.9   78   756 
 2020-11-07 11:54:23  4.9   77   756 
 2020-11-07 11:49:19  4.8   77   756 
 2020-11-07 11:44:15  4.7   78   756 
 2020-11-07 11:39:11  4.7   78   756 
 2020-11-07 11:34:07  4.6   78   756 
 2020-11-07 11:29:03  4.8   77   756 
 2020-11-07 11:23:59  4.6   78   756 
 2020-11-07 11:18:54  4.4   78   756 
 2020-11-07 11:13:50  4.5   78   756 
 2020-11-07 11:08:46  4.4   78   756 
 2020-11-07 11:03:42  4.3   79   756 
 2020-11-07 10:58:38  4.2   79   756 
 2020-11-07 10:53:34  3.9   80   756 
 2020-11-07 10:48:30  3.8   80   756 
 2020-11-07 10:43:26  3.8   81   756 
 2020-11-07 10:38:21  3.6   80   756 
 2020-11-07 10:33:17  3.8   81   756 
 2020-11-07 10:28:13  3.7   81   755 
 2020-11-07 10:23:09  3.8   80   756 
 2020-11-07 10:18:05  3.8   80   756 
 2020-11-07 10:13:01  3.7   81   756 
 2020-11-07 10:07:57  3.6   81   756 
 2020-11-07 10:02:52  3.4   82   756 
 2020-11-07 09:57:48  3.4   82   755 
 2020-11-07 09:52:44  3.2   82   756 
 2020-11-07 09:47:40  3.1   83   756 
 2020-11-07 09:42:36  3.1   83   755 
 2020-11-07 09:37:32  3.0   83   755 
 2020-11-07 09:32:28  3.1   83   755 
 2020-11-07 09:27:24  2.9   84   755 
 2020-11-07 09:22:19  2.9   83   755 
 2020-11-07 09:17:15  2.8   84   755 
 2020-11-07 09:12:08  2.8   83   755 
 2020-11-07 09:07:04  2.8   83   755 
 2020-11-07 09:02:00  2.8   84   755 
 2020-11-07 08:56:56  2.7   84   755 
 2020-11-07 08:51:52  2.7   84   755 
 2020-11-07 08:46:48  2.8   83   755 
 2020-11-07 08:41:43  2.8   83   755 
 2020-11-07 08:36:39  2.9   83   755 
 2020-11-07 08:31:35  2.9   83   755 
 2020-11-07 08:26:31  2.9   83   755 
 2020-11-07 08:21:27  2.9   83   755 
 2020-11-07 08:16:23  3.0   82   755 
 2020-11-07 08:11:18  3.0   82   755 
 2020-11-07 08:06:14  3.0   82   755 
 2020-11-07 08:01:10  2.9   82   755 
 2020-11-07 07:56:06  3.0   82   755 
 2020-11-07 07:51:02  3.0   82   755 
 2020-11-07 07:45:58  3.1   82   755 
 2020-11-07 07:40:54  3.0   82   755 
 2020-11-07 07:35:50  3.1   82   755 
 2020-11-07 07:30:46  3.1   82   755 
 2020-11-07 07:25:42  3.1   82   755 
 2020-11-07 07:20:38  3.1   82   755 
 2020-11-07 07:15:34  3.1   82   755 
 2020-11-07 07:10:30  3.1   82   755 
 2020-11-07 07:05:25  3.0   82   755 
 2020-11-07 07:00:21  3.0   82   755 
 2020-11-07 06:55:17  3.0   82   755 
 2020-11-07 06:50:13  3.0   82   754 
 2020-11-07 06:45:09  3.1   82   754 
 2020-11-07 06:40:05  3.0   82   754 
 2020-11-07 06:35:01  3.0   82   754 
 2020-11-07 06:29:54  3.1   82   754 
 2020-11-07 06:24:50  3.1   82   754 
 2020-11-07 06:19:46  3.0   82   754 
 2020-11-07 06:14:42  3.0   82   754 
 2020-11-07 06:09:38  3.1   81   754 
 2020-11-07 06:04:33  3.1   81   754 
 2020-11-07 05:59:29  3.1   81   754 
 2020-11-07 05:54:25  3.1   82   754 
 2020-11-07 05:49:21  2.9   81   754 
 2020-11-07 05:44:17  3.0   81   754 
 2020-11-07 05:39:13  3.0   82   754 
 2020-11-07 05:34:09  3.0   82   754 
 2020-11-07 05:29:05  2.9   82   754 
 2020-11-07 05:24:00  2.8   82   754 
 2020-11-07 05:18:56  2.9   82   754 
 2020-11-07 05:13:52  2.9   82   754 
 2020-11-07 05:08:48  2.9   82   754 
 2020-11-07 05:03:44  2.9   82   754 
 2020-11-07 04:58:40  2.9   82   754 
 2020-11-07 04:53:35  2.9   82   754 
 2020-11-07 04:48:31  3.1   82   754 
 2020-11-07 04:43:27  3.0   82   754 
 2020-11-07 04:38:23  3.1   82   754 
 2020-11-07 04:33:19  3.1   82   754 
 2020-11-07 04:28:15  3.1   82   754 
 2020-11-07 04:23:11  3.1   82   754 
 2020-11-07 04:18:06  3.1   82   754 
 2020-11-07 04:13:02  3.1   82   754 
 2020-11-07 04:07:58  3.1   83   754 
 2020-11-07 04:02:54  3.1   83   754 
 2020-11-07 03:57:50  3.1   82   754 
 2020-11-07 03:52:46  3.1   83   755 
 2020-11-07 03:47:42  3.1   83   755 
 2020-11-07 03:42:38  3.1   83   755 
 2020-11-07 03:37:34  3.0   83   755 
 2020-11-07 03:32:29  3.0   83   755 
 2020-11-07 03:27:25  3.0   83   754 
 2020-11-07 03:22:21  3.0   84   754 
 2020-11-07 03:17:17  2.9   84   755 
 2020-11-07 03:12:13  2.9   84   755 
 2020-11-07 03:07:09  2.9   85   755 
 2020-11-07 03:02:05  2.9   85   755 
 2020-11-07 02:57:01  2.9   85   755 
 2020-11-07 02:51:56  2.9   85   755 
 2020-11-07 02:46:52  2.9   84   755 
 2020-11-07 02:41:48  2.9   85   754 
 2020-11-07 02:36:44  2.9   85   755 
 2020-11-07 02:31:40  2.9   85   755 
 2020-11-07 02:26:36  2.8   85   755 
 2020-11-07 02:21:32  2.8   85   755 
 2020-11-07 02:16:28  2.8   86   755 
 2020-11-07 02:11:23  2.8   86   755 
 2020-11-07 02:06:19  2.6   86   755 
 2020-11-07 02:01:15  2.6   87   755 
 2020-11-07 01:56:11  2.7   87   755 
 2020-11-07 01:51:07  2.8   87   755 
 2020-11-07 01:46:03  2.8   87   755 
 2020-11-07 01:40:55  2.9   87   755 
 2020-11-07 01:35:51  3.0   87   755 
 2020-11-07 01:30:47  3.1   87   755 
 2020-11-07 01:25:43  3.1   87   755 
 2020-11-07 01:20:39  3.1   87   755 
 2020-11-07 01:15:35  3.2   87   755 
 2020-11-07 01:10:31  3.0   88   755 
 2020-11-07 01:05:27  3.0   88   755 
 2020-11-07 01:00:23  3.0   88   755 
 2020-11-07 00:55:19  3.1   88   755 
 2020-11-07 00:50:15  3.1   88   755 
 2020-11-07 00:45:10  3.2   87   755 
 2020-11-07 00:40:06  3.2   87   755 
 2020-11-07 00:35:02  3.1   87   755 
 2020-11-07 00:29:58  3.2   87   755 
 2020-11-07 00:24:54  3.1   87   755 
 2020-11-07 00:19:50  3.2   87   755 
 2020-11-07 00:14:46  3.2   87   755 
 2020-11-07 00:09:42  3.2   87   755 
 2020-11-07 00:04:38  3.2   86   755 
 2020-11-06 23:59:34  3.2   86   755 
 2020-11-06 23:54:29  3.1   86   755 
 2020-11-06 23:49:25  3.1   86   755 
 2020-11-06 23:44:21  3.1   86   755 
 2020-11-06 23:39:17  3.1   87   755 
 2020-11-06 23:34:13  3.1   86   755 
 2020-11-06 23:29:09  3.1   86   755 
 2020-11-06 23:24:05  3.1   86   756 
 2020-11-06 23:19:00  3.1   86   756 
 2020-11-06 23:13:56  3.1   86   756 
 2020-11-06 23:08:52  3.1   86   756 
 2020-11-06 23:03:48  3.1   86   756 
 2020-11-06 22:58:44  3.1   86   756 
 2020-11-06 22:53:40  3.1   85   756 
 2020-11-06 22:48:36  3.0   86   756 
 2020-11-06 22:43:32  3.0   85   756 
 2020-11-06 22:38:28  3.1   85   756 
 2020-11-06 22:33:24  3.1   85   756 
 2020-11-06 22:28:19  2.9   85   756 
 2020-11-06 22:23:15  3.1   85   756 
 2020-11-06 22:18:11  3.1   85   756 
 2020-11-06 22:13:07  2.9   85   756 
 2020-11-06 22:08:03  2.9   85   756 
 2020-11-06 22:02:59  2.9   85   756 
 2020-11-06 21:57:55  2.9   86   756 
 2020-11-06 21:52:51  2.9   86   756 
 2020-11-06 21:47:47  2.9   86   756 
 2020-11-06 21:42:43  2.9   86   756 
 2020-11-06 21:37:38  2.8   86   756 
 2020-11-06 21:32:33  2.8   86   756 
 2020-11-06 21:27:29  2.8   86   756 
 2020-11-06 21:22:25  2.8   86   756 
 2020-11-06 21:17:21  2.8   86   756 
 2020-11-06 21:12:16  2.7   86   756 
 2020-11-06 21:07:12  2.7   86   756 
 2020-11-06 21:02:08  2.8   86   756 
 2020-11-06 20:57:04  2.8   85   756 
 2020-11-06 20:52:00  2.9   86   756 
 2020-11-06 20:46:56  2.8   86   756 
 2020-11-06 20:41:52  2.8   86   756 
 2020-11-06 20:36:47  2.8   86   756 
 2020-11-06 20:31:43  2.8   86   756 
 2020-11-06 20:26:39  2.7   87   756 
 2020-11-06 20:21:35  2.8   86   756 
 2020-11-06 20:16:31  2.7   86   757 
 2020-11-06 20:11:27  2.7   86   757 
 2020-11-06 20:06:23  2.6   86   757 
 2020-11-06 20:01:18  2.6   87   757 
 2020-11-06 19:56:14  2.6   87   757 
 2020-11-06 19:51:10  2.6   86   757 
 2020-11-06 19:46:06  2.5   86   757 
 2020-11-06 19:41:02  2.5   87   757 
 2020-11-06 19:35:58  2.5   87   757 
 2020-11-06 19:30:54  2.6   86   757 
 2020-11-06 19:25:50  2.6   86   757 
 2020-11-06 19:20:46  2.7   85   757 
 2020-11-06 19:15:42  2.8   85   757 
 2020-11-06 19:10:38  2.7   86   757 
 2020-11-06 19:05:33  2.6   86   757 
 2020-11-06 19:00:29  2.7   85   757 
 2020-11-06 18:55:25  2.6   85   757 
 2020-11-06 18:50:21  2.7   84   757 
 2020-11-06 18:45:17  2.8   84   757 
 2020-11-06 18:40:13  2.9   84   757 
 2020-11-06 18:35:09  2.9   84   757 
 2020-11-06 18:30:05  2.9   84   757 
 2020-11-06 18:25:01  2.9   84   757 
 2020-11-06 18:19:57  2.8   85   757 
 2020-11-06 18:14:52  2.8   84   757 
 2020-11-06 18:09:48  2.9   85   757 
 2020-11-06 18:04:44  2.8   85   757 
 2020-11-06 17:59:40  2.7   85   757 
 2020-11-06 17:54:36  2.5   85   757 
 2020-11-06 17:49:32  2.5   86   757 
 2020-11-06 17:44:28  2.5   86   757 
 2020-11-06 17:39:24  2.5   85   757 
 2020-11-06 17:34:20  2.6   85   757 
 2020-11-06 17:29:16  2.6   86   757 
 2020-11-06 17:24:12  2.7   86   757 
 2020-11-06 17:19:08  2.8   86   757 
 2020-11-06 17:14:04  2.8   86   757 
 2020-11-06 17:09:00  3.0   85   757 
 2020-11-06 17:03:56  3.0   85   757 
 2020-11-06 16:58:51  3.2   84   757 
 2020-11-06 16:53:47  3.2   84   757 
 2020-11-06 16:48:43  3.2   84   757 
 2020-11-06 16:43:39  3.2   84   757 
 2020-11-06 16:38:35  3.2   84   757 
 2020-11-06 16:33:31  3.3   83   757 
 2020-11-06 16:28:27  3.4   83   757 
 2020-11-06 16:23:23  3.3   83   757 
 2020-11-06 16:18:18  3.4   83   757 
 2020-11-06 16:13:14  3.6   83   757 
 2020-11-06 16:08:10  3.6   83   757 
 2020-11-06 16:03:06  3.8   83   757 
 2020-11-06 15:58:02  3.8   84   757 
 2020-11-06 15:52:58  3.7   83   757 
 2020-11-06 15:47:54  3.6   84   757 
 2020-11-06 15:42:50  3.7   83   757 
 2020-11-06 15:37:46  3.6   84   757 
 2020-11-06 15:32:42  3.4   84   757 
 2020-11-06 15:27:38  3.5   83   757 
 2020-11-06 15:22:34  3.6   82   758 
 2020-11-06 15:17:30  3.8   82   758 
 2020-11-06 15:12:25  3.7   83   758 
 2020-11-06 15:07:21  3.7   83   758 
 2020-11-06 15:02:17  3.9   82   758 
 2020-11-06 14:57:13  4.0   81   758 
 2020-11-06 14:47:05  4.1   83   758 
 2020-11-06 14:42:01  3.9   81   758 
 2020-11-06 14:36:57  3.9   82   758 
 2020-11-06 14:31:53  3.8   83   758 
 2020-11-06 14:26:49  3.8   82   758 
 2020-11-06 14:21:45  3.8   83   758 
 2020-11-06 14:16:41  3.9   82   757 
 2020-11-06 14:11:37  4.1   82   757 
 2020-11-06 14:06:33  4.1   83   757 
 2020-11-06 14:01:29  4.1   82   758 
 2020-11-06 13:56:25  4.1   82   758 
 2020-11-06 13:51:21  4.1   82   758 
 2020-11-06 13:46:17  3.9   82   758 
 2020-11-06 13:41:13  4.0   83   758 
 2020-11-06 13:36:09  3.8   83   758 
 2020-11-06 13:31:05  3.9   82   758 
 2020-11-06 13:26:01  3.8   83   758 
 2020-11-06 13:20:56  3.5   84   758 
 2020-11-06 13:15:52  3.5   83   758 
 2020-11-06 13:10:48  3.7   81   758 
 2020-11-06 13:05:44  3.7   82   758 
 2020-11-06 13:00:40  3.8   81   758 
 2020-11-06 12:55:36  4.0   81   758 
 2020-11-06 12:50:32  3.9   81   758 
 2020-11-06 12:45:28  4.0   81   758 
 2020-11-06 12:40:24  3.9   82   758 
 2020-11-06 12:35:20  4.1   81   758 
 2020-11-06 12:30:16  3.8   82   758 
 2020-11-06 12:25:12  3.6   84   758 
 2020-11-06 12:20:08  3.4   83   758 
 2020-11-06 12:15:04  3.2   83   758 
 2020-11-06 12:10:00  3.2   83   758 
 2020-11-06 12:04:56  3.1   84   758 
 2020-11-06 11:59:52  2.9   84   758 
 2020-11-06 11:54:48  3.1   83   758 
 2020-11-06 11:49:44  3.2   82   758 
 2020-11-06 11:44:40  3.5   84   758 
 2020-11-06 11:39:35  3.4   84   758 
 2020-11-06 11:34:31  3.3   84   758 
 2020-11-06 11:29:27  3.2   85   758 
 2020-11-06 11:24:23  3.0   85   758 
 2020-11-06 11:19:19  2.9   86   758 
 2020-11-06 11:14:15  2.8   85   758 
 2020-11-06 11:09:11  2.8   86   758 
 2020-11-06 11:04:07  2.6   86   758 
 2020-11-06 10:59:03  2.6   87   758 
 2020-11-06 10:53:59  2.4   87   758 
 2020-11-06 10:48:55  2.2   88   758 
 2020-11-06 10:43:51  2.2   87   758 
 2020-11-06 10:38:47  2.2   89   758 
 2020-11-06 10:33:43  1.9   89   758 
 2020-11-06 10:28:39  1.8   89   758 
 2020-11-06 10:23:35  1.8   89   758 
 2020-11-06 10:18:31  1.6   89   758 
 2020-11-06 10:13:27  1.6   90   758 
 2020-11-06 10:08:23  1.4   90   758 
 2020-11-06 10:03:19  1.2   89   758 
 2020-11-06 09:58:15  1.2   89   758 
 2020-11-06 09:53:10  1.1   88   758 
 2020-11-06 09:48:06  1.1   89   758 
 2020-11-06 09:43:02  1.1   88   758 
 2020-11-06 09:37:58  1.1   90   758 
 2020-11-06 09:32:54  1.0   89   758 
 2020-11-06 09:27:50  0.9   90   758 
 2020-11-06 09:22:46  0.8   88   758 
 2020-11-06 09:17:42  1.0   90   758 
 2020-11-06 09:12:38  1.1   91   758 
 2020-11-06 09:07:34  0.9   91   758 
 2020-11-06 09:02:30  0.8   91   758 
 2020-11-06 08:57:25  0.8   90   757 
 2020-11-06 08:52:21  0.9   92   757 
 2020-11-06 08:47:17  0.8   91   757 
 2020-11-06 08:42:13  0.8   91   757 
 2020-11-06 08:37:09  0.6   91   757 
 2020-11-06 08:32:05  0.6   89   757 
 2020-11-06 08:27:01  0.4   90   757 
 2020-11-06 08:21:56  0.6   90   757 
 2020-11-06 08:16:52  0.6   91   757 
 2020-11-06 08:11:48  0.6   89   757 
 2020-11-06 08:06:44  0.5   91   757 
 2020-11-06 08:01:40  0.5   90   757 
 2020-11-06 07:56:36  0.5   90   757 
 2020-11-06 07:51:32  0.6   90   757 
 2020-11-06 07:46:28  0.7   91   757 
 2020-11-06 07:41:24  0.6   92   757 
 2020-11-06 07:36:19  0.4   92   757 
 2020-11-06 07:31:15  0.3   92   757 
 2020-11-06 07:26:11  0.2   93   757 
 2020-11-06 07:21:07  0.1   93   757 
 2020-11-06 07:16:03  0.0   93   757 
 2020-11-06 07:10:59  0.0   92   757 
 2020-11-06 07:05:55  0.1   93   757 
 2020-11-06 07:00:51  0.1   93   757 
 2020-11-06 06:55:47  0.0   93   757 
 2020-11-06 06:50:43  0.1   93   757 
 2020-11-06 06:45:39  0.2   93   757 
 2020-11-06 06:40:35  0.2   93   757 
 2020-11-06 06:35:31  0.2   93   757 
 2020-11-06 06:30:27  0.5   92   757 
 2020-11-06 06:25:22  0.8   92   757 
 2020-11-06 06:20:18  0.6   92   757 
 2020-11-06 06:15:14  0.4   92   757 
 2020-11-06 06:10:10  0.5   92   756 
 2020-11-06 06:05:06  0.5   92   756 
 2020-11-06 06:00:02  0.4   92   756 
 2020-11-06 05:54:58  0.3   92   756 
 2020-11-06 05:49:53  0.1   91   756 
 2020-11-06 05:44:49  0.2   92   756 
 2020-11-06 05:39:45  0.3   92   756 
 2020-11-06 05:34:41  0.4   93   756 
 2020-11-06 05:29:37  0.5   93   756 
 2020-11-06 05:24:33  0.6   93   756 
 2020-11-06 05:19:29  0.5   93   756 
 2020-11-06 05:14:24  0.5   93   756 
 2020-11-06 05:09:20  0.6   93   756 
 2020-11-06 05:04:16  0.6   93   756 
 2020-11-06 04:59:12  0.4   92   756 
 2020-11-06 04:54:08  0.6   93   756 
 2020-11-06 04:49:04  0.4   93   756 
 2020-11-06 04:44:00  0.4   92   755 
 2020-11-06 04:38:56  0.6   92   755 
 2020-11-06 04:33:51  0.6   93   755 
 2020-11-06 04:28:47  0.6   93   755 
 2020-11-06 04:23:43  0.6   93   755 
 2020-11-06 04:18:39  0.7   93   755 
 2020-11-06 04:13:35  0.6   93   755 
 2020-11-06 04:08:31  0.6   92   755 
 2020-11-06 04:03:27  0.7   92   755 
 2020-11-06 03:58:23  0.7   92   755 
 2020-11-06 03:53:18  0.7   92   755 
 2020-11-06 03:48:14  0.8   92   755 
 2020-11-06 03:43:10  0.8   92   755 
 2020-11-06 03:38:06  0.8   92   755 
 2020-11-06 03:33:02  0.9   92   755 
 2020-11-06 03:27:58  1.0   92   754 
 2020-11-06 03:22:54  1.0   92   754 
 2020-11-06 03:17:49  1.0   92   754 
 2020-11-06 03:12:45  1.2   92   754 
 2020-11-06 03:07:41  1.3   92   754 
 2020-11-06 03:02:37  1.3   92   754 
 2020-11-06 02:57:33  1.2   92   754 
 2020-11-06 02:52:29  1.3   92   754 
 2020-11-06 02:47:25  1.3   92   754 
 2020-11-06 02:42:21  1.3   92   754 
 2020-11-06 02:37:16  1.3   92   754 
 2020-11-06 02:32:12  1.3   92   754 
 2020-11-06 02:27:08  1.2   92   754 
 2020-11-06 02:22:04  1.2   93   753 
 2020-11-06 02:17:00  1.2   93   753 
 2020-11-06 02:11:56  1.3   92   753 
 2020-11-06 02:06:52  1.3   92   753 
 2020-11-06 02:01:47  1.4   91   753 
 2020-11-06 01:56:43  1.4   91   753 
 2020-11-06 01:51:39  1.4   92   753 
 2020-11-06 01:46:35  1.4   91   753 
 2020-11-06 01:41:31  1.4   91   753 
 2020-11-06 01:36:27  1.4   91   753 
 2020-11-06 01:31:23  1.4   91   753 
 2020-11-06 01:26:19  1.2   91   753 
 2020-11-06 01:21:15  1.3   91   753 
 2020-11-06 01:16:10  1.3   91   752 
 2020-11-06 01:11:06  1.4   90   752 
 2020-11-06 01:06:02  1.7   88   752 
 2020-11-06 01:00:58  2.1   86   752 
 2020-11-06 00:55:54  2.6   86   752 
 2020-11-06 00:50:50  2.6   85   752 
 2020-11-06 00:45:46  2.5   86   752 
 2020-11-06 00:40:42  2.6   86   752 
 2020-11-06 00:35:38  2.4   86   752 
 2020-11-06 00:30:34  2.4   86   752 
 2020-11-06 00:25:30  2.4   87   752 
 2020-11-06 00:20:26  2.3   87   752 
 2020-11-06 00:15:22  2.3   87   751 
 2020-11-06 00:10:18  2.4   86   751 
 2020-11-06 00:05:14  2.4   86   751 
 2020-11-06 00:00:10  2.4   86   751 
 2020-11-05 23:55:06  2.4   86   751 
 2020-11-05 23:50:02  2.4   86   751 
 2020-11-05 23:44:58  2.4   86   751 
 2020-11-05 23:39:54  2.4   86   751 
 2020-11-05 23:34:49  2.4   86   751 
 2020-11-05 23:29:45  2.4   86   751 
 2020-11-05 23:24:41  2.4   87   751 
 2020-11-04 19:07:04  -0.4   79   753 
 2020-11-04 19:02:00  -0.4   79   753 
 2020-11-04 18:51:47  -0.4   79   754 
 2020-11-04 18:46:43  -0.5   79   753 
 2020-11-04 18:41:39  -0.6   79   754 
 2020-11-04 18:36:35  -0.4   79   754 
 2020-11-04 18:31:31  -0.5   79   754 
 2020-11-04 18:16:06  -0.6   80   754 
 2020-11-04 18:11:02  -0.6   79   754 
 2020-11-04 16:38:26  -1.1   81   755 
 2020-11-04 16:12:35  -1.2   82   755 
 2020-11-04 16:07:30  -1.2   82   755 
 2020-11-04 15:57:13  -1.1   82   756 
 2020-11-04 15:52:09  -1.2   81   756 
 2020-11-04 15:47:05  -1.1   80   756 
 2020-11-04 15:21:22  -0.8   77   756 
 2020-11-04 15:05:59  -0.8   78   756 
 2020-11-04 15:00:55  -0.9   78   756 
 2020-11-04 14:55:51  -0.8   78   756 
 2020-11-04 14:50:47  -0.8   76   756 
 2020-11-04 14:45:43  -0.6   75   756 
 2020-11-04 14:35:30  -0.8   75   756 
 2020-11-04 14:14:59  -0.9   74   757 
 2020-11-04 14:09:55  -0.9   75   757 
 2020-11-04 13:59:41  -1.0   76   757 
 2020-11-04 13:49:27  -1.0   75   757 
 2020-11-04 13:44:21  -1.0   76   757 
 2020-11-04 13:39:11  -1.0   76   757 
 2020-11-04 13:34:07  -1.1   77   757 
 2020-11-04 13:23:54  -1.1   78   757 
 2020-11-04 13:18:50  -1.1   77   757 
 2020-11-04 13:13:46  -1.3   77   757 
 2020-11-04 13:08:39  -1.3   76   757 
 2020-11-04 13:03:35  -1.2   75   757 
 2020-11-04 12:53:21  -1.3   75   757 
 2020-11-04 12:43:16  -1.4   75   757 
 2020-11-04 12:37:56  -1.4   76   757 
 2020-11-04 12:32:52  -1.4   76   758 
 2020-11-04 12:27:48  -1.4   77   758 
 2020-11-04 12:22:43  -1.5   76   758 
 2020-11-04 12:17:37  -1.6   77   758 
 2020-11-04 12:12:30  -1.6   78   758 
 2020-11-04 12:07:26  -1.6   78   758 
 2020-11-04 12:02:19  -1.4   79   758 
 2020-11-04 11:57:15  -1.4   78   758 
 2020-11-04 11:52:11  -1.7   79   758 
 2020-11-04 11:47:04  -1.8   78   758 
 2020-11-04 11:42:00  -1.7   78   758 
 2020-11-04 11:36:50  -1.6   75   758 
 2020-11-04 11:31:46  -1.5   74   758 
 2020-11-04 11:26:42  -1.5   74   758 
 2020-11-04 11:21:38  -1.6   73   758 
 2020-11-04 11:16:34  -1.5   73   758 
 2020-11-04 11:11:30  -1.6   74   758 
 2020-11-04 11:06:24  -1.8   74   758 
 2020-11-04 10:56:05  -1.8   74   758 
 2020-11-04 10:51:01  -1.8   75   758 
 2020-11-04 10:45:55  -1.8   75   758 
 2020-11-04 10:40:48  -1.8   76   758 
 2020-11-04 10:35:44  -1.9   75   758 
 2020-11-04 10:30:37  -1.9   75   758 
 2020-11-04 10:20:25  -2.0   77   758 
 2020-11-04 10:15:18  -2.2   77   758 
 2020-11-04 10:10:14  -2.3   77   758 
 2020-11-04 10:05:08  -2.3   77   758 
 2020-11-04 10:00:04  -2.4   77   758 
 2020-11-04 09:54:59  -2.3   76   758 
 2020-11-04 09:49:55  -2.3   77   758 
 2020-11-04 09:44:51  -2.3   77   758 
 2020-11-04 09:39:46  -2.2   77   758 
 2020-11-04 09:34:39  -2.2   78   758 
 2020-11-04 09:24:26  -2.1   78   758 
 2020-11-04 09:14:13  -2.1   79   758 
 2020-11-04 09:03:59  -2.2   79   758 
 2020-11-04 08:53:45  -2.1   79   758 
 2020-11-04 08:48:41  -2.0   79   758 
 2020-11-04 08:43:37  -2.0   80   758 
 2020-11-04 08:33:24  -1.9   81   758 
 2020-11-04 08:18:02  -1.8   81   758 
 2020-11-04 08:07:49  -1.5   83   758 
 2020-11-04 08:02:45  -1.4   81   758 
 2020-11-04 07:57:39  -1.4   81   758 
 2020-11-04 07:52:32  -1.4   81   758 
 2020-11-04 07:47:28  -1.4   81   758 
 2020-11-04 07:42:23  -1.4   81   758 
 2020-11-04 07:37:18  -1.4   81   758 
 2020-11-04 07:32:14  -1.4   81   758 
 2020-11-04 07:27:09  -1.4   80   758 
 2020-11-04 07:22:05  -1.4   80   758 
 2020-11-04 07:17:00  -1.4   79   758 
 2020-11-04 07:11:55  -1.3   79   758 
 2020-11-04 07:06:50  -1.4   79   758 
 2020-11-04 07:01:44  -1.2   79   758 
 2020-11-04 06:56:40  -1.3   79   758 
 2020-11-04 06:51:36  -1.3   79   758 
 2020-11-04 06:46:32  -1.3   79   758 
 2020-11-04 06:41:28  -1.3   79   758 
 2020-11-04 06:36:24  -1.2   78   758 
 2020-11-04 06:31:20  -1.2   78   758 
 2020-11-04 06:26:16  -1.3   78   758 
 2020-11-04 06:21:12  -1.3   79   758 
 2020-11-04 06:16:08  -1.3   79   758 
 2020-11-04 06:11:04  -1.3   78   758 
 2020-11-04 06:05:59  -1.3   79   758 
 2020-11-04 06:00:55  -1.4   78   758 
 2020-11-04 05:55:51  -1.4   79   758 
 2020-11-04 05:50:47  -1.2   78   758 
 2020-11-04 05:45:43  -1.2   80   758 
 2020-11-04 05:40:39  -1.2   79   758 
 2020-11-04 05:35:35  -1.2   79   758 
 2020-11-04 05:30:31  -1.2   79   758 
 2020-11-04 05:25:27  -1.2   80   758 
 2020-11-04 05:20:23  -1.2   78   758 
 2020-11-04 05:15:19  -1.1   79   758 
 2020-11-04 05:10:15  -1.1   79   758 
 2020-11-04 05:05:11  -1.0   77   758 
 2020-11-04 05:00:07  -0.9   76   758 
 2020-11-04 04:55:03  -0.8   79   758 
 2020-11-04 04:49:59  -0.6   82   758 
 2020-11-04 04:44:55  -0.6   82   758 
 2020-11-04 04:39:51  -0.6   82   758 
 2020-11-04 04:34:46  -0.7   82   758 
 2020-11-04 04:24:33  -0.5   86   758 
 2020-11-04 04:19:29  -0.4   86   758 
 2020-11-04 04:14:25  -0.4   86   758 
 2020-11-04 04:09:21  -0.4   86   758 
 2020-11-04 04:04:17  -0.4   85   758 
 2020-11-04 03:59:13  -0.3   86   758 
 2020-11-04 03:54:09  -0.4   86   758 
 2020-11-04 03:49:05  -0.4   86   758 
 2020-11-04 03:44:01  -0.4   86   758 
 2020-11-04 03:38:57  -0.4   86   758 
 2020-11-04 03:33:53  -0.4   87   758 
 2020-11-04 03:28:46  -0.4   87   758 
 2020-11-04 03:23:42  -0.2   87   758 
 2020-11-04 03:18:38  -0.2   87   758 
 2020-11-04 03:13:33  -0.2   87   758 
 2020-11-04 03:08:29  -0.2   87   758 
 2020-11-04 03:03:22  -0.1   86   758 
 2020-11-04 02:53:09  -0.2   86   758 
 2020-11-04 02:48:05  -0.2   86   758 
 2020-11-04 02:43:01  -0.1   85   758 
 2020-11-04 02:37:57  -0.2   85   758 
 2020-11-04 02:32:53  -0.1   85   758 
 2020-11-04 02:27:49  -0.1   84   758 
 2020-11-04 02:22:45  0.0   85   758 
 2020-11-04 02:17:38  -0.1   85   758 
 2020-11-04 02:12:34  -0.1   85   758 
 2020-11-04 02:07:30  -0.1   85   758 
 2020-11-04 02:02:26  -0.1   85   758 
 2020-11-04 01:57:22  -0.2   86   758 
 2020-11-04 01:52:18  -0.2   85   758 
 2020-11-04 01:47:14  -0.2   86   758 
 2020-11-04 01:42:10  -0.2   86   758 
 2020-11-04 01:37:06  -0.1   86   758 
 2020-11-04 01:32:02  -0.2   87   758 
 2020-11-04 01:26:58  -0.1   87   758 
 2020-11-04 01:21:54  -0.2   87   758 
 2020-11-04 01:16:50  -0.1   86   758 
 2020-11-04 01:06:36  0.1   85   758 
 2020-11-04 01:01:30  0.1   84   758 
 2020-11-04 00:56:23  0.0   85   758 
 2020-11-04 00:51:19  0.1   84   758 
 2020-11-04 00:46:15  0.1   84   758 
 2020-11-04 00:41:11  0.0   85   758 
 2020-11-04 00:36:07  -0.1   84   758 
 2020-11-04 00:31:03  0.0   85   758 
 2020-11-04 00:25:59  0.0   85   758 
 2020-11-04 00:20:55  0.0   84   758 
 2020-11-04 00:15:51  0.1   84   758 
 2020-11-04 00:10:47  0.1   84   758 
 2020-11-04 00:05:43  0.0   84   758 
 2020-11-04 00:00:38  0.1   84   758 
 2020-11-03 23:55:34  -0.1   84   758 
 2020-11-03 23:50:30  0.1   84   758 
 2020-11-03 23:45:23  0.0   84   758 
 2020-11-03 23:40:19  0.0   84   758 
 2020-11-03 23:35:12  0.1   84   758 
 2020-11-03 23:30:08  0.0   84   758 
 2020-11-03 23:25:04  0.1   84   759 
 2020-11-03 23:20:00  -0.1   84   759 
 2020-11-03 23:14:56  -0.2   84   759 
 2020-11-03 23:09:52  0.1   83   759 
 2020-11-03 23:04:47  0.0   83   759 
 2020-11-03 22:59:43  0.0   83   759 
 2020-11-03 22:54:39  0.0   84   759 
 2020-11-03 22:49:35  -0.1   84   759 
 2020-11-03 22:44:31  -0.1   83   759 
 2020-11-03 22:39:27  0.0   83   759 
 2020-11-03 22:34:22  0.1   83   759 
 2020-11-03 22:29:18  0.1   82   759 
 2020-11-03 22:24:14  0.1   83   759 
 2020-11-03 22:19:10  0.1   83   759 
 2020-11-03 22:14:06  -0.1   83   759 
 2020-11-03 22:09:02  -0.1   83   759 
 2020-11-03 22:03:54  -0.1   83   759 
 2020-11-03 21:58:50  -0.1   82   759 
 2020-11-03 21:53:43  -0.1   82   759 
 2020-11-03 21:48:39  -0.1   82   759 
 2020-11-03 21:43:34  0.0   81   759 
 2020-11-03 21:38:30  0.1   81   759 
 2020-11-03 21:33:26  0.1   81   759 
 2020-11-03 21:28:22  0.0   82   759 
 2020-11-03 21:23:18  0.1   81   759 
 2020-11-03 21:18:14  0.0   81   759 
 2020-11-03 21:13:10  0.1   81   759 
 2020-11-03 21:08:06  0.1   81   759 
 2020-11-03 21:03:02  0.1   81   759 
 2020-11-03 20:57:56  0.1   81   759 
 2020-11-03 20:52:52  0.1   80   759 
 2020-11-03 20:47:44  0.2   80   759 
 2020-11-03 20:42:40  0.2   80   759 
 2020-11-03 20:37:33  0.2   80   759 
 2020-11-03 20:32:29  0.2   80   759 
 2020-11-03 20:27:25  0.1   80   759 
 2020-11-03 20:22:21  0.1   80   759 
 2020-11-03 20:17:17  0.1   80   759 
 2020-11-03 20:12:13  0.1   80   759 
 2020-11-03 20:07:09  0.1   81   759 
 2020-11-03 20:02:05  0.2   80   759 
 2020-11-03 19:57:00  0.2   80   759 
 2020-11-03 19:51:53  0.1   80   759 
 2020-11-03 19:46:46  0.2   80   759 
 2020-11-03 19:36:30  0.2   79   759 
 2020-11-03 19:31:25  0.2   80   759 
 2020-11-03 19:21:12  0.2   80   759 
 2020-11-03 19:16:08  0.2   80   759 
 2020-11-03 19:11:04  0.2   80   759 
 2020-11-03 19:06:00  0.2   79   759 
 2020-11-03 19:00:56  0.2   79   759 
 2020-11-03 18:55:52  0.2   78   759 
 2020-11-03 18:50:48  0.3   79   759 
 2020-11-03 18:45:44  0.2   79   759 
 2020-11-03 18:40:40  0.3   78   759 
 2020-11-03 18:35:28  0.2   78   759 
 2020-11-03 18:30:24  0.3   79   759 
 2020-11-03 18:15:01  0.3   77   759 
 2020-11-03 18:09:57  0.3   77   759 
 2020-11-03 18:04:53  0.4   77   759 
 2020-11-03 17:59:49  0.4   76   759 
 2020-11-03 17:54:44  0.5   76   759 
 2020-11-03 17:49:40  0.5   76   759 
 2020-11-03 17:44:36  0.5   75   759 
 2020-11-03 17:39:32  0.6   75   759 
 2020-11-03 17:34:28  0.4   76   759 
 2020-11-03 17:29:24  0.6   76   759 
 2020-11-03 17:24:19  0.7   75   759 
 2020-11-03 17:19:15  0.8   74   759 
 2020-11-03 16:53:33  0.9   72   759 
 2020-11-03 16:48:29  0.9   72   759 
 2020-11-03 16:43:22  0.9   71   759 
 2020-11-03 16:38:18  0.9   72   759 
 2020-11-03 16:33:13  0.9   72   759 
 2020-11-03 16:28:06  0.8   72   759 
 2020-11-03 16:23:02  0.9   72   759 
 2020-11-03 16:17:58  1.0   71   759 
 2020-11-03 15:52:18  1.0   71   759 
 2020-11-03 15:47:14  1.1   71   759 
 2020-11-03 15:42:10  1.1   70   759 
 2020-11-03 15:37:06  1.1   70   759 
 2020-11-03 15:32:02  1.1   71   759 
 2020-11-03 15:26:58  1.1   71   759 
 2020-11-03 15:21:54  1.1   71   759 
 2020-11-03 15:16:50  1.1   72   759 
 2020-11-03 15:11:45  1.1   70   759 
 2020-11-03 15:06:38  1.1   70   759 
 2020-11-03 15:01:34  1.0   70   759 
 2020-11-03 14:56:30  1.0   70   759 
 2020-11-03 14:51:26  1.2   70   759 
 2020-11-03 14:41:13  1.2   70   759 
 2020-11-03 14:36:09  1.1   71   759 
 2020-11-03 14:31:05  1.2   71   759 
 2020-11-03 14:26:01  1.2   72   759 
 2020-11-03 14:20:57  1.2   72   759 
 2020-11-03 14:15:53  1.2   73   759 
 2020-11-03 14:10:49  1.0   73   759 
 2020-11-03 14:05:45  1.1   73   759 
 2020-11-03 14:00:41  1.1   71   759 
 2020-11-03 13:55:37  1.2   74   759 
 2020-11-03 13:50:33  1.1   74   759 
 2020-11-03 13:45:28  1.1   74   759 
 2020-11-03 13:40:24  1.1   73   759 
 2020-11-03 13:35:20  1.0   75   759 
 2020-11-03 13:30:16  1.0   74   759 
 2020-11-03 13:25:12  0.9   75   759 
 2020-11-03 13:20:08  0.9   74   759 
 2020-11-03 13:15:03  1.0   74   760 
 2020-11-03 13:09:59  0.9   74   760 
 2020-11-03 13:04:55  0.8   75   760 
 2020-11-03 12:59:51  0.8   75   759 
 2020-11-03 12:54:46  0.8   76   760 
 2020-11-03 12:49:42  0.9   76   760 
 2020-11-03 12:44:38  0.8   75   760 
 2020-11-03 12:39:34  0.8   76   760 
 2020-11-03 12:34:30  0.9   74   760 
 2020-11-03 12:29:26  0.9   75   760 
 2020-11-03 12:24:22  0.8   75   760 
 2020-11-03 12:19:18  0.7   75   760 
 2020-11-03 12:14:14  0.6   76   760 
 2020-11-03 12:09:10  0.8   75   760 
 2020-11-03 11:58:58  0.6   76   760 
 2020-11-03 11:53:53  0.5   75   760 
 2020-11-03 11:48:49  0.6   76   760 
 2020-11-03 11:43:45  0.5   77   760 
 2020-11-03 11:38:41  0.6   77   760 
 2020-11-03 11:33:37  0.4   77   760 
 2020-11-03 11:28:33  0.4   78   760 
 2020-11-03 11:23:29  0.4   78   760 
 2020-11-03 11:18:25  0.3   79   760 
 2020-11-03 11:13:21  0.3   79   760 
 2020-11-03 11:08:17  0.2   79   760 
 2020-11-03 11:03:13  0.2   78   760 
 2020-11-03 10:58:09  0.1   79   760 
 2020-11-03 10:53:05  0.1   79   760 
 2020-11-03 10:48:01  0.2   79   760 
 2020-11-03 10:42:56  0.2   79   760 
 2020-11-03 10:37:52  0.1   79   760 
 2020-11-03 10:32:48  0.1   79   760 
 2020-11-03 10:27:44  -0.1   80   760 
 2020-11-03 10:22:38  0.0   79   760 
 2020-11-03 10:17:34  0.1   79   760 
 2020-11-03 10:12:28  0.1   79   760 
 2020-11-03 10:07:24  0.0   80   760 
 2020-11-03 10:02:20  0.1   80   760 
 2020-11-03 09:57:15  0.1   80   760 
 2020-11-03 09:52:11  0.1   80   760 
 2020-11-03 09:47:07  -0.1   80   760 
 2020-11-03 09:42:03  -0.1   80   760 
 2020-11-03 09:36:59  -0.1   80   760 
 2020-11-03 09:31:53  -0.1   80   760 
 2020-11-03 09:26:49  0.0   79   760 
 2020-11-03 09:21:44  0.0   79   760 
 2020-11-03 09:16:40  -0.1   79   760 
 2020-11-03 09:11:35  -0.2   79   760 
 2020-11-03 09:06:30  -0.2   78   760 
 2020-11-03 09:01:26  -0.2   78   760 
 2020-11-03 08:56:22  -0.2   78   760 
 2020-11-03 08:51:18  -0.4   79   760 
 2020-11-03 08:46:14  -0.4   79   760 
 2020-11-03 08:41:08  -0.4   79   760 
 2020-11-03 08:36:03  -0.3   79   760 
 2020-11-03 08:30:57  -0.3   79   760 
 2020-11-03 08:25:53  -0.3   80   760 
 2020-11-03 08:20:49  -0.1   79   760 
 2020-11-03 08:15:44  -0.2   79   760 
 2020-11-03 08:10:40  -0.1   79   760 
 2020-11-03 08:05:36  -0.1   79   760 
 2020-11-03 08:00:32  -0.2   80   760 
 2020-11-03 07:55:27  -0.2   80   760 
 2020-11-03 07:50:23  -0.2   80   760 
 2020-11-03 07:45:19  -0.1   80   760 
 2020-11-03 07:40:15  -0.1   79   760 
 2020-11-03 07:35:11  -0.1   79   760 
 2020-11-03 07:30:07  -0.1   81   760 
 2020-11-03 07:25:03  -0.1   81   760 
 2020-11-03 07:19:59  0.0   81   760 
 2020-11-03 07:14:55  0.1   82   760 
 2020-11-03 07:09:50  0.1   82   760 
 2020-11-03 07:04:44  0.0   83   760 
 2020-11-03 06:59:40  0.0   83   760 
 2020-11-03 06:54:36  0.1   82   760 
 2020-11-03 06:49:32  0.1   82   760 
 2020-11-03 06:44:28  0.1   81   760 
 2020-11-03 06:39:24  0.1   80   760 
 2020-11-03 06:34:20  0.1   81   760 
 2020-11-03 06:29:15  0.1   81   760 
 2020-11-03 06:24:11  0.1   81   760 
 2020-11-03 06:19:05  -0.1   81   760 
 2020-11-03 06:14:00  0.0   81   760 
 2020-11-03 06:08:56  0.0   81   760 
 2020-11-03 06:03:52  0.1   80   760 
 2020-11-03 05:58:48  0.2   80   760 
 2020-11-03 05:53:44  0.2   80   760 
 2020-11-03 05:48:40  0.2   79   760 
 2020-11-03 05:43:36  0.2   79   760 
 2020-11-03 05:38:32  0.2   80   760 
 2020-11-03 05:33:28  0.1   80   760 
 2020-11-03 05:28:23  0.1   81   760 
 2020-11-03 05:23:19  0.0   80   760 
 2020-11-03 05:18:15  -0.1   81   760 
 2020-11-03 05:13:09  -0.1   82   760 
 2020-11-03 05:08:05  -0.1   83   760 
 2020-11-03 05:03:01  -0.2   83   760 
 2020-11-03 04:57:57  -0.2   82   760 
 2020-11-03 04:52:53  -0.1   82   760 
 2020-11-03 04:47:49  -0.1   82   760 
 2020-11-03 04:42:44  -0.2   82   760 
 2020-11-03 04:37:40  -0.2   81   760 
 2020-11-03 04:32:36  -0.2   81   760 
 2020-11-03 04:27:31  -0.2   81   760 
 2020-11-03 04:22:26  -0.1   81   760 
 2020-11-03 04:17:22  -0.1   81   760 
 2020-11-03 04:12:18  -0.1   81   760 
 2020-11-03 04:07:12  -0.2   81   760 
 2020-11-03 04:02:08  -0.2   82   760 
 2020-11-03 03:51:55  -0.1   82   760 
 2020-11-03 03:46:51  0.1   81   760 
 2020-11-03 03:41:47  0.1   80   760 
 2020-11-03 03:36:42  -0.1   79   760 
 2020-11-03 03:31:38  0.0   78   760 
 2020-11-03 03:26:34  0.1   78   760 
 2020-11-03 03:21:29  0.1   79   760 
 2020-11-03 03:16:24  0.0   80   760 
 2020-11-03 03:11:19  0.0   81   760 
 2020-11-03 03:06:11  0.0   81   760 
 2020-11-03 03:01:07  -0.1   82   760 
 2020-11-03 02:56:03  -0.1   82   760 
 2020-11-03 02:50:59  0.0   82   760 
 2020-11-03 02:45:54  0.1   80   760 
 2020-11-03 02:40:49  0.1   80   760 
 2020-11-03 02:35:45  0.1   82   760 
 2020-11-03 02:30:41  0.1   82   760 
 2020-11-03 02:25:37  0.0   83   760 
 2020-11-03 02:20:32  0.0   83   760 
 2020-11-03 02:15:28  -0.1   83   760 
 2020-11-03 02:10:24  0.0   83   760 
 2020-11-03 02:05:15  0.1   83   760 
 2020-11-03 01:55:01  0.0   83   761 
 2020-11-03 01:49:57  0.0   83   761 
 2020-11-03 01:44:53  0.0   84   761 
 2020-11-03 01:39:48  -0.1   84   761 
 2020-11-03 01:34:43  0.0   83   761 
 2020-11-03 01:29:39  0.0   82   761 
 2020-11-03 01:24:34  -0.1   82   761 
 2020-11-03 01:19:30  0.1   81   761 
 2020-11-03 01:14:25  0.1   80   761 
 2020-11-03 01:09:21  0.2   80   761 
 2020-11-03 01:04:17  0.2   79   761 
 2020-11-03 00:59:13  0.2   78   761 
 2020-11-03 00:54:09  0.2   78   761 
 2020-11-03 00:49:04  0.0   78   761 
 2020-11-03 00:44:00  -0.1   77   761 
 2020-11-03 00:38:56  -0.1   78   761 
 2020-11-03 00:33:52  -0.1   78   761 
 2020-11-03 00:28:47  -0.2   79   761 
 2020-11-03 00:23:43  -0.2   80   761 
 2020-11-03 00:18:39  -0.1   81   761 
 2020-11-03 00:13:35  -0.1   82   761 
 2020-11-03 00:08:31  -0.1   83   761 
 2020-11-03 00:03:27  -0.2   83   761 
 2020-11-02 23:58:23  -0.1   84   761 
 2020-11-02 23:53:18  -0.1   85   761 
 2020-11-02 23:48:14  -0.1   84   761 
 2020-11-02 23:37:57  0.1   83   761 
 2020-11-02 23:32:53  0.1   82   761 
 2020-11-02 23:27:49  0.1   82   761 
 2020-11-02 23:22:45  0.1   82   761 
 2020-11-02 23:17:41  0.1   83   761 
 2020-11-02 23:12:36  0.1   84   761 
 2020-11-02 23:07:32  0.2   84   761 
 2020-11-02 23:02:28  0.3   83   761 
 2020-11-02 22:52:20  0.2   81   760 
 2020-11-02 22:47:16  0.4   80   760 
 2020-11-02 22:42:12  0.3   79   760 
 2020-11-02 22:37:08  0.5   79   760 
 2020-11-02 22:32:04  0.4   80   760 
 2020-11-02 22:27:00  0.5   80   760 
 2020-11-02 22:21:56  0.5   80   760 
 2020-11-02 22:16:52  0.6   78   760 
 2020-11-02 22:11:48  0.6   80   760 
 2020-11-02 22:06:44  0.6   79   760 
 2020-11-02 22:01:40  0.5   78   760 
 2020-11-02 21:56:36  0.5   79   760 
 2020-11-02 21:51:31  0.5   79   760 
 2020-11-02 21:46:27  0.5   79   760 
 2020-11-02 21:41:23  0.5   80   760 
 2020-11-02 21:36:18  0.4   78   760 
 2020-11-02 21:31:14  0.5   79   760 
 2020-11-02 21:26:10  0.4   79   760 
 2020-11-02 21:21:06  0.4   80   760 
 2020-11-02 21:16:02  0.4   79   760 
 2020-11-02 21:10:57  0.4   80   760 
 2020-11-02 21:05:53  0.4   80   760 
 2020-11-02 21:00:49  0.4   80   760 
 2020-11-02 20:55:45  0.4   79   760 
 2020-11-02 20:50:38  0.4   79   760 
 2020-11-02 20:45:33  0.2   79   760 
 2020-11-02 20:35:20  0.3   79   760 
 2020-11-02 20:25:07  0.4   80   760 
 2020-11-02 20:20:00  0.4   80   760 
 2020-11-02 20:14:56  0.4   80   760 
 2020-11-02 20:09:52  0.4   81   760 
 2020-11-02 20:04:48  0.3   81   760 
 2020-11-02 19:59:44  0.4   81   760 
 2020-11-02 19:54:39  0.4   81   759 
 2020-11-02 19:49:35  0.5   80   759 
 2020-11-02 19:44:31  0.4   81   759 
 2020-11-02 19:39:27  0.5   81   759 
 2020-11-02 19:34:21  0.5   81   759 
 2020-11-02 19:29:17  0.4   82   759 
 2020-11-02 19:24:13  0.4   81   759 
 2020-11-02 19:19:07  0.3   81   759 
 2020-11-02 19:14:03  0.3   81   759 
 2020-11-02 19:03:52  0.2   82   759 
 2020-11-02 18:58:47  0.2   82   759 
 2020-11-02 18:53:41  0.1   81   759 
 2020-11-02 18:48:37  0.2   80   759 
 2020-11-02 18:43:33  0.3   80   759 
 2020-11-02 18:38:28  0.2   80   759 
 2020-11-02 18:33:24  0.1   81   759 
 2020-11-02 18:28:20  0.2   79   759 
 2020-11-02 18:23:16  0.2   79   759 
 2020-11-02 18:18:12  0.3   78   759 
 2020-11-02 18:13:08  0.4   78   759 
 2020-11-02 18:08:03  0.4   78   759 
 2020-11-02 18:02:59  0.5   78   759 
 2020-11-02 17:57:55  0.5   78   759 
 2020-11-02 17:52:51  0.6   78   758 
 2020-11-02 17:47:47  0.6   77   758 
 2020-11-02 17:42:43  0.7   77   758 
 2020-11-02 17:37:39  0.8   77   758 
 2020-11-02 17:32:35  0.9   77   758 
 2020-11-02 17:27:31  0.9   77   758 
 2020-11-02 17:22:27  0.9   78   758 
 2020-11-02 17:17:23  1.0   79   758 
 2020-11-02 17:12:19  1.1   82   758 
 2020-11-02 17:07:09  1.3   83   758 
 2020-11-02 17:02:01  1.2   85   758 
 2020-11-02 16:56:57  1.3   84   758 
 2020-11-02 16:51:53  1.3   86   758 
 2020-11-02 16:46:49  1.2   85   758 
 2020-11-02 16:36:36  1.4   84   758 
 2020-11-02 16:31:32  1.8   81   758 
 2020-11-02 16:26:28  1.8   79   758 
 2020-11-02 16:21:24  1.8   79   758 
 2020-11-02 16:16:20  1.8   79   758 
 2020-11-02 16:06:07  1.9   77   757 
 2020-11-02 16:01:03  2.1   76   757 
 2020-11-02 15:55:59  2.3   75   757 
 2020-11-02 15:50:55  2.2   77   757 
 2020-11-02 15:45:51  2.2   79   757 
 2020-11-02 15:40:47  2.2   81   757 
 2020-11-02 15:35:43  2.2   82   757 
 2020-11-02 15:30:39  2.1   83   757 
 2020-11-02 15:25:35  2.1   84   757 
 2020-11-02 15:20:31  1.9   85   757 
 2020-11-02 15:10:18  2.1   83   757 
 2020-11-02 15:05:14  2.2   81   757 
 2020-11-02 15:00:10  2.1   81   757 
 2020-11-02 14:55:06  2.0   81   757 
 2020-11-02 14:44:52  2.2   77   757 
 2020-11-02 14:39:48  2.2   76   757 
 2020-11-02 14:34:44  2.2   76   757 
 2020-11-02 14:29:40  2.3   75   757 
 2020-11-02 14:24:36  2.2   76   757 
 2020-11-02 14:19:32  2.1   77   757 
 2020-11-02 14:14:28  2.1   77   757 
 2020-11-02 14:09:24  2.0   76   757 
 2020-11-02 14:04:20  2.0   79   757 
 2020-11-02 13:59:16  1.9   79   757 
 2020-11-02 13:54:11  1.6   80   756 
 2020-11-02 13:49:07  1.6   82   756 
 2020-11-02 12:16:32  2.5   89   756 
 2020-11-02 12:11:28  2.4   88   755 
 2020-11-02 12:06:24  2.5   89   755 
 2020-11-02 12:01:20  2.5   89   755 
 2020-11-02 11:56:16  2.4   89   755 
 2020-11-02 11:51:12  2.6   89   755 
 2020-11-02 11:46:07  2.5   89   755 
 2020-11-02 11:41:03  2.5   89   755 
 2020-11-02 11:35:59  2.6   89   755 
 2020-11-02 11:30:53  2.6   89   755 
 2020-11-02 11:25:49  2.6   89   755 
 2020-11-02 11:20:44  2.6   89   755 
 2020-11-02 11:15:40  2.5   89   755 
 2020-11-02 11:10:32  2.6   89   755 
 2020-11-02 11:05:26  2.5   89   755 
 2020-11-02 11:00:22  2.6   89   755 
 2020-11-02 10:50:08  2.7   89   755 
 2020-11-02 10:39:55  2.7   88   755 
 2020-11-02 10:34:51  2.8   88   755 
 2020-11-02 10:29:47  2.8   88   755 
 2020-11-02 10:24:43  2.9   87   755 
 2020-11-02 10:19:39  2.9   87   755 
 2020-11-02 10:14:35  2.9   87   755 
 2020-11-02 10:09:31  2.9   87   755 
 2020-11-02 09:59:17  2.8   87   755 
 2020-11-02 09:54:12  2.9   86   754 
 2020-11-02 09:49:05  3.0   86   754 
 2020-11-02 09:44:01  2.9   86   754 
 2020-11-02 09:38:56  3.0   85   754 
 2020-11-02 09:33:52  2.9   85   754 
 2020-11-02 09:28:48  3.0   85   755 
 2020-11-02 09:23:44  3.1   84   754 
 2020-11-02 09:18:40  3.2   83   754 
 2020-11-02 09:13:36  3.3   82   754 
 2020-11-02 09:08:32  3.2   82   754 
 2020-11-02 09:03:28  3.3   81   754 
 2020-11-02 08:58:24  3.2   81   754 
 2020-11-02 08:53:19  3.4   80   754 
 2020-11-02 08:48:15  3.3   80   754 
 2020-11-02 08:43:11  3.2   80   754 
 2020-11-02 08:38:07  3.3   80   754 
 2020-11-02 08:33:03  3.2   81   754 
 2020-11-02 08:27:59  3.2   80   754 
 2020-11-02 08:22:55  3.2   80   754 
 2020-11-02 08:17:51  3.2   81   754 
 2020-11-02 08:12:46  3.1   81   754 
 2020-11-02 08:07:42  3.2   81   754 
 2020-11-02 08:02:38  3.2   81   754 
 2020-11-02 07:57:34  3.2   81   754 
 2020-11-02 07:52:30  3.2   81   754 
 2020-11-02 07:47:26  3.1   81   754 
 2020-11-02 07:42:22  3.2   80   754 
 2020-11-02 07:37:17  3.2   80   754 
 2020-11-02 07:32:13  3.2   80   754 
 2020-11-02 07:27:09  3.3   80   754 
 2020-11-02 07:22:05  3.2   79   754 
 2020-11-02 07:17:01  3.3   79   754 
 2020-11-02 07:11:57  3.3   79   754 
 2020-11-02 07:06:53  3.3   78   754 
 2020-11-02 07:01:49  3.2   78   754 
 2020-11-02 06:56:45  3.3   78   754 
 2020-11-02 06:51:40  3.2   78   754 
 2020-11-02 06:46:36  3.2   77   754 
 2020-11-02 06:41:32  3.1   77   754 
 2020-11-02 06:36:28  3.1   76   754 
 2020-11-02 06:31:24  3.2   76   754 
 2020-11-02 06:26:20  3.2   76   754 
 2020-11-02 06:21:16  3.1   76   754 
 2020-11-02 06:16:12  3.1   76   754 
 2020-11-02 06:11:08  3.1   76   754 
 2020-11-02 06:06:04  3.1   76   754 
 2020-11-02 06:01:00  3.0   76   754 
 2020-11-02 05:55:56  3.1   76   754 
 2020-11-02 05:50:51  3.1   76   754 
 2020-11-02 05:45:47  3.0   76   754 
 2020-11-02 05:40:43  2.9   76   754 
 2020-11-02 05:35:39  3.0   76   754 
 2020-11-02 05:30:35  3.1   76   754 
 2020-11-02 05:25:31  3.1   76   754 
 2020-11-02 05:20:27  3.0   76   754 
 2020-11-02 05:15:23  3.0   76   754 
 2020-11-02 05:10:19  3.1   75   754 
 2020-11-02 05:05:15  3.1   75   754 
 2020-11-02 05:00:11  3.1   75   754 
 2020-11-02 04:55:07  3.1   75   754 
 2020-11-02 04:50:02  3.0   76   754 
 2020-11-02 04:44:58  2.9   76   754 
 2020-11-02 04:39:54  2.9   76   754 
 2020-11-02 04:34:50  2.9   76   754 
 2020-11-02 04:29:46  2.8   76   754 
 2020-11-02 04:24:42  2.8   76   754 
 2020-11-02 04:19:38  2.9   76   754 
 2020-11-02 04:14:34  2.9   76   754 
 2020-11-02 04:09:30  2.9   76   754 
 2020-11-02 04:04:26  2.8   76   755 
 2020-11-02 03:59:21  2.8   76   754 
 2020-11-02 03:54:17  2.8   76   755 
 2020-11-02 03:49:13  2.7   77   755 
 2020-11-02 03:44:09  2.8   77   755 
 2020-11-02 03:39:05  2.7   77   755 
 2020-11-02 03:34:01  2.6   77   754 
 2020-11-02 03:28:57  2.6   76   755 
 2020-11-02 03:23:53  2.6   77   755 
 2020-11-02 03:18:49  2.6   77   754 
 2020-11-02 03:13:45  2.5   77   755 
 2020-11-02 03:08:41  2.5   77   755 
 2020-11-02 03:03:36  2.5   76   755 
 2020-11-02 02:58:32  2.6   77   755 
 2020-11-02 02:53:28  2.6   76   755 
 2020-11-02 02:48:23  2.6   76   755 
 2020-11-02 02:43:19  2.6   76   755 
 2020-11-02 02:38:15  2.6   76   755 
 2020-11-02 02:33:11  2.7   76   755 
 2020-11-02 02:28:07  2.8   75   755 
 2020-11-02 02:23:03  2.8   75   755 
 2020-11-02 02:17:59  2.8   76   755 
 2020-11-02 02:12:54  2.8   75   755 
 2020-11-02 02:07:50  2.8   76   755 
 2020-11-02 02:02:46  2.8   76   755 
 2020-11-02 01:57:42  2.9   75   755 
 2020-11-02 01:52:38  2.8   75   755 
 2020-11-02 01:47:34  2.8   76   755 
 2020-11-02 01:42:30  2.8   75   755 
 2020-11-02 01:37:26  2.8   75   755 
 2020-11-02 01:32:22  2.8   76   755 
 2020-11-02 01:27:18  2.8   75   755 
 2020-11-02 01:22:14  2.8   76   755 
 2020-11-02 01:17:10  2.9   75   755 
 2020-11-02 01:12:06  2.8   76   755 
 2020-11-02 01:07:02  2.8   75   755 
 2020-11-02 01:01:58  2.8   76   755 
 2020-11-02 00:56:54  2.8   75   755 
 2020-11-02 00:51:50  2.9   75   755 
 2020-11-02 00:46:46  2.9   75   755 
 2020-11-02 00:41:42  2.9   75   755 
 2020-11-02 00:36:38  2.9   75   756 
 2020-11-02 00:31:34  2.9   75   756 
 2020-11-02 00:26:30  2.9   75   756 
 2020-11-02 00:21:26  2.9   75   756 
 2020-11-02 00:16:22  2.9   75   756 
 2020-11-02 00:11:18  3.0   75   756 
 2020-11-02 00:06:14  2.9   75   756 
 2020-11-02 00:01:09  2.8   75   756 
 2020-11-01 23:56:05  2.9   75   756 
 2020-11-01 23:51:01  2.8   75   756 
 2020-11-01 23:45:52  2.9   75   756 
 2020-11-01 23:40:48  2.9   75   756 
 2020-11-01 23:35:44  2.8   75   756 
 2020-11-01 23:30:40  2.8   75   756 
 2020-11-01 23:25:36  2.8   75   756 
 2020-11-01 23:20:32  2.9   75   756 
 2020-11-01 23:15:28  2.8   75   756 
 2020-11-01 23:10:24  2.9   76   756 
 2020-11-01 23:05:20  2.9   76   756 
 2020-11-01 23:00:16  2.8   75   756 
 2020-11-01 22:55:12  2.9   76   756 
 2020-11-01 22:50:08  2.9   76   756 
 2020-11-01 22:45:04  2.9   76   756 
 2020-11-01 22:39:59  2.8   76   756 
 2020-11-01 22:34:55  2.9   76   756 
 2020-11-01 22:29:51  2.9   76   756 
 2020-11-01 22:24:47  2.9   76   756 
 2020-11-01 22:19:43  2.8   76   756 
 2020-11-01 22:14:38  2.9   76   756 
 2020-11-01 22:09:33  2.9   76   756 
 2020-11-01 22:04:28  3.0   76   756 
 2020-11-01 21:59:24  3.1   75   756 
 2020-11-01 21:54:20  3.1   75   756 
 2020-11-01 21:49:16  3.1   76   756 
 2020-11-01 21:44:12  3.1   76   756 
 2020-11-01 21:39:08  3.0   76   756 
 2020-11-01 21:34:04  3.1   76   756 
 2020-11-01 21:28:59  3.1   76   756 
 2020-11-01 21:23:55  3.2   76   756 
 2020-11-01 21:18:51  3.2   76   756 
 2020-11-01 21:13:47  3.1   76   757 
 2020-11-01 21:08:43  3.1   76   756 
 2020-11-01 21:03:38  3.1   76   757 
 2020-11-01 20:58:34  3.1   76   756 
 2020-11-01 20:53:30  3.1   76   757 
 2020-11-01 20:48:26  3.1   76   757 
 2020-11-01 20:43:22  3.1   76   757 
 2020-11-01 20:38:18  3.1   76   757 
 2020-11-01 20:33:13  3.1   76   757 
 2020-11-01 20:28:10  3.1   77   757 
 2020-11-01 20:23:05  3.1   76   757 
 2020-11-01 20:18:01  3.1   76   757 
 2020-11-01 20:12:57  3.1   76   757 
 2020-11-01 20:07:53  3.1   76   757 
 2020-11-01 20:02:47  3.1   76   757 
 2020-11-01 19:57:43  3.1   76   757 
 2020-11-01 19:47:29  3.1   76   757 
 2020-11-01 19:42:25  3.1   76   757 
 2020-11-01 19:37:21  3.1   77   757 
 2020-11-01 19:32:17  3.2   76   757 
 2020-11-01 19:27:13  3.2   76   757 
 2020-11-01 19:22:09  3.2   76   757 
 2020-11-01 19:17:05  3.3   76   757 
 2020-11-01 19:12:01  3.1   77   757 
 2020-11-01 19:06:57  3.2   76   757 
 2020-11-01 19:01:51  3.4   76   757 
 2020-11-01 18:56:47  3.3   76   757 
 2020-11-01 18:51:43  3.3   76   757 
 2020-11-01 18:46:39  3.4   76   757 
 2020-11-01 18:41:35  3.4   76   757 
 2020-11-01 18:36:31  3.4   76   757 
 2020-11-01 18:31:25  3.4   76   757 
 2020-11-01 18:26:20  3.5   76   757 
 2020-11-01 18:21:16  3.4   76   757 
 2020-11-01 18:16:11  3.5   76   757 
 2020-11-01 18:11:07  3.5   76   757 
 2020-11-01 18:06:03  3.5   76   757 
 2020-11-01 18:00:59  3.4   76   757 
 2020-11-01 17:55:55  3.5   76   757 
 2020-11-01 17:50:51  3.4   76   757 
 2020-11-01 17:45:47  3.4   76   757 
 2020-11-01 17:40:43  3.4   76   758 
 2020-11-01 17:35:39  3.4   76   758 
 2020-11-01 17:30:34  3.6   75   758 
 2020-11-01 17:25:30  3.5   75   758 
 2020-11-01 17:20:26  3.6   75   758 
 2020-11-01 17:15:22  3.5   75   758 
 2020-11-01 17:10:18  3.6   75   758 
 2020-11-01 17:05:14  3.6   75   758 
 2020-11-01 17:00:10  3.7   75   758 
 2020-11-01 16:55:06  3.6   75   758 
 2020-11-01 16:50:01  3.8   75   758 
 2020-11-01 16:44:57  3.8   74   758 
 2020-11-01 16:39:53  3.8   74   758 
 2020-11-01 16:34:49  3.8   74   758 
 2020-11-01 16:29:45  3.9   74   758 
 2020-11-01 16:24:39  3.9   74   758 
 2020-11-01 16:19:33  3.8   74   758 
 2020-11-01 16:14:28  3.9   74   758 
 2020-11-01 16:09:24  3.9   73   758 
 2020-11-01 16:04:20  4.0   73   758 
 2020-11-01 15:59:16  4.1   73   758 
 2020-11-01 15:54:12  4.0   73   758 
 2020-11-01 15:49:08  4.1   73   758 
 2020-11-01 15:44:04  4.1   73   758 
 2020-11-01 15:39:00  4.1   73   758 
 2020-11-01 15:33:55  4.0   73   758 
 2020-11-01 15:28:51  4.0   73   758 
 2020-11-01 15:23:46  4.1   74   758 
 2020-11-01 15:18:42  4.0   74   758 
 2020-11-01 15:13:38  4.1   74   758 
 2020-11-01 15:08:34  4.1   74   758 
 2020-11-01 14:58:21  4.1   74   759 
 2020-11-01 14:53:16  4.2   74   759 
 2020-11-01 14:48:12  4.2   74   759 
 2020-11-01 14:43:08  4.2   74   759 
 2020-11-01 14:38:04  4.2   75   759 
 2020-11-01 14:33:00  4.2   74   759 
 2020-11-01 14:17:38  4.1   75   759 
 2020-11-01 14:12:33  4.1   75   759 
 2020-11-01 14:07:29  4.1   76   759 
 2020-11-01 14:02:25  4.0   76   759 
 2020-11-01 13:57:18  4.0   75   759 
 2020-11-01 13:52:14  4.1   75   759 
 2020-11-01 13:47:10  4.0   76   759 
 2020-11-01 13:42:06  3.9   76   759 
 2020-11-01 13:36:58  3.9   76   759 
 2020-11-01 13:31:53  3.8   76   759 
 2020-11-01 13:21:37  3.8   76   759 
 2020-11-01 13:16:33  3.7   78   759 
 2020-11-01 13:11:28  3.6   77   759 
 2020-11-01 13:06:24  3.6   77   759 
 2020-11-01 13:01:20  3.5   78   760 
 2020-11-01 12:56:16  3.6   77   759 
 2020-11-01 12:51:12  3.6   78   759 
 2020-11-01 12:46:08  3.6   77   760 
 2020-11-01 12:41:04  3.6   78   760 
 2020-11-01 12:36:00  3.5   78   760 
 2020-11-01 12:30:56  3.4   78   760 
 2020-11-01 12:25:52  3.4   78   760 
 2020-11-01 12:20:48  3.4   79   760 
 2020-11-01 12:15:44  3.3   79   760 
 2020-11-01 12:10:37  3.2   78   760 
 2020-11-01 12:05:33  3.1   79   760 
 2020-11-01 12:00:29  3.1   79   760 
 2020-11-01 11:55:25  3.0   79   760 
 2020-11-01 11:50:21  3.0   79   760 
 2020-11-01 11:45:17  3.0   79   760 
 2020-11-01 11:34:59  2.8   79   760 
 2020-11-01 11:29:55  2.8   79   760 
 2020-11-01 11:19:42  2.8   78   760 
 2020-11-01 11:14:38  2.8   79   760 
 2020-11-01 11:09:34  2.8   78   760 
 2020-11-01 11:04:30  2.8   78   760 
 2020-11-01 10:59:26  2.8   78   760 
 2020-11-01 10:54:20  2.8   78   760 
 2020-11-01 10:49:11  2.8   78   760 
 2020-11-01 10:44:07  2.8   77   760 
 2020-11-01 10:39:03  2.8   78   760 
 2020-11-01 10:33:58  2.8   79   760 
 2020-11-01 10:28:52  2.7   77   760 
 2020-11-01 10:23:44  2.8   77   760 
 2020-11-01 10:13:31  2.8   78   761 
 2020-11-01 10:03:18  2.7   77   761 
 2020-11-01 09:58:14  2.6   77   761 
 2020-11-01 09:53:10  2.6   77   760 
 2020-11-01 09:48:04  2.6   78   761 
 2020-11-01 09:43:00  2.6   78   761 
 2020-11-01 09:37:56  2.6   78   761 
 2020-11-01 09:32:51  2.6   78   761 
 2020-11-01 09:27:47  2.6   78   761 
 2020-11-01 09:22:41  2.5   78   761 
 2020-11-01 09:17:37  2.4   79   761 
 2020-11-01 09:12:33  2.5   79   761 
 2020-11-01 09:07:29  2.4   79   761 
 2020-11-01 09:02:24  2.3   80   761 
 2020-10-31 22:13:25  1.9   90   764 
 2020-10-31 21:58:03  1.9   89   764 
 2020-10-31 21:52:59  2.1   88   764 
 2020-10-31 21:22:12  2.1   89   764 
 2020-10-31 21:17:07  2.1   88   764 
 2020-10-31 21:12:03  2.1   88   764 
 2020-10-31 21:06:59  2.1   88   764 
 2020-10-31 21:01:55  2.2   88   764 
 2020-10-31 20:51:42  2.0   89   764 
 2020-10-31 20:46:38  2.0   89   764 
 2020-10-31 20:41:34  1.9   89   764 
 2020-10-31 20:31:21  2.0   88   764 
 2020-10-31 20:26:17  1.9   88   764 
 2020-10-31 20:21:12  1.9   88   764 
 2020-10-31 20:16:06  1.8   88   764 
 2020-10-31 20:11:02  1.9   89   764 
 2020-10-31 20:05:58  1.9   88   764 
 2020-10-31 20:00:54  1.8   88   764 
 2020-10-31 19:55:50  1.9   88   764 
 2020-10-31 19:40:28  1.8   88   764 
 2020-10-31 19:35:24  1.8   88   764 
 2020-10-31 19:25:10  1.8   88   764 
 2020-10-31 19:14:55  1.9   87   764 
 2020-10-31 19:09:50  2.0   87   764 
 2020-10-31 19:04:45  2.1   87   764 
 2020-10-31 18:59:41  2.1   87   764 
 2020-10-31 18:54:37  2.1   86   764 
 2020-10-31 18:49:33  2.1   86   764 
 2020-10-31 18:44:29  2.2   86   764 
 2020-10-31 18:39:25  2.1   86   764 
 2020-10-31 18:34:20  2.1   87   764 
 2020-10-31 18:29:16  2.2   86   764 
 2020-10-31 18:24:12  2.2   87   764 
 2020-10-31 18:19:07  2.1   87   764 
 2020-10-31 18:14:03  2.1   86   764 
 2020-10-31 18:08:59  2.1   86   764 
 2020-10-31 18:03:55  2.2   86   764 
 2020-10-31 17:58:51  2.1   86   764 
 2020-10-31 17:53:47  2.3   86   764 
 2020-10-31 17:48:43  2.2   86   764 
 2020-10-31 17:43:39  2.2   86   764 
 2020-10-31 17:38:35  2.3   86   764 
 2020-10-31 17:33:31  2.4   85   764 
 2020-10-31 17:28:27  2.5   84   764 
 2020-10-31 17:23:23  2.6   84   764 
 2020-10-31 17:18:19  2.6   84   764 
 2020-10-31 17:13:15  2.7   84   764 
 2020-10-31 17:08:10  2.7   84   764 
 2020-10-31 16:42:30  2.8   84   764 
 2020-10-31 16:37:26  2.7   84   764 
 2020-10-31 16:32:22  2.6   84   764 
 2020-10-31 16:17:00  2.7   83   764 
 2020-10-31 16:11:56  2.8   83   764 
 2020-10-31 16:06:52  2.8   84   764 
 2020-10-31 15:56:39  2.7   84   764 
 2020-10-31 15:51:35  2.6   84   764 
 2020-10-31 15:41:22  2.5   84   764 
 2020-10-31 15:36:18  2.6   84   764 
 2020-10-31 15:31:14  2.5   84   764 
 2020-10-31 15:26:10  2.5   83   764 
 2020-10-31 15:15:57  2.7   83   764 
 2020-10-31 15:10:53  2.7   83   764 
 2020-10-31 14:55:31  2.5   82   764 
 2020-10-31 14:40:09  2.3   82   764 
 2020-10-31 14:29:56  2.2   83   764 
 2020-10-31 14:14:36  2.0   82   764 
 2020-10-31 14:09:31  2.1   82   764 
 2020-10-31 14:04:25  2.1   81   764 
 2020-10-31 13:59:21  2.0   81   764 
 2020-10-31 13:54:17  2.1   80   764 
 2020-10-31 13:49:13  2.2   81   764 
 2020-10-31 13:44:09  2.1   82   764 
 2020-10-31 13:39:04  1.9   82   764 
 2020-10-31 13:33:57  1.8   82   764 
 2020-10-31 13:28:53  1.8   82   764 
 2020-10-31 13:23:49  1.7   82   764 
 2020-10-31 13:03:18  1.7   82   764 
 2020-10-31 12:53:05  1.6   82   764 
 2020-10-31 12:48:00  1.6   81   764 
 2020-10-31 12:42:56  1.6   81   764 
 2020-10-31 12:37:52  1.4   82   764 
 2020-10-31 12:32:48  1.2   82   764 
 2020-10-31 12:22:35  1.1   81   764 
 2020-10-31 12:02:04  1.1   82   763 
 2020-10-31 11:56:59  1.0   82   763 
 2020-10-31 11:51:55  0.8   82   763 
 2020-10-31 11:46:48  0.8   82   763 
 2020-10-31 11:36:31  0.6   83   763 
 2020-10-31 11:31:26  0.6   83   763 
 2020-10-31 11:16:04  0.5   83   763 
 2020-10-31 10:55:33  0.1   84   763 
 2020-10-31 10:50:29  0.1   83   763 
 2020-10-31 10:45:25  0.2   83   763 
 2020-10-31 10:40:20  0.1   84   763 
 2020-10-31 10:35:16  0.2   84   763 
 2020-10-31 10:30:10  0.0   85   763 
 2020-10-31 10:25:01  0.0   85   763 
 2020-10-31 10:19:57  0.1   85   763 
 2020-10-31 10:14:53  0.1   85   763 
 2020-10-31 10:09:46  0.0   85   763 
 2020-10-31 10:04:42  0.0   85   763 
 2020-10-31 09:59:36  -0.1   85   763 
 2020-10-31 09:54:32  0.0   85   763 
 2020-10-31 09:49:28  -0.1   85   763 
 2020-10-31 09:44:24  -0.1   85   763 
 2020-10-31 09:39:20  -0.2   85   763 
 2020-10-31 09:34:16  -0.3   85   763 
 2020-10-31 09:29:10  -0.3   86   763 
 2020-10-31 09:24:06  -0.4   85   763 
 2020-10-31 09:19:02  -0.4   85   763 
 2020-10-31 09:13:57  -0.4   85   763 
 2020-10-31 08:58:37  -0.3   86   763 
 2020-10-31 08:48:24  -0.6   86   763 
 2020-10-31 08:43:18  -0.7   86   763 
 2020-10-31 08:38:14  -0.8   86   763 
 2020-10-31 08:33:08  -0.9   86   763 
 2020-10-31 08:28:04  -0.8   86   763 
 2020-10-31 08:17:50  -0.9   87   763 
 2020-10-31 08:12:46  -0.8   87   763 
 2020-10-31 08:07:40  -0.9   86   762 
 2020-10-31 08:02:36  -0.8   86   762 
 2020-10-31 07:57:32  -0.8   86   762 
 2020-10-31 07:52:28  -0.9   87   762 
 2020-10-31 07:37:06  -0.8   87   762 
 2020-10-31 07:32:01  -0.9   88   762 
 2020-10-31 07:26:57  -0.9   87   762 
 2020-10-31 07:21:52  -0.9   88   762 
 2020-10-31 07:16:48  -0.9   87   762 
 2020-10-31 07:11:39  -0.8   87   762 
 2020-10-31 07:06:35  -0.9   87   762 
 2020-10-31 07:01:28  -1.1   87   762 
 2020-10-31 06:56:23  -0.9   87   762 
 2020-10-31 06:51:18  -0.9   87   762 
 2020-10-31 06:46:13  -1.0   87   762 
 2020-10-31 06:36:00  -1.1   87   762 
 2020-10-31 06:20:38  -1.0   87   762 
 2020-10-31 06:15:33  -1.0   87   762 
 2020-10-31 06:10:29  -0.9   87   762 
 2020-10-31 06:05:25  -0.9   87   762 
 2020-10-31 05:50:02  -0.9   88   761 
 2020-10-31 05:44:58  -1.0   88   761 
 2020-10-31 05:39:54  -0.9   88   761 
 2020-10-31 05:34:48  -0.9   88   761 
 2020-10-31 05:24:35  -1.0   88   761 
 2020-10-31 05:19:31  -1.1   88   761 
 2020-10-31 05:14:27  -0.9   88   761 
 2020-10-31 05:09:20  -1.0   88   761 
 2020-10-31 05:04:16  -1.1   87   761 
 2020-10-31 04:59:10  -1.0   87   761 
 2020-10-31 04:54:06  -1.1   87   761 
 2020-10-31 04:49:01  -1.1   87   761 
 2020-10-31 04:43:56  -1.0   87   761 
 2020-10-31 04:38:52  -0.9   87   761 
 2020-10-31 04:33:48  -0.9   87   761 
 2020-10-31 04:28:44  -0.9   86   761 
 2020-10-31 04:18:31  -0.9   87   761 
 2020-10-31 04:13:27  -0.9   87   761 
 2020-10-31 04:08:23  -0.9   86   761 
 2020-10-31 04:03:19  -0.8   86   761 
 2020-10-31 03:58:15  -0.8   86   761 
 2020-10-31 03:53:11  -0.8   87   761 
 2020-10-31 03:48:07  -0.9   87   761 
 2020-10-31 03:43:01  -0.9   87   761 
 2020-10-31 03:37:57  -0.9   87   761 
 2020-10-31 03:32:53  -1.0   87   761 
 2020-10-31 03:27:49  -0.9   87   761 
 2020-10-31 03:22:43  -0.8   88   761 
 2020-10-31 03:17:39  -0.8   88   761 
 2020-10-31 03:12:33  -0.8   88   761 
 2020-10-31 03:07:29  -0.9   88   761 
 2020-10-31 02:52:07  -0.9   88   761 
 2020-10-31 02:47:03  -1.0   88   761 
 2020-10-31 02:41:58  -0.9   88   761 
 2020-10-31 02:31:45  -0.9   89   760 
 2020-10-31 02:26:39  -1.0   89   760 
 2020-10-31 02:16:26  -1.0   89   760 
 2020-10-31 02:11:22  -0.9   89   760 
 2020-10-31 02:06:18  -0.9   89   760 
 2020-10-31 02:01:13  -1.1   90   760 
 2020-10-31 01:51:00  -1.1   90   760 
 2020-10-31 01:45:56  -1.0   90   760 
 2020-10-31 01:35:43  -1.0   90   760 
 2020-10-31 01:30:36  -1.0   90   760 
 2020-10-31 01:25:32  -1.0   90   760 
 2020-10-31 01:20:28  -0.9   90   760 
 2020-10-31 01:15:24  -0.9   90   760 
 2020-10-31 01:10:20  -0.9   89   760 
 2020-10-31 01:05:16  -0.9   90   760 
 2020-10-31 00:55:03  -0.9   90   760 
 2020-10-31 00:49:59  -0.9   90   760 
 2020-10-31 00:44:54  -0.9   90   760 
 2020-10-31 00:39:50  -1.1   89   760 
 2020-10-31 00:34:45  -1.0   90   760 
 2020-10-31 00:29:41  -1.0   89   760 
 2020-10-31 00:24:37  -0.9   89   760 
 2020-10-31 00:19:33  -0.9   89   760 
 2020-10-31 00:14:28  -0.8   89   760 
 2020-10-31 00:04:15  -0.8   90   760 
 2020-10-30 23:59:11  -0.8   89   760 
 2020-10-30 23:54:07  -0.8   90   760 
 2020-10-30 23:49:03  -0.8   90   760 
 2020-10-30 23:43:56  -0.9   90   760 
 2020-10-30 23:38:51  -0.8   89   759 
 2020-10-30 23:33:47  -0.8   89   759 
 2020-10-30 23:23:32  -0.7   89   759 
 2020-10-30 23:18:28  -0.7   88   759 
 2020-10-30 23:13:24  -0.5   88   759 
 2020-10-30 23:08:20  -0.5   88   759 
 2020-10-30 22:47:49  -0.5   88   759 
 2020-10-30 22:42:45  -0.6   87   759 
 2020-10-30 22:37:41  -0.6   87   759 
 2020-10-30 22:32:37  -0.6   87   759 
 2020-10-30 22:27:33  -0.6   87   759 
 2020-10-30 22:22:29  -0.5   87   759 
 2020-10-30 22:17:25  -0.5   87   759 
 2020-10-30 22:12:20  -0.5   87   759 
 2020-10-30 22:07:16  -0.5   87   759 
 2020-10-30 22:02:11  -0.5   87   759 
 2020-10-30 21:57:08  -0.5   87   759 
 2020-10-30 21:52:03  -0.6   87   759 
 2020-10-30 21:46:59  -0.6   87   759 
 2020-10-30 21:41:55  -0.6   87   759 
 2020-10-30 21:36:47  -0.8   87   759 
 2020-10-30 21:31:43  -0.7   87   759 
 2020-10-30 21:26:39  -0.8   87   759 
 2020-10-30 21:21:35  -0.7   86   759 
 2020-10-30 21:16:27  -0.6   86   759 
 2020-10-30 21:11:23  -0.6   86   759 
 2020-10-30 21:06:19  -0.5   86   759 
 2020-10-30 21:01:15  -0.5   85   758 
 2020-10-30 20:56:11  -0.5   85   758 
 2020-10-30 20:51:07  -0.5   85   758 
 2020-10-30 20:46:03  -0.4   84   758 
 2020-10-30 20:40:59  -0.5   85   758 
 2020-10-30 20:35:53  -0.5   85   758 
 2020-10-30 20:30:49  -0.4   85   758 
 2020-10-30 20:25:45  -0.4   86   758 
 2020-10-30 20:20:41  -0.3   85   758 
 2020-10-30 20:15:34  -0.3   86   758 
 2020-10-30 20:10:29  -0.3   85   758 
 2020-10-30 20:05:24  -0.3   86   758 
 2020-10-30 20:00:20  -0.4   86   758 
 2020-10-30 19:55:16  -0.2   85   758 
 2020-10-30 19:50:12  -0.3   85   758 
 2020-10-30 19:45:08  -0.3   85   758 
 2020-10-30 19:40:04  -0.3   85   758 
 2020-10-30 19:34:59  -0.4   85   758 
 2020-10-30 19:29:55  -0.2   85   758 
 2020-10-30 19:24:51  -0.2   85   758 
 2020-10-30 19:19:47  -0.2   84   758 
 2020-10-30 19:14:43  -0.1   83   758 
 2020-10-30 19:09:39  -0.1   83   757 
 2020-10-30 18:59:31  -0.1   82   757 
 2020-10-30 18:54:27  -0.1   82   757 
 2020-10-30 18:49:23  0.0   81   757 
 2020-10-30 18:44:19  -0.1   81   757 
 2020-10-30 18:39:15  -0.1   81   757 
 2020-10-30 18:34:11  0.1   81   757 
 2020-10-30 18:29:07  -0.1   81   757 
 2020-10-30 18:24:03  0.0   81   757 
 2020-10-30 18:18:56  0.0   81   757 
 2020-10-30 18:13:52  0.0   81   757 
 2020-10-30 18:08:48  0.1   81   757 
 2020-10-30 18:03:43  0.1   81   757 
 2020-10-30 17:58:39  0.1   80   757 
 2020-10-30 17:53:35  0.1   81   757 
 2020-10-30 17:48:31  0.1   81   757 
 2020-10-30 17:43:27  0.1   80   757 
 2020-10-30 17:38:23  0.1   81   756 
 2020-10-30 17:33:19  0.1   81   756 
 2020-10-30 17:23:10  0.2   81   756 
 2020-10-30 17:18:06  0.1   81   756 
 2020-10-30 17:13:02  0.2   81   756 
 2020-10-30 17:07:58  0.2   81   756 
 2020-10-30 17:02:53  0.2   80   756 
 2020-10-30 16:57:42  0.2   80   756 
 2020-10-30 16:52:38  0.2   79   756 
 2020-10-30 16:47:34  0.2   80   756 
 2020-10-30 16:42:30  0.2   80   756 
 2020-10-30 16:37:26  0.2   80   756 
 2020-10-30 16:32:22  0.2   80   756 
 2020-10-30 16:27:18  0.2   80   756 
 2020-10-30 16:22:14  0.3   79   755 
 2020-10-30 16:17:07  0.4   80   755 
 2020-10-30 16:12:03  0.4   80   755 
 2020-10-30 16:06:59  0.4   80   755 
 2020-10-30 16:01:55  0.5   79   755 
 2020-10-30 15:56:51  0.6   79   755 
 2020-10-30 15:51:47  0.6   78   755 
 2020-10-30 15:46:43  0.6   79   755 
 2020-10-30 15:41:39  0.6   79   755 
 2020-10-30 15:36:35  0.6   79   755 
 2020-10-30 15:31:31  0.6   79   755 
 2020-10-30 15:26:27  0.7   79   755 
 2020-10-30 15:21:23  0.6   80   755 
 2020-10-30 15:16:19  0.6   80   755 
 2020-10-30 15:11:15  0.6   79   755 
 2020-10-30 15:06:11  0.7   79   754 
 2020-10-30 15:01:07  0.7   79   754 
 2020-10-30 14:56:02  0.6   80   754 
 2020-10-30 14:50:58  0.7   80   754 
 2020-10-30 14:45:54  0.6   80   754 
 2020-10-30 14:40:50  0.6   80   754 
 2020-10-30 14:35:46  0.6   79   754 
 2020-10-30 14:30:42  0.6   80   754 
 2020-10-30 14:25:38  0.6   81   754 
 2020-10-30 14:20:34  0.7   81   754 
 2020-10-30 14:15:30  0.6   81   754 
 2020-10-30 14:10:26  0.6   82   754 
 2020-10-30 14:05:22  0.7   81   754 
 2020-10-30 14:00:18  0.6   80   754 
 2020-10-30 13:55:11  0.6   81   754 
 2020-10-30 13:50:07  0.5   81   754 
 2020-10-30 13:45:02  0.4   81   754 
 2020-10-30 13:39:54  0.4   81   754 
 2020-10-30 13:34:50  0.4   80   754 
 2020-10-30 13:24:39  0.6   80   754 
 2020-10-30 13:19:35  0.5   80   754 
 2020-10-30 13:14:31  0.5   80   754 
 2020-10-30 13:09:24  0.5   80   754 
 2020-10-30 13:04:17  0.7   79   754 
 2020-10-30 12:54:04  0.7   79   753 
 2020-10-30 12:49:00  0.7   80   753 
 2020-10-30 12:43:51  0.6   80   753 
 2020-10-30 12:38:44  0.6   80   753 
 2020-10-30 12:33:40  0.8   80   753 
 2020-10-30 12:28:36  0.6   80   753 
 2020-10-30 12:23:32  0.8   80   753 
 2020-10-30 12:18:28  0.6   82   753 
 2020-10-30 12:13:24  0.4   81   753 
 2020-10-30 12:08:17  0.3   81   753 
 2020-10-30 12:03:13  0.4   81   753 
 2020-10-30 11:58:05  0.4   82   753 
 2020-10-30 11:53:01  0.4   81   753 
 2020-10-30 11:47:57  0.4   82   753 
 2020-10-30 11:42:53  0.2   83   753 
 2020-10-30 11:37:49  0.0   83   753 
 2020-10-30 11:32:45  -0.1   83   753 
 2020-10-30 11:27:41  0.0   83   753 
 2020-10-30 11:22:34  -0.2   83   753 
 2020-10-30 11:17:29  -0.2   83   753 
 2020-10-30 11:12:25  -0.2   83   753 
 2020-10-30 11:07:19  -0.4   84   753 
 2020-10-30 11:02:11  -0.3   83   753 
 2020-10-30 10:57:05  -0.4   83   753 
 2020-10-30 10:52:01  -0.4   83   753 
 2020-10-30 10:46:57  -0.4   83   753 
 2020-10-30 10:41:53  -0.4   83   753 
 2020-10-30 10:36:49  -0.4   83   753 
 2020-10-30 10:31:45  -0.4   84   753 
 2020-10-30 10:26:41  -0.5   84   753 
 2020-10-30 10:21:37  -0.6   84   753 
 2020-10-30 10:16:33  -0.6   84   753 
 2020-10-30 10:11:29  -0.8   85   753 
 2020-10-30 10:06:25  -1.0   85   753 
 2020-10-30 10:01:21  -1.0   85   753 
 2020-10-30 09:56:17  -1.0   85   753 
 2020-10-30 09:51:12  -1.1   85   753 
 2020-10-30 09:46:08  -1.2   85   753 
 2020-10-30 09:41:04  -1.2   85   753 
 2020-10-30 09:36:00  -1.4   85   753 
 2020-10-30 09:30:56  -1.4   85   753 
 2020-10-30 09:25:52  -1.4   85   753 
 2020-10-30 09:20:48  -1.4   84   753 
 2020-10-30 09:15:44  -1.4   85   753 
 2020-10-30 09:10:40  -1.5   85   753 
 2020-10-30 09:05:35  -1.5   84   753 
 2020-10-30 09:00:31  -1.5   84   753 
 2020-10-30 08:55:27  -1.6   85   753 
 2020-10-30 08:50:23  -1.6   85   753 
 2020-10-30 08:45:19  -1.7   85   753 
 2020-10-30 08:40:15  -1.6   85   753 
 2020-10-30 08:35:11  -1.7   85   753 
 2020-10-30 08:30:07  -1.8   85   753 
 2020-10-30 08:25:03  -1.8   84   753 
 2020-10-30 08:19:59  -1.8   84   753 
 2020-10-30 08:14:54  -1.8   84   753 
 2020-10-30 08:09:50  -1.9   84   753 
 2020-10-30 08:04:46  -1.9   84   753 
 2020-10-30 07:59:42  -2.0   84   753 
 2020-10-30 07:54:38  -2.0   84   753 
 2020-10-30 07:49:34  -2.1   84   753 
 2020-10-30 07:44:30  -2.1   83   753 
 2020-10-30 07:39:23  -2.1   83   753 
 2020-10-30 07:34:19  -2.1   83   752 
 2020-10-30 07:29:15  -2.2   84   752 
 2020-10-30 07:24:11  -2.1   84   752 
 2020-10-30 07:19:07  -2.2   83   753 
 2020-10-30 07:14:03  -2.2   83   753 
 2020-10-30 07:08:59  -2.3   83   753 
 2020-10-30 07:03:55  -2.3   83   753 
 2020-10-30 06:58:51  -2.4   83   753 
 2020-10-30 06:53:47  -2.4   83   753 
 2020-10-30 06:48:43  -2.4   83   753 
 2020-10-30 06:43:36  -2.5   83   753 
 2020-10-30 06:38:32  -2.4   83   753 
 2020-10-30 06:33:25  -2.6   83   753 
 2020-10-30 06:28:21  -2.6   83   753 
 2020-10-30 06:23:17  -2.6   83   753 
 2020-10-30 06:18:13  -2.6   83   753 
 2020-10-30 06:13:08  -2.6   83   753 
 2020-10-30 06:08:04  -2.7   83   753 
 2020-10-30 06:03:00  -2.8   83   753 
 2020-10-30 05:57:56  -2.8   83   753 
 2020-10-30 05:52:52  -2.8   83   753 
 2020-10-30 05:47:48  -2.8   83   753 
 2020-10-30 05:42:44  -2.9   83   753 
 2020-10-30 05:37:40  -2.9   83   753 
 2020-10-30 05:32:36  -2.9   83   753 
 2020-10-30 05:27:32  -2.9   83   753 
 2020-10-30 05:22:28  -2.9   82   753 
 2020-10-30 05:17:24  -3.1   83   754 
 2020-10-30 05:12:20  -3.1   83   754 
 2020-10-30 05:07:16  -3.1   83   754 
 2020-10-30 05:02:12  -3.1   83   754 
 2020-10-30 04:57:08  -3.1   83   754 
 2020-10-30 04:52:04  -3.2   83   754 
 2020-10-30 04:47:00  -3.2   83   754 
 2020-10-30 04:41:56  -3.3   83   754 
 2020-10-30 04:36:52  -3.4   84   754 
 2020-10-30 04:31:48  -3.4   84   754 
 2020-10-30 04:26:44  -3.6   84   754 
 2020-10-30 04:21:40  -3.5   84   754 
 2020-10-30 04:16:36  -3.6   84   754 
 2020-10-30 04:11:32  -3.6   84   755 
 2020-10-30 04:06:28  -3.7   84   755 
 2020-10-30 04:01:24  -3.8   84   755 
 2020-10-30 03:56:20  -3.8   84   755 
 2020-10-30 03:51:16  -3.8   84   755 
 2020-10-30 03:46:12  -4.0   84   755 
 2020-10-30 03:41:07  -4.1   83   755 
 2020-10-30 03:36:03  -4.1   83   755 
 2020-10-30 03:30:59  -4.1   83   755 
 2020-10-30 03:25:55  -4.2   83   755 
 2020-10-30 03:20:51  -4.2   83   755 
 2020-10-30 03:15:47  -4.2   83   755 
 2020-10-30 03:10:43  -4.4   83   755 
 2020-10-30 03:05:39  -4.4   82   755 
 2020-10-30 03:00:35  -4.5   82   756 
 2020-10-30 02:55:31  -4.6   82   756 
 2020-10-30 02:50:27  -4.7   81   756 
 2020-10-30 02:45:23  -4.6   81   756 
 2020-10-30 02:40:19  -4.8   80   756 
 2020-10-30 02:35:15  -4.8   80   756 
 2020-10-30 02:30:11  -4.9   80   756 
 2020-10-30 02:25:07  -4.9   79   756 
 2020-10-30 02:14:54  -5.1   78   756 
 2020-10-30 02:09:50  -5.1   78   756 
 2020-10-30 02:04:46  -5.1   76   757 
 2020-10-30 01:59:42  -5.2   76   757 
 2020-10-30 01:54:38  -5.2   76   757 
 2020-10-30 01:49:34  -5.2   75   757 
 2020-10-30 01:44:30  -5.4   76   757 
 2020-10-30 01:39:26  -5.6   75   757 
 2020-10-30 01:34:22  -5.6   75   757 
 2020-10-30 01:29:18  -5.7   75   757 
 2020-10-30 01:24:13  -5.8   75   757 
 2020-10-30 01:19:09  -5.9   74   757 
 2020-10-30 01:14:05  -5.9   74   757 
 2020-10-30 01:09:01  -6.1   74   758 
 2020-10-30 01:03:57  -6.1   74   758 
 2020-10-30 00:58:53  -6.2   74   758 
 2020-10-30 00:53:49  -6.2   74   758 
 2020-10-30 00:48:45  -6.3   74   758 
 2020-10-30 00:43:41  -6.4   74   758 
 2020-10-30 00:38:37  -6.4   73   758 
 2020-10-30 00:33:33  -6.4   73   758 
 2020-10-30 00:28:29  -6.6   74   758 
 2020-10-30 00:23:25  -6.6   74   758 
 2020-10-30 00:18:21  -6.8   74   758 
 2020-10-30 00:13:17  -6.8   74   758 
 2020-10-30 00:08:13  -6.9   75   758 
 2020-10-30 00:03:06  -6.9   75   759 
 2020-10-29 23:58:02  -6.9   74   759 
 2020-10-29 23:52:58  -6.9   74   759 
 2020-10-29 23:47:53  -6.9   74   759 
 2020-10-29 23:42:49  -7.0   74   759 
 2020-10-29 23:37:45  -6.9   74   759 
 2020-10-29 23:32:41  -6.8   73   759 
 2020-10-29 23:27:37  -6.8   73   759 
 2020-10-29 23:22:33  -6.6   72   759 
 2020-10-29 23:12:25  -6.4   71   759 
 2020-10-29 23:07:21  -6.2   72   759 
 2020-10-29 23:02:17  -6.4   72   759 
 2020-10-29 22:57:13  -6.4   72   759 
 2020-10-29 22:52:09  -6.4   72   759 
 2020-10-29 22:47:05  -6.3   72   759 
 2020-10-29 22:36:52  -6.5   73   759 
 2020-10-29 22:31:48  -6.5   73   759 
 2020-10-29 22:26:44  -6.6   73   759 
 2020-10-29 22:21:40  -6.7   73   759 
 2020-10-29 22:16:35  -6.6   73   759 
 2020-10-29 22:11:31  -6.7   73   759 
 2020-10-29 22:06:27  -6.8   73   759 
 2020-10-29 22:01:23  -6.7   73   759 
 2020-10-29 21:56:18  -6.7   73   759 
 2020-10-29 21:51:14  -6.7   73   759 
 2020-10-29 21:46:10  -6.7   73   759 
 2020-10-29 21:41:06  -6.6   73   759 
 2020-10-29 21:30:58  -6.6   72   759 
 2020-10-29 21:25:52  -6.4   72   759 
 2020-10-29 21:20:48  -6.4   72   759 
 2020-10-29 21:15:44  -6.3   71   759 
 2020-10-29 21:10:40  -6.3   71   759 
 2020-10-29 21:05:36  -6.2   71   759 
 2020-10-29 21:00:32  -6.2   72   759 
 2020-10-29 20:55:28  -6.3   72   760 
 2020-10-29 20:50:24  -6.3   72   760 
 2020-10-29 20:45:20  -6.4   72   760 
 2020-10-29 20:40:16  -6.3   72   760 
 2020-10-29 20:35:11  -6.4   72   760 
 2020-10-29 20:30:07  -6.3   72   760 
 2020-10-29 20:25:03  -6.4   72   760 
 2020-10-29 20:19:59  -6.4   72   759 
 2020-10-29 20:14:55  -6.2   71   760 
 2020-10-29 20:09:51  -6.2   72   760 
 2020-10-29 20:04:46  -6.2   72   759 
 2020-10-29 19:59:42  -6.2   71   759 
 2020-10-29 19:54:38  -6.0   71   759 
 2020-10-29 19:49:34  -6.1   71   759 
 2020-10-29 19:44:30  -5.9   71   759 
 2020-10-29 19:39:26  -5.9   71   759 
 2020-10-29 19:34:22  -5.9   71   759 
 2020-10-29 19:29:18  -5.7   70   759 
 2020-10-29 19:24:14  -5.8   71   759 
 2020-10-29 19:19:10  -5.6   70   759 
 2020-10-29 19:08:57  -5.7   70   759 
 2020-10-29 19:03:53  -5.6   70   759 
 2020-10-29 18:58:47  -5.6   70   759 
 2020-10-29 18:53:43  -5.5   70   759 
 2020-10-29 18:48:39  -5.2   70   759 
 2020-10-29 18:43:35  -5.1   70   759 
 2020-10-29 18:38:31  -5.1   70   759 
 2020-10-29 18:33:27  -5.1   70   759 
 2020-10-29 18:28:23  -5.0   71   759 
 2020-10-29 18:23:19  -4.9   71   759 
 2020-10-29 18:18:15  -5.1   72   759 
 2020-10-29 18:13:11  -4.9   72   759 
 2020-10-29 18:08:07  -4.9   74   759 
 2020-10-29 18:03:03  -4.9   73   759 
 2020-10-29 17:57:59  -5.1   73   759 
 2020-10-29 17:52:55  -5.1   73   759 
 2020-10-29 17:47:51  -5.2   73   759 
 2020-10-29 17:42:47  -5.1   73   759 
 2020-10-29 17:37:43  -5.2   73   759 
 2020-10-29 17:32:39  -5.2   73   759 
 2020-10-29 17:27:35  -5.2   73   759 
 2020-10-29 17:22:31  -5.2   73   759 
 2020-10-29 17:17:27  -5.3   73   759 
 2020-10-29 17:12:22  -5.4   73   759 
 2020-10-29 17:07:18  -5.4   73   759 
 2020-10-29 17:02:14  -5.4   72   758 
 2020-10-29 16:57:10  -5.4   73   758 
 2020-10-29 16:52:06  -5.4   73   758 
 2020-10-29 16:47:02  -5.6   73   758 
 2020-10-29 16:41:58  -5.6   73   758 
 2020-10-29 16:36:54  -5.4   73   758 
 2020-10-29 16:31:50  -5.6   72   758 
 2020-10-29 16:26:46  -5.6   72   758 
 2020-10-29 16:21:42  -5.6   71   758 
 2020-10-29 16:16:38  -5.7   73   758 
 2020-10-29 16:11:34  -5.7   71   758 
 2020-10-29 16:06:30  -5.8   71   758 
 2020-10-29 16:01:26  -5.8   72   758 
 2020-10-29 15:56:22  -5.9   71   758 
 2020-10-29 15:51:18  -5.7   71   758 
 2020-10-29 15:46:14  -5.8   71   758 
 2020-10-29 15:41:10  -5.8   71   758 
 2020-10-29 15:36:06  -5.7   71   758 
 2020-10-29 15:31:02  -5.6   72   758 
 2020-10-29 15:25:58  -5.6   73   758 
 2020-10-29 15:20:54  -5.8   72   758 
 2020-10-29 15:15:50  -5.8   72   758 
 2020-10-29 15:10:46  -5.6   72   758 
 2020-10-29 15:05:41  -5.6   72   758 
 2020-10-29 15:00:37  -5.6   73   758 
 2020-10-29 14:55:33  -5.4   72   758 
 2020-10-29 14:50:29  -5.4   72   758 
 2020-10-29 14:45:25  -5.4   72   758 
 2020-10-29 14:40:20  -5.4   72   758 
 2020-10-29 14:35:16  -5.2   73   757 
 2020-10-29 14:30:12  -5.1   72   757 
 2020-10-29 14:19:59  -5.2   72   757 
 2020-10-29 14:14:55  -5.2   72   757 
 2020-10-29 14:09:51  -4.9   72   757 
 2020-10-29 14:04:47  -4.9   73   757 
 2020-10-29 13:59:43  -4.9   73   757 
 2020-10-29 13:54:39  -4.9   73   757 
 2020-10-29 13:49:35  -4.9   72   757 
 2020-10-29 13:44:31  -4.9   73   757 
 2020-10-29 13:39:26  -4.9   74   757 
 2020-10-29 13:34:22  -4.8   73   757 
 2020-10-29 13:29:18  -4.9   73   757 
 2020-10-29 13:24:14  -4.7   74   757 
 2020-10-29 13:19:10  -4.7   75   757 
 2020-10-29 13:14:06  -4.6   75   757 
 2020-10-29 13:03:52  -4.6   75   757 
 2020-10-29 12:58:48  -4.6   75   757 
 2020-10-29 12:53:44  -4.6   75   757 
 2020-10-29 12:48:40  -4.7   76   756 
 2020-10-29 12:43:36  -4.6   75   756 
 2020-10-29 12:38:32  -4.5   76   756 
 2020-10-29 12:33:28  -4.5   76   756 
 2020-10-29 12:28:24  -4.4   75   756 
 2020-10-29 12:23:20  -4.3   76   756 
 2020-10-29 12:18:16  -4.5   77   756 
 2020-10-29 12:13:12  -4.5   77   756 
 2020-10-29 12:08:08  -4.4   76   756 
 2020-10-29 12:03:04  -4.4   77   756 
 2020-10-29 11:58:00  -4.4   78   756 
 2020-10-29 11:52:56  -4.1   78   756 
 2020-10-29 11:47:52  -4.1   77   756 
 2020-10-29 11:42:48  -3.9   77   756 
 2020-10-29 11:37:44  -3.9   78   756 
 2020-10-29 11:32:40  -4.0   79   756 
 2020-10-29 11:27:36  -4.0   81   756 
 2020-10-29 11:22:32  -4.2   82   756 
 2020-10-29 11:17:28  -4.2   81   756 
 2020-10-29 11:12:21  -4.1   80   755 
 2020-10-29 11:07:17  -4.2   79   755 
 2020-10-29 11:02:13  -4.3   79   755 
 2020-10-29 10:57:09  -4.4   78   755 
 2020-10-29 10:52:05  -4.5   78   755 
 2020-10-29 10:47:01  -4.5   78   755 
 2020-10-29 10:41:57  -4.4   78   755 
 2020-10-29 10:36:53  -4.5   77   755 
 2020-10-29 10:31:49  -4.7   77   755 
 2020-10-29 10:26:45  -4.9   77   755 
 2020-10-29 10:21:41  -4.7   77   755 
 2020-10-29 10:16:37  -4.8   78   755 
 2020-10-29 10:11:33  -4.9   78   755 
 2020-10-29 10:06:29  -5.2   78   755 
 2020-10-29 09:56:13  -5.4   77   755 
 2020-10-29 09:51:09  -5.4   77   755 
 2020-10-29 09:46:05  -5.6   77   755 
 2020-10-29 09:41:01  -5.6   76   755 
 2020-10-29 09:35:57  -5.6   76   755 
 2020-10-29 09:30:53  -5.7   77   755 
 2020-10-29 09:25:49  -5.6   76   755 
 2020-10-29 09:20:44  -5.6   76   755 
 2020-10-29 09:15:40  -5.6   77   755 
 2020-10-29 09:10:36  -5.6   77   755 
 2020-10-29 09:00:20  -5.8   76   755 
 2020-10-29 08:55:16  -5.8   75   755 
 2020-10-29 08:50:12  -5.7   78   755 
 2020-10-29 08:45:08  -5.7   78   755 
 2020-10-29 08:34:55  -5.6   80   755 
 2020-10-29 08:29:51  -5.4   77   754 
 2020-10-29 02:12:51  -3.8   74   751 
 2020-10-29 02:02:38  -3.8   72   751 
 2020-10-29 01:57:34  -3.8   74   751 
 2020-10-29 01:52:30  -3.8   72   751 
 2020-10-29 01:42:16  -3.8   74   751 
 2020-10-29 01:37:12  -3.8   73   751 
 2020-10-29 01:32:08  -3.8   74   751 
 2020-10-29 01:27:03  -3.8   73   751 
 2020-10-29 01:21:59  -3.8   73   751 
 2020-10-29 01:16:53  -3.8   73   751 
 2020-10-29 01:11:49  -3.8   73   751 
 2020-10-29 01:01:36  -3.8   73   751 
 2020-10-29 00:56:31  -3.8   72   751 
 2020-10-29 00:51:27  -3.9   72   751 
 2020-10-29 00:46:23  -4.0   71   751 
 2020-10-29 00:41:18  -4.1   71   751 
 2020-10-29 00:36:14  -4.2   72   751 
 2020-10-29 00:31:10  -4.1   70   751 
 2020-10-29 00:26:04  -4.1   69   750 
 2020-10-29 00:21:00  -4.1   69   751 
 2020-10-29 00:10:47  -4.2   68   750 
 2020-10-29 00:05:41  -4.2   68   750 
 2020-10-28 23:55:28  -3.9   68   750 
 2020-10-28 23:40:06  -3.6   67   750 
 2020-10-28 23:34:59  -3.4   69   750 
 2020-10-28 23:29:54  -3.2   69   750 
 2020-10-28 23:24:48  -3.0   71   750 
 2020-10-28 23:19:44  -2.9   72   750 
 2020-10-28 23:14:40  -2.8   72   750 
 2020-10-28 23:09:36  -2.8   71   750 
 2020-10-28 23:04:32  -2.7   71   750 
 2020-10-28 22:59:28  -2.8   71   750 
 2020-10-28 22:54:24  -2.6   70   750 
 2020-10-28 22:49:20  -2.6   71   750 
 2020-10-28 22:44:16  -2.8   72   749 
 2020-10-28 22:39:12  -2.6   72   749 
 2020-10-28 22:34:08  -2.6   72   749 
 2020-10-28 22:29:04  -2.5   72   749 
 2020-10-28 22:23:59  -2.4   71   749 
 2020-10-28 22:18:55  -2.4   70   749 
 2020-10-28 22:08:42  -2.2   71   749 
 2020-10-28 22:03:38  -2.1   74   749 
 2020-10-28 21:58:30  -2.1   76   749 
 2020-10-28 21:53:26  -2.2   76   749 
 2020-10-28 21:48:22  -2.2   76   749 
 2020-10-28 21:43:18  -2.1   75   749 
 2020-10-28 21:38:14  -2.0   76   749 
 2020-10-28 21:33:00  -1.9   75   749 
 2020-10-28 21:27:56  -1.6   76   749 
 2020-10-28 21:22:52  -1.6   76   748 
 2020-10-28 21:17:48  -1.5   77   748 
 2020-10-28 21:12:44  -1.6   78   748 
 2020-10-28 21:07:40  -1.6   78   748 
 2020-10-28 21:02:36  -1.5   79   748 
 2020-10-28 20:57:32  -1.5   79   748 
 2020-10-28 20:52:28  -1.4   77   748 
 2020-10-28 20:47:24  -1.1   78   748 
 2020-10-28 20:42:20  -1.1   79   748 
 2020-10-28 20:37:16  -1.0   80   748 
 2020-10-28 20:32:12  -0.8   79   748 
 2020-10-28 20:27:08  -0.8   79   748 
 2020-10-28 20:22:04  -0.7   77   748 
 2020-10-28 20:16:57  -0.7   77   748 
 2020-10-28 20:11:53  -0.5   77   747 
 2020-10-28 20:06:49  -0.5   77   747 
 2020-10-28 20:01:44  -0.4   78   747 
 2020-10-28 19:56:40  -0.2   79   747 
 2020-10-28 19:51:35  -0.1   79   747 
 2020-10-28 19:46:31  -0.1   78   747 
 2020-10-28 19:41:27  -0.1   77   747 
 2020-10-28 19:36:23  0.0   78   747 
 2020-10-28 19:31:19  -0.1   79   747 
 2020-10-28 19:26:15  0.1   77   747 
 2020-10-28 19:21:11  0.2   80   747 
 2020-10-28 19:16:07  0.3   79   747 
 2020-10-28 16:34:31  2.2   85   743 
 2020-10-28 16:29:26  2.2   86   743 
 2020-10-28 16:24:22  2.2   85   743 
 2020-10-28 16:19:16  2.1   85   743 
 2020-10-28 16:14:12  1.9   85   743 
 2020-10-28 16:09:08  1.9   84   743 
 2020-10-28 16:04:04  1.9   84   743 
 2020-10-28 15:59:00  1.9   83   743 
 2020-10-28 15:53:56  1.9   83   742 
 2020-10-28 15:48:52  2.1   83   743 
 2020-10-28 15:43:48  2.0   83   742 
 2020-10-28 15:38:44  2.1   82   742 
 2020-10-28 15:33:40  2.1   82   742 
 2020-10-28 15:28:36  2.2   81   742 
 2020-10-28 15:23:32  2.1   81   742 
 2020-10-28 15:18:28  2.1   81   742 
 2020-10-28 15:13:24  2.1   80   742 
 2020-10-28 15:08:20  2.1   80   742 
 2020-10-28 15:03:16  2.2   80   742 
 2020-10-28 14:58:12  2.2   80   742 
 2020-10-28 14:53:08  2.2   79   742 
 2020-10-28 14:48:04  2.3   78   742 
 2020-10-28 14:43:00  2.3   78   742 
 2020-10-28 14:37:56  2.3   77   742 
 2020-10-28 14:32:52  2.4   75   742 
 2020-10-28 14:27:48  2.6   75   742 
 2020-10-28 14:22:44  2.5   75   742 
 2020-10-28 14:17:40  2.6   74   742 
 2020-10-28 14:12:36  2.9   71   742 
 2020-10-28 14:07:32  3.1   69   742 
 2020-10-28 14:02:28  3.2   68   742 
 2020-10-28 13:57:24  3.5   65   742 
 2020-10-28 13:52:20  3.5   66   742 
 2020-10-28 13:47:16  3.6   65   742 
 2020-10-28 13:42:12  3.8   63   742 
 2020-10-28 13:37:08  3.9   63   742 
 2020-10-28 13:32:03  4.0   62   742 
 2020-10-28 13:27:00  4.1   60   742 
 2020-10-28 13:21:56  4.1   60   742 
 2020-10-28 13:16:51  4.1   59   742 
 2020-10-28 13:11:47  4.2   59   742 
 2020-10-28 13:06:43  4.2   60   742 
 2020-10-28 13:01:39  4.2   59   742 
 2020-10-28 12:56:35  4.3   61   742 
 2020-10-28 12:51:31  4.4   60   742 
 2020-10-28 12:46:27  4.4   60   742 
 2020-10-28 12:41:23  4.4   60   742 
 2020-10-28 12:36:19  4.6   62   742 
 2020-10-28 12:31:15  4.4   64   742 
 2020-10-28 12:26:11  4.4   64   742 
 2020-10-28 12:21:07  4.4   66   742 
 2020-10-28 12:16:03  4.2   68   742 
 2020-10-28 12:10:59  4.2   68   742 
 2020-10-28 12:05:55  4.3   70   741 
 2020-10-28 12:00:51  4.2   71   742 
 2020-10-28 11:55:47  4.3   71   742 
 2020-10-28 11:50:43  4.4   72   741 
 2020-10-28 11:45:39  4.6   72   741 
 2020-10-28 11:40:35  4.5   72   741 
 2020-10-28 11:35:31  4.8   67   741 
 2020-10-28 11:30:27  4.9   67   741 
 2020-10-28 11:25:23  4.9   66   741 
 2020-10-28 11:20:19  4.8   67   741 
 2020-10-28 11:15:15  4.7   69   741 
 2020-10-28 11:10:11  4.9   73   741 
 2020-10-28 11:05:07  5.0   73   741 
 2020-10-28 11:00:03  5.6   68   741 
 2020-10-28 10:54:59  5.7   66   741 
 2020-10-28 10:49:55  5.8   65   741 
 2020-10-28 10:44:51  5.7   67   741 
 2020-10-28 10:39:47  5.6   67   741 
 2020-10-28 10:34:43  5.8   67   741 
 2020-10-28 10:29:39  5.8   67   741 
 2020-10-28 10:24:35  5.8   69   741 
 2020-10-28 10:19:31  5.8   69   741 
 2020-10-28 10:14:23  5.9   69   741 
 2020-10-28 10:09:19  5.9   69   740 
 2020-10-28 10:04:15  6.0   70   740 
 2020-10-28 09:59:11  6.1   69   740 
 2020-10-28 09:54:07  6.2   69   740 
 2020-10-28 09:49:03  6.2   69   740 
 2020-10-28 09:43:59  6.2   68   740 
 2020-10-28 09:38:55  6.4   68   740 
 2020-10-28 09:33:51  6.4   69   740 
 2020-10-28 09:28:47  6.4   70   740 
 2020-10-28 09:23:43  6.7   68   740 
 2020-10-28 09:18:39  6.8   67   740 
 2020-10-28 09:13:35  6.8   67   740 
 2020-10-28 09:08:31  6.8   67   740 
 2020-10-28 09:03:27  6.8   67   740 
 2020-10-28 08:58:21  6.7   67   739 
 2020-10-28 08:53:17  6.6   67   739 
 2020-10-28 08:48:13  6.5   67   739 
 2020-10-28 08:43:08  6.6   67   739 
 2020-10-28 08:38:04  6.6   67   739 
 2020-10-28 08:33:00  6.6   67   739 
 2020-10-28 08:27:56  6.6   68   739 
 2020-10-28 08:22:52  6.5   68   739 
 2020-10-28 08:17:48  6.4   70   739 
 2020-10-28 08:12:44  6.2   71   739 
 2020-10-28 08:07:40  6.4   71   739 
 2020-10-28 08:02:36  6.4   71   739 
 2020-10-28 07:57:32  6.5   71   739 
 2020-10-28 07:52:28  6.5   71   739 
 2020-10-28 07:47:24  6.4   72   739 
 2020-10-28 07:42:20  6.2   72   739 
 2020-10-28 07:37:16  6.0   73   739 
 2020-10-28 07:32:12  5.9   74   739 
 2020-10-28 07:27:08  5.6   75   739 
 2020-10-28 07:22:04  5.3   77   739 
 2020-10-28 07:17:00  5.1   78   739 
 2020-10-28 07:11:56  5.1   78   739 
 2020-10-28 07:06:52  5.1   79   739 
 2020-10-28 07:01:48  5.0   79   739 
 2020-10-28 06:56:44  4.8   80   739 
 2020-10-28 06:51:40  4.6   81   739 
 2020-10-28 06:46:36  4.4   81   739 
 2020-10-28 06:41:32  4.3   81   739 
 2020-10-28 06:36:28  4.2   80   739 
 2020-10-28 06:31:24  4.2   80   739 
 2020-10-28 06:26:20  4.2   80   739 
 2020-10-28 06:21:15  4.2   80   739 
 2020-10-28 06:16:11  4.4   80   739 
 2020-10-28 06:11:07  4.4   80   739 
 2020-10-28 06:06:03  4.4   81   739 
 2020-10-28 06:00:59  4.3   81   739 
 2020-10-28 05:55:55  4.3   81   739 
 2020-10-28 05:50:51  4.4   81   739 
 2020-10-28 05:45:47  4.5   81   739 
 2020-10-28 05:40:43  4.5   81   739 
 2020-10-28 05:35:39  4.6   81   739 
 2020-10-28 05:30:35  4.7   82   739 
 2020-10-28 05:25:31  4.5   83   739 
 2020-10-28 05:20:27  4.5   83   739 
 2020-10-28 05:15:23  4.4   83   739 
 2020-10-28 05:10:19  4.6   83   739 
 2020-10-28 05:05:15  4.4   84   739 
 2020-10-28 05:00:11  4.4   84   739 
 2020-10-28 04:55:06  4.4   85   740 
 2020-10-28 04:50:02  4.4   85   739 
 2020-10-28 04:44:58  4.3   85   740 
 2020-10-28 04:39:54  4.3   85   740 
 2020-10-28 04:34:50  4.2   86   740 
 2020-10-28 04:29:46  4.2   86   740 
 2020-10-28 04:24:42  4.2   86   740 
 2020-10-28 04:19:38  4.2   86   740 
 2020-10-28 04:14:34  4.2   86   740 
 2020-10-28 04:09:30  4.7   85   740 
 2020-10-28 04:04:26  4.6   86   740 
 2020-10-28 03:59:22  4.6   85   741 
 2020-10-28 03:54:18  4.8   84   741 
 2020-10-28 03:49:14  4.9   83   741 
 2020-10-28 03:44:10  4.9   83   741 
 2020-10-28 03:39:06  4.9   83   741 
 2020-10-28 03:34:02  4.9   83   741 
 2020-10-28 03:28:58  4.8   83   741 
 2020-10-28 03:23:54  4.8   84   740 
 2020-10-28 03:18:50  4.7   85   740 
 2020-10-28 03:13:46  4.6   85   740 
 2020-10-28 03:08:42  4.6   85   740 
 2020-10-28 03:03:38  4.6   86   740 
 2020-10-28 02:58:34  4.6   86   741 
 2020-10-28 02:53:30  4.5   86   741 
 2020-10-28 02:48:26  4.5   86   741 
 2020-10-28 02:43:22  4.5   86   741 
 2020-10-28 02:38:18  4.4   87   741 
 2020-10-28 02:33:14  4.4   87   741 
 2020-10-28 02:28:10  4.4   87   741 
 2020-10-28 02:23:06  4.4   86   741 
 2020-10-28 02:18:02  4.6   86   742 
 2020-10-28 02:12:58  4.7   85   742 
 2020-10-28 02:07:54  4.7   85   742 
 2020-10-28 02:02:50  4.6   85   742 
 2020-10-28 01:57:46  4.6   85   742 
 2020-10-28 01:52:42  4.7   84   742 
 2020-10-28 01:47:38  5.0   82   742 
 2020-10-28 01:42:34  5.1   81   743 
 2020-10-28 01:37:30  5.1   81   743 
 2020-10-28 01:32:26  5.0   82   743 
 2020-10-28 01:27:22  4.9   82   743 
 2020-10-28 01:22:18  5.0   81   743 
 2020-10-28 01:17:14  4.9   81   743 
 2020-10-28 01:12:10  4.9   82   743 
 2020-10-28 01:07:05  4.9   81   743 
 2020-10-28 01:02:01  4.9   80   743 
 2020-10-28 00:56:57  4.9   80   743 
 2020-10-28 00:51:53  4.9   80   743 
 2020-10-28 00:46:49  5.1   80   743 
 2020-10-28 00:41:45  5.2   80   743 
 2020-10-28 00:36:41  5.2   80   743 
 2020-10-28 00:31:37  5.2   80   743 
 2020-10-28 00:26:33  5.3   80   743 
 2020-10-28 00:21:29  5.2   79   743 
 2020-10-28 00:16:25  5.2   80   743 
 2020-10-28 00:11:21  5.3   80   743 
 2020-10-28 00:06:17  5.4   80   744 
 2020-10-28 00:01:13  5.4   79   744 
 2020-10-27 23:56:09  5.5   80   744 
 2020-10-27 23:51:05  5.5   78   744 
 2020-10-27 23:46:01  5.5   78   744 
 2020-10-27 23:40:57  5.6   78   744 
 2020-10-27 23:35:53  5.5   78   744 
 2020-10-27 23:30:49  5.4   78   744 
 2020-10-27 23:25:45  5.5   79   744 
 2020-10-27 23:20:40  5.4   79   744 
 2020-10-27 23:15:36  5.4   77   744